<?xml version='1.0' encoding='UTF-8'?><gpx version="1.1" creator="JPX - https://github.com/jenetics/jpx" xmlns="http://www.topografix.com/GPX/1/1"><trk><trkseg><trkpt lat="44.47977054328292" lon="7.872905778862229"><ele>363.0</ele><time>2026-03-25T17:20:55.817Z</time></trkpt><trkpt lat="44.48018252393457" lon="7.8726871993795715"><ele>363.0</ele><time>2026-03-25T17:20:58.624Z</time></trkpt><trkpt lat="44.48029002644539" lon="7.872592583306015"><ele>363.0</ele><time>2026-03-25T17:21:05.999Z</time></trkpt><trkpt lat="44.480320620391964" lon="7.87251463160652"><ele>363.0</ele><time>2026-03-25T17:21:07.999Z</time></trkpt><trkpt lat="44.480422795791625" lon="7.872465010739744"><ele>363.0</ele><time>2026-03-25T17:21:09.999Z</time></trkpt><trkpt lat="44.48054245467582" lon="7.87240703334494"><ele>363.0</ele><time>2026-03-25T17:21:11.999Z</time></trkpt><trkpt lat="44.480607665743285" lon="7.872367129285794"><ele>363.0</ele><time>2026-03-25T17:21:12.999Z</time></trkpt><trkpt lat="44.48068729920086" lon="7.872322252199963"><ele>363.0</ele><time>2026-03-25T17:21:13.999Z</time></trkpt><trkpt lat="44.48079067603354" lon="7.872252766027806"><ele>363.0</ele><time>2026-03-25T17:21:15.999Z</time></trkpt><trkpt lat="44.480848839124754" lon="7.872116120891157"><ele>363.0</ele><time>2026-03-25T17:21:17.999Z</time></trkpt><trkpt lat="44.48083706560371" lon="7.872019164703307"><ele>363.0</ele><time>2026-03-25T17:21:18.999Z</time></trkpt><trkpt lat="44.480774807179785" lon="7.871932975543312"><ele>363.0</ele><time>2026-03-25T17:21:19.999Z</time></trkpt><trkpt lat="44.48074334006506" lon="7.871848886728343"><ele>363.0</ele><time>2026-03-25T17:21:20.999Z</time></trkpt><trkpt lat="44.48070602969197" lon="7.871741250785845"><ele>363.0</ele><time>2026-03-25T17:21:22Z</time></trkpt><trkpt lat="44.48064830932255" lon="7.8715849402320455"><ele>363.0</ele><time>2026-03-25T17:21:23Z</time></trkpt><trkpt lat="44.48059017646193" lon="7.871463101549686"><ele>363.0</ele><time>2026-03-25T17:21:24Z</time></trkpt><trkpt lat="44.480529034356195" lon="7.871353441870396"><ele>363.0</ele><time>2026-03-25T17:21:25Z</time></trkpt><trkpt lat="44.480449453923356" lon="7.87122083090242"><ele>363.0</ele><time>2026-03-25T17:21:26Z</time></trkpt><trkpt lat="44.48036007076858" lon="7.8711087737916445"><ele>363.0</ele><time>2026-03-25T17:21:27Z</time></trkpt><trkpt lat="44.48026004515167" lon="7.870992630890981"><ele>363.0</ele><time>2026-03-25T17:21:28Z</time></trkpt><trkpt lat="44.48015366577755" lon="7.870895209992811"><ele>363.0</ele><time>2026-03-25T17:21:29Z</time></trkpt><trkpt lat="44.480054992213574" lon="7.870794842241722"><ele>363.0</ele><time>2026-03-25T17:21:30Z</time></trkpt><trkpt lat="44.47997717314942" lon="7.870712692573101"><ele>363.0</ele><time>2026-03-25T17:21:31Z</time></trkpt><trkpt lat="44.47987923642308" lon="7.870606433453525"><ele>363.0</ele><time>2026-03-25T17:21:32Z</time></trkpt><trkpt lat="44.47980623908746" lon="7.870525401160301"><ele>363.0</ele><time>2026-03-25T17:21:33Z</time></trkpt><trkpt lat="44.47971911344094" lon="7.870440623969385"><ele>363.0</ele><time>2026-03-25T17:21:34Z</time></trkpt><trkpt lat="44.47962869034218" lon="7.870363447288936"><ele>363.0</ele><time>2026-03-25T17:21:35Z</time></trkpt><trkpt lat="44.479529920148316" lon="7.870280189684058"><ele>363.0</ele><time>2026-03-25T17:21:36Z</time></trkpt><trkpt lat="44.47944218423661" lon="7.870192504354521"><ele>363.0</ele><time>2026-03-25T17:21:37Z</time></trkpt><trkpt lat="44.47935805492915" lon="7.870105358467331"><ele>363.0</ele><time>2026-03-25T17:21:38Z</time></trkpt><trkpt lat="44.479289219844624" lon="7.870040481521619"><ele>363.0</ele><time>2026-03-25T17:21:39Z</time></trkpt><trkpt lat="44.4792202155336" lon="7.869966490651314"><ele>363.0</ele><time>2026-03-25T17:21:40Z</time></trkpt><trkpt lat="44.47913545910445" lon="7.869874032570931"><ele>363.0</ele><time>2026-03-25T17:21:42Z</time></trkpt><trkpt lat="44.47908428590901" lon="7.8698057495709035"><ele>363.0</ele><time>2026-03-25T17:21:44.999Z</time></trkpt><trkpt lat="44.479176588138515" lon="7.86967720388519"><ele>363.0</ele><time>2026-03-25T17:21:56.999Z</time></trkpt><trkpt lat="44.47924896385829" lon="7.869527040023311"><ele>363.0</ele><time>2026-03-25T17:21:58.999Z</time></trkpt><trkpt lat="44.47929618601525" lon="7.8694290644811735"><ele>363.0</ele><time>2026-03-25T17:21:59.999Z</time></trkpt><trkpt lat="44.4793351342861" lon="7.869348255348248"><ele>363.0</ele><time>2026-03-25T17:22:00.999Z</time></trkpt><trkpt lat="44.47937744024969" lon="7.869259100176385"><ele>363.0</ele><time>2026-03-25T17:22:01.999Z</time></trkpt><trkpt lat="44.4794400917553" lon="7.869125398209239"><ele>363.0</ele><time>2026-03-25T17:22:03.999Z</time></trkpt><trkpt lat="44.479461236627465" lon="7.869038739244315"><ele>363.0</ele><time>2026-03-25T17:22:04.999Z</time></trkpt><trkpt lat="44.47951230252262" lon="7.868971315564752"><ele>363.0</ele><time>2026-03-25T17:22:05.999Z</time></trkpt><trkpt lat="44.47954698816468" lon="7.868880623827441"><ele>363.0</ele><time>2026-03-25T17:22:06.999Z</time></trkpt><trkpt lat="44.47958297434667" lon="7.86879820985143"><ele>363.0</ele><time>2026-03-25T17:22:07.999Z</time></trkpt><trkpt lat="44.47962358883297" lon="7.868718478958083"><ele>363.0</ele><time>2026-03-25T17:22:08.999Z</time></trkpt><trkpt lat="44.47970374727918" lon="7.868610961705097"><ele>363.0</ele><time>2026-03-25T17:22:10.999Z</time></trkpt><trkpt lat="44.47980423400221" lon="7.868534130346045"><ele>363.0</ele><time>2026-03-25T17:22:12.999Z</time></trkpt><trkpt lat="44.47987843356757" lon="7.868412148992239"><ele>362.79999999999995</ele><time>2026-03-25T17:22:14.999Z</time></trkpt><trkpt lat="44.47985653209192" lon="7.868275567247003"><ele>362.6</ele><time>2026-03-25T17:22:16.999Z</time></trkpt><trkpt lat="44.47978999738442" lon="7.868220853008698"><ele>362.4</ele><time>2026-03-25T17:22:17.999Z</time></trkpt><trkpt lat="44.47970251891268" lon="7.868179954391946"><ele>362.20000000000005</ele><time>2026-03-25T17:22:18.999Z</time></trkpt><trkpt lat="44.479606578494604" lon="7.868149734406031"><ele>362.0</ele><time>2026-03-25T17:22:19.999Z</time></trkpt><trkpt lat="44.479514418433716" lon="7.868095532275789"><ele>362.0</ele><time>2026-03-25T17:22:20.999Z</time></trkpt><trkpt lat="44.47944331471939" lon="7.8679170105720475"><ele>362.0</ele><time>2026-03-25T17:22:21.999Z</time></trkpt><trkpt lat="44.47935148368898" lon="7.867836257021983"><ele>362.0</ele><time>2026-03-25T17:22:22.999Z</time></trkpt><trkpt lat="44.4792585455062" lon="7.867718900599093"><ele>362.0</ele><time>2026-03-25T17:22:23.999Z</time></trkpt><trkpt lat="44.47918231698059" lon="7.867603289106816"><ele>362.20000000000005</ele><time>2026-03-25T17:22:24.999Z</time></trkpt><trkpt lat="44.479105780824774" lon="7.867509846637289"><ele>362.4</ele><time>2026-03-25T17:22:25.999Z</time></trkpt><trkpt lat="44.479029591242664" lon="7.867413823422842"><ele>362.6</ele><time>2026-03-25T17:22:26.999Z</time></trkpt><trkpt lat="44.478957400547436" lon="7.867316234648427"><ele>362.79999999999995</ele><time>2026-03-25T17:22:27.999Z</time></trkpt><trkpt lat="44.47887826894448" lon="7.8672206650086105"><ele>363.0</ele><time>2026-03-25T17:22:28.999Z</time></trkpt><trkpt lat="44.47880476060362" lon="7.8671282682312205"><ele>362.79999999999995</ele><time>2026-03-25T17:22:29.999Z</time></trkpt><trkpt lat="44.478737430102036" lon="7.867038934341658"><ele>362.6</ele><time>2026-03-25T17:22:30.999Z</time></trkpt><trkpt lat="44.478664090773776" lon="7.866953208393015"><ele>362.4</ele><time>2026-03-25T17:22:31.999Z</time></trkpt><trkpt lat="44.47859214089746" lon="7.866862221112071"><ele>362.20000000000005</ele><time>2026-03-25T17:22:32.999Z</time></trkpt><trkpt lat="44.47851714370944" lon="7.866755180095375"><ele>362.0</ele><time>2026-03-25T17:22:33.999Z</time></trkpt><trkpt lat="44.4784441395339" lon="7.86667039982606"><ele>362.0</ele><time>2026-03-25T17:22:34.999Z</time></trkpt><trkpt lat="44.47838058884799" lon="7.866591772669444"><ele>362.0</ele><time>2026-03-25T17:22:35.999Z</time></trkpt><trkpt lat="44.478304665305075" lon="7.866511014698078"><ele>362.0</ele><time>2026-03-25T17:22:36.999Z</time></trkpt><trkpt lat="44.47824125299693" lon="7.866432081924188"><ele>362.0</ele><time>2026-03-25T17:22:37.999Z</time></trkpt><trkpt lat="44.478175419154816" lon="7.866339458804128"><ele>362.0</ele><time>2026-03-25T17:22:38.999Z</time></trkpt><trkpt lat="44.478102876631446" lon="7.866264589392283"><ele>362.0</ele><time>2026-03-25T17:22:39.999Z</time></trkpt><trkpt lat="44.478040482408176" lon="7.866186118344642"><ele>362.0</ele><time>2026-03-25T17:22:40.999Z</time></trkpt><trkpt lat="44.47796775354516" lon="7.866088443845109"><ele>362.0</ele><time>2026-03-25T17:22:41.999Z</time></trkpt><trkpt lat="44.4779063279075" lon="7.8660028541801275"><ele>362.0</ele><time>2026-03-25T17:22:42.999Z</time></trkpt><trkpt lat="44.47784921898369" lon="7.865938588879307"><ele>362.0</ele><time>2026-03-25T17:22:43.999Z</time></trkpt><trkpt lat="44.477798512183156" lon="7.8658763514910275"><ele>362.0</ele><time>2026-03-25T17:22:44.999Z</time></trkpt><trkpt lat="44.47772658805238" lon="7.865771267397192"><ele>362.0</ele><time>2026-03-25T17:22:46.998Z</time></trkpt><trkpt lat="44.47766104130266" lon="7.865683004466467"><ele>362.40000000000003</ele><time>2026-03-25T17:22:48.998Z</time></trkpt><trkpt lat="44.47757685071651" lon="7.865566367123982"><ele>362.8</ele><time>2026-03-25T17:22:50.998Z</time></trkpt><trkpt lat="44.47752682334304" lon="7.865500119003169"><ele>363.2</ele><time>2026-03-25T17:22:51.998Z</time></trkpt><trkpt lat="44.477467901735" lon="7.865407952054558"><ele>363.6</ele><time>2026-03-25T17:22:52.998Z</time></trkpt><trkpt lat="44.47740798495302" lon="7.865331961556521"><ele>364.0</ele><time>2026-03-25T17:22:53.998Z</time></trkpt><trkpt lat="44.47733428694293" lon="7.865241732169375"><ele>364.0</ele><time>2026-03-25T17:22:54.998Z</time></trkpt><trkpt lat="44.477274774995394" lon="7.865157169925496"><ele>364.0</ele><time>2026-03-25T17:22:55.998Z</time></trkpt><trkpt lat="44.47721257107698" lon="7.865081816520644"><ele>364.0</ele><time>2026-03-25T17:22:56.998Z</time></trkpt><trkpt lat="44.47716233275746" lon="7.865007003292916"><ele>364.0</ele><time>2026-03-25T17:22:57.998Z</time></trkpt><trkpt lat="44.47711887997318" lon="7.8649424903970235"><ele>364.0</ele><time>2026-03-25T17:22:58.998Z</time></trkpt><trkpt lat="44.47706971360645" lon="7.864877740524915"><ele>364.0</ele><time>2026-03-25T17:22:59.998Z</time></trkpt><trkpt lat="44.47701430602287" lon="7.864807416034916"><ele>364.0</ele><time>2026-03-25T17:23:00.998Z</time></trkpt><trkpt lat="44.4769444495467" lon="7.864709737452507"><ele>363.79999999999995</ele><time>2026-03-25T17:23:01.998Z</time></trkpt><trkpt lat="44.47686882431628" lon="7.864611794301353"><ele>363.59999999999997</ele><time>2026-03-25T17:23:02.998Z</time></trkpt><trkpt lat="44.47679458993511" lon="7.864516635859357"><ele>363.4</ele><time>2026-03-25T17:23:03.998Z</time></trkpt><trkpt lat="44.47671303619154" lon="7.864409255805311"><ele>363.2</ele><time>2026-03-25T17:23:04.998Z</time></trkpt><trkpt lat="44.47664524784063" lon="7.864317096475336"><ele>363.0</ele><time>2026-03-25T17:23:05.998Z</time></trkpt><trkpt lat="44.47658889119545" lon="7.864205219460647"><ele>363.5</ele><time>2026-03-25T17:23:07.998Z</time></trkpt><trkpt lat="44.476530778916405" lon="7.864113602493435"><ele>364.0</ele><time>2026-03-25T17:23:09.998Z</time></trkpt><trkpt lat="44.47643185552381" lon="7.863976022832952"><ele>364.5</ele><time>2026-03-25T17:23:12Z</time></trkpt><trkpt lat="44.4763671185453" lon="7.86387600917086"><ele>365.0</ele><time>2026-03-25T17:23:13Z</time></trkpt><trkpt lat="44.476273692930064" lon="7.863746127876711"><ele>365.0</ele><time>2026-03-25T17:23:14Z</time></trkpt><trkpt lat="44.47620262638601" lon="7.863629157441919"><ele>365.0</ele><time>2026-03-25T17:23:15Z</time></trkpt><trkpt lat="44.47614136069011" lon="7.863537885129038"><ele>365.0</ele><time>2026-03-25T17:23:16Z</time></trkpt><trkpt lat="44.47608621815861" lon="7.8634367183391864"><ele>365.0</ele><time>2026-03-25T17:23:17Z</time></trkpt><trkpt lat="44.476022370121086" lon="7.863343422992651"><ele>365.0</ele><time>2026-03-25T17:23:18Z</time></trkpt><trkpt lat="44.47595703683517" lon="7.863245533935906"><ele>365.0</ele><time>2026-03-25T17:23:19Z</time></trkpt><trkpt lat="44.47586540718266" lon="7.8631158539936425"><ele>365.0</ele><time>2026-03-25T17:23:20Z</time></trkpt><trkpt lat="44.47578357049638" lon="7.8629902709084805"><ele>365.0</ele><time>2026-03-25T17:23:21Z</time></trkpt><trkpt lat="44.47569882298955" lon="7.862863223994823"><ele>365.0</ele><time>2026-03-25T17:23:22Z</time></trkpt><trkpt lat="44.47560243335008" lon="7.862721349464858"><ele>364.75</ele><time>2026-03-25T17:23:23Z</time></trkpt><trkpt lat="44.47550122985924" lon="7.862569084300797"><ele>364.5</ele><time>2026-03-25T17:23:24Z</time></trkpt><trkpt lat="44.475410941081016" lon="7.862423461972958"><ele>364.25</ele><time>2026-03-25T17:23:25Z</time></trkpt><trkpt lat="44.47531769859069" lon="7.862284258188986"><ele>364.0</ele><time>2026-03-25T17:23:26Z</time></trkpt><trkpt lat="44.47522570214167" lon="7.862144437275619"><ele>364.0</ele><time>2026-03-25T17:23:27Z</time></trkpt><trkpt lat="44.47512826930568" lon="7.861999922661251"><ele>364.0</ele><time>2026-03-25T17:23:28Z</time></trkpt><trkpt lat="44.475032725480226" lon="7.861857887468585"><ele>364.0</ele><time>2026-03-25T17:23:29Z</time></trkpt><trkpt lat="44.47493950105549" lon="7.861705933030257"><ele>364.0</ele><time>2026-03-25T17:23:30Z</time></trkpt><trkpt lat="44.47484123525229" lon="7.861562572799733"><ele>364.0</ele><time>2026-03-25T17:23:31Z</time></trkpt><trkpt lat="44.47474632075942" lon="7.861436465779729"><ele>364.0</ele><time>2026-03-25T17:23:32Z</time></trkpt><trkpt lat="44.47466612748149" lon="7.861287616869023"><ele>364.0</ele><time>2026-03-25T17:23:33Z</time></trkpt><trkpt lat="44.47457540074193" lon="7.861117171001126"><ele>364.0</ele><time>2026-03-25T17:23:34Z</time></trkpt><trkpt lat="44.47451316998769" lon="7.860947631757934"><ele>364.0</ele><time>2026-03-25T17:23:35Z</time></trkpt><trkpt lat="44.47444056085942" lon="7.8607659595399415"><ele>364.0</ele><time>2026-03-25T17:23:36Z</time></trkpt><trkpt lat="44.474377258608136" lon="7.860588272131162"><ele>364.0</ele><time>2026-03-25T17:23:37Z</time></trkpt><trkpt lat="44.47432075521548" lon="7.860405987951572"><ele>364.0</ele><time>2026-03-25T17:23:38Z</time></trkpt><trkpt lat="44.474272076526304" lon="7.860223841024212"><ele>364.25</ele><time>2026-03-25T17:23:39Z</time></trkpt><trkpt lat="44.47422117417507" lon="7.8600392099056435"><ele>364.5</ele><time>2026-03-25T17:23:40Z</time></trkpt><trkpt lat="44.47417458438161" lon="7.859828057286214"><ele>364.75</ele><time>2026-03-25T17:23:41Z</time></trkpt><trkpt lat="44.47413397597129" lon="7.8596251741022645"><ele>365.0</ele><time>2026-03-25T17:23:42Z</time></trkpt><trkpt lat="44.47410584996054" lon="7.859432311646944"><ele>365.6666666666667</ele><time>2026-03-25T17:23:43Z</time></trkpt><trkpt lat="44.47408219122828" lon="7.859219342174856"><ele>366.3333333333333</ele><time>2026-03-25T17:23:44Z</time></trkpt><trkpt lat="44.474078797603006" lon="7.859014045014658"><ele>367.0</ele><time>2026-03-25T17:23:45Z</time></trkpt><trkpt lat="44.474064836656396" lon="7.858789341624241"><ele>367.0</ele><time>2026-03-25T17:23:46Z</time></trkpt><trkpt lat="44.47405713558029" lon="7.858574375873686"><ele>367.0</ele><time>2026-03-25T17:23:47Z</time></trkpt><trkpt lat="44.474048406951525" lon="7.858372939534007"><ele>367.0</ele><time>2026-03-25T17:23:48Z</time></trkpt><trkpt lat="44.47404015215584" lon="7.858182992383675"><ele>367.0</ele><time>2026-03-25T17:23:49Z</time></trkpt><trkpt lat="44.47403142539449" lon="7.857982091200046"><ele>366.75</ele><time>2026-03-25T17:23:50Z</time></trkpt><trkpt lat="44.47400812231744" lon="7.857778476245002"><ele>366.5</ele><time>2026-03-25T17:23:51Z</time></trkpt><trkpt lat="44.47404024624417" lon="7.857574927283726"><ele>366.25</ele><time>2026-03-25T17:23:52Z</time></trkpt><trkpt lat="44.474029304298945" lon="7.857385257304045"><ele>366.0</ele><time>2026-03-25T17:23:52.999Z</time></trkpt><trkpt lat="44.47401872822376" lon="7.857191489160718"><ele>366.0</ele><time>2026-03-25T17:23:53.999Z</time></trkpt><trkpt lat="44.47400825603969" lon="7.856999832255641"><ele>366.0</ele><time>2026-03-25T17:23:54.999Z</time></trkpt><trkpt lat="44.47400303399829" lon="7.856795175152714"><ele>366.0</ele><time>2026-03-25T17:23:55.999Z</time></trkpt><trkpt lat="44.47399575220796" lon="7.856586658773133"><ele>366.0</ele><time>2026-03-25T17:23:56.999Z</time></trkpt><trkpt lat="44.47398642408972" lon="7.856373125876626"><ele>366.3333333333333</ele><time>2026-03-25T17:23:57.999Z</time></trkpt><trkpt lat="44.47397560562124" lon="7.856145188784701"><ele>366.66666666666663</ele><time>2026-03-25T17:23:58.999Z</time></trkpt><trkpt lat="44.47397266473333" lon="7.855928149451635"><ele>367.0</ele><time>2026-03-25T17:23:59.999Z</time></trkpt><trkpt lat="44.47396565438293" lon="7.855710235577968"><ele>367.25</ele><time>2026-03-25T17:24:00.999Z</time></trkpt><trkpt lat="44.473964110510664" lon="7.855530823374346"><ele>367.5</ele><time>2026-03-25T17:24:01.999Z</time></trkpt><trkpt lat="44.47394768069348" lon="7.855328168887988"><ele>367.75</ele><time>2026-03-25T17:24:02.999Z</time></trkpt><trkpt lat="44.47393775079997" lon="7.8551310693313985"><ele>368.0</ele><time>2026-03-25T17:24:03.999Z</time></trkpt><trkpt lat="44.47392019617209" lon="7.85491724009356"><ele>368.0</ele><time>2026-03-25T17:24:04.999Z</time></trkpt><trkpt lat="44.473910550483325" lon="7.854713830660339"><ele>368.0</ele><time>2026-03-25T17:24:05.999Z</time></trkpt><trkpt lat="44.47389935229457" lon="7.854495024292055"><ele>368.0</ele><time>2026-03-25T17:24:06.999Z</time></trkpt><trkpt lat="44.473895792815306" lon="7.854302412410683"><ele>368.0</ele><time>2026-03-25T17:24:07.999Z</time></trkpt><trkpt lat="44.47387868707532" lon="7.854069337052018"><ele>368.0</ele><time>2026-03-25T17:24:08.999Z</time></trkpt><trkpt lat="44.47387219851352" lon="7.853869311566605"><ele>368.0</ele><time>2026-03-25T17:24:09.999Z</time></trkpt><trkpt lat="44.47385711798734" lon="7.85366440293437"><ele>368.0</ele><time>2026-03-25T17:24:10.999Z</time></trkpt><trkpt lat="44.47383356833819" lon="7.853450621038886"><ele>368.0</ele><time>2026-03-25T17:24:11.999Z</time></trkpt><trkpt lat="44.473800494792194" lon="7.853233004097612"><ele>368.0</ele><time>2026-03-25T17:24:12.999Z</time></trkpt><trkpt lat="44.47376604000122" lon="7.853009916950781"><ele>368.0</ele><time>2026-03-25T17:24:13.999Z</time></trkpt><trkpt lat="44.473734928554606" lon="7.852781593797107"><ele>368.0</ele><time>2026-03-25T17:24:14.999Z</time></trkpt><trkpt lat="44.47369937344795" lon="7.852581995736089"><ele>368.0</ele><time>2026-03-25T17:24:15.999Z</time></trkpt><trkpt lat="44.47367084372444" lon="7.8523740350542965"><ele>368.0</ele><time>2026-03-25T17:24:16.999Z</time></trkpt><trkpt lat="44.473636214212185" lon="7.852180784672121"><ele>368.0</ele><time>2026-03-25T17:24:17.999Z</time></trkpt><trkpt lat="44.4736008697153" lon="7.851965282237892"><ele>368.5</ele><time>2026-03-25T17:24:18.999Z</time></trkpt><trkpt lat="44.47356843257338" lon="7.851748129921542"><ele>369.0</ele><time>2026-03-25T17:24:19.999Z</time></trkpt><trkpt lat="44.47354551707534" lon="7.851565675023437"><ele>369.5</ele><time>2026-03-25T17:24:20.999Z</time></trkpt><trkpt lat="44.47351889720093" lon="7.851374962713188"><ele>370.0</ele><time>2026-03-25T17:24:21.999Z</time></trkpt><trkpt lat="44.47349246795749" lon="7.8511716678124674"><ele>370.0</ele><time>2026-03-25T17:24:22.999Z</time></trkpt><trkpt lat="44.47345436005152" lon="7.851015642672107"><ele>370.0</ele><time>2026-03-25T17:24:23.999Z</time></trkpt><trkpt lat="44.47340735864688" lon="7.850827079837967"><ele>370.0</ele><time>2026-03-25T17:24:24.999Z</time></trkpt><trkpt lat="44.473376756520416" lon="7.850654434055563"><ele>370.0</ele><time>2026-03-25T17:24:25.999Z</time></trkpt><trkpt lat="44.47334978362334" lon="7.8504788391373115"><ele>370.0</ele><time>2026-03-25T17:24:26.999Z</time></trkpt><trkpt lat="44.47331520695331" lon="7.8503035323159285"><ele>370.0</ele><time>2026-03-25T17:24:27.999Z</time></trkpt><trkpt lat="44.473283207922194" lon="7.850117869233163"><ele>370.0</ele><time>2026-03-25T17:24:28.999Z</time></trkpt><trkpt lat="44.473246743372925" lon="7.849939845407164"><ele>370.0</ele><time>2026-03-25T17:24:29.999Z</time></trkpt><trkpt lat="44.47321389058381" lon="7.84975810691456"><ele>370.0</ele><time>2026-03-25T17:24:30.999Z</time></trkpt><trkpt lat="44.47317437397099" lon="7.849599064176984"><ele>370.0</ele><time>2026-03-25T17:24:31.999Z</time></trkpt><trkpt lat="44.47313615245903" lon="7.849452931319535"><ele>370.0</ele><time>2026-03-25T17:24:32.999Z</time></trkpt><trkpt lat="44.47310295446317" lon="7.849311281618715"><ele>370.0</ele><time>2026-03-25T17:24:33.999Z</time></trkpt><trkpt lat="44.47307346357633" lon="7.84917243529322"><ele>370.0</ele><time>2026-03-25T17:24:34.999Z</time></trkpt><trkpt lat="44.47304353755463" lon="7.849023654367143"><ele>370.25</ele><time>2026-03-25T17:24:35.999Z</time></trkpt><trkpt lat="44.473006456351285" lon="7.8488748783761295"><ele>370.5</ele><time>2026-03-25T17:24:36.999Z</time></trkpt><trkpt lat="44.47295752885629" lon="7.848718486258787"><ele>370.75</ele><time>2026-03-25T17:24:37.999Z</time></trkpt><trkpt lat="44.472920639639696" lon="7.848578417121932"><ele>371.0</ele><time>2026-03-25T17:24:38.999Z</time></trkpt><trkpt lat="44.47288564746976" lon="7.848433826448491"><ele>370.5</ele><time>2026-03-25T17:24:39.999Z</time></trkpt><trkpt lat="44.47284478834293" lon="7.848276625359928"><ele>370.0</ele><time>2026-03-25T17:24:40.999Z</time></trkpt><trkpt lat="44.472801578030776" lon="7.848100626759432"><ele>369.5</ele><time>2026-03-25T17:24:41.999Z</time></trkpt><trkpt lat="44.472763673520426" lon="7.847922064747298"><ele>369.0</ele><time>2026-03-25T17:24:42.999Z</time></trkpt><trkpt lat="44.47272362532714" lon="7.847734509915327"><ele>368.5</ele><time>2026-03-25T17:24:43.999Z</time></trkpt><trkpt lat="44.47267183901086" lon="7.84754012853237"><ele>368.0</ele><time>2026-03-25T17:24:44.999Z</time></trkpt><trkpt lat="44.47262712835139" lon="7.847347248604867"><ele>367.5</ele><time>2026-03-25T17:24:45.999Z</time></trkpt><trkpt lat="44.47257440390627" lon="7.84719478037535"><ele>367.0</ele><time>2026-03-25T17:24:46.999Z</time></trkpt><trkpt lat="44.4725230675707" lon="7.8470238213841"><ele>367.0</ele><time>2026-03-25T17:24:47.999Z</time></trkpt><trkpt lat="44.47245947944832" lon="7.846854404054054"><ele>367.0</ele><time>2026-03-25T17:24:48.999Z</time></trkpt><trkpt lat="44.47239382650394" lon="7.846669745880513"><ele>367.0</ele><time>2026-03-25T17:24:49.999Z</time></trkpt><trkpt lat="44.472329252437106" lon="7.846494128386515"><ele>367.0</ele><time>2026-03-25T17:24:50.999Z</time></trkpt><trkpt lat="44.47222993774925" lon="7.846316680399057"><ele>367.0</ele><time>2026-03-25T17:24:51.998Z</time></trkpt><trkpt lat="44.472138253221246" lon="7.84613904895356"><ele>367.0</ele><time>2026-03-25T17:24:52.998Z</time></trkpt><trkpt lat="44.472052164359006" lon="7.845956291444946"><ele>367.0</ele><time>2026-03-25T17:24:53.998Z</time></trkpt><trkpt lat="44.471974418637465" lon="7.8457749160646655"><ele>367.0</ele><time>2026-03-25T17:24:54.998Z</time></trkpt><trkpt lat="44.47190131631179" lon="7.845609442008542"><ele>367.0</ele><time>2026-03-25T17:24:55.998Z</time></trkpt><trkpt lat="44.47181935688184" lon="7.845430863187432"><ele>367.0</ele><time>2026-03-25T17:24:56.998Z</time></trkpt><trkpt lat="44.47173837876233" lon="7.84526731720457"><ele>367.0</ele><time>2026-03-25T17:24:57.998Z</time></trkpt><trkpt lat="44.47165319315251" lon="7.845089790670423"><ele>367.25</ele><time>2026-03-25T17:24:58.998Z</time></trkpt><trkpt lat="44.471574395789425" lon="7.844904610699737"><ele>367.5</ele><time>2026-03-25T17:24:59.998Z</time></trkpt><trkpt lat="44.471502024171635" lon="7.844733486624733"><ele>367.75</ele><time>2026-03-25T17:25:00.998Z</time></trkpt><trkpt lat="44.47144587048112" lon="7.844558180254634"><ele>368.0</ele><time>2026-03-25T17:25:01.998Z</time></trkpt><trkpt lat="44.471410111883124" lon="7.84435189472821"><ele>368.25</ele><time>2026-03-25T17:25:02.998Z</time></trkpt><trkpt lat="44.47137786653444" lon="7.84416732021156"><ele>368.5</ele><time>2026-03-25T17:25:03.998Z</time></trkpt><trkpt lat="44.47133330228383" lon="7.843965050443368"><ele>368.75</ele><time>2026-03-25T17:25:04.998Z</time></trkpt><trkpt lat="44.47131231488871" lon="7.843749031610714"><ele>369.0</ele><time>2026-03-25T17:25:05.998Z</time></trkpt><trkpt lat="44.47128826804399" lon="7.843522059813984"><ele>368.6666666666667</ele><time>2026-03-25T17:25:06.998Z</time></trkpt><trkpt lat="44.47126607099787" lon="7.843333510411642"><ele>368.33333333333337</ele><time>2026-03-25T17:25:07.998Z</time></trkpt><trkpt lat="44.47123292440252" lon="7.84309668550008"><ele>368.0</ele><time>2026-03-25T17:25:08.998Z</time></trkpt><trkpt lat="44.471220480661955" lon="7.842862658621868"><ele>368.0</ele><time>2026-03-25T17:25:09.998Z</time></trkpt><trkpt lat="44.47118656332951" lon="7.842654863489565"><ele>368.0</ele><time>2026-03-25T17:25:10.998Z</time></trkpt><trkpt lat="44.47117423600973" lon="7.842450320782521"><ele>368.0</ele><time>2026-03-25T17:25:11.998Z</time></trkpt><trkpt lat="44.471140103364064" lon="7.842279607357069"><ele>368.0</ele><time>2026-03-25T17:25:12.998Z</time></trkpt><trkpt lat="44.4711196512915" lon="7.842091022604921"><ele>368.33333333333337</ele><time>2026-03-25T17:25:13.998Z</time></trkpt><trkpt lat="44.47109658346292" lon="7.841866371928853"><ele>368.6666666666667</ele><time>2026-03-25T17:25:14.998Z</time></trkpt><trkpt lat="44.47106716806348" lon="7.841669022428555"><ele>369.0</ele><time>2026-03-25T17:25:15.998Z</time></trkpt><trkpt lat="44.471024614624966" lon="7.841463220213196"><ele>369.0</ele><time>2026-03-25T17:25:16.998Z</time></trkpt><trkpt lat="44.47098507107166" lon="7.84125930955989"><ele>369.0</ele><time>2026-03-25T17:25:18Z</time></trkpt><trkpt lat="44.47093765701272" lon="7.841044265739501"><ele>369.0</ele><time>2026-03-25T17:25:19Z</time></trkpt><trkpt lat="44.47089193407059" lon="7.840831068438879"><ele>369.3333333333333</ele><time>2026-03-25T17:25:20Z</time></trkpt><trkpt lat="44.47084262822565" lon="7.840627355370496"><ele>369.66666666666663</ele><time>2026-03-25T17:25:21Z</time></trkpt><trkpt lat="44.470784081875486" lon="7.840421498172616"><ele>370.0</ele><time>2026-03-25T17:25:22Z</time></trkpt><trkpt lat="44.470722269414225" lon="7.840214831996988"><ele>370.3333333333333</ele><time>2026-03-25T17:25:23Z</time></trkpt><trkpt lat="44.47065512894478" lon="7.8400160343496745"><ele>370.6666666666667</ele><time>2026-03-25T17:25:24Z</time></trkpt><trkpt lat="44.47058450745764" lon="7.839817637591948"><ele>371.0</ele><time>2026-03-25T17:25:25Z</time></trkpt><trkpt lat="44.470522180075044" lon="7.839605792122678"><ele>371.0</ele><time>2026-03-25T17:25:26Z</time></trkpt><trkpt lat="44.470444234021976" lon="7.839415685499684"><ele>371.0</ele><time>2026-03-25T17:25:27Z</time></trkpt><trkpt lat="44.47035879498333" lon="7.839217144676104"><ele>371.0</ele><time>2026-03-25T17:25:28Z</time></trkpt><trkpt lat="44.47027353255108" lon="7.83902502013089"><ele>371.0</ele><time>2026-03-25T17:25:29Z</time></trkpt><trkpt lat="44.47018386629214" lon="7.8388348664807195"><ele>371.0</ele><time>2026-03-25T17:25:30Z</time></trkpt><trkpt lat="44.470087173601364" lon="7.838648057717532"><ele>371.0</ele><time>2026-03-25T17:25:31Z</time></trkpt><trkpt lat="44.46998793738621" lon="7.838460289240694"><ele>371.0</ele><time>2026-03-25T17:25:32Z</time></trkpt><trkpt lat="44.469886919088644" lon="7.83827952955303"><ele>371.0</ele><time>2026-03-25T17:25:33Z</time></trkpt><trkpt lat="44.469779654204" lon="7.8381010606469195"><ele>371.0</ele><time>2026-03-25T17:25:34Z</time></trkpt><trkpt lat="44.46967374012023" lon="7.8379367451721444"><ele>371.0</ele><time>2026-03-25T17:25:35Z</time></trkpt><trkpt lat="44.46956246282822" lon="7.837760276277336"><ele>371.0</ele><time>2026-03-25T17:25:36Z</time></trkpt><trkpt lat="44.46945732357477" lon="7.83759767847183"><ele>371.0</ele><time>2026-03-25T17:25:37Z</time></trkpt><trkpt lat="44.46936723109712" lon="7.837447490316734"><ele>371.0</ele><time>2026-03-25T17:25:38Z</time></trkpt><trkpt lat="44.469259216513365" lon="7.837274028565008"><ele>371.0</ele><time>2026-03-25T17:25:39Z</time></trkpt><trkpt lat="44.469155721992706" lon="7.837109503271733"><ele>371.0</ele><time>2026-03-25T17:25:40Z</time></trkpt><trkpt lat="44.469056506682776" lon="7.83695419233916"><ele>371.0</ele><time>2026-03-25T17:25:41Z</time></trkpt><trkpt lat="44.46896256546413" lon="7.8368037177649805"><ele>371.0</ele><time>2026-03-25T17:25:42Z</time></trkpt><trkpt lat="44.4688641012581" lon="7.8366431789123006"><ele>371.0</ele><time>2026-03-25T17:25:43Z</time></trkpt><trkpt lat="44.468760735627" lon="7.836482541857767"><ele>371.0</ele><time>2026-03-25T17:25:44Z</time></trkpt><trkpt lat="44.46865996591885" lon="7.836328972928456"><ele>371.25</ele><time>2026-03-25T17:25:45Z</time></trkpt><trkpt lat="44.46856144450321" lon="7.836170615526196"><ele>371.5</ele><time>2026-03-25T17:25:46Z</time></trkpt><trkpt lat="44.468467479643266" lon="7.836022278625249"><ele>371.75</ele><time>2026-03-25T17:25:47Z</time></trkpt><trkpt lat="44.468371903420746" lon="7.835874361330211"><ele>372.0</ele><time>2026-03-25T17:25:48Z</time></trkpt><trkpt lat="44.46828675730979" lon="7.835744063252641"><ele>372.0</ele><time>2026-03-25T17:25:49Z</time></trkpt><trkpt lat="44.46819801943687" lon="7.835594847645868"><ele>372.0</ele><time>2026-03-25T17:25:50Z</time></trkpt><trkpt lat="44.46810230998026" lon="7.835440679711425"><ele>372.0</ele><time>2026-03-25T17:25:51Z</time></trkpt><trkpt lat="44.46800789633168" lon="7.835301422206696"><ele>372.0</ele><time>2026-03-25T17:25:52Z</time></trkpt><trkpt lat="44.467915342791386" lon="7.8351563573320275"><ele>372.3333333333333</ele><time>2026-03-25T17:25:53Z</time></trkpt><trkpt lat="44.46781803789735" lon="7.8349957993201045"><ele>372.66666666666663</ele><time>2026-03-25T17:25:54Z</time></trkpt><trkpt lat="44.46772170776344" lon="7.834834976934543"><ele>373.0</ele><time>2026-03-25T17:25:55Z</time></trkpt><trkpt lat="44.4676286210591" lon="7.834666239627255"><ele>373.0</ele><time>2026-03-25T17:25:56Z</time></trkpt><trkpt lat="44.467530769780744" lon="7.834505788472507"><ele>373.0</ele><time>2026-03-25T17:25:57Z</time></trkpt><trkpt lat="44.467427527125565" lon="7.834333424925054"><ele>373.0</ele><time>2026-03-25T17:25:58Z</time></trkpt><trkpt lat="44.46732828389379" lon="7.834167653089983"><ele>373.0</ele><time>2026-03-25T17:25:59Z</time></trkpt><trkpt lat="44.46722727644219" lon="7.834005150414729"><ele>373.0</ele><time>2026-03-25T17:25:59.999Z</time></trkpt><trkpt lat="44.46712144951298" lon="7.833834080264229"><ele>373.0</ele><time>2026-03-25T17:26:00.999Z</time></trkpt><trkpt lat="44.467017248384536" lon="7.833662866363617"><ele>373.0</ele><time>2026-03-25T17:26:01.999Z</time></trkpt><trkpt lat="44.466914333406365" lon="7.8335002952599035"><ele>373.0</ele><time>2026-03-25T17:26:02.999Z</time></trkpt><trkpt lat="44.46681370920148" lon="7.833334767865705"><ele>373.0</ele><time>2026-03-25T17:26:03.999Z</time></trkpt><trkpt lat="44.4667047660619" lon="7.833162567856602"><ele>373.0</ele><time>2026-03-25T17:26:04.999Z</time></trkpt><trkpt lat="44.46659407693612" lon="7.832990790378092"><ele>373.0</ele><time>2026-03-25T17:26:05.999Z</time></trkpt><trkpt lat="44.466483040139195" lon="7.832819454492083"><ele>373.0</ele><time>2026-03-25T17:26:06.999Z</time></trkpt><trkpt lat="44.46637578304789" lon="7.832651794984843"><ele>373.66666666666663</ele><time>2026-03-25T17:26:07.999Z</time></trkpt><trkpt lat="44.466273059242454" lon="7.832488315053546"><ele>374.3333333333333</ele><time>2026-03-25T17:26:08.999Z</time></trkpt><trkpt lat="44.46616761265466" lon="7.8323150708734035"><ele>375.0</ele><time>2026-03-25T17:26:09.999Z</time></trkpt><trkpt lat="44.46606330465301" lon="7.8321395777337175"><ele>375.0</ele><time>2026-03-25T17:26:10.999Z</time></trkpt><trkpt lat="44.46596374786142" lon="7.831974692645984"><ele>375.0</ele><time>2026-03-25T17:26:11.999Z</time></trkpt><trkpt lat="44.46585366783822" lon="7.8318038401751044"><ele>375.0</ele><time>2026-03-25T17:26:12.999Z</time></trkpt><trkpt lat="44.46575212466622" lon="7.831630745114586"><ele>375.3333333333333</ele><time>2026-03-25T17:26:13.999Z</time></trkpt><trkpt lat="44.46563774618768" lon="7.8314688949884355"><ele>375.66666666666663</ele><time>2026-03-25T17:26:14.999Z</time></trkpt><trkpt lat="44.46551975648583" lon="7.831300875130969"><ele>376.0</ele><time>2026-03-25T17:26:15.999Z</time></trkpt><trkpt lat="44.465421205789035" lon="7.831142366683193"><ele>375.3333333333333</ele><time>2026-03-25T17:26:16.999Z</time></trkpt><trkpt lat="44.4653099404056" lon="7.830965045537265"><ele>374.6666666666667</ele><time>2026-03-25T17:26:17.999Z</time></trkpt><trkpt lat="44.465208263539985" lon="7.830807330137769"><ele>374.0</ele><time>2026-03-25T17:26:18.999Z</time></trkpt><trkpt lat="44.46511277489472" lon="7.830657195512773"><ele>374.0</ele><time>2026-03-25T17:26:19.999Z</time></trkpt><trkpt lat="44.4650142018055" lon="7.830502045358684"><ele>374.0</ele><time>2026-03-25T17:26:20.999Z</time></trkpt><trkpt lat="44.46491739690454" lon="7.830346772527749"><ele>374.0</ele><time>2026-03-25T17:26:21.999Z</time></trkpt><trkpt lat="44.464828032859664" lon="7.830201274847543"><ele>374.0</ele><time>2026-03-25T17:26:22.999Z</time></trkpt><trkpt lat="44.46473430175481" lon="7.830045377850467"><ele>374.0</ele><time>2026-03-25T17:26:23.999Z</time></trkpt><trkpt lat="44.4646348340185" lon="7.829887488519139"><ele>374.0</ele><time>2026-03-25T17:26:24.999Z</time></trkpt><trkpt lat="44.46453861991014" lon="7.829730813878813"><ele>374.0</ele><time>2026-03-25T17:26:25.999Z</time></trkpt><trkpt lat="44.46444643401086" lon="7.829582699045084"><ele>374.0</ele><time>2026-03-25T17:26:26.999Z</time></trkpt><trkpt lat="44.46435414084608" lon="7.829435400266752"><ele>374.6666666666667</ele><time>2026-03-25T17:26:27.999Z</time></trkpt><trkpt lat="44.46424461221207" lon="7.829259939802185"><ele>375.3333333333333</ele><time>2026-03-25T17:26:28.999Z</time></trkpt><trkpt lat="44.46415008336341" lon="7.829107227353434"><ele>376.0</ele><time>2026-03-25T17:26:29.999Z</time></trkpt><trkpt lat="44.46405019574829" lon="7.828953767702791"><ele>376.0</ele><time>2026-03-25T17:26:30.999Z</time></trkpt><trkpt lat="44.46395136797114" lon="7.82879999462374"><ele>376.0</ele><time>2026-03-25T17:26:31.999Z</time></trkpt><trkpt lat="44.46385071278068" lon="7.828643951129181"><ele>376.0</ele><time>2026-03-25T17:26:32.999Z</time></trkpt><trkpt lat="44.463744845948725" lon="7.8284731678855675"><ele>376.0</ele><time>2026-03-25T17:26:33.999Z</time></trkpt><trkpt lat="44.463641801353425" lon="7.828307368505494"><ele>376.0</ele><time>2026-03-25T17:26:34.999Z</time></trkpt><trkpt lat="44.463537962716124" lon="7.828139367895505"><ele>376.0</ele><time>2026-03-25T17:26:35.999Z</time></trkpt><trkpt lat="44.4634391798892" lon="7.827978848569779"><ele>376.0</ele><time>2026-03-25T17:26:36.999Z</time></trkpt><trkpt lat="44.46333565604706" lon="7.8278117351194565"><ele>376.0</ele><time>2026-03-25T17:26:37.999Z</time></trkpt><trkpt lat="44.46322997771635" lon="7.827647603504095"><ele>376.0</ele><time>2026-03-25T17:26:38.999Z</time></trkpt><trkpt lat="44.46312347886118" lon="7.827477795847765"><ele>376.0</ele><time>2026-03-25T17:26:39.999Z</time></trkpt><trkpt lat="44.463017208198" lon="7.827308953217678"><ele>376.0</ele><time>2026-03-25T17:26:40.999Z</time></trkpt><trkpt lat="44.46290981033155" lon="7.827135921959173"><ele>376.0</ele><time>2026-03-25T17:26:41.999Z</time></trkpt><trkpt lat="44.46280609344575" lon="7.826973293874171"><ele>375.0</ele><time>2026-03-25T17:26:42.999Z</time></trkpt><trkpt lat="44.46269796383943" lon="7.826800606152597"><ele>374.0</ele><time>2026-03-25T17:26:43.999Z</time></trkpt><trkpt lat="44.462595446366215" lon="7.826634406625662"><ele>373.0</ele><time>2026-03-25T17:26:44.999Z</time></trkpt><trkpt lat="44.4624909189131" lon="7.826461950302415"><ele>373.0</ele><time>2026-03-25T17:26:45.999Z</time></trkpt><trkpt lat="44.46239872434549" lon="7.826297261225873"><ele>373.0</ele><time>2026-03-25T17:26:46.999Z</time></trkpt><trkpt lat="44.462311346719034" lon="7.826130280665136"><ele>373.0</ele><time>2026-03-25T17:26:47.999Z</time></trkpt><trkpt lat="44.46222541309983" lon="7.8259660552470915"><ele>373.0</ele><time>2026-03-25T17:26:48.999Z</time></trkpt><trkpt lat="44.46214046401855" lon="7.825797234046991"><ele>373.66666666666663</ele><time>2026-03-25T17:26:49.999Z</time></trkpt><trkpt lat="44.46205688511605" lon="7.825611893941737"><ele>374.3333333333333</ele><time>2026-03-25T17:26:50.999Z</time></trkpt><trkpt lat="44.46197473297668" lon="7.82542997578079"><ele>375.0</ele><time>2026-03-25T17:26:51.999Z</time></trkpt><trkpt lat="44.461894135323" lon="7.825249319617943"><ele>375.5</ele><time>2026-03-25T17:26:52.999Z</time></trkpt><trkpt lat="44.46181253106114" lon="7.825052580478848"><ele>376.0</ele><time>2026-03-25T17:26:53.999Z</time></trkpt><trkpt lat="44.46173602405433" lon="7.824876797273558"><ele>376.5</ele><time>2026-03-25T17:26:54.999Z</time></trkpt><trkpt lat="44.461669170534094" lon="7.8247186074225255"><ele>377.0</ele><time>2026-03-25T17:26:55.999Z</time></trkpt><trkpt lat="44.46160988730048" lon="7.824558983481739"><ele>377.0</ele><time>2026-03-25T17:26:56.999Z</time></trkpt><trkpt lat="44.461560067848204" lon="7.82441490998974"><ele>377.0</ele><time>2026-03-25T17:26:57.999Z</time></trkpt><trkpt lat="44.46151333048053" lon="7.824290380456888"><ele>377.0</ele><time>2026-03-25T17:26:58.999Z</time></trkpt><trkpt lat="44.46146222188928" lon="7.824150942103485"><ele>377.0</ele><time>2026-03-25T17:26:59.998Z</time></trkpt><trkpt lat="44.46142340184541" lon="7.824046687574871"><ele>377.0</ele><time>2026-03-25T17:27:00.998Z</time></trkpt><trkpt lat="44.46139600293601" lon="7.823937201524658"><ele>377.1666666666667</ele><time>2026-03-25T17:27:01.998Z</time></trkpt><trkpt lat="44.46137878536201" lon="7.823851595754125"><ele>377.33333333333337</ele><time>2026-03-25T17:27:02.998Z</time></trkpt><trkpt lat="44.4613626506794" lon="7.82375697742446"><ele>377.5</ele><time>2026-03-25T17:27:03.998Z</time></trkpt><trkpt lat="44.46134145483095" lon="7.82361121747325"><ele>377.6666666666667</ele><time>2026-03-25T17:27:05.998Z</time></trkpt><trkpt lat="44.46126771472862" lon="7.823540715792469"><ele>377.8333333333333</ele><time>2026-03-25T17:27:07.998Z</time></trkpt><trkpt lat="44.461202171114984" lon="7.823584965632891"><ele>378.0</ele><time>2026-03-25T17:27:08.998Z</time></trkpt><trkpt lat="44.46111390051557" lon="7.823755345235554"><ele>378.25</ele><time>2026-03-25T17:27:10.998Z</time></trkpt><trkpt lat="44.4610415111106" lon="7.823854770694267"><ele>378.5</ele><time>2026-03-25T17:27:11.998Z</time></trkpt><trkpt lat="44.46096952370135" lon="7.823947216177031"><ele>378.75</ele><time>2026-03-25T17:27:12.998Z</time></trkpt><trkpt lat="44.46086208516512" lon="7.824061768778551"><ele>379.0</ele><time>2026-03-25T17:27:13.998Z</time></trkpt><trkpt lat="44.46076096061854" lon="7.824168232475662"><ele>379.0</ele><time>2026-03-25T17:27:14.998Z</time></trkpt><trkpt lat="44.4606685065328" lon="7.824254057799732"><ele>379.0</ele><time>2026-03-25T17:27:15.998Z</time></trkpt><trkpt lat="44.46056697206966" lon="7.824349742568876"><ele>379.0</ele><time>2026-03-25T17:27:16.998Z</time></trkpt><trkpt lat="44.46048003728404" lon="7.824427133186594"><ele>379.0</ele><time>2026-03-25T17:27:17.998Z</time></trkpt><trkpt lat="44.46039702038606" lon="7.824515417418333"><ele>379.0</ele><time>2026-03-25T17:27:18.998Z</time></trkpt><trkpt lat="44.46031413287932" lon="7.8246054240961485"><ele>379.2</ele><time>2026-03-25T17:27:19.998Z</time></trkpt><trkpt lat="44.46022595828607" lon="7.824681375895213"><ele>379.4</ele><time>2026-03-25T17:27:20.998Z</time></trkpt><trkpt lat="44.46014167307202" lon="7.824763795059189"><ele>379.6</ele><time>2026-03-25T17:27:21.998Z</time></trkpt><trkpt lat="44.46006478147269" lon="7.824831382262382"><ele>379.8</ele><time>2026-03-25T17:27:22.998Z</time></trkpt><trkpt lat="44.45997264662318" lon="7.824902250994933"><ele>380.0</ele><time>2026-03-25T17:27:24Z</time></trkpt><trkpt lat="44.45989702490232" lon="7.824959397004198"><ele>380.0</ele><time>2026-03-25T17:27:25Z</time></trkpt><trkpt lat="44.45982170099515" lon="7.8250212753226025"><ele>380.0</ele><time>2026-03-25T17:27:26Z</time></trkpt><trkpt lat="44.45975270466806" lon="7.825081100974993"><ele>380.0</ele><time>2026-03-25T17:27:27Z</time></trkpt><trkpt lat="44.45965773228498" lon="7.8251235438329445"><ele>380.0</ele><time>2026-03-25T17:27:28Z</time></trkpt><trkpt lat="44.459587194426355" lon="7.82516559734058"><ele>380.0</ele><time>2026-03-25T17:27:29Z</time></trkpt><trkpt lat="44.459518765617545" lon="7.825218138088579"><ele>380.0</ele><time>2026-03-25T17:27:30Z</time></trkpt><trkpt lat="44.459439826881734" lon="7.825251459725995"><ele>379.5</ele><time>2026-03-25T17:27:31Z</time></trkpt><trkpt lat="44.45936200899172" lon="7.825248463933441"><ele>379.0</ele><time>2026-03-25T17:27:32Z</time></trkpt><trkpt lat="44.459286554680446" lon="7.825261479288153"><ele>378.5</ele><time>2026-03-25T17:27:33Z</time></trkpt><trkpt lat="44.45920926087043" lon="7.825267661398851"><ele>378.0</ele><time>2026-03-25T17:27:34Z</time></trkpt><trkpt lat="44.459124805275195" lon="7.825261390487452"><ele>377.5</ele><time>2026-03-25T17:27:35Z</time></trkpt><trkpt lat="44.45904170649719" lon="7.8252676470829705"><ele>377.0</ele><time>2026-03-25T17:27:36Z</time></trkpt><trkpt lat="44.458956635256214" lon="7.825236356463519"><ele>377.0</ele><time>2026-03-25T17:27:37Z</time></trkpt><trkpt lat="44.45887912492226" lon="7.82519026707438"><ele>377.0</ele><time>2026-03-25T17:27:38Z</time></trkpt><trkpt lat="44.45881450860516" lon="7.825145909692938"><ele>377.0</ele><time>2026-03-25T17:27:39Z</time></trkpt><trkpt lat="44.45871020173175" lon="7.825034542714682"><ele>377.0</ele><time>2026-03-25T17:27:41Z</time></trkpt><trkpt lat="44.458628365486454" lon="7.82488148051443"><ele>377.0</ele><time>2026-03-25T17:27:43Z</time></trkpt><trkpt lat="44.458598178282806" lon="7.824766548177774"><ele>375.5</ele><time>2026-03-25T17:27:44Z</time></trkpt><trkpt lat="44.458585402640104" lon="7.824660103089316"><ele>374.0</ele><time>2026-03-25T17:27:45Z</time></trkpt><trkpt lat="44.45857113553959" lon="7.824540964974186"><ele>372.5</ele><time>2026-03-25T17:27:46Z</time></trkpt><trkpt lat="44.458573758311715" lon="7.8244237773745375"><ele>371.0</ele><time>2026-03-25T17:27:47Z</time></trkpt><trkpt lat="44.4585495130548" lon="7.824334439699828"><ele>369.5</ele><time>2026-03-25T17:27:48Z</time></trkpt><trkpt lat="44.45853797261292" lon="7.824240712314209"><ele>368.0</ele><time>2026-03-25T17:27:49Z</time></trkpt><trkpt lat="44.45848290046256" lon="7.824102106555849"><ele>368.0</ele><time>2026-03-25T17:27:51Z</time></trkpt><trkpt lat="44.458430101869425" lon="7.824040676434262"><ele>368.0</ele><time>2026-03-25T17:27:52Z</time></trkpt><trkpt lat="44.458357545521665" lon="7.8240074947918075"><ele>368.0</ele><time>2026-03-25T17:27:53Z</time></trkpt><trkpt lat="44.45829376518176" lon="7.823997077039865"><ele>368.0</ele><time>2026-03-25T17:27:54Z</time></trkpt><trkpt lat="44.4582387151672" lon="7.824041676923853"><ele>368.0</ele><time>2026-03-25T17:27:55Z</time></trkpt><trkpt lat="44.45816742310066" lon="7.8240931168604435"><ele>368.0</ele><time>2026-03-25T17:27:56Z</time></trkpt><trkpt lat="44.45809716602924" lon="7.824210117255673"><ele>367.4</ele><time>2026-03-25T17:27:57Z</time></trkpt><trkpt lat="44.45803115687454" lon="7.824324803204953"><ele>366.79999999999995</ele><time>2026-03-25T17:27:58Z</time></trkpt><trkpt lat="44.45797711667097" lon="7.824438039736062"><ele>366.2</ele><time>2026-03-25T17:27:59Z</time></trkpt><trkpt lat="44.457917447494154" lon="7.824548740378456"><ele>365.6</ele><time>2026-03-25T17:28:00Z</time></trkpt><trkpt lat="44.457839501947284" lon="7.824678929623564"><ele>365.0</ele><time>2026-03-25T17:28:01Z</time></trkpt><trkpt lat="44.45776151833675" lon="7.824818221227224"><ele>360.5</ele><time>2026-03-25T17:28:02Z</time></trkpt><trkpt lat="44.45767243627651" lon="7.824964791633872"><ele>356.0</ele><time>2026-03-25T17:28:03Z</time></trkpt><trkpt lat="44.45758421944168" lon="7.825131776236731"><ele>351.5</ele><time>2026-03-25T17:28:04Z</time></trkpt><trkpt lat="44.45748781237686" lon="7.825306016037854"><ele>347.0</ele><time>2026-03-25T17:28:05Z</time></trkpt><trkpt lat="44.45736487988011" lon="7.825505131092737"><ele>346.0</ele><time>2026-03-25T17:28:06Z</time></trkpt><trkpt lat="44.457251331141116" lon="7.825678617016883"><ele>345.0</ele><time>2026-03-25T17:28:06.999Z</time></trkpt><trkpt lat="44.45715399218841" lon="7.825850015281338"><ele>344.0</ele><time>2026-03-25T17:28:07.999Z</time></trkpt><trkpt lat="44.45705744927843" lon="7.826017737355933"><ele>342.6666666666667</ele><time>2026-03-25T17:28:08.999Z</time></trkpt><trkpt lat="44.45695076819438" lon="7.826186799325269"><ele>341.3333333333333</ele><time>2026-03-25T17:28:09.999Z</time></trkpt><trkpt lat="44.45685325699804" lon="7.8263587269155614"><ele>340.0</ele><time>2026-03-25T17:28:10.999Z</time></trkpt><trkpt lat="44.45674754876141" lon="7.826507691830627"><ele>340.0</ele><time>2026-03-25T17:28:11.999Z</time></trkpt><trkpt lat="44.45666042184828" lon="7.826684277538418"><ele>340.0</ele><time>2026-03-25T17:28:12.999Z</time></trkpt><trkpt lat="44.45654928561612" lon="7.826825423253654"><ele>340.0</ele><time>2026-03-25T17:28:13.999Z</time></trkpt><trkpt lat="44.456452095851105" lon="7.826984382743669"><ele>339.5</ele><time>2026-03-25T17:28:14.999Z</time></trkpt><trkpt lat="44.45636501420923" lon="7.827134601233483"><ele>339.0</ele><time>2026-03-25T17:28:15.999Z</time></trkpt><trkpt lat="44.4562792867786" lon="7.827277800703382"><ele>338.5</ele><time>2026-03-25T17:28:16.999Z</time></trkpt><trkpt lat="44.45619757850759" lon="7.827426085702053"><ele>338.0</ele><time>2026-03-25T17:28:17.999Z</time></trkpt><trkpt lat="44.45610566007555" lon="7.827580515626429"><ele>337.25</ele><time>2026-03-25T17:28:18.999Z</time></trkpt><trkpt lat="44.45601270698181" lon="7.8277386248475995"><ele>336.5</ele><time>2026-03-25T17:28:19.999Z</time></trkpt><trkpt lat="44.45593000746723" lon="7.827866589096715"><ele>335.75</ele><time>2026-03-25T17:28:20.999Z</time></trkpt><trkpt lat="44.45584102592314" lon="7.828004385267391"><ele>335.0</ele><time>2026-03-25T17:28:21.999Z</time></trkpt><trkpt lat="44.45575896956128" lon="7.828141010679206"><ele>335.0</ele><time>2026-03-25T17:28:22.999Z</time></trkpt><trkpt lat="44.45568069449078" lon="7.828282778386691"><ele>335.0</ele><time>2026-03-25T17:28:23.999Z</time></trkpt><trkpt lat="44.4555993573945" lon="7.828418145812426"><ele>335.0</ele><time>2026-03-25T17:28:24.999Z</time></trkpt><trkpt lat="44.455516318300596" lon="7.828558081980247"><ele>335.0</ele><time>2026-03-25T17:28:25.999Z</time></trkpt><trkpt lat="44.45544079480769" lon="7.828688114453834"><ele>332.5</ele><time>2026-03-25T17:28:26.999Z</time></trkpt><trkpt lat="44.45536143388954" lon="7.828823754313858"><ele>330.0</ele><time>2026-03-25T17:28:27.999Z</time></trkpt><trkpt lat="44.455290087865464" lon="7.828952055893288"><ele>327.5</ele><time>2026-03-25T17:28:28.999Z</time></trkpt><trkpt lat="44.45521745435895" lon="7.8290751372884975"><ele>325.0</ele><time>2026-03-25T17:28:29.999Z</time></trkpt><trkpt lat="44.455148603662664" lon="7.82918669150258"><ele>325.0</ele><time>2026-03-25T17:28:30.999Z</time></trkpt><trkpt lat="44.45508324005558" lon="7.829300968856309"><ele>325.0</ele><time>2026-03-25T17:28:31.999Z</time></trkpt><trkpt lat="44.45502135168999" lon="7.82939488532198"><ele>325.0</ele><time>2026-03-25T17:28:32.999Z</time></trkpt><trkpt lat="44.45496222292741" lon="7.829469849092508"><ele>325.0</ele><time>2026-03-25T17:28:33.999Z</time></trkpt><trkpt lat="44.45490039012756" lon="7.829533095668443"><ele>325.0</ele><time>2026-03-25T17:28:34.999Z</time></trkpt><trkpt lat="44.45482702727528" lon="7.8295785076105675"><ele>325.0</ele><time>2026-03-25T17:28:35.999Z</time></trkpt><trkpt lat="44.454747403785" lon="7.829597383066617"><ele>324.6</ele><time>2026-03-25T17:28:36.999Z</time></trkpt><trkpt lat="44.45466257737911" lon="7.8295836853398955"><ele>324.2</ele><time>2026-03-25T17:28:37.999Z</time></trkpt><trkpt lat="44.45457043172655" lon="7.829545542705385"><ele>323.79999999999995</ele><time>2026-03-25T17:28:38.999Z</time></trkpt><trkpt lat="44.454477536998496" lon="7.829481984229656"><ele>323.4</ele><time>2026-03-25T17:28:39.999Z</time></trkpt><trkpt lat="44.45440208260678" lon="7.829397010706214"><ele>323.0</ele><time>2026-03-25T17:28:40.999Z</time></trkpt><trkpt lat="44.4543181293626" lon="7.829317465596069"><ele>321.4</ele><time>2026-03-25T17:28:41.999Z</time></trkpt><trkpt lat="44.45423338381364" lon="7.8292297148598395"><ele>319.79999999999995</ele><time>2026-03-25T17:28:42.999Z</time></trkpt><trkpt lat="44.4541417542256" lon="7.829146997655518"><ele>318.2</ele><time>2026-03-25T17:28:43.999Z</time></trkpt><trkpt lat="44.45405284304809" lon="7.829063365866075"><ele>316.6</ele><time>2026-03-25T17:28:44.999Z</time></trkpt><trkpt lat="44.45395865874571" lon="7.8289727351677785"><ele>315.0</ele><time>2026-03-25T17:28:45.999Z</time></trkpt><trkpt lat="44.45385707329321" lon="7.828872390935361"><ele>313.0</ele><time>2026-03-25T17:28:46.999Z</time></trkpt><trkpt lat="44.453753382339826" lon="7.828771071511174"><ele>311.0</ele><time>2026-03-25T17:28:47.999Z</time></trkpt><trkpt lat="44.453640937993946" lon="7.828661259156517"><ele>309.0</ele><time>2026-03-25T17:28:48.999Z</time></trkpt><trkpt lat="44.453519146630036" lon="7.828541831957013"><ele>307.0</ele><time>2026-03-25T17:28:49.999Z</time></trkpt><trkpt lat="44.45339373144013" lon="7.828415520678025"><ele>306.66666666666663</ele><time>2026-03-25T17:28:50.999Z</time></trkpt><trkpt lat="44.4532646695939" lon="7.828291664932649"><ele>306.3333333333333</ele><time>2026-03-25T17:28:51.999Z</time></trkpt><trkpt lat="44.45314229886826" lon="7.828173823081321"><ele>306.0</ele><time>2026-03-25T17:28:52.999Z</time></trkpt><trkpt lat="44.45301854436882" lon="7.828057805644888"><ele>305.75</ele><time>2026-03-25T17:28:53.999Z</time></trkpt><trkpt lat="44.45290453909334" lon="7.827946007970969"><ele>305.5</ele><time>2026-03-25T17:28:54.999Z</time></trkpt><trkpt lat="44.45279698184608" lon="7.827848530061002"><ele>305.25</ele><time>2026-03-25T17:28:55.999Z</time></trkpt><trkpt lat="44.45269168851457" lon="7.8277562332363315"><ele>305.0</ele><time>2026-03-25T17:28:56.999Z</time></trkpt><trkpt lat="44.452584514667194" lon="7.8276720965583175"><ele>304.75</ele><time>2026-03-25T17:28:57.999Z</time></trkpt><trkpt lat="44.45247515911051" lon="7.82760041602877"><ele>304.5</ele><time>2026-03-25T17:28:58.999Z</time></trkpt><trkpt lat="44.45236704771308" lon="7.827545063829032"><ele>304.25</ele><time>2026-03-25T17:28:59.999Z</time></trkpt><trkpt lat="44.452249728220586" lon="7.8275147322579475"><ele>304.0</ele><time>2026-03-25T17:29:00.999Z</time></trkpt><trkpt lat="44.45212168686106" lon="7.827495840166016"><ele>304.5</ele><time>2026-03-25T17:29:01.999Z</time></trkpt><trkpt lat="44.451995092331465" lon="7.827504356448608"><ele>305.0</ele><time>2026-03-25T17:29:02.999Z</time></trkpt><trkpt lat="44.45187684142236" lon="7.8275354733903955"><ele>305.5</ele><time>2026-03-25T17:29:03.999Z</time></trkpt><trkpt lat="44.45175983166115" lon="7.827571241819416"><ele>306.0</ele><time>2026-03-25T17:29:04.998Z</time></trkpt><trkpt lat="44.45165136536027" lon="7.827598001204127"><ele>306.0</ele><time>2026-03-25T17:29:05.998Z</time></trkpt><trkpt lat="44.45154740685559" lon="7.827619467074637"><ele>306.0</ele><time>2026-03-25T17:29:06.998Z</time></trkpt><trkpt lat="44.45146357639118" lon="7.827645643522841"><ele>306.0</ele><time>2026-03-25T17:29:07.998Z</time></trkpt><trkpt lat="44.45138547214477" lon="7.827680332595125"><ele>306.0</ele><time>2026-03-25T17:29:08.998Z</time></trkpt><trkpt lat="44.451322556004776" lon="7.827710278123931"><ele>306.0</ele><time>2026-03-25T17:29:09.998Z</time></trkpt><trkpt lat="44.451257504949936" lon="7.827791534610837"><ele>306.0</ele><time>2026-03-25T17:29:10.998Z</time></trkpt><trkpt lat="44.45121003029509" lon="7.827903710524144"><ele>309.20000000000005</ele><time>2026-03-25T17:29:11.998Z</time></trkpt><trkpt lat="44.45120387560766" lon="7.828043724491194"><ele>312.40000000000003</ele><time>2026-03-25T17:29:12.998Z</time></trkpt><trkpt lat="44.451191945763505" lon="7.828176941015373"><ele>315.6</ele><time>2026-03-25T17:29:13.998Z</time></trkpt><trkpt lat="44.451189567359364" lon="7.828310405036083"><ele>318.8</ele><time>2026-03-25T17:29:14.998Z</time></trkpt><trkpt lat="44.451188242244385" lon="7.828431691928294"><ele>322.0</ele><time>2026-03-25T17:29:15.998Z</time></trkpt><trkpt lat="44.45116911832479" lon="7.828537487486561"><ele>323.0</ele><time>2026-03-25T17:29:16.998Z</time></trkpt><trkpt lat="44.45113339024323" lon="7.828624887667928"><ele>324.0</ele><time>2026-03-25T17:29:17.998Z</time></trkpt><trkpt lat="44.451081319695035" lon="7.82870552176838"><ele>325.0</ele><time>2026-03-25T17:29:18.998Z</time></trkpt><trkpt lat="44.45101410003669" lon="7.828746160646625"><ele>326.0</ele><time>2026-03-25T17:29:19.998Z</time></trkpt><trkpt lat="44.45093631011192" lon="7.828752178914572"><ele>327.0</ele><time>2026-03-25T17:29:20.998Z</time></trkpt><trkpt lat="44.450856037527686" lon="7.828721233249596"><ele>328.0</ele><time>2026-03-25T17:29:21.998Z</time></trkpt><trkpt lat="44.4507827961966" lon="7.828655636362489"><ele>328.0</ele><time>2026-03-25T17:29:22.998Z</time></trkpt><trkpt lat="44.45070985634963" lon="7.828560827966393"><ele>328.0</ele><time>2026-03-25T17:29:23.998Z</time></trkpt><trkpt lat="44.4506326103126" lon="7.8284647216101595"><ele>328.0</ele><time>2026-03-25T17:29:24.998Z</time></trkpt><trkpt lat="44.450547618998584" lon="7.82837039432606"><ele>328.0</ele><time>2026-03-25T17:29:25.998Z</time></trkpt><trkpt lat="44.45045860837868" lon="7.828269515218635"><ele>328.0</ele><time>2026-03-25T17:29:26.998Z</time></trkpt><trkpt lat="44.45036633504177" lon="7.828169293976757"><ele>329.5</ele><time>2026-03-25T17:29:27.998Z</time></trkpt><trkpt lat="44.45027344444584" lon="7.8280637242817175"><ele>331.0</ele><time>2026-03-25T17:29:28.998Z</time></trkpt><trkpt lat="44.45017973609945" lon="7.827952231407117"><ele>332.5</ele><time>2026-03-25T17:29:30Z</time></trkpt><trkpt lat="44.45008457061012" lon="7.827838070919869"><ele>334.0</ele><time>2026-03-25T17:29:31Z</time></trkpt><trkpt lat="44.449987532369775" lon="7.827718841103327"><ele>332.25</ele><time>2026-03-25T17:29:32Z</time></trkpt><trkpt lat="44.449886160286084" lon="7.8276136712655875"><ele>330.5</ele><time>2026-03-25T17:29:33Z</time></trkpt><trkpt lat="44.44979102811531" lon="7.827498619012492"><ele>328.75</ele><time>2026-03-25T17:29:34Z</time></trkpt><trkpt lat="44.4497052059005" lon="7.827407570590445"><ele>327.0</ele><time>2026-03-25T17:29:35Z</time></trkpt><trkpt lat="44.44962982489046" lon="7.8273226371694555"><ele>328.5</ele><time>2026-03-25T17:29:36Z</time></trkpt><trkpt lat="44.44956527548615" lon="7.827261804543692"><ele>330.0</ele><time>2026-03-25T17:29:37Z</time></trkpt><trkpt lat="44.44950449671389" lon="7.827215880864384"><ele>331.5</ele><time>2026-03-25T17:29:38Z</time></trkpt><trkpt lat="44.44943165203894" lon="7.827190306942809"><ele>333.0</ele><time>2026-03-25T17:29:39Z</time></trkpt><trkpt lat="44.449347627619574" lon="7.827177870051631"><ele>334.5</ele><time>2026-03-25T17:29:40Z</time></trkpt><trkpt lat="44.44926715521672" lon="7.827201172098229"><ele>336.0</ele><time>2026-03-25T17:29:41Z</time></trkpt><trkpt lat="44.44919072277907" lon="7.827259377011983"><ele>336.0</ele><time>2026-03-25T17:29:42Z</time></trkpt><trkpt lat="44.44912479969803" lon="7.827330534289039"><ele>336.0</ele><time>2026-03-25T17:29:43Z</time></trkpt><trkpt lat="44.44907627297578" lon="7.827422736668452"><ele>336.0</ele><time>2026-03-25T17:29:44Z</time></trkpt><trkpt lat="44.44903886976411" lon="7.827526394622488"><ele>336.0</ele><time>2026-03-25T17:29:45Z</time></trkpt><trkpt lat="44.44902131817132" lon="7.827636542446847"><ele>336.0</ele><time>2026-03-25T17:29:46Z</time></trkpt><trkpt lat="44.449022720798546" lon="7.82776162941413"><ele>336.0</ele><time>2026-03-25T17:29:47Z</time></trkpt><trkpt lat="44.44903783158897" lon="7.827890770672378"><ele>337.8</ele><time>2026-03-25T17:29:48Z</time></trkpt><trkpt lat="44.44907006121562" lon="7.828022811509462"><ele>339.6</ele><time>2026-03-25T17:29:49Z</time></trkpt><trkpt lat="44.449106689416375" lon="7.828161764716262"><ele>341.4</ele><time>2026-03-25T17:29:50Z</time></trkpt><trkpt lat="44.449145416460624" lon="7.828298270307455"><ele>343.2</ele><time>2026-03-25T17:29:51Z</time></trkpt><trkpt lat="44.449188425961935" lon="7.82843988957743"><ele>345.0</ele><time>2026-03-25T17:29:52Z</time></trkpt><trkpt lat="44.449227817577594" lon="7.828592142420509"><ele>347.5</ele><time>2026-03-25T17:29:53Z</time></trkpt><trkpt lat="44.44927096891977" lon="7.828746496307465"><ele>350.0</ele><time>2026-03-25T17:29:54Z</time></trkpt><trkpt lat="44.44931909980482" lon="7.828900806204742"><ele>352.5</ele><time>2026-03-25T17:29:55Z</time></trkpt><trkpt lat="44.44937233317908" lon="7.8290555000173425"><ele>355.0</ele><time>2026-03-25T17:29:56Z</time></trkpt><trkpt lat="44.44941862402776" lon="7.829202405744519"><ele>356.8</ele><time>2026-03-25T17:29:57Z</time></trkpt><trkpt lat="44.449457240237116" lon="7.829329120314027"><ele>358.6</ele><time>2026-03-25T17:29:58Z</time></trkpt><trkpt lat="44.44948925298554" lon="7.829439043528628"><ele>360.4</ele><time>2026-03-25T17:29:59Z</time></trkpt><trkpt lat="44.44951786961646" lon="7.829535191288772"><ele>362.2</ele><time>2026-03-25T17:30:00Z</time></trkpt><trkpt lat="44.449531737011206" lon="7.829701188611238"><ele>364.0</ele><time>2026-03-25T17:30:02Z</time></trkpt><trkpt lat="44.44946765533452" lon="7.829826058943563"><ele>364.0</ele><time>2026-03-25T17:30:04Z</time></trkpt><trkpt lat="44.44934262737675" lon="7.829836665218307"><ele>364.0</ele><time>2026-03-25T17:30:06Z</time></trkpt><trkpt lat="44.44927264351337" lon="7.829803921575659"><ele>364.0</ele><time>2026-03-25T17:30:07Z</time></trkpt><trkpt lat="44.44919350006586" lon="7.829771913346527"><ele>364.0</ele><time>2026-03-25T17:30:08Z</time></trkpt><trkpt lat="44.44910728543858" lon="7.829739716129489"><ele>364.0</ele><time>2026-03-25T17:30:09Z</time></trkpt><trkpt lat="44.449007724195695" lon="7.829714953292381"><ele>364.0</ele><time>2026-03-25T17:30:10Z</time></trkpt><trkpt lat="44.448917022445684" lon="7.829686983127109"><ele>364.0</ele><time>2026-03-25T17:30:11Z</time></trkpt><trkpt lat="44.44880854427199" lon="7.82964969075771"><ele>364.0</ele><time>2026-03-25T17:30:12Z</time></trkpt><trkpt lat="44.44869862896523" lon="7.829619064144852"><ele>364.0</ele><time>2026-03-25T17:30:12.999Z</time></trkpt><trkpt lat="44.44858982169704" lon="7.829579966883332"><ele>364.0</ele><time>2026-03-25T17:30:13.999Z</time></trkpt><trkpt lat="44.44847506845384" lon="7.829534043621548"><ele>366.25</ele><time>2026-03-25T17:30:14.999Z</time></trkpt><trkpt lat="44.44835650463561" lon="7.829489506149845"><ele>368.5</ele><time>2026-03-25T17:30:15.999Z</time></trkpt><trkpt lat="44.44823382160665" lon="7.82944320273382"><ele>370.75</ele><time>2026-03-25T17:30:16.999Z</time></trkpt><trkpt lat="44.44809854245439" lon="7.829405852810494"><ele>373.0</ele><time>2026-03-25T17:30:17.999Z</time></trkpt><trkpt lat="44.44796686190275" lon="7.8293728708723656"><ele>373.25</ele><time>2026-03-25T17:30:18.999Z</time></trkpt><trkpt lat="44.44784169595304" lon="7.829328388398292"><ele>373.5</ele><time>2026-03-25T17:30:19.999Z</time></trkpt><trkpt lat="44.44771298823197" lon="7.829289509828444"><ele>373.75</ele><time>2026-03-25T17:30:20.999Z</time></trkpt><trkpt lat="44.44759687645768" lon="7.829231329921071"><ele>374.0</ele><time>2026-03-25T17:30:21.999Z</time></trkpt><trkpt lat="44.44749373061774" lon="7.829214044130293"><ele>374.0</ele><time>2026-03-25T17:30:22.999Z</time></trkpt><trkpt lat="44.44737861583092" lon="7.829168751236378"><ele>374.0</ele><time>2026-03-25T17:30:23.999Z</time></trkpt><trkpt lat="44.44726360349397" lon="7.829125448036537"><ele>374.0</ele><time>2026-03-25T17:30:24.999Z</time></trkpt><trkpt lat="44.44713959568197" lon="7.829072008383046"><ele>374.0</ele><time>2026-03-25T17:30:25.999Z</time></trkpt><trkpt lat="44.44701834885539" lon="7.829042430690591"><ele>376.25</ele><time>2026-03-25T17:30:26.999Z</time></trkpt><trkpt lat="44.44690239618132" lon="7.829006790441181"><ele>378.5</ele><time>2026-03-25T17:30:27.999Z</time></trkpt><trkpt lat="44.446776289734835" lon="7.828950577438829"><ele>380.75</ele><time>2026-03-25T17:30:28.999Z</time></trkpt><trkpt lat="44.44665343586131" lon="7.8289137241634466"><ele>383.0</ele><time>2026-03-25T17:30:29.999Z</time></trkpt><trkpt lat="44.44653004887871" lon="7.828874027099543"><ele>383.0</ele><time>2026-03-25T17:30:30.999Z</time></trkpt><trkpt lat="44.4464104804265" lon="7.828836986162056"><ele>383.0</ele><time>2026-03-25T17:30:31.999Z</time></trkpt><trkpt lat="44.446288300493016" lon="7.828796464988062"><ele>383.0</ele><time>2026-03-25T17:30:32.999Z</time></trkpt><trkpt lat="44.44616116793222" lon="7.828752824947636"><ele>383.0</ele><time>2026-03-25T17:30:33.999Z</time></trkpt><trkpt lat="44.44603345206627" lon="7.828709844278275"><ele>385.0</ele><time>2026-03-25T17:30:34.999Z</time></trkpt><trkpt lat="44.44591067494532" lon="7.828672199455365"><ele>387.0</ele><time>2026-03-25T17:30:35.999Z</time></trkpt><trkpt lat="44.44578436976568" lon="7.828629133706414"><ele>389.0</ele><time>2026-03-25T17:30:36.999Z</time></trkpt><trkpt lat="44.445659724638986" lon="7.82858726818653"><ele>391.0</ele><time>2026-03-25T17:30:37.999Z</time></trkpt><trkpt lat="44.44555531980623" lon="7.828545242874819"><ele>391.20000000000005</ele><time>2026-03-25T17:30:38.999Z</time></trkpt><trkpt lat="44.44545503586404" lon="7.828508965988711"><ele>391.40000000000003</ele><time>2026-03-25T17:30:39.999Z</time></trkpt><trkpt lat="44.44535436343382" lon="7.828472696049061"><ele>391.6</ele><time>2026-03-25T17:30:40.999Z</time></trkpt><trkpt lat="44.4452475303935" lon="7.828437023939476"><ele>391.8</ele><time>2026-03-25T17:30:41.999Z</time></trkpt><trkpt lat="44.44514495894863" lon="7.828409755192966"><ele>392.0</ele><time>2026-03-25T17:30:42.999Z</time></trkpt><trkpt lat="44.44504344427134" lon="7.828377996745079"><ele>392.0</ele><time>2026-03-25T17:30:43.999Z</time></trkpt><trkpt lat="44.444946033167696" lon="7.828347193661702"><ele>392.0</ele><time>2026-03-25T17:30:44.999Z</time></trkpt><trkpt lat="44.444855432231954" lon="7.828319873546389"><ele>392.0</ele><time>2026-03-25T17:30:45.999Z</time></trkpt><trkpt lat="44.444760198295505" lon="7.828287659909279"><ele>392.0</ele><time>2026-03-25T17:30:46.999Z</time></trkpt><trkpt lat="44.44466271166961" lon="7.828251929970557"><ele>392.0</ele><time>2026-03-25T17:30:47.999Z</time></trkpt><trkpt lat="44.444571024606475" lon="7.8282010875212125"><ele>392.0</ele><time>2026-03-25T17:30:48.999Z</time></trkpt><trkpt lat="44.44447603054716" lon="7.8281353845728265"><ele>392.0</ele><time>2026-03-25T17:30:49.999Z</time></trkpt><trkpt lat="44.44439480469003" lon="7.828060573850822"><ele>392.0</ele><time>2026-03-25T17:30:50.999Z</time></trkpt><trkpt lat="44.444303106588634" lon="7.82798939926889"><ele>392.0</ele><time>2026-03-25T17:30:51.999Z</time></trkpt><trkpt lat="44.444224296151624" lon="7.827890625539808"><ele>392.0</ele><time>2026-03-25T17:30:52.999Z</time></trkpt><trkpt lat="44.444142376889275" lon="7.827793077881082"><ele>392.0</ele><time>2026-03-25T17:30:53.999Z</time></trkpt><trkpt lat="44.444068640242584" lon="7.827688291837932"><ele>392.0</ele><time>2026-03-25T17:30:54.999Z</time></trkpt><trkpt lat="44.44399353717727" lon="7.827589249196053"><ele>392.0</ele><time>2026-03-25T17:30:55.999Z</time></trkpt><trkpt lat="44.44392064977923" lon="7.827476584022692"><ele>392.0</ele><time>2026-03-25T17:30:56.999Z</time></trkpt><trkpt lat="44.44383740465598" lon="7.827364381479849"><ele>392.0</ele><time>2026-03-25T17:30:57.999Z</time></trkpt><trkpt lat="44.44376648147934" lon="7.82725672310602"><ele>392.0</ele><time>2026-03-25T17:30:58.999Z</time></trkpt><trkpt lat="44.44368298646608" lon="7.827145303994984"><ele>392.0</ele><time>2026-03-25T17:30:59.999Z</time></trkpt><trkpt lat="44.44360287192055" lon="7.827040374541304"><ele>392.0</ele><time>2026-03-25T17:31:00.999Z</time></trkpt><trkpt lat="44.443523140932626" lon="7.826937170541983"><ele>392.0</ele><time>2026-03-25T17:31:01.999Z</time></trkpt><trkpt lat="44.44344225673199" lon="7.8268202816765875"><ele>392.20000000000005</ele><time>2026-03-25T17:31:02.999Z</time></trkpt><trkpt lat="44.44336137354012" lon="7.826715984581866"><ele>392.4</ele><time>2026-03-25T17:31:03.999Z</time></trkpt><trkpt lat="44.44327278470043" lon="7.826599224093737"><ele>392.6</ele><time>2026-03-25T17:31:04.999Z</time></trkpt><trkpt lat="44.443188648969645" lon="7.82650546033963"><ele>392.79999999999995</ele><time>2026-03-25T17:31:05.999Z</time></trkpt><trkpt lat="44.44311023286804" lon="7.8264143458359765"><ele>393.0</ele><time>2026-03-25T17:31:06.999Z</time></trkpt><trkpt lat="44.443026725049364" lon="7.82631782283751"><ele>392.75</ele><time>2026-03-25T17:31:07.999Z</time></trkpt><trkpt lat="44.44293807257041" lon="7.826229099761395"><ele>392.5</ele><time>2026-03-25T17:31:08.999Z</time></trkpt><trkpt lat="44.44284095943467" lon="7.826135714977492"><ele>392.25</ele><time>2026-03-25T17:31:09.999Z</time></trkpt><trkpt lat="44.442732413679444" lon="7.82604673341541"><ele>392.0</ele><time>2026-03-25T17:31:10.998Z</time></trkpt><trkpt lat="44.44262608365334" lon="7.825970617140698"><ele>392.0</ele><time>2026-03-25T17:31:11.998Z</time></trkpt><trkpt lat="44.44251072341642" lon="7.825894426363841"><ele>392.0</ele><time>2026-03-25T17:31:12.998Z</time></trkpt><trkpt lat="44.4423882195305" lon="7.825823096009017"><ele>392.0</ele><time>2026-03-25T17:31:13.998Z</time></trkpt><trkpt lat="44.44226678625258" lon="7.825759314840096"><ele>392.0</ele><time>2026-03-25T17:31:14.998Z</time></trkpt><trkpt lat="44.442136597703964" lon="7.8256979872885335"><ele>392.25</ele><time>2026-03-25T17:31:15.998Z</time></trkpt><trkpt lat="44.441999721679736" lon="7.825647910366362"><ele>392.5</ele><time>2026-03-25T17:31:16.998Z</time></trkpt><trkpt lat="44.44186858929029" lon="7.825590791584908"><ele>392.75</ele><time>2026-03-25T17:31:17.998Z</time></trkpt><trkpt lat="44.44172595911742" lon="7.825537692206804"><ele>393.0</ele><time>2026-03-25T17:31:18.998Z</time></trkpt><trkpt lat="44.4415828015444" lon="7.825485093730926"><ele>393.0</ele><time>2026-03-25T17:31:19.998Z</time></trkpt><trkpt lat="44.44144032688652" lon="7.82543223932601"><ele>393.0</ele><time>2026-03-25T17:31:20.998Z</time></trkpt><trkpt lat="44.44129449084469" lon="7.825374514996001"><ele>393.0</ele><time>2026-03-25T17:31:21.998Z</time></trkpt><trkpt lat="44.44115768883536" lon="7.8253195884228575"><ele>393.0</ele><time>2026-03-25T17:31:22.998Z</time></trkpt><trkpt lat="44.441018329725345" lon="7.825265288625541"><ele>392.75</ele><time>2026-03-25T17:31:23.998Z</time></trkpt><trkpt lat="44.44088327472232" lon="7.825216064470982"><ele>392.5</ele><time>2026-03-25T17:31:24.998Z</time></trkpt><trkpt lat="44.44074640330872" lon="7.825159421891028"><ele>392.25</ele><time>2026-03-25T17:31:25.998Z</time></trkpt><trkpt lat="44.44060443253919" lon="7.825105881884398"><ele>392.0</ele><time>2026-03-25T17:31:26.998Z</time></trkpt><trkpt lat="44.440460111090744" lon="7.825042717200521"><ele>392.0</ele><time>2026-03-25T17:31:27.998Z</time></trkpt><trkpt lat="44.440320276921874" lon="7.824993851757406"><ele>392.0</ele><time>2026-03-25T17:31:28.998Z</time></trkpt><trkpt lat="44.44017734075028" lon="7.8249394957878"><ele>392.0</ele><time>2026-03-25T17:31:29.998Z</time></trkpt><trkpt lat="44.44003341298476" lon="7.824887015609458"><ele>392.0</ele><time>2026-03-25T17:31:30.998Z</time></trkpt><trkpt lat="44.43988804700792" lon="7.824832094252177"><ele>392.0</ele><time>2026-03-25T17:31:31.998Z</time></trkpt><trkpt lat="44.43974580686623" lon="7.824768774048262"><ele>392.0</ele><time>2026-03-25T17:31:32.998Z</time></trkpt><trkpt lat="44.43959996948589" lon="7.824718372430806"><ele>392.0</ele><time>2026-03-25T17:31:33.998Z</time></trkpt><trkpt lat="44.43945885750222" lon="7.824665973113067"><ele>392.0</ele><time>2026-03-25T17:31:34.998Z</time></trkpt><trkpt lat="44.43931565255686" lon="7.8246135473607445"><ele>392.25</ele><time>2026-03-25T17:31:36Z</time></trkpt><trkpt lat="44.43917214559358" lon="7.8245700319062035"><ele>392.5</ele><time>2026-03-25T17:31:37Z</time></trkpt><trkpt lat="44.4390311564018" lon="7.824517973491003"><ele>392.75</ele><time>2026-03-25T17:31:38Z</time></trkpt><trkpt lat="44.43889576146809" lon="7.824471362530719"><ele>393.0</ele><time>2026-03-25T17:31:39Z</time></trkpt><trkpt lat="44.438751515754866" lon="7.824422123221227"><ele>393.0</ele><time>2026-03-25T17:31:40Z</time></trkpt><trkpt lat="44.43861423465862" lon="7.824367484407786"><ele>393.0</ele><time>2026-03-25T17:31:41Z</time></trkpt><trkpt lat="44.43847688961999" lon="7.824313492981152"><ele>393.0</ele><time>2026-03-25T17:31:42Z</time></trkpt><trkpt lat="44.43835374812301" lon="7.824252030821906"><ele>393.0</ele><time>2026-03-25T17:31:43Z</time></trkpt><trkpt lat="44.43821352031857" lon="7.824201659424797"><ele>393.0</ele><time>2026-03-25T17:31:44Z</time></trkpt><trkpt lat="44.438078828242745" lon="7.824153480999119"><ele>393.0</ele><time>2026-03-25T17:31:45Z</time></trkpt><trkpt lat="44.43794151979098" lon="7.824102326861748"><ele>393.0</ele><time>2026-03-25T17:31:46Z</time></trkpt><trkpt lat="44.43780788858806" lon="7.824050199788736"><ele>393.0</ele><time>2026-03-25T17:31:47Z</time></trkpt><trkpt lat="44.43767275019857" lon="7.823999212918743"><ele>393.25</ele><time>2026-03-25T17:31:48Z</time></trkpt><trkpt lat="44.437539405248735" lon="7.823948548611838"><ele>393.5</ele><time>2026-03-25T17:31:49Z</time></trkpt><trkpt lat="44.437403663576525" lon="7.823896330157472"><ele>393.75</ele><time>2026-03-25T17:31:50Z</time></trkpt><trkpt lat="44.43726780999983" lon="7.82384269677544"><ele>394.0</ele><time>2026-03-25T17:31:51Z</time></trkpt><trkpt lat="44.43713571022591" lon="7.823792248304189"><ele>394.0</ele><time>2026-03-25T17:31:52Z</time></trkpt><trkpt lat="44.43700143120381" lon="7.823740235987969"><ele>394.0</ele><time>2026-03-25T17:31:53Z</time></trkpt><trkpt lat="44.43686457806639" lon="7.823691070244206"><ele>394.0</ele><time>2026-03-25T17:31:54Z</time></trkpt><trkpt lat="44.43672697142393" lon="7.823639759071077"><ele>394.0</ele><time>2026-03-25T17:31:55Z</time></trkpt><trkpt lat="44.43659063950847" lon="7.823590758674074"><ele>394.0</ele><time>2026-03-25T17:31:56Z</time></trkpt><trkpt lat="44.43645216259754" lon="7.823540858785119"><ele>394.0</ele><time>2026-03-25T17:31:57Z</time></trkpt><trkpt lat="44.43631364612661" lon="7.823489814727077"><ele>394.0</ele><time>2026-03-25T17:31:58Z</time></trkpt><trkpt lat="44.43617989508859" lon="7.823435154714086"><ele>394.0</ele><time>2026-03-25T17:31:59Z</time></trkpt><trkpt lat="44.43604426287651" lon="7.823384659975619"><ele>394.0</ele><time>2026-03-25T17:32:00Z</time></trkpt><trkpt lat="44.43590833061223" lon="7.823336699272865"><ele>394.0</ele><time>2026-03-25T17:32:01Z</time></trkpt><trkpt lat="44.43576858921036" lon="7.823286155906159"><ele>394.0</ele><time>2026-03-25T17:32:02Z</time></trkpt><trkpt lat="44.435626329350754" lon="7.823237311782199"><ele>394.0</ele><time>2026-03-25T17:32:03Z</time></trkpt><trkpt lat="44.43548848992974" lon="7.823182514445917"><ele>393.75</ele><time>2026-03-25T17:32:04Z</time></trkpt><trkpt lat="44.43535063484217" lon="7.823131221169597"><ele>393.5</ele><time>2026-03-25T17:32:05Z</time></trkpt><trkpt lat="44.4352099473295" lon="7.82308169563786"><ele>393.25</ele><time>2026-03-25T17:32:06Z</time></trkpt><trkpt lat="44.435071244724185" lon="7.823032698328382"><ele>393.0</ele><time>2026-03-25T17:32:07Z</time></trkpt><trkpt lat="44.43492178734854" lon="7.822978273563782"><ele>393.0</ele><time>2026-03-25T17:32:08Z</time></trkpt><trkpt lat="44.43478172438937" lon="7.822908666289825"><ele>393.0</ele><time>2026-03-25T17:32:09Z</time></trkpt><trkpt lat="44.43464648777959" lon="7.822857048419597"><ele>393.0</ele><time>2026-03-25T17:32:10Z</time></trkpt><trkpt lat="44.43450803103612" lon="7.822804201493935"><ele>393.0</ele><time>2026-03-25T17:32:11Z</time></trkpt><trkpt lat="44.43437054113889" lon="7.822751723597357"><ele>393.0</ele><time>2026-03-25T17:32:12Z</time></trkpt><trkpt lat="44.43422992755548" lon="7.822710224438998"><ele>393.0</ele><time>2026-03-25T17:32:13Z</time></trkpt><trkpt lat="44.4340890277646" lon="7.822657936472779"><ele>393.0</ele><time>2026-03-25T17:32:14Z</time></trkpt><trkpt lat="44.43394792992953" lon="7.8226064689678685"><ele>393.0</ele><time>2026-03-25T17:32:15Z</time></trkpt><trkpt lat="44.43380368149002" lon="7.82255638491155"><ele>392.75</ele><time>2026-03-25T17:32:16Z</time></trkpt><trkpt lat="44.433666831178044" lon="7.822481208201196"><ele>392.5</ele><time>2026-03-25T17:32:17Z</time></trkpt><trkpt lat="44.43351784674392" lon="7.822440547004925"><ele>392.25</ele><time>2026-03-25T17:32:18Z</time></trkpt><trkpt lat="44.4333782454325" lon="7.822384553935349"><ele>392.0</ele><time>2026-03-25T17:32:19Z</time></trkpt><trkpt lat="44.433245380050685" lon="7.822333295294485"><ele>392.0</ele><time>2026-03-25T17:32:20Z</time></trkpt><trkpt lat="44.4330971961583" lon="7.822283645671021"><ele>392.0</ele><time>2026-03-25T17:32:20.999Z</time></trkpt><trkpt lat="44.43295337459065" lon="7.822230794623375"><ele>392.0</ele><time>2026-03-25T17:32:21.999Z</time></trkpt><trkpt lat="44.43281171583157" lon="7.822175087012004"><ele>392.0</ele><time>2026-03-25T17:32:22.999Z</time></trkpt><trkpt lat="44.432664561306865" lon="7.822119151521055"><ele>392.5</ele><time>2026-03-25T17:32:23.999Z</time></trkpt><trkpt lat="44.43253045868299" lon="7.822066733072811"><ele>393.0</ele><time>2026-03-25T17:32:24.999Z</time></trkpt><trkpt lat="44.432391334951" lon="7.821992298328749"><ele>393.5</ele><time>2026-03-25T17:32:25.999Z</time></trkpt><trkpt lat="44.43225335587247" lon="7.821938780406249"><ele>394.0</ele><time>2026-03-25T17:32:26.999Z</time></trkpt><trkpt lat="44.432117707799854" lon="7.821886168405422"><ele>394.0</ele><time>2026-03-25T17:32:27.999Z</time></trkpt><trkpt lat="44.43197441894986" lon="7.8218305910106904"><ele>394.0</ele><time>2026-03-25T17:32:28.999Z</time></trkpt><trkpt lat="44.431835717090095" lon="7.82177679266442"><ele>394.0</ele><time>2026-03-25T17:32:29.999Z</time></trkpt><trkpt lat="44.4316951538377" lon="7.821722272409402"><ele>394.0</ele><time>2026-03-25T17:32:30.999Z</time></trkpt><trkpt lat="44.43155570277668" lon="7.821668628456306"><ele>394.0</ele><time>2026-03-25T17:32:31.999Z</time></trkpt><trkpt lat="44.43141880110507" lon="7.821639243512053"><ele>394.0</ele><time>2026-03-25T17:32:32.999Z</time></trkpt><trkpt lat="44.43129453926474" lon="7.821591125131521"><ele>394.0</ele><time>2026-03-25T17:32:33.999Z</time></trkpt><trkpt lat="44.431179679435175" lon="7.82152371518305"><ele>394.0</ele><time>2026-03-25T17:32:34.999Z</time></trkpt><trkpt lat="44.43106467182057" lon="7.821473963816755"><ele>394.0</ele><time>2026-03-25T17:32:35.999Z</time></trkpt><trkpt lat="44.430960719734905" lon="7.821428732683625"><ele>394.0</ele><time>2026-03-25T17:32:36.999Z</time></trkpt><trkpt lat="44.43085574402184" lon="7.821385435852445"><ele>394.0</ele><time>2026-03-25T17:32:37.999Z</time></trkpt><trkpt lat="44.4307480428187" lon="7.8213448441497775"><ele>394.0</ele><time>2026-03-25T17:32:38.999Z</time></trkpt><trkpt lat="44.43062073968568" lon="7.821308469692549"><ele>394.0</ele><time>2026-03-25T17:32:39.999Z</time></trkpt><trkpt lat="44.43051994442352" lon="7.8212727503647"><ele>394.0</ele><time>2026-03-25T17:32:40.999Z</time></trkpt><trkpt lat="44.43041849462734" lon="7.82123616725628"><ele>394.0</ele><time>2026-03-25T17:32:41.999Z</time></trkpt><trkpt lat="44.430316130532724" lon="7.821200461530638"><ele>394.0</ele><time>2026-03-25T17:32:42.999Z</time></trkpt><trkpt lat="44.43020934612183" lon="7.82115929244938"><ele>394.0</ele><time>2026-03-25T17:32:43.999Z</time></trkpt><trkpt lat="44.43010955720495" lon="7.8211264600061945"><ele>394.0</ele><time>2026-03-25T17:32:44.999Z</time></trkpt><trkpt lat="44.4300135058323" lon="7.821073181652727"><ele>394.0</ele><time>2026-03-25T17:32:45.999Z</time></trkpt><trkpt lat="44.429908521328244" lon="7.821041592792289"><ele>394.0</ele><time>2026-03-25T17:32:46.999Z</time></trkpt><trkpt lat="44.429797227463524" lon="7.821035817470357"><ele>394.0</ele><time>2026-03-25T17:32:47.999Z</time></trkpt><trkpt lat="44.42968746307269" lon="7.820997280904144"><ele>394.0</ele><time>2026-03-25T17:32:48.999Z</time></trkpt><trkpt lat="44.429587036825644" lon="7.820985391600283"><ele>394.0</ele><time>2026-03-25T17:32:49.999Z</time></trkpt><trkpt lat="44.42947974945752" lon="7.820974239853796"><ele>394.0</ele><time>2026-03-25T17:32:50.999Z</time></trkpt><trkpt lat="44.429372243046906" lon="7.820964449335486"><ele>394.0</ele><time>2026-03-25T17:32:51.999Z</time></trkpt><trkpt lat="44.429268156847556" lon="7.820952936708596"><ele>394.0</ele><time>2026-03-25T17:32:52.999Z</time></trkpt><trkpt lat="44.42916177014387" lon="7.82094329202219"><ele>394.0</ele><time>2026-03-25T17:32:53.999Z</time></trkpt><trkpt lat="44.429066009666215" lon="7.820938360389558"><ele>394.0</ele><time>2026-03-25T17:32:54.999Z</time></trkpt><trkpt lat="44.428963142022646" lon="7.820939466494479"><ele>394.0</ele><time>2026-03-25T17:32:55.999Z</time></trkpt><trkpt lat="44.42886538983672" lon="7.820930786792635"><ele>394.0</ele><time>2026-03-25T17:32:56.999Z</time></trkpt><trkpt lat="44.42877245245104" lon="7.820922567053521"><ele>394.0</ele><time>2026-03-25T17:32:57.999Z</time></trkpt><trkpt lat="44.42867928640437" lon="7.8209120858420125"><ele>394.0</ele><time>2026-03-25T17:32:58.999Z</time></trkpt><trkpt lat="44.428582141576356" lon="7.820905779490739"><ele>394.6</ele><time>2026-03-25T17:32:59.999Z</time></trkpt><trkpt lat="44.42848583069748" lon="7.820900372728491"><ele>395.2</ele><time>2026-03-25T17:33:00.999Z</time></trkpt><trkpt lat="44.42838208001815" lon="7.820895425003601"><ele>395.8</ele><time>2026-03-25T17:33:01.999Z</time></trkpt><trkpt lat="44.428280543691535" lon="7.82089097896846"><ele>396.40000000000003</ele><time>2026-03-25T17:33:02.999Z</time></trkpt><trkpt lat="44.42817443425619" lon="7.820896485740767"><ele>397.0</ele><time>2026-03-25T17:33:03.999Z</time></trkpt><trkpt lat="44.42806550919282" lon="7.820895575378011"><ele>397.0</ele><time>2026-03-25T17:33:04.999Z</time></trkpt><trkpt lat="44.427966839942535" lon="7.820891099526093"><ele>397.0</ele><time>2026-03-25T17:33:05.999Z</time></trkpt><trkpt lat="44.42786741057746" lon="7.820878318696562"><ele>397.0</ele><time>2026-03-25T17:33:06.999Z</time></trkpt><trkpt lat="44.42777016432572" lon="7.820867078940252"><ele>397.0</ele><time>2026-03-25T17:33:07.999Z</time></trkpt><trkpt lat="44.42767071641369" lon="7.820869151167767"><ele>397.0</ele><time>2026-03-25T17:33:08.999Z</time></trkpt><trkpt lat="44.42757649525001" lon="7.820836791232966"><ele>397.00000000000006</ele><time>2026-03-25T17:33:09.999Z</time></trkpt><trkpt lat="44.42749329348835" lon="7.820831392392919"><ele>397.0</ele><time>2026-03-25T17:33:10.999Z</time></trkpt><trkpt lat="44.42740574009202" lon="7.820825633733566"><ele>397.0</ele><time>2026-03-25T17:33:11.999Z</time></trkpt><trkpt lat="44.42732107588628" lon="7.820821160354844"><ele>397.0</ele><time>2026-03-25T17:33:12.999Z</time></trkpt><trkpt lat="44.427244316663455" lon="7.820826465336019"><ele>397.00000000000006</ele><time>2026-03-25T17:33:13.999Z</time></trkpt><trkpt lat="44.427168730247445" lon="7.820829447348952"><ele>397.0</ele><time>2026-03-25T17:33:14.999Z</time></trkpt><trkpt lat="44.427099840237474" lon="7.820838326076431"><ele>397.00000000000006</ele><time>2026-03-25T17:33:15.999Z</time></trkpt><trkpt lat="44.42703093153987" lon="7.820841793695101"><ele>397.0</ele><time>2026-03-25T17:33:16.999Z</time></trkpt><trkpt lat="44.42695809786002" lon="7.820873298239201"><ele>397.0</ele><time>2026-03-25T17:33:17.998Z</time></trkpt><trkpt lat="44.426868687360745" lon="7.82083777504034"><ele>397.0</ele><time>2026-03-25T17:33:18.998Z</time></trkpt><trkpt lat="44.42677025810669" lon="7.820853767306627"><ele>397.00000000000006</ele><time>2026-03-25T17:33:19.998Z</time></trkpt><trkpt lat="44.42668049753791" lon="7.820807752147939"><ele>397.0</ele><time>2026-03-25T17:33:20.998Z</time></trkpt><trkpt lat="44.42658621907658" lon="7.820786679977846"><ele>397.0</ele><time>2026-03-25T17:33:21.998Z</time></trkpt><trkpt lat="44.4264782152788" lon="7.820781910549206"><ele>397.0</ele><time>2026-03-25T17:33:22.998Z</time></trkpt><trkpt lat="44.42635893746345" lon="7.820777935361752"><ele>397.0</ele><time>2026-03-25T17:33:23.998Z</time></trkpt><trkpt lat="44.42623722620867" lon="7.820767146643146"><ele>397.0</ele><time>2026-03-25T17:33:24.998Z</time></trkpt><trkpt lat="44.4261079735415" lon="7.8207561461400035"><ele>396.25</ele><time>2026-03-25T17:33:25.998Z</time></trkpt><trkpt lat="44.42597724002473" lon="7.820750457126811"><ele>395.5</ele><time>2026-03-25T17:33:26.998Z</time></trkpt><trkpt lat="44.425833623485005" lon="7.820746198473164"><ele>394.75</ele><time>2026-03-25T17:33:27.998Z</time></trkpt><trkpt lat="44.42568927289006" lon="7.820745084889793"><ele>394.0</ele><time>2026-03-25T17:33:28.998Z</time></trkpt><trkpt lat="44.42553853949264" lon="7.820739286180223"><ele>393.0</ele><time>2026-03-25T17:33:29.998Z</time></trkpt><trkpt lat="44.42538344126101" lon="7.820728304564602"><ele>392.0</ele><time>2026-03-25T17:33:30.998Z</time></trkpt><trkpt lat="44.425224796854906" lon="7.820721126147883"><ele>391.0</ele><time>2026-03-25T17:33:31.998Z</time></trkpt><trkpt lat="44.42506712565596" lon="7.820714374997822"><ele>391.0</ele><time>2026-03-25T17:33:32.998Z</time></trkpt><trkpt lat="44.424919567100204" lon="7.820705252545164"><ele>391.0</ele><time>2026-03-25T17:33:33.998Z</time></trkpt><trkpt lat="44.4247696964163" lon="7.820691829023995"><ele>391.0</ele><time>2026-03-25T17:33:34.998Z</time></trkpt><trkpt lat="44.42462624436136" lon="7.820680698185805"><ele>391.0</ele><time>2026-03-25T17:33:35.998Z</time></trkpt><trkpt lat="44.4244979709878" lon="7.820669376553997"><ele>390.75</ele><time>2026-03-25T17:33:36.998Z</time></trkpt><trkpt lat="44.42437662458743" lon="7.820668981544986"><ele>390.5</ele><time>2026-03-25T17:33:37.998Z</time></trkpt><trkpt lat="44.424261533148645" lon="7.8206814830664815"><ele>390.25</ele><time>2026-03-25T17:33:38.998Z</time></trkpt><trkpt lat="44.42414272918354" lon="7.82070669334611"><ele>390.0</ele><time>2026-03-25T17:33:39.998Z</time></trkpt><trkpt lat="44.424017030255754" lon="7.820763236914201"><ele>390.0</ele><time>2026-03-25T17:33:40.998Z</time></trkpt><trkpt lat="44.42389648607667" lon="7.820830030999648"><ele>390.0</ele><time>2026-03-25T17:33:42Z</time></trkpt><trkpt lat="44.42376781392345" lon="7.820917833778628"><ele>390.0</ele><time>2026-03-25T17:33:43Z</time></trkpt><trkpt lat="44.42362610643153" lon="7.8209970364301435"><ele>390.0</ele><time>2026-03-25T17:33:44Z</time></trkpt><trkpt lat="44.42348153603244" lon="7.821095762662934"><ele>388.66666666666663</ele><time>2026-03-25T17:33:45Z</time></trkpt><trkpt lat="44.42333192583736" lon="7.821198047112231"><ele>387.3333333333333</ele><time>2026-03-25T17:33:46Z</time></trkpt><trkpt lat="44.42317844832948" lon="7.82130247176307"><ele>386.0</ele><time>2026-03-25T17:33:47Z</time></trkpt><trkpt lat="44.423020455842384" lon="7.821409758402617"><ele>387.3333333333333</ele><time>2026-03-25T17:33:48Z</time></trkpt><trkpt lat="44.422864532216686" lon="7.8215150514465694"><ele>388.66666666666663</ele><time>2026-03-25T17:33:49Z</time></trkpt><trkpt lat="44.42269805487316" lon="7.821626808589042"><ele>390.0</ele><time>2026-03-25T17:33:50Z</time></trkpt><trkpt lat="44.42253097261484" lon="7.821738974028044"><ele>390.66666666666663</ele><time>2026-03-25T17:33:51Z</time></trkpt><trkpt lat="44.42236052969889" lon="7.821852868104807"><ele>391.3333333333333</ele><time>2026-03-25T17:33:52Z</time></trkpt><trkpt lat="44.42218893800212" lon="7.821967625386621"><ele>392.0</ele><time>2026-03-25T17:33:53Z</time></trkpt><trkpt lat="44.422023555532405" lon="7.822078228282877"><ele>393.3333333333333</ele><time>2026-03-25T17:33:54Z</time></trkpt><trkpt lat="44.421847424443726" lon="7.822196019593264"><ele>394.66666666666663</ele><time>2026-03-25T17:33:55Z</time></trkpt><trkpt lat="44.42167279880579" lon="7.822312325153034"><ele>396.0</ele><time>2026-03-25T17:33:56Z</time></trkpt><trkpt lat="44.42149824875244" lon="7.822428238943634"><ele>396.0</ele><time>2026-03-25T17:33:57Z</time></trkpt><trkpt lat="44.421321892589475" lon="7.822545352108719"><ele>396.0</ele><time>2026-03-25T17:33:58Z</time></trkpt><trkpt lat="44.42112796577756" lon="7.822672253023105"><ele>396.0</ele><time>2026-03-25T17:33:59Z</time></trkpt><trkpt lat="44.42097954607314" lon="7.822768900639394"><ele>396.0</ele><time>2026-03-25T17:34:00Z</time></trkpt><trkpt lat="44.420811560842715" lon="7.822878288912839"><ele>396.0</ele><time>2026-03-25T17:34:01Z</time></trkpt><trkpt lat="44.42064957492081" lon="7.822983770574853"><ele>396.0</ele><time>2026-03-25T17:34:02Z</time></trkpt><trkpt lat="44.42049065361482" lon="7.823087256447494"><ele>396.0</ele><time>2026-03-25T17:34:03Z</time></trkpt><trkpt lat="44.42033980826498" lon="7.823186762675969"><ele>396.0</ele><time>2026-03-25T17:34:04Z</time></trkpt><trkpt lat="44.420188564133944" lon="7.823286416391945"><ele>396.0</ele><time>2026-03-25T17:34:05Z</time></trkpt><trkpt lat="44.42003800115434" lon="7.823386518317871"><ele>396.0</ele><time>2026-03-25T17:34:06Z</time></trkpt><trkpt lat="44.41989292844496" lon="7.823482795281637"><ele>396.0</ele><time>2026-03-25T17:34:07Z</time></trkpt><trkpt lat="44.41975888037906" lon="7.823571755771348"><ele>396.0</ele><time>2026-03-25T17:34:08Z</time></trkpt><trkpt lat="44.41962194071421" lon="7.823662082061392"><ele>396.0</ele><time>2026-03-25T17:34:09Z</time></trkpt><trkpt lat="44.41947915764802" lon="7.823755347864032"><ele>396.0</ele><time>2026-03-25T17:34:10Z</time></trkpt><trkpt lat="44.41933516189568" lon="7.8238494058210994"><ele>396.0</ele><time>2026-03-25T17:34:11Z</time></trkpt><trkpt lat="44.41920060558434" lon="7.823937764389705"><ele>396.0</ele><time>2026-03-25T17:34:12Z</time></trkpt><trkpt lat="44.419059176140934" lon="7.824034190609363"><ele>396.0</ele><time>2026-03-25T17:34:13Z</time></trkpt><trkpt lat="44.41892188254361" lon="7.82413132336249"><ele>396.0</ele><time>2026-03-25T17:34:14Z</time></trkpt><trkpt lat="44.418778100862376" lon="7.824240758055789"><ele>397.66666666666663</ele><time>2026-03-25T17:34:15Z</time></trkpt><trkpt lat="44.41863411704451" lon="7.824358602377033"><ele>399.3333333333333</ele><time>2026-03-25T17:34:16Z</time></trkpt><trkpt lat="44.418496345262184" lon="7.824471548900754"><ele>401.0</ele><time>2026-03-25T17:34:17Z</time></trkpt><trkpt lat="44.41836154258864" lon="7.824581350775119"><ele>401.0</ele><time>2026-03-25T17:34:18Z</time></trkpt><trkpt lat="44.41822469725998" lon="7.8246931686166095"><ele>401.0</ele><time>2026-03-25T17:34:19Z</time></trkpt><trkpt lat="44.418095183486706" lon="7.824804304094959"><ele>401.0</ele><time>2026-03-25T17:34:20Z</time></trkpt><trkpt lat="44.417967319372195" lon="7.824920185381122"><ele>401.0</ele><time>2026-03-25T17:34:21Z</time></trkpt><trkpt lat="44.417833516533406" lon="7.825038928574734"><ele>401.0</ele><time>2026-03-25T17:34:22Z</time></trkpt><trkpt lat="44.41770458135511" lon="7.825148395014356"><ele>401.0</ele><time>2026-03-25T17:34:23Z</time></trkpt><trkpt lat="44.41757393279951" lon="7.8252457535690105"><ele>401.0</ele><time>2026-03-25T17:34:24Z</time></trkpt><trkpt lat="44.417444812258815" lon="7.825335120212682"><ele>401.0</ele><time>2026-03-25T17:34:25Z</time></trkpt><trkpt lat="44.417329759000715" lon="7.825410528398849"><ele>401.0</ele><time>2026-03-25T17:34:25.999Z</time></trkpt><trkpt lat="44.41720101550961" lon="7.825483715415321"><ele>401.0</ele><time>2026-03-25T17:34:26.999Z</time></trkpt><trkpt lat="44.417074261820844" lon="7.825546984927669"><ele>400.5</ele><time>2026-03-25T17:34:27.999Z</time></trkpt><trkpt lat="44.416953653014055" lon="7.825601246023223"><ele>400.0</ele><time>2026-03-25T17:34:28.999Z</time></trkpt><trkpt lat="44.41683007734495" lon="7.825653406331824"><ele>399.5</ele><time>2026-03-25T17:34:29.999Z</time></trkpt><trkpt lat="44.41670518842119" lon="7.825705361687353"><ele>399.0</ele><time>2026-03-25T17:34:30.999Z</time></trkpt><trkpt lat="44.41658754163545" lon="7.825780849672292"><ele>399.0</ele><time>2026-03-25T17:34:31.999Z</time></trkpt><trkpt lat="44.41645667432845" lon="7.825838332127717"><ele>399.0</ele><time>2026-03-25T17:34:32.999Z</time></trkpt><trkpt lat="44.416322325779824" lon="7.825892542198575"><ele>399.0</ele><time>2026-03-25T17:34:33.999Z</time></trkpt><trkpt lat="44.416183757450284" lon="7.825967965836254"><ele>399.0</ele><time>2026-03-25T17:34:34.999Z</time></trkpt><trkpt lat="44.41604175312598" lon="7.82605345040356"><ele>399.25</ele><time>2026-03-25T17:34:35.999Z</time></trkpt><trkpt lat="44.415900283966565" lon="7.8261424575956"><ele>399.5</ele><time>2026-03-25T17:34:36.999Z</time></trkpt><trkpt lat="44.415770036227094" lon="7.826221706300929"><ele>399.75</ele><time>2026-03-25T17:34:37.999Z</time></trkpt><trkpt lat="44.41564188224923" lon="7.826301348226098"><ele>400.0</ele><time>2026-03-25T17:34:38.999Z</time></trkpt><trkpt lat="44.41551050688025" lon="7.826385025368832"><ele>400.25</ele><time>2026-03-25T17:34:39.999Z</time></trkpt><trkpt lat="44.415379361218356" lon="7.826464735912369"><ele>400.5</ele><time>2026-03-25T17:34:40.999Z</time></trkpt><trkpt lat="44.41524479294063" lon="7.826551730491915"><ele>400.75</ele><time>2026-03-25T17:34:41.999Z</time></trkpt><trkpt lat="44.41511091182721" lon="7.826636426515648"><ele>401.0</ele><time>2026-03-25T17:34:42.999Z</time></trkpt><trkpt lat="44.41496305850957" lon="7.82672113088946"><ele>401.0</ele><time>2026-03-25T17:34:43.999Z</time></trkpt><trkpt lat="44.41481918700495" lon="7.8268205969223414"><ele>401.0</ele><time>2026-03-25T17:34:44.999Z</time></trkpt><trkpt lat="44.41467624080079" lon="7.82691304184412"><ele>401.0</ele><time>2026-03-25T17:34:45.999Z</time></trkpt><trkpt lat="44.41453878289436" lon="7.827006023087826"><ele>401.0</ele><time>2026-03-25T17:34:46.999Z</time></trkpt><trkpt lat="44.41441048878128" lon="7.8270888586166825"><ele>401.0</ele><time>2026-03-25T17:34:47.999Z</time></trkpt><trkpt lat="44.41427858996625" lon="7.827170643148204"><ele>401.0</ele><time>2026-03-25T17:34:48.999Z</time></trkpt><trkpt lat="44.41414289647267" lon="7.827248177103444"><ele>401.0</ele><time>2026-03-25T17:34:49.999Z</time></trkpt><trkpt lat="44.4139982781189" lon="7.8273120472016"><ele>401.0</ele><time>2026-03-25T17:34:50.999Z</time></trkpt><trkpt lat="44.413851304740646" lon="7.827372899125321"><ele>401.0</ele><time>2026-03-25T17:34:51.999Z</time></trkpt><trkpt lat="44.41369859192117" lon="7.8274278065747795"><ele>401.0</ele><time>2026-03-25T17:34:52.999Z</time></trkpt><trkpt lat="44.41354474442127" lon="7.827486889839408"><ele>401.0</ele><time>2026-03-25T17:34:53.999Z</time></trkpt><trkpt lat="44.413393663500045" lon="7.827555884952507"><ele>401.0</ele><time>2026-03-25T17:34:54.999Z</time></trkpt><trkpt lat="44.41324790404862" lon="7.827612550353967"><ele>401.0</ele><time>2026-03-25T17:34:55.999Z</time></trkpt><trkpt lat="44.413099860466815" lon="7.827660103976844"><ele>401.0</ele><time>2026-03-25T17:34:56.999Z</time></trkpt><trkpt lat="44.41296167644965" lon="7.82770464836911"><ele>401.0</ele><time>2026-03-25T17:34:57.999Z</time></trkpt><trkpt lat="44.41282038357059" lon="7.8277593015444085"><ele>401.0</ele><time>2026-03-25T17:34:58.999Z</time></trkpt><trkpt lat="44.412670726623276" lon="7.82781220186068"><ele>401.0</ele><time>2026-03-25T17:34:59.999Z</time></trkpt><trkpt lat="44.412523702157074" lon="7.82786821492321"><ele>401.0</ele><time>2026-03-25T17:35:00.999Z</time></trkpt><trkpt lat="44.412378232437256" lon="7.827920237794122"><ele>401.0</ele><time>2026-03-25T17:35:01.999Z</time></trkpt><trkpt lat="44.412231538474565" lon="7.827968941504949"><ele>401.0</ele><time>2026-03-25T17:35:02.999Z</time></trkpt><trkpt lat="44.412079498476" lon="7.828016768364789"><ele>401.25</ele><time>2026-03-25T17:35:03.999Z</time></trkpt><trkpt lat="44.411937771978884" lon="7.82804291002677"><ele>401.5</ele><time>2026-03-25T17:35:04.999Z</time></trkpt><trkpt lat="44.41179290797686" lon="7.828072425007391"><ele>401.75</ele><time>2026-03-25T17:35:05.999Z</time></trkpt><trkpt lat="44.411644382964234" lon="7.828093276933372"><ele>402.0</ele><time>2026-03-25T17:35:06.999Z</time></trkpt><trkpt lat="44.41149389759626" lon="7.828110519159256"><ele>402.0</ele><time>2026-03-25T17:35:07.999Z</time></trkpt><trkpt lat="44.41134003633497" lon="7.828114536278916"><ele>402.0</ele><time>2026-03-25T17:35:08.999Z</time></trkpt><trkpt lat="44.41119578605425" lon="7.828113716707257"><ele>402.0</ele><time>2026-03-25T17:35:09.999Z</time></trkpt><trkpt lat="44.4110574867101" lon="7.828102035706376"><ele>402.0</ele><time>2026-03-25T17:35:10.999Z</time></trkpt><trkpt lat="44.41092756697485" lon="7.828083127901213"><ele>402.0</ele><time>2026-03-25T17:35:11.999Z</time></trkpt><trkpt lat="44.410803797338666" lon="7.828074435464019"><ele>402.0</ele><time>2026-03-25T17:35:12.999Z</time></trkpt><trkpt lat="44.41068811737257" lon="7.82805959539508"><ele>402.0</ele><time>2026-03-25T17:35:13.999Z</time></trkpt><trkpt lat="44.410574219347865" lon="7.828055621312272"><ele>402.0</ele><time>2026-03-25T17:35:14.999Z</time></trkpt><trkpt lat="44.41046145502274" lon="7.828049036568001"><ele>402.40000000000003</ele><time>2026-03-25T17:35:15.999Z</time></trkpt><trkpt lat="44.41034391640255" lon="7.82805107264848"><ele>402.8</ele><time>2026-03-25T17:35:16.999Z</time></trkpt><trkpt lat="44.41022825559646" lon="7.828050195626573"><ele>403.2</ele><time>2026-03-25T17:35:17.999Z</time></trkpt><trkpt lat="44.41013023693098" lon="7.828032478929316"><ele>403.6</ele><time>2026-03-25T17:35:18.999Z</time></trkpt><trkpt lat="44.41002701552319" lon="7.82802721536135"><ele>404.0</ele><time>2026-03-25T17:35:19.999Z</time></trkpt><trkpt lat="44.40991370628546" lon="7.828014810480355"><ele>404.0</ele><time>2026-03-25T17:35:20.999Z</time></trkpt><trkpt lat="44.4098151341132" lon="7.828024618589303"><ele>404.0</ele><time>2026-03-25T17:35:21.998Z</time></trkpt><trkpt lat="44.4097103296908" lon="7.8280401058268"><ele>404.0</ele><time>2026-03-25T17:35:22.998Z</time></trkpt><trkpt lat="44.40960338687707" lon="7.828070834362452"><ele>404.0</ele><time>2026-03-25T17:35:23.998Z</time></trkpt><trkpt lat="44.40950786593744" lon="7.828127170269622"><ele>404.0</ele><time>2026-03-25T17:35:24.998Z</time></trkpt><trkpt lat="44.409403544618044" lon="7.828179257668097"><ele>403.79999999999995</ele><time>2026-03-25T17:35:25.998Z</time></trkpt><trkpt lat="44.40930086712924" lon="7.828229119171681"><ele>403.59999999999997</ele><time>2026-03-25T17:35:26.998Z</time></trkpt><trkpt lat="44.40920166282691" lon="7.828291108768424"><ele>403.4</ele><time>2026-03-25T17:35:27.998Z</time></trkpt><trkpt lat="44.409110786482714" lon="7.82834851680488"><ele>403.2</ele><time>2026-03-25T17:35:28.998Z</time></trkpt><trkpt lat="44.40899909594231" lon="7.828406906708898"><ele>403.0</ele><time>2026-03-25T17:35:29.998Z</time></trkpt><trkpt lat="44.40889329562173" lon="7.828472027593415"><ele>402.59999999999997</ele><time>2026-03-25T17:35:30.998Z</time></trkpt><trkpt lat="44.40878531427415" lon="7.828544167728152"><ele>402.2</ele><time>2026-03-25T17:35:31.998Z</time></trkpt><trkpt lat="44.408687136002776" lon="7.828604800435923"><ele>401.8</ele><time>2026-03-25T17:35:32.998Z</time></trkpt><trkpt lat="44.408586177122" lon="7.828662230155405"><ele>401.4</ele><time>2026-03-25T17:35:33.998Z</time></trkpt><trkpt lat="44.40848381151287" lon="7.828723073641289"><ele>401.0</ele><time>2026-03-25T17:35:34.998Z</time></trkpt><trkpt lat="44.4083801433742" lon="7.828787691087463"><ele>401.0</ele><time>2026-03-25T17:35:35.998Z</time></trkpt><trkpt lat="44.408282293813016" lon="7.8288442776364935"><ele>401.0</ele><time>2026-03-25T17:35:36.998Z</time></trkpt><trkpt lat="44.4081794159653" lon="7.828904821690806"><ele>401.0</ele><time>2026-03-25T17:35:37.998Z</time></trkpt><trkpt lat="44.408082406226214" lon="7.828963332047516"><ele>401.0</ele><time>2026-03-25T17:35:38.998Z</time></trkpt><trkpt lat="44.4079870044507" lon="7.829035675622624"><ele>401.0</ele><time>2026-03-25T17:35:39.998Z</time></trkpt><trkpt lat="44.40789674133372" lon="7.829103753977849"><ele>401.0</ele><time>2026-03-25T17:35:40.998Z</time></trkpt><trkpt lat="44.40780613923639" lon="7.82917860072202"><ele>401.0</ele><time>2026-03-25T17:35:41.998Z</time></trkpt><trkpt lat="44.407719069694906" lon="7.829253670584931"><ele>401.0</ele><time>2026-03-25T17:35:42.998Z</time></trkpt><trkpt lat="44.40762982028272" lon="7.829330867826821"><ele>401.0</ele><time>2026-03-25T17:35:43.998Z</time></trkpt><trkpt lat="44.40754672689047" lon="7.82941245218608"><ele>401.0</ele><time>2026-03-25T17:35:44.998Z</time></trkpt><trkpt lat="44.407451393350335" lon="7.829497623512941"><ele>400.8</ele><time>2026-03-25T17:35:45.998Z</time></trkpt><trkpt lat="44.40736434754997" lon="7.829584165358906"><ele>400.6</ele><time>2026-03-25T17:35:46.998Z</time></trkpt><trkpt lat="44.40728022462998" lon="7.829676179578464"><ele>400.4</ele><time>2026-03-25T17:35:48Z</time></trkpt><trkpt lat="44.40718756756959" lon="7.829772427825044"><ele>400.2</ele><time>2026-03-25T17:35:49Z</time></trkpt><trkpt lat="44.40709236602015" lon="7.8298365810756785"><ele>400.0</ele><time>2026-03-25T17:35:50Z</time></trkpt><trkpt lat="44.407003329943514" lon="7.8299213747333205"><ele>400.4</ele><time>2026-03-25T17:35:51Z</time></trkpt><trkpt lat="44.4069201119675" lon="7.830002937276981"><ele>400.8</ele><time>2026-03-25T17:35:52Z</time></trkpt><trkpt lat="44.406829547947225" lon="7.830097407886062"><ele>401.20000000000005</ele><time>2026-03-25T17:35:53Z</time></trkpt><trkpt lat="44.40674854764636" lon="7.8301811192471575"><ele>401.6</ele><time>2026-03-25T17:35:54Z</time></trkpt><trkpt lat="44.406675518388674" lon="7.830260960732432"><ele>402.0</ele><time>2026-03-25T17:35:55Z</time></trkpt><trkpt lat="44.40659437817865" lon="7.830341698736739"><ele>402.0</ele><time>2026-03-25T17:35:56Z</time></trkpt><trkpt lat="44.40651468712709" lon="7.830413829201348"><ele>402.0</ele><time>2026-03-25T17:35:57Z</time></trkpt><trkpt lat="44.40644503351805" lon="7.8304823828687065"><ele>402.0</ele><time>2026-03-25T17:35:58Z</time></trkpt><trkpt lat="44.4063724176606" lon="7.83055964100695"><ele>402.0</ele><time>2026-03-25T17:35:59Z</time></trkpt><trkpt lat="44.406298272060354" lon="7.830640702515359"><ele>402.0</ele><time>2026-03-25T17:36:00Z</time></trkpt><trkpt lat="44.40623021583272" lon="7.830713580799785"><ele>402.1666666666667</ele><time>2026-03-25T17:36:01Z</time></trkpt><trkpt lat="44.40616488918572" lon="7.830775246000736"><ele>402.33333333333337</ele><time>2026-03-25T17:36:02Z</time></trkpt><trkpt lat="44.40608732727184" lon="7.830851937519531"><ele>402.5</ele><time>2026-03-25T17:36:03Z</time></trkpt><trkpt lat="44.40601548958186" lon="7.830915800873426"><ele>402.6666666666667</ele><time>2026-03-25T17:36:04Z</time></trkpt><trkpt lat="44.40594666503083" lon="7.830987516891496"><ele>402.83333333333337</ele><time>2026-03-25T17:36:05Z</time></trkpt><trkpt lat="44.405883286712424" lon="7.831051060202928"><ele>403.0</ele><time>2026-03-25T17:36:06Z</time></trkpt><trkpt lat="44.40581987455997" lon="7.8311174514703055"><ele>402.4</ele><time>2026-03-25T17:36:07Z</time></trkpt><trkpt lat="44.405765011974886" lon="7.831163500167927"><ele>401.79999999999995</ele><time>2026-03-25T17:36:08Z</time></trkpt><trkpt lat="44.405708417011724" lon="7.831222083843766"><ele>401.2</ele><time>2026-03-25T17:36:09Z</time></trkpt><trkpt lat="44.405654818035956" lon="7.831275107119786"><ele>400.6</ele><time>2026-03-25T17:36:10Z</time></trkpt><trkpt lat="44.40555803825471" lon="7.83138166151727"><ele>400.0</ele><time>2026-03-25T17:36:12Z</time></trkpt><trkpt lat="44.40544756458295" lon="7.83146961414301"><ele>399.2</ele><time>2026-03-25T17:36:14Z</time></trkpt><trkpt lat="44.40534725103537" lon="7.831522769333603"><ele>398.4</ele><time>2026-03-25T17:36:16Z</time></trkpt><trkpt lat="44.4052745374577" lon="7.831439923401541"><ele>397.6</ele><time>2026-03-25T17:36:17Z</time></trkpt><trkpt lat="44.40519921215374" lon="7.831423152368073"><ele>396.8</ele><time>2026-03-25T17:36:18Z</time></trkpt><trkpt lat="44.40512757464098" lon="7.831326463821856"><ele>396.0</ele><time>2026-03-25T17:36:19Z</time></trkpt><trkpt lat="44.405044104188576" lon="7.831243731813511"><ele>396.0</ele><time>2026-03-25T17:36:20Z</time></trkpt><trkpt lat="44.40496294835219" lon="7.831156639917206"><ele>396.0</ele><time>2026-03-25T17:36:21Z</time></trkpt><trkpt lat="44.40488607829113" lon="7.831074701708377"><ele>396.0</ele><time>2026-03-25T17:36:22Z</time></trkpt><trkpt lat="44.40481733316448" lon="7.830985631926794"><ele>396.0</ele><time>2026-03-25T17:36:23Z</time></trkpt><trkpt lat="44.40473441879788" lon="7.83090597612334"><ele>396.0</ele><time>2026-03-25T17:36:24Z</time></trkpt><trkpt lat="44.4046589305708" lon="7.830824047612558"><ele>396.0</ele><time>2026-03-25T17:36:25Z</time></trkpt><trkpt lat="44.40457635820423" lon="7.830743299663138"><ele>396.0</ele><time>2026-03-25T17:36:26Z</time></trkpt><trkpt lat="44.404492075537455" lon="7.830659375846292"><ele>396.0</ele><time>2026-03-25T17:36:27Z</time></trkpt><trkpt lat="44.40440788424982" lon="7.83056613043773"><ele>396.0</ele><time>2026-03-25T17:36:28Z</time></trkpt><trkpt lat="44.40433119195121" lon="7.830487094770162"><ele>396.0</ele><time>2026-03-25T17:36:29Z</time></trkpt><trkpt lat="44.40425312417248" lon="7.830404100675173"><ele>396.0</ele><time>2026-03-25T17:36:30Z</time></trkpt><trkpt lat="44.40417193267597" lon="7.830308303950782"><ele>396.0</ele><time>2026-03-25T17:36:30.999Z</time></trkpt><trkpt lat="44.404097813512074" lon="7.830219197219816"><ele>396.0</ele><time>2026-03-25T17:36:31.999Z</time></trkpt><trkpt lat="44.404019307881846" lon="7.830142539175331"><ele>396.0</ele><time>2026-03-25T17:36:32.999Z</time></trkpt><trkpt lat="44.40394001924171" lon="7.8300615865126115"><ele>396.0</ele><time>2026-03-25T17:36:33.999Z</time></trkpt><trkpt lat="44.40386193168342" lon="7.829980186572915"><ele>396.3333333333333</ele><time>2026-03-25T17:36:34.999Z</time></trkpt><trkpt lat="44.40378952296696" lon="7.829907647484564"><ele>396.66666666666663</ele><time>2026-03-25T17:36:35.999Z</time></trkpt><trkpt lat="44.40372154610413" lon="7.829840789919623"><ele>397.0</ele><time>2026-03-25T17:36:36.999Z</time></trkpt><trkpt lat="44.40365665217288" lon="7.829778532677949"><ele>397.3333333333333</ele><time>2026-03-25T17:36:37.999Z</time></trkpt><trkpt lat="44.40359314706236" lon="7.829718126483295"><ele>397.66666666666663</ele><time>2026-03-25T17:36:38.999Z</time></trkpt><trkpt lat="44.403526251710296" lon="7.829646428802059"><ele>398.0</ele><time>2026-03-25T17:36:39.999Z</time></trkpt><trkpt lat="44.40343645537772" lon="7.829549679879946"><ele>397.99999999999994</ele><time>2026-03-25T17:36:41.999Z</time></trkpt><trkpt lat="44.40339265481974" lon="7.829446901022566"><ele>398.0</ele><time>2026-03-25T17:36:42.999Z</time></trkpt><trkpt lat="44.403367895934984" lon="7.829362230447964"><ele>398.0</ele><time>2026-03-25T17:36:43.999Z</time></trkpt><trkpt lat="44.403333574180685" lon="7.829236433680396"><ele>398.0</ele><time>2026-03-25T17:36:45.999Z</time></trkpt><trkpt lat="44.40323233873646" lon="7.829193277988728"><ele>397.99999999999994</ele><time>2026-03-25T17:36:47.999Z</time></trkpt><trkpt lat="44.40317057845965" lon="7.829224734624763"><ele>398.0</ele><time>2026-03-25T17:36:48.999Z</time></trkpt><trkpt lat="44.40307341808509" lon="7.829157307431254"><ele>397.59999999999997</ele><time>2026-03-25T17:36:49.999Z</time></trkpt><trkpt lat="44.40298889516624" lon="7.829094469923612"><ele>397.2</ele><time>2026-03-25T17:36:50.999Z</time></trkpt><trkpt lat="44.402903546446495" lon="7.829012340364628"><ele>396.8</ele><time>2026-03-25T17:36:51.999Z</time></trkpt><trkpt lat="44.4028307188906" lon="7.8289325782042924"><ele>396.4</ele><time>2026-03-25T17:36:52.999Z</time></trkpt><trkpt lat="44.40274232464505" lon="7.828842620453246"><ele>396.0</ele><time>2026-03-25T17:36:53.999Z</time></trkpt><trkpt lat="44.402664960692015" lon="7.828761328300766"><ele>396.0</ele><time>2026-03-25T17:36:54.999Z</time></trkpt><trkpt lat="44.40259187024031" lon="7.828680431626463"><ele>396.0</ele><time>2026-03-25T17:36:55.999Z</time></trkpt><trkpt lat="44.40251818356202" lon="7.8286051909515315"><ele>396.0</ele><time>2026-03-25T17:36:56.999Z</time></trkpt><trkpt lat="44.40245097263661" lon="7.828538292636788"><ele>396.0</ele><time>2026-03-25T17:36:57.999Z</time></trkpt><trkpt lat="44.40237634241164" lon="7.828457916310437"><ele>396.0</ele><time>2026-03-25T17:36:58.999Z</time></trkpt><trkpt lat="44.40229913388244" lon="7.82838107470868"><ele>395.6</ele><time>2026-03-25T17:36:59.999Z</time></trkpt><trkpt lat="44.402217500349586" lon="7.8282998563333255"><ele>395.20000000000005</ele><time>2026-03-25T17:37:00.999Z</time></trkpt><trkpt lat="44.402146713254" lon="7.828221699452254"><ele>394.79999999999995</ele><time>2026-03-25T17:37:01.999Z</time></trkpt><trkpt lat="44.402059752478614" lon="7.82814129933115"><ele>394.4</ele><time>2026-03-25T17:37:02.999Z</time></trkpt><trkpt lat="44.401988169456814" lon="7.828064397212509"><ele>394.0</ele><time>2026-03-25T17:37:03.999Z</time></trkpt><trkpt lat="44.40191352510129" lon="7.827979661138899"><ele>394.0</ele><time>2026-03-25T17:37:04.999Z</time></trkpt><trkpt lat="44.40183143853669" lon="7.8279073775371915"><ele>394.0</ele><time>2026-03-25T17:37:05.999Z</time></trkpt><trkpt lat="44.401752304811495" lon="7.8278186945739066"><ele>394.0</ele><time>2026-03-25T17:37:06.999Z</time></trkpt><trkpt lat="44.40168031833708" lon="7.827726773089055"><ele>394.0</ele><time>2026-03-25T17:37:07.999Z</time></trkpt><trkpt lat="44.40159931968332" lon="7.827645996765945"><ele>394.0</ele><time>2026-03-25T17:37:08.999Z</time></trkpt><trkpt lat="44.40150173316779" lon="7.827541781891481"><ele>393.2</ele><time>2026-03-25T17:37:09.999Z</time></trkpt><trkpt lat="44.40142413344748" lon="7.82746876994503"><ele>392.4</ele><time>2026-03-25T17:37:10.999Z</time></trkpt><trkpt lat="44.40133667576296" lon="7.827389566422639"><ele>391.6</ele><time>2026-03-25T17:37:11.999Z</time></trkpt><trkpt lat="44.40125618142274" lon="7.827311711333058"><ele>390.8</ele><time>2026-03-25T17:37:12.999Z</time></trkpt><trkpt lat="44.40117591271576" lon="7.827235052119562"><ele>390.0</ele><time>2026-03-25T17:37:13.999Z</time></trkpt><trkpt lat="44.40109248403871" lon="7.827154566654588"><ele>390.0</ele><time>2026-03-25T17:37:14.999Z</time></trkpt><trkpt lat="44.40101390228702" lon="7.827069949741679"><ele>390.0</ele><time>2026-03-25T17:37:15.999Z</time></trkpt><trkpt lat="44.40093603427544" lon="7.826993559011657"><ele>390.0</ele><time>2026-03-25T17:37:16.999Z</time></trkpt><trkpt lat="44.400846732393234" lon="7.826905564484095"><ele>390.0</ele><time>2026-03-25T17:37:17.999Z</time></trkpt><trkpt lat="44.40075762699676" lon="7.826817730935346"><ele>390.0</ele><time>2026-03-25T17:37:18.999Z</time></trkpt><trkpt lat="44.40066890399657" lon="7.826743678894686"><ele>391.25</ele><time>2026-03-25T17:37:19.999Z</time></trkpt><trkpt lat="44.40056738802346" lon="7.8266660975678946"><ele>392.5</ele><time>2026-03-25T17:37:20.999Z</time></trkpt><trkpt lat="44.40045017321099" lon="7.8265989610334765"><ele>393.75</ele><time>2026-03-25T17:37:21.999Z</time></trkpt><trkpt lat="44.40033652115883" lon="7.826531409172927"><ele>395.0</ele><time>2026-03-25T17:37:22.999Z</time></trkpt><trkpt lat="44.400237461737596" lon="7.826491735287287"><ele>395.0</ele><time>2026-03-25T17:37:23.999Z</time></trkpt><trkpt lat="44.40015026364227" lon="7.826445398259202"><ele>395.0</ele><time>2026-03-25T17:37:24.999Z</time></trkpt><trkpt lat="44.40005148469624" lon="7.826401191079919"><ele>395.0</ele><time>2026-03-25T17:37:25.999Z</time></trkpt><trkpt lat="44.39995205758422" lon="7.8263500083745905"><ele>395.0</ele><time>2026-03-25T17:37:26.998Z</time></trkpt><trkpt lat="44.399849763919" lon="7.826294320099777"><ele>395.0</ele><time>2026-03-25T17:37:27.998Z</time></trkpt><trkpt lat="44.399746779555656" lon="7.826235444540012"><ele>395.8</ele><time>2026-03-25T17:37:28.998Z</time></trkpt><trkpt lat="44.39964898490731" lon="7.826144340646883"><ele>396.6</ele><time>2026-03-25T17:37:29.998Z</time></trkpt><trkpt lat="44.399558243202165" lon="7.826063360226651"><ele>397.4</ele><time>2026-03-25T17:37:30.998Z</time></trkpt><trkpt lat="44.39946685340289" lon="7.8259873169290035"><ele>398.2</ele><time>2026-03-25T17:37:31.998Z</time></trkpt><trkpt lat="44.39937182749777" lon="7.825912867762742"><ele>399.0</ele><time>2026-03-25T17:37:32.998Z</time></trkpt><trkpt lat="44.39928486525755" lon="7.825831813776541"><ele>399.0</ele><time>2026-03-25T17:37:33.998Z</time></trkpt><trkpt lat="44.39919725942023" lon="7.8257284298633"><ele>399.0</ele><time>2026-03-25T17:37:34.998Z</time></trkpt><trkpt lat="44.399103185219154" lon="7.825634625315951"><ele>399.0</ele><time>2026-03-25T17:37:35.998Z</time></trkpt><trkpt lat="44.399010488765036" lon="7.8255482595124715"><ele>399.0</ele><time>2026-03-25T17:37:36.998Z</time></trkpt><trkpt lat="44.398917159500336" lon="7.825458266646214"><ele>399.79999999999995</ele><time>2026-03-25T17:37:37.998Z</time></trkpt><trkpt lat="44.39882895739277" lon="7.825370500261879"><ele>400.59999999999997</ele><time>2026-03-25T17:37:38.998Z</time></trkpt><trkpt lat="44.39874397046997" lon="7.82529448775899"><ele>401.4</ele><time>2026-03-25T17:37:39.998Z</time></trkpt><trkpt lat="44.398672139390996" lon="7.8252340676152015"><ele>402.2</ele><time>2026-03-25T17:37:40.998Z</time></trkpt><trkpt lat="44.39859595790364" lon="7.82516051223225"><ele>403.0</ele><time>2026-03-25T17:37:41.998Z</time></trkpt><trkpt lat="44.398506846044114" lon="7.825068966489701"><ele>403.00000000000006</ele><time>2026-03-25T17:37:43.998Z</time></trkpt><trkpt lat="44.3984675641481" lon="7.824997139954836"><ele>403.0</ele><time>2026-03-25T17:37:46.998Z</time></trkpt><trkpt lat="44.39843479548086" lon="7.8249116531582015"><ele>403.0</ele><time>2026-03-25T17:37:48.998Z</time></trkpt><trkpt lat="44.39838019244846" lon="7.824778367838744"><ele>403.0</ele><time>2026-03-25T17:37:50.998Z</time></trkpt><trkpt lat="44.398297208062786" lon="7.824706380907554"><ele>403.00000000000006</ele><time>2026-03-25T17:37:52.998Z</time></trkpt><trkpt lat="44.39823418882825" lon="7.8247123173250905"><ele>403.0</ele><time>2026-03-25T17:37:54Z</time></trkpt><trkpt lat="44.39816429054953" lon="7.824743722231008"><ele>403.00000000000006</ele><time>2026-03-25T17:37:55Z</time></trkpt><trkpt lat="44.39809621052554" lon="7.824768928351622"><ele>403.0</ele><time>2026-03-25T17:37:56Z</time></trkpt><trkpt lat="44.39802893744185" lon="7.824784305216903"><ele>403.0</ele><time>2026-03-25T17:37:57Z</time></trkpt><trkpt lat="44.39794899191838" lon="7.824769001154652"><ele>403.0</ele><time>2026-03-25T17:37:58Z</time></trkpt><trkpt lat="44.39785312056633" lon="7.824736519531807"><ele>403.00000000000006</ele><time>2026-03-25T17:37:59Z</time></trkpt><trkpt lat="44.39776981995048" lon="7.824691138003833"><ele>403.0</ele><time>2026-03-25T17:38:00Z</time></trkpt><trkpt lat="44.39768403080313" lon="7.824631801653965"><ele>401.5</ele><time>2026-03-25T17:38:01Z</time></trkpt><trkpt lat="44.397583691189226" lon="7.824577603178181"><ele>400.0</ele><time>2026-03-25T17:38:02Z</time></trkpt><trkpt lat="44.397462951335136" lon="7.824540100690096"><ele>398.5</ele><time>2026-03-25T17:38:03Z</time></trkpt><trkpt lat="44.39734163424831" lon="7.824511849441933"><ele>397.0</ele><time>2026-03-25T17:38:04Z</time></trkpt><trkpt lat="44.39723660216868" lon="7.8245210887610055"><ele>395.8</ele><time>2026-03-25T17:38:05Z</time></trkpt><trkpt lat="44.39713262241739" lon="7.824527417995773"><ele>394.6</ele><time>2026-03-25T17:38:06Z</time></trkpt><trkpt lat="44.39703547936308" lon="7.8245521425795515"><ele>393.40000000000003</ele><time>2026-03-25T17:38:07Z</time></trkpt><trkpt lat="44.39693162717731" lon="7.824563607610896"><ele>392.20000000000005</ele><time>2026-03-25T17:38:08Z</time></trkpt><trkpt lat="44.39683185573567" lon="7.824570776307474"><ele>391.0</ele><time>2026-03-25T17:38:09Z</time></trkpt><trkpt lat="44.39672650053326" lon="7.824567813186733"><ele>391.0</ele><time>2026-03-25T17:38:10Z</time></trkpt><trkpt lat="44.396623533026435" lon="7.824568950077657"><ele>391.0</ele><time>2026-03-25T17:38:11Z</time></trkpt><trkpt lat="44.39652845606711" lon="7.824560669765013"><ele>391.0</ele><time>2026-03-25T17:38:12Z</time></trkpt><trkpt lat="44.396422814359255" lon="7.824537006689547"><ele>391.0</ele><time>2026-03-25T17:38:13Z</time></trkpt><trkpt lat="44.396317674669206" lon="7.824521335750148"><ele>391.0</ele><time>2026-03-25T17:38:14Z</time></trkpt><trkpt lat="44.39621994342627" lon="7.824489204073221"><ele>388.8</ele><time>2026-03-25T17:38:15Z</time></trkpt><trkpt lat="44.396122324450715" lon="7.82446136056886"><ele>386.6</ele><time>2026-03-25T17:38:16Z</time></trkpt><trkpt lat="44.39602495206335" lon="7.824432401224528"><ele>384.4</ele><time>2026-03-25T17:38:17Z</time></trkpt><trkpt lat="44.395939699632336" lon="7.824403690591786"><ele>382.2</ele><time>2026-03-25T17:38:18Z</time></trkpt><trkpt lat="44.39585432050291" lon="7.824367818921438"><ele>380.0</ele><time>2026-03-25T17:38:19Z</time></trkpt><trkpt lat="44.395756399600394" lon="7.824326435272608"><ele>380.1666666666667</ele><time>2026-03-25T17:38:20Z</time></trkpt><trkpt lat="44.39566993029684" lon="7.824287507491201"><ele>380.33333333333337</ele><time>2026-03-25T17:38:21Z</time></trkpt><trkpt lat="44.39559097353737" lon="7.824248941748986"><ele>380.5</ele><time>2026-03-25T17:38:22Z</time></trkpt><trkpt lat="44.3955165568983" lon="7.824194196317619"><ele>380.6666666666667</ele><time>2026-03-25T17:38:23Z</time></trkpt><trkpt lat="44.39544381048287" lon="7.824142505454258"><ele>380.8333333333333</ele><time>2026-03-25T17:38:24Z</time></trkpt><trkpt lat="44.39537784943281" lon="7.824094058336571"><ele>381.0</ele><time>2026-03-25T17:38:25Z</time></trkpt><trkpt lat="44.39529619398647" lon="7.82402471876431"><ele>381.0</ele><time>2026-03-25T17:38:27Z</time></trkpt><trkpt lat="44.3952294009446" lon="7.824006979838199"><ele>381.0</ele><time>2026-03-25T17:38:31Z</time></trkpt><trkpt lat="44.39517446166824" lon="7.823913654890589"><ele>381.0</ele><time>2026-03-25T17:38:33Z</time></trkpt><trkpt lat="44.39511381749909" lon="7.823874724036086"><ele>381.0</ele><time>2026-03-25T17:38:34Z</time></trkpt><trkpt lat="44.3950416318818" lon="7.823876297213559"><ele>381.0</ele><time>2026-03-25T17:38:35Z</time></trkpt><trkpt lat="44.394986504023535" lon="7.823783648654217"><ele>381.0</ele><time>2026-03-25T17:38:35.999Z</time></trkpt><trkpt lat="44.39491022673989" lon="7.823697398499591"><ele>381.0</ele><time>2026-03-25T17:38:36.999Z</time></trkpt><trkpt lat="44.394820666731235" lon="7.823604495839235"><ele>381.0</ele><time>2026-03-25T17:38:37.999Z</time></trkpt><trkpt lat="44.39473247170119" lon="7.823523930468051"><ele>381.0</ele><time>2026-03-25T17:38:38.999Z</time></trkpt><trkpt lat="44.394625610825734" lon="7.82343573117336"><ele>381.0</ele><time>2026-03-25T17:38:39.999Z</time></trkpt><trkpt lat="44.39452189282848" lon="7.82334710413191"><ele>380.6</ele><time>2026-03-25T17:38:40.999Z</time></trkpt><trkpt lat="44.39442068582693" lon="7.823265522870712"><ele>380.20000000000005</ele><time>2026-03-25T17:38:41.999Z</time></trkpt><trkpt lat="44.39432866267565" lon="7.823178128823961"><ele>379.79999999999995</ele><time>2026-03-25T17:38:42.999Z</time></trkpt><trkpt lat="44.39423322029729" lon="7.823091552849116"><ele>379.4</ele><time>2026-03-25T17:38:43.999Z</time></trkpt><trkpt lat="44.394146334674474" lon="7.823012109304642"><ele>379.0</ele><time>2026-03-25T17:38:44.999Z</time></trkpt><trkpt lat="44.39406540288231" lon="7.822939584948121"><ele>379.0</ele><time>2026-03-25T17:38:45.999Z</time></trkpt><trkpt lat="44.39397417500099" lon="7.822860203835436"><ele>379.0</ele><time>2026-03-25T17:38:46.999Z</time></trkpt><trkpt lat="44.393895059712676" lon="7.822769619785368"><ele>379.0</ele><time>2026-03-25T17:38:47.999Z</time></trkpt><trkpt lat="44.393812391972496" lon="7.822673394876573"><ele>379.0</ele><time>2026-03-25T17:38:48.999Z</time></trkpt><trkpt lat="44.39373842942663" lon="7.82259237435311"><ele>379.0</ele><time>2026-03-25T17:38:49.999Z</time></trkpt><trkpt lat="44.3936568111023" lon="7.822527243094032"><ele>379.5</ele><time>2026-03-25T17:38:50.999Z</time></trkpt><trkpt lat="44.393599681703925" lon="7.822445273759764"><ele>380.0</ele><time>2026-03-25T17:38:51.999Z</time></trkpt><trkpt lat="44.39353140848131" lon="7.822375421049811"><ele>380.5</ele><time>2026-03-25T17:38:52.999Z</time></trkpt><trkpt lat="44.39347672340014" lon="7.822315853065641"><ele>381.0</ele><time>2026-03-25T17:38:53.999Z</time></trkpt><trkpt lat="44.393420075327846" lon="7.8222569787106675"><ele>381.5</ele><time>2026-03-25T17:38:54.999Z</time></trkpt><trkpt lat="44.39337004922936" lon="7.82219997556179"><ele>382.0</ele><time>2026-03-25T17:38:55.999Z</time></trkpt><trkpt lat="44.393290357665826" lon="7.822117466121933"><ele>382.0</ele><time>2026-03-25T17:38:57.999Z</time></trkpt><trkpt lat="44.39323423214509" lon="7.822062987191594"><ele>382.0</ele><time>2026-03-25T17:38:58.999Z</time></trkpt><trkpt lat="44.393178329182454" lon="7.822007638933123"><ele>382.0</ele><time>2026-03-25T17:38:59.999Z</time></trkpt><trkpt lat="44.39309819507346" lon="7.821911553865792"><ele>382.0</ele><time>2026-03-25T17:39:01.999Z</time></trkpt><trkpt lat="44.39306463493854" lon="7.821758670403541"><ele>382.0</ele><time>2026-03-25T17:39:03.999Z</time></trkpt><trkpt lat="44.39306984080357" lon="7.821659077248509"><ele>382.0</ele><time>2026-03-25T17:39:04.999Z</time></trkpt><trkpt lat="44.393074512568205" lon="7.821545028947198"><ele>382.5</ele><time>2026-03-25T17:39:05.999Z</time></trkpt><trkpt lat="44.393078457752964" lon="7.8214416412606935"><ele>383.0</ele><time>2026-03-25T17:39:06.999Z</time></trkpt><trkpt lat="44.39307540482442" lon="7.821333788366888"><ele>383.5</ele><time>2026-03-25T17:39:07.999Z</time></trkpt><trkpt lat="44.39307406298977" lon="7.821238590542247"><ele>384.0</ele><time>2026-03-25T17:39:08.999Z</time></trkpt><trkpt lat="44.39307424322129" lon="7.821091444186528"><ele>384.50000000000006</ele><time>2026-03-25T17:39:10.999Z</time></trkpt><trkpt lat="44.39307467995855" lon="7.820966846047459"><ele>385.0</ele><time>2026-03-25T17:39:12.999Z</time></trkpt><trkpt lat="44.3930291494229" lon="7.820854287213999"><ele>385.50000000000006</ele><time>2026-03-25T17:39:14.999Z</time></trkpt><trkpt lat="44.39298547767925" lon="7.820778376920448"><ele>386.0</ele><time>2026-03-25T17:39:15.999Z</time></trkpt><trkpt lat="44.39294222818437" lon="7.820707454472153"><ele>386.5</ele><time>2026-03-25T17:39:16.999Z</time></trkpt><trkpt lat="44.392874590181066" lon="7.820579488395743"><ele>387.0</ele><time>2026-03-25T17:39:18.999Z</time></trkpt><trkpt lat="44.392820497605264" lon="7.820515807301297"><ele>387.50000000000006</ele><time>2026-03-25T17:39:19.999Z</time></trkpt><trkpt lat="44.3927059509914" lon="7.820466895782284"><ele>388.0</ele><time>2026-03-25T17:39:21.999Z</time></trkpt><trkpt lat="44.39263204557264" lon="7.820486613848326"><ele>388.00000000000006</ele><time>2026-03-25T17:39:22.999Z</time></trkpt><trkpt lat="44.39256281662374" lon="7.8204803563246825"><ele>388.0</ele><time>2026-03-25T17:39:23.999Z</time></trkpt><trkpt lat="44.39244330948251" lon="7.820491716285162"><ele>388.0</ele><time>2026-03-25T17:39:25.999Z</time></trkpt><trkpt lat="44.39236526728884" lon="7.8204999557595345"><ele>388.0</ele><time>2026-03-25T17:39:26.999Z</time></trkpt><trkpt lat="44.3922849510697" lon="7.820512472695356"><ele>388.00000000000006</ele><time>2026-03-25T17:39:27.999Z</time></trkpt><trkpt lat="44.39221279007331" lon="7.820515482827895"><ele>388.0</ele><time>2026-03-25T17:39:28.999Z</time></trkpt><trkpt lat="44.392079222233164" lon="7.82053126593688"><ele>388.2</ele><time>2026-03-25T17:39:30.999Z</time></trkpt><trkpt lat="44.39201043769778" lon="7.82054146882373"><ele>388.4</ele><time>2026-03-25T17:39:31.998Z</time></trkpt><trkpt lat="44.391923765796626" lon="7.820563296328244"><ele>388.59999999999997</ele><time>2026-03-25T17:39:33.998Z</time></trkpt><trkpt lat="44.391809856612525" lon="7.820592339538181"><ele>388.79999999999995</ele><time>2026-03-25T17:39:35.998Z</time></trkpt><trkpt lat="44.391704671779344" lon="7.820581149486227"><ele>389.0</ele><time>2026-03-25T17:39:37.998Z</time></trkpt><trkpt lat="44.391617545843374" lon="7.820588922476791"><ele>388.99999999999994</ele><time>2026-03-25T17:39:38.998Z</time></trkpt><trkpt lat="44.39152165398982" lon="7.820598802404934"><ele>389.0</ele><time>2026-03-25T17:39:39.998Z</time></trkpt><trkpt lat="44.391448555563315" lon="7.820605383699306"><ele>389.0</ele><time>2026-03-25T17:39:40.998Z</time></trkpt><trkpt lat="44.391372942627854" lon="7.820611140595268"><ele>389.0</ele><time>2026-03-25T17:39:41.998Z</time></trkpt><trkpt lat="44.39128452216113" lon="7.820617872608552"><ele>388.99999999999994</ele><time>2026-03-25T17:39:42.998Z</time></trkpt><trkpt lat="44.391212615694" lon="7.820623347309008"><ele>389.0</ele><time>2026-03-25T17:39:43.998Z</time></trkpt><trkpt lat="44.391148144874435" lon="7.820642299794376"><ele>389.49999999999994</ele><time>2026-03-25T17:39:44.998Z</time></trkpt><trkpt lat="44.39105512908894" lon="7.8206172987811655"><ele>390.0</ele><time>2026-03-25T17:39:46.998Z</time></trkpt><trkpt lat="44.3909747218699" lon="7.82061886074524"><ele>390.5</ele><time>2026-03-25T17:39:49.998Z</time></trkpt><trkpt lat="44.39089264387779" lon="7.820630629183567"><ele>391.0</ele><time>2026-03-25T17:39:53.998Z</time></trkpt><trkpt lat="44.39080249165117" lon="7.820638018628241"><ele>391.49999999999994</ele><time>2026-03-25T17:39:56.998Z</time></trkpt><trkpt lat="44.390707969050645" lon="7.8206565085947455"><ele>392.0</ele><time>2026-03-25T17:39:58.998Z</time></trkpt><trkpt lat="44.39062842010616" lon="7.820656669199381"><ele>391.99999999999994</ele><time>2026-03-25T17:40:01Z</time></trkpt><trkpt lat="44.390554667416964" lon="7.820684239437052"><ele>392.0</ele><time>2026-03-25T17:40:03Z</time></trkpt><trkpt lat="44.390448406015494" lon="7.820667939662155"><ele>392.0</ele><time>2026-03-25T17:40:05Z</time></trkpt><trkpt lat="44.390364627131476" lon="7.820672611581544"><ele>392.0</ele><time>2026-03-25T17:40:07Z</time></trkpt><trkpt lat="44.39028451395785" lon="7.820677079084583"><ele>391.99999999999994</ele><time>2026-03-25T17:40:09Z</time></trkpt><trkpt lat="44.390196326143815" lon="7.820660601786343"><ele>392.0</ele><time>2026-03-25T17:40:12Z</time></trkpt><trkpt lat="44.39016275878834" lon="7.820535868516417"><ele>392.40000000000003</ele><time>2026-03-25T17:40:14Z</time></trkpt><trkpt lat="44.390120894873505" lon="7.820400376472561"><ele>392.8</ele><time>2026-03-25T17:40:16Z</time></trkpt><trkpt lat="44.39004109292183" lon="7.820323794288857"><ele>393.2</ele><time>2026-03-25T17:40:18Z</time></trkpt><trkpt lat="44.38996216845969" lon="7.820377894818352"><ele>393.6</ele><time>2026-03-25T17:40:19Z</time></trkpt><trkpt lat="44.38988429486437" lon="7.820466194634826"><ele>394.0</ele><time>2026-03-25T17:40:39Z</time></trkpt><trkpt lat="44.389816229161084" lon="7.82041754226829"><ele>394.00000000000006</ele><time>2026-03-25T17:40:41Z</time></trkpt><trkpt lat="44.389727817198974" lon="7.820422339878363"><ele>394.0</ele><time>2026-03-25T17:40:42.999Z</time></trkpt><trkpt lat="44.38963013028029" lon="7.820337121247831"><ele>394.0</ele><time>2026-03-25T17:40:44.999Z</time></trkpt><trkpt lat="44.389558004790565" lon="7.820319731086923"><ele>394.0</ele><time>2026-03-25T17:40:45.999Z</time></trkpt><trkpt lat="44.38948003180661" lon="7.820300268324397"><ele>394.00000000000006</ele><time>2026-03-25T17:40:46.999Z</time></trkpt><trkpt lat="44.38940501134977" lon="7.820280314312796"><ele>394.0</ele><time>2026-03-25T17:40:47.999Z</time></trkpt><trkpt lat="44.38931540423946" lon="7.820258712033213"><ele>395.0</ele><time>2026-03-25T17:40:48.999Z</time></trkpt><trkpt lat="44.38920041693427" lon="7.820249325742687"><ele>396.0</ele><time>2026-03-25T17:40:49.999Z</time></trkpt><trkpt lat="44.38910144536449" lon="7.820290438982327"><ele>397.0</ele><time>2026-03-25T17:40:50.999Z</time></trkpt><trkpt lat="44.389013004549675" lon="7.820300438691799"><ele>398.0</ele><time>2026-03-25T17:40:51.999Z</time></trkpt><trkpt lat="44.38892959405842" lon="7.820321360177838"><ele>399.0</ele><time>2026-03-25T17:40:52.999Z</time></trkpt><trkpt lat="44.38884649682669" lon="7.820360333788815"><ele>399.6</ele><time>2026-03-25T17:40:53.999Z</time></trkpt><trkpt lat="44.388775468433685" lon="7.820401070874477"><ele>400.2</ele><time>2026-03-25T17:40:54.999Z</time></trkpt><trkpt lat="44.38870688362496" lon="7.820443330549095"><ele>400.8</ele><time>2026-03-25T17:40:55.999Z</time></trkpt><trkpt lat="44.38864043746803" lon="7.820474859734632"><ele>401.40000000000003</ele><time>2026-03-25T17:40:56.999Z</time></trkpt><trkpt lat="44.3884767203163" lon="7.820474314388715"><ele>402.0</ele><time>2026-03-25T17:40:58.999Z</time></trkpt><trkpt lat="44.388373682954" lon="7.820483856535813"><ele>402.0</ele><time>2026-03-25T17:40:59.999Z</time></trkpt><trkpt lat="44.388246553985184" lon="7.820491246984069"><ele>402.0</ele><time>2026-03-25T17:41:00.999Z</time></trkpt><trkpt lat="44.38816146389201" lon="7.820460638235653"><ele>402.0</ele><time>2026-03-25T17:41:01.999Z</time></trkpt><trkpt lat="44.38806318499336" lon="7.820420195746688"><ele>402.0</ele><time>2026-03-25T17:41:02.999Z</time></trkpt><trkpt lat="44.387956012886505" lon="7.820369790429487"><ele>402.0</ele><time>2026-03-25T17:41:03.999Z</time></trkpt><trkpt lat="44.38783525003075" lon="7.820330284717582"><ele>402.1666666666667</ele><time>2026-03-25T17:41:04.999Z</time></trkpt><trkpt lat="44.38774519631732" lon="7.820273305458176"><ele>402.33333333333337</ele><time>2026-03-25T17:41:05.999Z</time></trkpt><trkpt lat="44.38769876884041" lon="7.820173187449904"><ele>402.5</ele><time>2026-03-25T17:41:06.999Z</time></trkpt><trkpt lat="44.3876131263943" lon="7.820117713771454"><ele>402.6666666666667</ele><time>2026-03-25T17:41:07.999Z</time></trkpt><trkpt lat="44.38754366682337" lon="7.820068709718453"><ele>402.83333333333337</ele><time>2026-03-25T17:41:08.999Z</time></trkpt><trkpt lat="44.38747902276354" lon="7.820019228593784"><ele>403.0</ele><time>2026-03-25T17:41:09.999Z</time></trkpt><trkpt lat="44.387408961552225" lon="7.819976404381456"><ele>402.33333333333337</ele><time>2026-03-25T17:41:10.999Z</time></trkpt><trkpt lat="44.38733663750622" lon="7.819950503914873"><ele>401.6666666666667</ele><time>2026-03-25T17:41:11.999Z</time></trkpt><trkpt lat="44.38725232815262" lon="7.819962082363909"><ele>401.0</ele><time>2026-03-25T17:41:12.999Z</time></trkpt><trkpt lat="44.3871692777314" lon="7.819945810419021"><ele>400.33333333333337</ele><time>2026-03-25T17:41:13.999Z</time></trkpt><trkpt lat="44.3870841502056" lon="7.819951574492499"><ele>399.6666666666667</ele><time>2026-03-25T17:41:14.999Z</time></trkpt><trkpt lat="44.38700046499096" lon="7.819964719374057"><ele>399.0</ele><time>2026-03-25T17:41:15.999Z</time></trkpt><trkpt lat="44.38691304879234" lon="7.819993916903324"><ele>399.0</ele><time>2026-03-25T17:41:16.999Z</time></trkpt><trkpt lat="44.38683281409714" lon="7.820028109033956"><ele>399.0</ele><time>2026-03-25T17:41:17.999Z</time></trkpt><trkpt lat="44.3867667979836" lon="7.8200262461562895"><ele>399.0</ele><time>2026-03-25T17:41:18.999Z</time></trkpt><trkpt lat="44.38667545625336" lon="7.820074282649144"><ele>399.0</ele><time>2026-03-25T17:41:20.999Z</time></trkpt><trkpt lat="44.38658072452593" lon="7.820079523118679"><ele>399.0</ele><time>2026-03-25T17:41:22.999Z</time></trkpt><trkpt lat="44.38648520478745" lon="7.820102885361965"><ele>399.0</ele><time>2026-03-25T17:41:24.999Z</time></trkpt><trkpt lat="44.38639409431872" lon="7.820118184240017"><ele>399.0</ele><time>2026-03-25T17:41:26.999Z</time></trkpt><trkpt lat="44.386275803105384" lon="7.820163534818519"><ele>399.0</ele><time>2026-03-25T17:41:28.999Z</time></trkpt><trkpt lat="44.386162516796205" lon="7.820109813767296"><ele>399.0</ele><time>2026-03-25T17:41:30.999Z</time></trkpt><trkpt lat="44.386092303035944" lon="7.820046188107606"><ele>399.0</ele><time>2026-03-25T17:41:31.999Z</time></trkpt><trkpt lat="44.38602736895229" lon="7.819969796071145"><ele>399.0</ele><time>2026-03-25T17:41:32.999Z</time></trkpt><trkpt lat="44.385978108171976" lon="7.81990175977847"><ele>399.0</ele><time>2026-03-25T17:41:33.999Z</time></trkpt><trkpt lat="44.38592548956915" lon="7.819835199377348"><ele>399.0</ele><time>2026-03-25T17:41:34.999Z</time></trkpt><trkpt lat="44.385866707832946" lon="7.819769663079248"><ele>399.0</ele><time>2026-03-25T17:41:35.999Z</time></trkpt><trkpt lat="44.38577795791907" lon="7.81969164377485"><ele>399.0</ele><time>2026-03-25T17:41:37.998Z</time></trkpt><trkpt lat="44.38569859061714" lon="7.819628187211687"><ele>399.0</ele><time>2026-03-25T17:41:39.998Z</time></trkpt><trkpt lat="44.38561572310273" lon="7.819614776378347"><ele>399.0</ele><time>2026-03-25T17:41:41.998Z</time></trkpt><trkpt lat="44.38554095521468" lon="7.8196004948237405"><ele>399.6</ele><time>2026-03-25T17:41:42.998Z</time></trkpt><trkpt lat="44.385477717223054" lon="7.819702770942935"><ele>400.2</ele><time>2026-03-25T17:41:43.998Z</time></trkpt><trkpt lat="44.38538521673103" lon="7.8197341554100355"><ele>400.8</ele><time>2026-03-25T17:41:44.998Z</time></trkpt><trkpt lat="44.38532167330868" lon="7.819776074549001"><ele>401.40000000000003</ele><time>2026-03-25T17:41:45.998Z</time></trkpt><trkpt lat="44.38520348218769" lon="7.819797291702875"><ele>402.0</ele><time>2026-03-25T17:41:47.998Z</time></trkpt><trkpt lat="44.38513594570088" lon="7.819721923583681"><ele>402.0</ele><time>2026-03-25T17:41:49.998Z</time></trkpt><trkpt lat="44.38508094544501" lon="7.819560124128516"><ele>402.0</ele><time>2026-03-25T17:41:51.998Z</time></trkpt><trkpt lat="44.38507890834363" lon="7.819431252802329"><ele>402.0</ele><time>2026-03-25T17:41:52.998Z</time></trkpt><trkpt lat="44.38505847149177" lon="7.8193201720862335"><ele>402.0</ele><time>2026-03-25T17:41:53.998Z</time></trkpt><trkpt lat="44.38504594911611" lon="7.819161704978424"><ele>402.0</ele><time>2026-03-25T17:41:55.998Z</time></trkpt><trkpt lat="44.38509634402348" lon="7.819001058991637"><ele>403.0</ele><time>2026-03-25T17:41:57.998Z</time></trkpt><trkpt lat="44.38510285293361" lon="7.818886547202249"><ele>404.0</ele><time>2026-03-25T17:41:58.998Z</time></trkpt><trkpt lat="44.38509537880474" lon="7.818767231293133"><ele>405.0</ele><time>2026-03-25T17:41:59.998Z</time></trkpt><trkpt lat="44.38502938958506" lon="7.8186384792269275"><ele>406.0</ele><time>2026-03-25T17:42:01.998Z</time></trkpt><trkpt lat="44.38501320801685" lon="7.81850016200331"><ele>407.0</ele><time>2026-03-25T17:42:03.998Z</time></trkpt><trkpt lat="44.38501178125851" lon="7.818313330528616"><ele>407.40000000000003</ele><time>2026-03-25T17:42:19Z</time></trkpt><trkpt lat="44.38504054154588" lon="7.818150303574678"><ele>407.8</ele><time>2026-03-25T17:42:21Z</time></trkpt><trkpt lat="44.38506549211762" lon="7.818043903204673"><ele>408.2</ele><time>2026-03-25T17:42:22Z</time></trkpt><trkpt lat="44.385078888384854" lon="7.8179143291228375"><ele>408.6</ele><time>2026-03-25T17:42:23Z</time></trkpt><trkpt lat="44.385095605462915" lon="7.817785028001544"><ele>409.0</ele><time>2026-03-25T17:42:24Z</time></trkpt><trkpt lat="44.3851250296703" lon="7.817660835410048"><ele>410.0</ele><time>2026-03-25T17:42:25Z</time></trkpt><trkpt lat="44.38517207072922" lon="7.817521017609773"><ele>411.0</ele><time>2026-03-25T17:42:26Z</time></trkpt><trkpt lat="44.385232835162945" lon="7.81737666145753"><ele>412.0</ele><time>2026-03-25T17:42:27Z</time></trkpt><trkpt lat="44.385297175849146" lon="7.817258249552016"><ele>413.0</ele><time>2026-03-25T17:42:28Z</time></trkpt><trkpt lat="44.385337540210024" lon="7.817142760119857"><ele>414.0</ele><time>2026-03-25T17:42:29Z</time></trkpt><trkpt lat="44.38538841354941" lon="7.8170579587747735"><ele>414.0</ele><time>2026-03-25T17:42:30Z</time></trkpt><trkpt lat="44.38543345431867" lon="7.8169581673170985"><ele>414.0</ele><time>2026-03-25T17:42:31Z</time></trkpt><trkpt lat="44.38550387289907" lon="7.81684211407807"><ele>414.0</ele><time>2026-03-25T17:42:33Z</time></trkpt><trkpt lat="44.385545786628605" lon="7.816726580137915"><ele>414.0</ele><time>2026-03-25T17:42:35Z</time></trkpt><trkpt lat="44.38560238176477" lon="7.816613388695056"><ele>414.0</ele><time>2026-03-25T17:42:37Z</time></trkpt><trkpt lat="44.38558476211189" lon="7.816497511537883"><ele>415.3333333333333</ele><time>2026-03-25T17:42:39Z</time></trkpt><trkpt lat="44.385491297786764" lon="7.816413198344653"><ele>416.66666666666663</ele><time>2026-03-25T17:42:41Z</time></trkpt><trkpt lat="44.38542629491086" lon="7.8163809518030165"><ele>418.0</ele><time>2026-03-25T17:42:42Z</time></trkpt><trkpt lat="44.38536485740112" lon="7.816329167185184"><ele>419.3333333333333</ele><time>2026-03-25T17:42:43Z</time></trkpt><trkpt lat="44.38527173859227" lon="7.816227196039684"><ele>420.66666666666663</ele><time>2026-03-25T17:42:45Z</time></trkpt><trkpt lat="44.38520458441546" lon="7.816172472837148"><ele>422.0</ele><time>2026-03-25T17:42:46Z</time></trkpt><trkpt lat="44.385106423790376" lon="7.816094713983514"><ele>421.99999999999994</ele><time>2026-03-25T17:42:48Z</time></trkpt><trkpt lat="44.38504535402186" lon="7.8160467911009865"><ele>422.0</ele><time>2026-03-25T17:42:48.999Z</time></trkpt><trkpt lat="44.38498703738962" lon="7.815993793387615"><ele>422.0</ele><time>2026-03-25T17:42:49.999Z</time></trkpt><trkpt lat="44.384901881403344" lon="7.8159078265569235"><ele>422.0</ele><time>2026-03-25T17:42:51.999Z</time></trkpt><trkpt lat="44.38484013016436" lon="7.815818731779417"><ele>421.99999999999994</ele><time>2026-03-25T17:42:53.999Z</time></trkpt><trkpt lat="44.38487784143991" lon="7.815674338153183"><ele>422.0</ele><time>2026-03-25T17:42:54.999Z</time></trkpt><trkpt lat="44.38489000099437" lon="7.815567732983407"><ele>422.8333333333333</ele><time>2026-03-25T17:42:55.999Z</time></trkpt><trkpt lat="44.38491343550165" lon="7.8154707894344755"><ele>423.66666666666663</ele><time>2026-03-25T17:42:56.999Z</time></trkpt><trkpt lat="44.384934992336866" lon="7.815378887538321"><ele>424.5</ele><time>2026-03-25T17:42:57.999Z</time></trkpt><trkpt lat="44.38496201511786" lon="7.8152955128769195"><ele>425.33333333333337</ele><time>2026-03-25T17:42:58.999Z</time></trkpt><trkpt lat="44.38497461089455" lon="7.81516629070006"><ele>426.1666666666667</ele><time>2026-03-25T17:42:59.999Z</time></trkpt><trkpt lat="44.38499873827078" lon="7.815054410376342"><ele>427.0</ele><time>2026-03-25T17:43:00.999Z</time></trkpt><trkpt lat="44.38501980393263" lon="7.814932938887839"><ele>427.1666666666667</ele><time>2026-03-25T17:43:01.999Z</time></trkpt><trkpt lat="44.38504527285198" lon="7.814826606109115"><ele>427.33333333333337</ele><time>2026-03-25T17:43:02.999Z</time></trkpt><trkpt lat="44.38506261010123" lon="7.81473859667633"><ele>427.5</ele><time>2026-03-25T17:43:03.999Z</time></trkpt><trkpt lat="44.38510245291829" lon="7.814589812148389"><ele>427.66666666666663</ele><time>2026-03-25T17:43:05.999Z</time></trkpt><trkpt lat="44.38512471378654" lon="7.814504369312055"><ele>427.8333333333333</ele><time>2026-03-25T17:43:07.999Z</time></trkpt><trkpt lat="44.385149838873346" lon="7.814391627635895"><ele>428.0</ele><time>2026-03-25T17:43:11.999Z</time></trkpt><trkpt lat="44.38517919642541" lon="7.814297415796078"><ele>427.99999999999994</ele><time>2026-03-25T17:43:13.999Z</time></trkpt><trkpt lat="44.38521336720872" lon="7.814208646254998"><ele>428.0</ele><time>2026-03-25T17:43:15.999Z</time></trkpt><trkpt lat="44.38528136244556" lon="7.814177065424179"><ele>428.0</ele><time>2026-03-25T17:43:16.999Z</time></trkpt><trkpt lat="44.38531264429237" lon="7.814096558824363"><ele>428.0</ele><time>2026-03-25T17:43:17.999Z</time></trkpt><trkpt lat="44.385315411031215" lon="7.81395819081623"><ele>427.99999999999994</ele><time>2026-03-25T17:43:18.999Z</time></trkpt><trkpt lat="44.38533472027061" lon="7.813849190522953"><ele>428.0</ele><time>2026-03-25T17:43:19.999Z</time></trkpt><trkpt lat="44.38536758616097" lon="7.813736782101559"><ele>428.0</ele><time>2026-03-25T17:43:20.999Z</time></trkpt><trkpt lat="44.38540784588793" lon="7.813602274906143"><ele>427.99999999999994</ele><time>2026-03-25T17:43:21.999Z</time></trkpt><trkpt lat="44.38544335369803" lon="7.813487531394737"><ele>427.99999999999994</ele><time>2026-03-25T17:43:22.999Z</time></trkpt><trkpt lat="44.38548091402871" lon="7.813371358421042"><ele>428.0</ele><time>2026-03-25T17:43:23.999Z</time></trkpt><trkpt lat="44.38552108879136" lon="7.81324374229128"><ele>428.0</ele><time>2026-03-25T17:43:24.999Z</time></trkpt><trkpt lat="44.38556137022238" lon="7.81313385317145"><ele>428.16666666666663</ele><time>2026-03-25T17:43:25.999Z</time></trkpt><trkpt lat="44.38560185734425" lon="7.813017123561733"><ele>428.3333333333333</ele><time>2026-03-25T17:43:26.999Z</time></trkpt><trkpt lat="44.38563331315022" lon="7.812917019930289"><ele>428.5</ele><time>2026-03-25T17:43:27.999Z</time></trkpt><trkpt lat="44.38566715040796" lon="7.81282248013439"><ele>428.66666666666663</ele><time>2026-03-25T17:43:28.999Z</time></trkpt><trkpt lat="44.385703233117646" lon="7.812712678812715"><ele>428.8333333333333</ele><time>2026-03-25T17:43:29.999Z</time></trkpt><trkpt lat="44.38574554211902" lon="7.812582744580164"><ele>429.0</ele><time>2026-03-25T17:43:30.999Z</time></trkpt><trkpt lat="44.38577513917755" lon="7.8124471497594765"><ele>429.0</ele><time>2026-03-25T17:43:31.999Z</time></trkpt><trkpt lat="44.38582633271776" lon="7.812299329941177"><ele>429.0</ele><time>2026-03-25T17:43:32.999Z</time></trkpt><trkpt lat="44.385873564579946" lon="7.812152735058546"><ele>429.0</ele><time>2026-03-25T17:43:33.999Z</time></trkpt><trkpt lat="44.38591630576791" lon="7.812040622192512"><ele>429.0</ele><time>2026-03-25T17:43:34.999Z</time></trkpt><trkpt lat="44.38593774815963" lon="7.8119282896554925"><ele>429.0</ele><time>2026-03-25T17:43:35.999Z</time></trkpt><trkpt lat="44.38598076191482" lon="7.811792534401223"><ele>429.0</ele><time>2026-03-25T17:43:37.999Z</time></trkpt><trkpt lat="44.38601229227681" lon="7.811687903384762"><ele>429.0</ele><time>2026-03-25T17:43:40.999Z</time></trkpt><trkpt lat="44.38616968563388" lon="7.811755529578374"><ele>429.0</ele><time>2026-03-25T17:43:42.999Z</time></trkpt><trkpt lat="44.38628080333784" lon="7.811798589417057"><ele>429.0</ele><time>2026-03-25T17:43:43.999Z</time></trkpt><trkpt lat="44.38637483653043" lon="7.811833785857619"><ele>429.0</ele><time>2026-03-25T17:43:44.998Z</time></trkpt><trkpt lat="44.386488575530755" lon="7.811876227341174"><ele>429.0</ele><time>2026-03-25T17:43:45.998Z</time></trkpt><trkpt lat="44.386602294202916" lon="7.81191001533963"><ele>429.0</ele><time>2026-03-25T17:43:46.998Z</time></trkpt><trkpt lat="44.3866998058003" lon="7.811955310781794"><ele>429.0</ele><time>2026-03-25T17:43:47.998Z</time></trkpt><trkpt lat="44.38680270788836" lon="7.812001995262979"><ele>429.0</ele><time>2026-03-25T17:43:48.998Z</time></trkpt><trkpt lat="44.38688272186436" lon="7.81204654325978"><ele>429.0</ele><time>2026-03-25T17:43:49.998Z</time></trkpt><trkpt lat="44.38696436935339" lon="7.812078860265144"><ele>429.0</ele><time>2026-03-25T17:43:50.998Z</time></trkpt><trkpt lat="44.387055202733094" lon="7.812111911214846"><ele>429.0</ele><time>2026-03-25T17:43:51.998Z</time></trkpt><trkpt lat="44.387150748585604" lon="7.812146497630397"><ele>429.0</ele><time>2026-03-25T17:43:52.998Z</time></trkpt><trkpt lat="44.38723065848156" lon="7.81217620592378"><ele>429.0</ele><time>2026-03-25T17:43:53.998Z</time></trkpt><trkpt lat="44.38730680517191" lon="7.8122042354613255"><ele>429.0</ele><time>2026-03-25T17:43:54.998Z</time></trkpt><trkpt lat="44.387432206396944" lon="7.812261025317778"><ele>428.6</ele><time>2026-03-25T17:43:56.998Z</time></trkpt><trkpt lat="44.38750529013329" lon="7.8122949613450245"><ele>428.2</ele><time>2026-03-25T17:43:57.998Z</time></trkpt><trkpt lat="44.38758894771868" lon="7.812337751074391"><ele>427.80000000000007</ele><time>2026-03-25T17:43:58.998Z</time></trkpt><trkpt lat="44.38768240616881" lon="7.812378270937085"><ele>427.40000000000003</ele><time>2026-03-25T17:43:59.998Z</time></trkpt><trkpt lat="44.38777518724747" lon="7.812412938980328"><ele>427.0</ele><time>2026-03-25T17:44:00.998Z</time></trkpt><trkpt lat="44.38786562416975" lon="7.812452718674943"><ele>427.0</ele><time>2026-03-25T17:44:01.998Z</time></trkpt><trkpt lat="44.38796063991359" lon="7.8124923331098515"><ele>427.00000000000006</ele><time>2026-03-25T17:44:02.998Z</time></trkpt><trkpt lat="44.388057002367766" lon="7.812525516598759"><ele>427.00000000000006</ele><time>2026-03-25T17:44:03.998Z</time></trkpt><trkpt lat="44.38817570467878" lon="7.8125637699152595"><ele>427.0</ele><time>2026-03-25T17:44:04.998Z</time></trkpt><trkpt lat="44.38828604552824" lon="7.812605881090191"><ele>427.0</ele><time>2026-03-25T17:44:05.998Z</time></trkpt><trkpt lat="44.388384904209204" lon="7.812640270963416"><ele>427.1666666666667</ele><time>2026-03-25T17:44:06.998Z</time></trkpt><trkpt lat="44.38846856556878" lon="7.812672896260539"><ele>427.33333333333337</ele><time>2026-03-25T17:44:07.998Z</time></trkpt><trkpt lat="44.38855266749316" lon="7.812699921844727"><ele>427.5</ele><time>2026-03-25T17:44:08.998Z</time></trkpt><trkpt lat="44.388634505843605" lon="7.812738129233149"><ele>427.66666666666663</ele><time>2026-03-25T17:44:09.998Z</time></trkpt><trkpt lat="44.388706529573824" lon="7.812764575821001"><ele>427.8333333333333</ele><time>2026-03-25T17:44:10.998Z</time></trkpt><trkpt lat="44.388807357151116" lon="7.812794660974553"><ele>428.0</ele><time>2026-03-25T17:44:13Z</time></trkpt><trkpt lat="44.38889115405553" lon="7.8128479540111"><ele>428.0</ele><time>2026-03-25T17:44:15Z</time></trkpt><trkpt lat="44.38896034553447" lon="7.812868520032746"><ele>427.99999999999994</ele><time>2026-03-25T17:44:17Z</time></trkpt><trkpt lat="44.389073679169634" lon="7.812960632923082"><ele>427.99999999999994</ele><time>2026-03-25T17:44:19Z</time></trkpt><trkpt lat="44.389164223742476" lon="7.812962271788676"><ele>428.0</ele><time>2026-03-25T17:44:20Z</time></trkpt><trkpt lat="44.38925103814467" lon="7.812959971619146"><ele>428.0</ele><time>2026-03-25T17:44:21Z</time></trkpt><trkpt lat="44.389347875761764" lon="7.812993316852258"><ele>428.0</ele><time>2026-03-25T17:44:22Z</time></trkpt><trkpt lat="44.38947055782384" lon="7.813045525083124"><ele>428.0</ele><time>2026-03-25T17:44:23Z</time></trkpt><trkpt lat="44.38959626192359" lon="7.813096585110015"><ele>428.0</ele><time>2026-03-25T17:44:24Z</time></trkpt><trkpt lat="44.38971907921059" lon="7.813148483474591"><ele>428.0</ele><time>2026-03-25T17:44:25Z</time></trkpt><trkpt lat="44.38984499601231" lon="7.81320222966219"><ele>427.59999999999997</ele><time>2026-03-25T17:44:26Z</time></trkpt><trkpt lat="44.38995108359202" lon="7.813251101507222"><ele>427.19999999999993</ele><time>2026-03-25T17:44:27Z</time></trkpt><trkpt lat="44.39004985141623" lon="7.813295912469309"><ele>426.8</ele><time>2026-03-25T17:44:28Z</time></trkpt><trkpt lat="44.39014809036302" lon="7.81335130230335"><ele>426.4</ele><time>2026-03-25T17:44:29Z</time></trkpt><trkpt lat="44.390253875184484" lon="7.81339309040293"><ele>426.0</ele><time>2026-03-25T17:44:30Z</time></trkpt><trkpt lat="44.39036228069385" lon="7.813431523913462"><ele>426.0</ele><time>2026-03-25T17:44:31Z</time></trkpt><trkpt lat="44.390455381746165" lon="7.813470113545551"><ele>426.0</ele><time>2026-03-25T17:44:32Z</time></trkpt><trkpt lat="44.39054660792075" lon="7.8135084518569915"><ele>426.0</ele><time>2026-03-25T17:44:33Z</time></trkpt><trkpt lat="44.390647379262155" lon="7.813552559014434"><ele>426.0</ele><time>2026-03-25T17:44:34Z</time></trkpt><trkpt lat="44.39072130647772" lon="7.813586075682615"><ele>426.0</ele><time>2026-03-25T17:44:35Z</time></trkpt><trkpt lat="44.3908359438726" lon="7.813624145871326"><ele>426.1666666666667</ele><time>2026-03-25T17:44:37Z</time></trkpt><trkpt lat="44.39091162611576" lon="7.8136455363719195"><ele>426.33333333333337</ele><time>2026-03-25T17:44:38Z</time></trkpt><trkpt lat="44.39099268326187" lon="7.813681117033482"><ele>426.5</ele><time>2026-03-25T17:44:39Z</time></trkpt><trkpt lat="44.39108058543062" lon="7.813710103138079"><ele>426.6666666666667</ele><time>2026-03-25T17:44:40Z</time></trkpt><trkpt lat="44.39116593192156" lon="7.813749509433624"><ele>426.83333333333337</ele><time>2026-03-25T17:44:41Z</time></trkpt><trkpt lat="44.39123530303251" lon="7.813789346766463"><ele>427.0</ele><time>2026-03-25T17:44:42Z</time></trkpt><trkpt lat="44.39133666340901" lon="7.813826992349737"><ele>426.0</ele><time>2026-03-25T17:44:43Z</time></trkpt><trkpt lat="44.391433507062025" lon="7.8138614227148135"><ele>425.00000000000006</ele><time>2026-03-25T17:44:44Z</time></trkpt><trkpt lat="44.39150705297365" lon="7.8139039693615935"><ele>424.0</ele><time>2026-03-25T17:44:45Z</time></trkpt><trkpt lat="44.39164293037067" lon="7.813971268427533"><ele>423.0</ele><time>2026-03-25T17:44:46Z</time></trkpt><trkpt lat="44.39174519604773" lon="7.813994387213361"><ele>422.0</ele><time>2026-03-25T17:44:47Z</time></trkpt><trkpt lat="44.391825927574004" lon="7.8140185974438525"><ele>422.0</ele><time>2026-03-25T17:44:48Z</time></trkpt><trkpt lat="44.391899161156594" lon="7.814045480712028"><ele>422.0</ele><time>2026-03-25T17:44:49Z</time></trkpt><trkpt lat="44.391994128224674" lon="7.81408269220783"><ele>422.0</ele><time>2026-03-25T17:44:50Z</time></trkpt><trkpt lat="44.39206926129916" lon="7.814114073547569"><ele>422.0</ele><time>2026-03-25T17:44:51Z</time></trkpt><trkpt lat="44.39215385274858" lon="7.814147344854142"><ele>422.0</ele><time>2026-03-25T17:44:52Z</time></trkpt><trkpt lat="44.39225881236307" lon="7.81420165263438"><ele>421.8</ele><time>2026-03-25T17:44:53.999Z</time></trkpt><trkpt lat="44.39239206429687" lon="7.814266610107476"><ele>421.6</ele><time>2026-03-25T17:44:55.999Z</time></trkpt><trkpt lat="44.392480926942284" lon="7.8143074224307725"><ele>421.40000000000003</ele><time>2026-03-25T17:44:56.999Z</time></trkpt><trkpt lat="44.392565901450034" lon="7.814345047387637"><ele>421.20000000000005</ele><time>2026-03-25T17:44:57.999Z</time></trkpt><trkpt lat="44.39268514845352" lon="7.814383178602499"><ele>421.0</ele><time>2026-03-25T17:44:58.999Z</time></trkpt><trkpt lat="44.392782643957574" lon="7.814417053302787"><ele>421.0</ele><time>2026-03-25T17:44:59.999Z</time></trkpt><trkpt lat="44.39286145051248" lon="7.814447326762825"><ele>421.0</ele><time>2026-03-25T17:45:00.999Z</time></trkpt><trkpt lat="44.392969144985926" lon="7.814472345308088"><ele>421.0</ele><time>2026-03-25T17:45:01.999Z</time></trkpt><trkpt lat="44.3930533798007" lon="7.81452492666123"><ele>421.0</ele><time>2026-03-25T17:45:02.999Z</time></trkpt><trkpt lat="44.39314525005491" lon="7.8145610004986965"><ele>421.0</ele><time>2026-03-25T17:45:03.999Z</time></trkpt><trkpt lat="44.393230194486506" lon="7.814602013114279"><ele>421.0</ele><time>2026-03-25T17:45:04.999Z</time></trkpt><trkpt lat="44.393329330714614" lon="7.8146443999460145"><ele>421.0</ele><time>2026-03-25T17:45:05.999Z</time></trkpt><trkpt lat="44.39340622328704" lon="7.814688191657823"><ele>421.0</ele><time>2026-03-25T17:45:06.999Z</time></trkpt><trkpt lat="44.39349876322345" lon="7.814733691472882"><ele>421.0</ele><time>2026-03-25T17:45:07.999Z</time></trkpt><trkpt lat="44.39359918100909" lon="7.814783101820217"><ele>421.0</ele><time>2026-03-25T17:45:08.999Z</time></trkpt><trkpt lat="44.39370421273867" lon="7.814836789142785"><ele>421.0</ele><time>2026-03-25T17:45:09.999Z</time></trkpt><trkpt lat="44.39379417594071" lon="7.814882673106579"><ele>421.0</ele><time>2026-03-25T17:45:10.999Z</time></trkpt><trkpt lat="44.393889375984735" lon="7.814931344447993"><ele>421.0</ele><time>2026-03-25T17:45:11.999Z</time></trkpt><trkpt lat="44.39398266989696" lon="7.814967304956392"><ele>421.0</ele><time>2026-03-25T17:45:12.999Z</time></trkpt><trkpt lat="44.39407414922843" lon="7.815010231585382"><ele>421.0</ele><time>2026-03-25T17:45:13.999Z</time></trkpt><trkpt lat="44.39416924435829" lon="7.815053903685057"><ele>421.0</ele><time>2026-03-25T17:45:14.999Z</time></trkpt><trkpt lat="44.39426029546106" lon="7.815109414302277"><ele>421.0</ele><time>2026-03-25T17:45:15.999Z</time></trkpt><trkpt lat="44.394341893330136" lon="7.815150171977056"><ele>421.0</ele><time>2026-03-25T17:45:16.999Z</time></trkpt><trkpt lat="44.39442596158394" lon="7.815194783907847"><ele>421.0</ele><time>2026-03-25T17:45:17.999Z</time></trkpt><trkpt lat="44.394497451395786" lon="7.815246532661792"><ele>421.0</ele><time>2026-03-25T17:45:18.999Z</time></trkpt><trkpt lat="44.39463221894113" lon="7.815336562387413"><ele>421.0</ele><time>2026-03-25T17:45:20.999Z</time></trkpt><trkpt lat="44.394704065104214" lon="7.815368442660063"><ele>421.0</ele><time>2026-03-25T17:45:21.999Z</time></trkpt><trkpt lat="44.394776239567044" lon="7.815427632040454"><ele>421.0</ele><time>2026-03-25T17:45:22.999Z</time></trkpt><trkpt lat="44.394914759113405" lon="7.815516044991584"><ele>421.0</ele><time>2026-03-25T17:45:24.999Z</time></trkpt><trkpt lat="44.39503935040622" lon="7.8155848232974385"><ele>421.0</ele><time>2026-03-25T17:45:26.999Z</time></trkpt><trkpt lat="44.395134444356884" lon="7.815613796822445"><ele>421.0</ele><time>2026-03-25T17:45:27.999Z</time></trkpt><trkpt lat="44.39519825724806" lon="7.815657789131933"><ele>421.0</ele><time>2026-03-25T17:45:28.999Z</time></trkpt><trkpt lat="44.39527001294391" lon="7.8156895002711195"><ele>421.0</ele><time>2026-03-25T17:45:29.999Z</time></trkpt><trkpt lat="44.395335589883615" lon="7.815751570253037"><ele>421.0</ele><time>2026-03-25T17:45:31.999Z</time></trkpt><trkpt lat="44.395548460413885" lon="7.815651999075502"><ele>420.75</ele><time>2026-03-25T17:46:03.998Z</time></trkpt><trkpt lat="44.39560679440938" lon="7.815452692162192"><ele>420.5</ele><time>2026-03-25T17:46:05.998Z</time></trkpt><trkpt lat="44.39564830005039" lon="7.81532661610088"><ele>420.25</ele><time>2026-03-25T17:46:06.998Z</time></trkpt><trkpt lat="44.39568500752629" lon="7.8151672254733136"><ele>420.0</ele><time>2026-03-25T17:46:07.998Z</time></trkpt><trkpt lat="44.395733629693105" lon="7.81499736328368"><ele>420.0</ele><time>2026-03-25T17:46:08.998Z</time></trkpt><trkpt lat="44.39578019926055" lon="7.814855029106701"><ele>420.0</ele><time>2026-03-25T17:46:09.998Z</time></trkpt><trkpt lat="44.39582580164806" lon="7.814726801520426"><ele>420.0</ele><time>2026-03-25T17:46:10.998Z</time></trkpt><trkpt lat="44.39587464745265" lon="7.814608092125666"><ele>420.0</ele><time>2026-03-25T17:46:11.998Z</time></trkpt><trkpt lat="44.395951644146905" lon="7.814487536584273"><ele>420.0</ele><time>2026-03-25T17:46:12.998Z</time></trkpt><trkpt lat="44.3960357617" lon="7.81439877534994"><ele>419.8</ele><time>2026-03-25T17:46:13.998Z</time></trkpt><trkpt lat="44.39608453492851" lon="7.814305178279982"><ele>419.6</ele><time>2026-03-25T17:46:14.998Z</time></trkpt><trkpt lat="44.3961833575467" lon="7.8142112652717834"><ele>419.4</ele><time>2026-03-25T17:46:15.998Z</time></trkpt><trkpt lat="44.39626291149453" lon="7.814161097992241"><ele>419.2</ele><time>2026-03-25T17:46:16.998Z</time></trkpt><trkpt lat="44.39633086766676" lon="7.814108170595376"><ele>419.0</ele><time>2026-03-25T17:46:18Z</time></trkpt><trkpt lat="44.396405401326106" lon="7.814052245328128"><ele>418.8333333333333</ele><time>2026-03-25T17:46:19Z</time></trkpt><trkpt lat="44.39645975534261" lon="7.813982876893988"><ele>418.66666666666663</ele><time>2026-03-25T17:46:20Z</time></trkpt><trkpt lat="44.39652011304769" lon="7.813941046219056"><ele>418.5</ele><time>2026-03-25T17:46:21Z</time></trkpt><trkpt lat="44.39660047403738" lon="7.813880596305957"><ele>418.33333333333337</ele><time>2026-03-25T17:46:22Z</time></trkpt><trkpt lat="44.3966843157567" lon="7.813832076767029"><ele>418.1666666666667</ele><time>2026-03-25T17:46:23Z</time></trkpt><trkpt lat="44.396763763438976" lon="7.81374434100663"><ele>418.0</ele><time>2026-03-25T17:46:24Z</time></trkpt><trkpt lat="44.39686420531256" lon="7.8137020072750065"><ele>418.0</ele><time>2026-03-25T17:46:25Z</time></trkpt><trkpt lat="44.396936752943844" lon="7.813630362675626"><ele>418.0</ele><time>2026-03-25T17:46:26Z</time></trkpt><trkpt lat="44.397032813929535" lon="7.813599625367911"><ele>418.0</ele><time>2026-03-25T17:46:27Z</time></trkpt><trkpt lat="44.39712936546249" lon="7.813522661968883"><ele>418.0</ele><time>2026-03-25T17:46:28Z</time></trkpt><trkpt lat="44.39721959739805" lon="7.813442501769293"><ele>418.0</ele><time>2026-03-25T17:46:29Z</time></trkpt><trkpt lat="44.39729954760379" lon="7.813383460406687"><ele>418.2</ele><time>2026-03-25T17:46:30Z</time></trkpt><trkpt lat="44.397385508839605" lon="7.813320090609739"><ele>418.4</ele><time>2026-03-25T17:46:31Z</time></trkpt><trkpt lat="44.397482717177084" lon="7.813237252101988"><ele>418.59999999999997</ele><time>2026-03-25T17:46:32Z</time></trkpt><trkpt lat="44.397550748010715" lon="7.813166219689374"><ele>418.79999999999995</ele><time>2026-03-25T17:46:33Z</time></trkpt><trkpt lat="44.397618678853334" lon="7.813100597865102"><ele>419.0</ele><time>2026-03-25T17:46:34Z</time></trkpt><trkpt lat="44.39768855699058" lon="7.813037468951662"><ele>418.99999999999994</ele><time>2026-03-25T17:46:35Z</time></trkpt><trkpt lat="44.397764220755256" lon="7.812937946570928"><ele>419.0</ele><time>2026-03-25T17:46:36Z</time></trkpt><trkpt lat="44.39783320436607" lon="7.812861509870299"><ele>419.0</ele><time>2026-03-25T17:46:37Z</time></trkpt><trkpt lat="44.39791409792837" lon="7.812821222511089"><ele>419.0</ele><time>2026-03-25T17:46:38Z</time></trkpt><trkpt lat="44.39799713344936" lon="7.812795613293276"><ele>418.99999999999994</ele><time>2026-03-25T17:46:39Z</time></trkpt><trkpt lat="44.39807403414383" lon="7.812745751961647"><ele>419.0</ele><time>2026-03-25T17:46:40Z</time></trkpt><trkpt lat="44.398146678255145" lon="7.812699225908855"><ele>419.0</ele><time>2026-03-25T17:46:41Z</time></trkpt><trkpt lat="44.39822606264182" lon="7.812658977354156"><ele>419.0</ele><time>2026-03-25T17:46:42Z</time></trkpt><trkpt lat="44.39828704677518" lon="7.812620668927761"><ele>419.0</ele><time>2026-03-25T17:46:43Z</time></trkpt><trkpt lat="44.39840087989216" lon="7.812545713244073"><ele>419.0</ele><time>2026-03-25T17:46:45Z</time></trkpt><trkpt lat="44.39846769397718" lon="7.812513086023356"><ele>419.0</ele><time>2026-03-25T17:46:46Z</time></trkpt><trkpt lat="44.39857972204347" lon="7.8124159023440765"><ele>419.0</ele><time>2026-03-25T17:46:48Z</time></trkpt><trkpt lat="44.398654768733174" lon="7.812331672917031"><ele>419.0</ele><time>2026-03-25T17:46:49Z</time></trkpt><trkpt lat="44.39874194301013" lon="7.812240132635879"><ele>419.0</ele><time>2026-03-25T17:46:50Z</time></trkpt><trkpt lat="44.39882194486137" lon="7.812187476686061"><ele>419.0</ele><time>2026-03-25T17:46:51Z</time></trkpt><trkpt lat="44.39890515522713" lon="7.812118926194461"><ele>419.0</ele><time>2026-03-25T17:46:52Z</time></trkpt><trkpt lat="44.398988987789174" lon="7.8120380135042184"><ele>418.79999999999995</ele><time>2026-03-25T17:46:53Z</time></trkpt><trkpt lat="44.39907663669878" lon="7.811964174052539"><ele>418.59999999999997</ele><time>2026-03-25T17:46:54Z</time></trkpt><trkpt lat="44.39916182684379" lon="7.811903395120076"><ele>418.4</ele><time>2026-03-25T17:46:55Z</time></trkpt><trkpt lat="44.39925128388616" lon="7.8118337597159835"><ele>418.2</ele><time>2026-03-25T17:46:56Z</time></trkpt><trkpt lat="44.399339270365324" lon="7.811763613066048"><ele>418.0</ele><time>2026-03-25T17:46:57Z</time></trkpt><trkpt lat="44.39941242612523" lon="7.811703659590888"><ele>417.79999999999995</ele><time>2026-03-25T17:46:58Z</time></trkpt><trkpt lat="44.39949367681068" lon="7.811648392719485"><ele>417.6</ele><time>2026-03-25T17:46:58.999Z</time></trkpt><trkpt lat="44.39958804056932" lon="7.811574607073078"><ele>417.4</ele><time>2026-03-25T17:46:59.999Z</time></trkpt><trkpt lat="44.39968017210693" lon="7.811508613938631"><ele>417.20000000000005</ele><time>2026-03-25T17:47:00.999Z</time></trkpt><trkpt lat="44.39975796022739" lon="7.81145313316699"><ele>417.0</ele><time>2026-03-25T17:47:01.999Z</time></trkpt><trkpt lat="44.399825930067585" lon="7.811392823442016"><ele>417.0</ele><time>2026-03-25T17:47:02.999Z</time></trkpt><trkpt lat="44.399909197619735" lon="7.811342088318079"><ele>417.0</ele><time>2026-03-25T17:47:03.999Z</time></trkpt><trkpt lat="44.39998562929147" lon="7.811280454212652"><ele>417.0</ele><time>2026-03-25T17:47:04.999Z</time></trkpt><trkpt lat="44.400056515393025" lon="7.8112231150602"><ele>417.0</ele><time>2026-03-25T17:47:05.999Z</time></trkpt><trkpt lat="44.4001357282883" lon="7.81116400784768"><ele>417.0</ele><time>2026-03-25T17:47:06.999Z</time></trkpt><trkpt lat="44.40020999799682" lon="7.811092617903206"><ele>417.0</ele><time>2026-03-25T17:47:07.999Z</time></trkpt><trkpt lat="44.400279800324064" lon="7.8110331515099345"><ele>417.20000000000005</ele><time>2026-03-25T17:47:08.999Z</time></trkpt><trkpt lat="44.40034776013422" lon="7.810977145547554"><ele>417.4</ele><time>2026-03-25T17:47:09.999Z</time></trkpt><trkpt lat="44.400422961511396" lon="7.810916779874613"><ele>417.6</ele><time>2026-03-25T17:47:10.999Z</time></trkpt><trkpt lat="44.400510339339725" lon="7.8108501945889035"><ele>417.79999999999995</ele><time>2026-03-25T17:47:11.999Z</time></trkpt><trkpt lat="44.4006110031585" lon="7.810777700440234"><ele>418.0</ele><time>2026-03-25T17:47:12.999Z</time></trkpt><trkpt lat="44.400714444389614" lon="7.8106981511635185"><ele>418.0</ele><time>2026-03-25T17:47:13.999Z</time></trkpt><trkpt lat="44.400800391325326" lon="7.8106252576815915"><ele>418.0</ele><time>2026-03-25T17:47:14.999Z</time></trkpt><trkpt lat="44.400881942916904" lon="7.81056648192542"><ele>418.0</ele><time>2026-03-25T17:47:15.999Z</time></trkpt><trkpt lat="44.400978092383895" lon="7.810494597493044"><ele>418.0</ele><time>2026-03-25T17:47:16.999Z</time></trkpt><trkpt lat="44.40105858913793" lon="7.810428162164578"><ele>418.0</ele><time>2026-03-25T17:47:17.999Z</time></trkpt><trkpt lat="44.40115065349496" lon="7.810360399679323"><ele>418.0</ele><time>2026-03-25T17:47:18.999Z</time></trkpt><trkpt lat="44.40122805336897" lon="7.810299165870373"><ele>418.0</ele><time>2026-03-25T17:47:19.999Z</time></trkpt><trkpt lat="44.40130232088398" lon="7.810235440425579"><ele>418.0</ele><time>2026-03-25T17:47:20.999Z</time></trkpt><trkpt lat="44.401362283492226" lon="7.810184750060915"><ele>418.0</ele><time>2026-03-25T17:47:21.999Z</time></trkpt><trkpt lat="44.4014469260497" lon="7.8101008025482646"><ele>418.0</ele><time>2026-03-25T17:47:23.999Z</time></trkpt><trkpt lat="44.4015313960638" lon="7.810026302531879"><ele>417.79999999999995</ele><time>2026-03-25T17:47:25.999Z</time></trkpt><trkpt lat="44.40159809897865" lon="7.80998356910239"><ele>417.6</ele><time>2026-03-25T17:47:26.999Z</time></trkpt><trkpt lat="44.40164052380093" lon="7.809849761462986"><ele>417.4</ele><time>2026-03-25T17:47:27.999Z</time></trkpt><trkpt lat="44.401686427994164" lon="7.809730325076526"><ele>417.20000000000005</ele><time>2026-03-25T17:47:28.999Z</time></trkpt><trkpt lat="44.40174083674268" lon="7.809601022782708"><ele>417.0</ele><time>2026-03-25T17:47:29.999Z</time></trkpt><trkpt lat="44.40181084808335" lon="7.809472175322374"><ele>417.0</ele><time>2026-03-25T17:47:30.999Z</time></trkpt><trkpt lat="44.40188553176585" lon="7.809330794163353"><ele>417.0</ele><time>2026-03-25T17:47:31.999Z</time></trkpt><trkpt lat="44.4019265065571" lon="7.8091719763385"><ele>417.0</ele><time>2026-03-25T17:47:32.999Z</time></trkpt><trkpt lat="44.4019605774217" lon="7.809026001638846"><ele>417.0</ele><time>2026-03-25T17:47:33.999Z</time></trkpt><trkpt lat="44.40200827064274" lon="7.80888195711326"><ele>417.0</ele><time>2026-03-25T17:47:34.999Z</time></trkpt><trkpt lat="44.40206008550537" lon="7.808732959705859"><ele>417.0</ele><time>2026-03-25T17:47:35.999Z</time></trkpt><trkpt lat="44.40211190384266" lon="7.808581021120292"><ele>417.0</ele><time>2026-03-25T17:47:36.999Z</time></trkpt><trkpt lat="44.40215056487717" lon="7.808436426236327"><ele>417.0</ele><time>2026-03-25T17:47:37.999Z</time></trkpt><trkpt lat="44.40219664154277" lon="7.808284694960783"><ele>417.0</ele><time>2026-03-25T17:47:38.999Z</time></trkpt><trkpt lat="44.402240146340624" lon="7.808125910991409"><ele>417.0</ele><time>2026-03-25T17:47:39.999Z</time></trkpt><trkpt lat="44.40228627408191" lon="7.807975299786535"><ele>417.0</ele><time>2026-03-25T17:47:40.999Z</time></trkpt><trkpt lat="44.40232292414094" lon="7.8078443669032955"><ele>417.0</ele><time>2026-03-25T17:47:41.999Z</time></trkpt><trkpt lat="44.40233749596907" lon="7.8076837561231605"><ele>417.0</ele><time>2026-03-25T17:47:42.999Z</time></trkpt><trkpt lat="44.40237214080521" lon="7.807540034848293"><ele>417.0</ele><time>2026-03-25T17:47:43.999Z</time></trkpt><trkpt lat="44.402404960321576" lon="7.807405452042434"><ele>417.0</ele><time>2026-03-25T17:47:44.999Z</time></trkpt><trkpt lat="44.402442464028404" lon="7.807270774460894"><ele>417.0</ele><time>2026-03-25T17:47:45.999Z</time></trkpt><trkpt lat="44.40248265267711" lon="7.807111215120352"><ele>417.0</ele><time>2026-03-25T17:47:46.999Z</time></trkpt><trkpt lat="44.40251955732711" lon="7.806968762675843"><ele>417.20000000000005</ele><time>2026-03-25T17:47:47.999Z</time></trkpt><trkpt lat="44.402557806600505" lon="7.806826164126882"><ele>417.4</ele><time>2026-03-25T17:47:48.999Z</time></trkpt><trkpt lat="44.40260096879311" lon="7.806687011282904"><ele>417.6</ele><time>2026-03-25T17:47:49.999Z</time></trkpt><trkpt lat="44.40264582229935" lon="7.806552382770819"><ele>417.79999999999995</ele><time>2026-03-25T17:47:50.999Z</time></trkpt><trkpt lat="44.402694005598455" lon="7.806421385903665"><ele>418.0</ele><time>2026-03-25T17:47:51.999Z</time></trkpt><trkpt lat="44.402737608168" lon="7.8062717903002765"><ele>418.0</ele><time>2026-03-25T17:47:52.999Z</time></trkpt><trkpt lat="44.402774174310736" lon="7.806141032400783"><ele>418.0</ele><time>2026-03-25T17:47:53.999Z</time></trkpt><trkpt lat="44.40281659650957" lon="7.806003274345543"><ele>418.0</ele><time>2026-03-25T17:47:54.998Z</time></trkpt><trkpt lat="44.402859074446646" lon="7.80585370183783"><ele>418.0</ele><time>2026-03-25T17:47:55.998Z</time></trkpt><trkpt lat="44.402900683693574" lon="7.805708688684785"><ele>418.0</ele><time>2026-03-25T17:47:56.998Z</time></trkpt><trkpt lat="44.40293210992576" lon="7.805567681518678"><ele>418.00000000000006</ele><time>2026-03-25T17:47:57.998Z</time></trkpt><trkpt lat="44.40296826023035" lon="7.805445677894327"><ele>418.0</ele><time>2026-03-25T17:47:58.998Z</time></trkpt><trkpt lat="44.40301116550056" lon="7.8053350877816055"><ele>418.0</ele><time>2026-03-25T17:47:59.998Z</time></trkpt><trkpt lat="44.40304859894064" lon="7.805229398097511"><ele>418.0</ele><time>2026-03-25T17:48:00.998Z</time></trkpt><trkpt lat="44.40306838453253" lon="7.805098394481648"><ele>418.00000000000006</ele><time>2026-03-25T17:48:01.998Z</time></trkpt><trkpt lat="44.403099178328056" lon="7.805011047932548"><ele>418.0</ele><time>2026-03-25T17:48:02.998Z</time></trkpt><trkpt lat="44.40311839443014" lon="7.804901489796585"><ele>418.1666666666667</ele><time>2026-03-25T17:48:03.998Z</time></trkpt><trkpt lat="44.4031468109289" lon="7.804819364292642"><ele>418.33333333333337</ele><time>2026-03-25T17:48:04.998Z</time></trkpt><trkpt lat="44.40317692776862" lon="7.804740067569083"><ele>418.5</ele><time>2026-03-25T17:48:05.998Z</time></trkpt><trkpt lat="44.4032013942419" lon="7.804656731951634"><ele>418.66666666666663</ele><time>2026-03-25T17:48:06.998Z</time></trkpt><trkpt lat="44.403240576266086" lon="7.804549573808691"><ele>418.8333333333333</ele><time>2026-03-25T17:48:07.998Z</time></trkpt><trkpt lat="44.403276873692676" lon="7.804453856224672"><ele>419.0</ele><time>2026-03-25T17:48:08.998Z</time></trkpt><trkpt lat="44.40332222903856" lon="7.804317208659243"><ele>418.4</ele><time>2026-03-25T17:48:09.998Z</time></trkpt><trkpt lat="44.4033560772319" lon="7.8041792805523"><ele>417.79999999999995</ele><time>2026-03-25T17:48:10.998Z</time></trkpt><trkpt lat="44.403407030533934" lon="7.804034312490541"><ele>417.20000000000005</ele><time>2026-03-25T17:48:11.998Z</time></trkpt><trkpt lat="44.40344014884497" lon="7.803908532936035"><ele>416.6</ele><time>2026-03-25T17:48:12.998Z</time></trkpt><trkpt lat="44.403488270687475" lon="7.803773930874417"><ele>416.0</ele><time>2026-03-25T17:48:13.998Z</time></trkpt><trkpt lat="44.403536402314195" lon="7.803633666046513"><ele>416.0</ele><time>2026-03-25T17:48:14.998Z</time></trkpt><trkpt lat="44.403594003771815" lon="7.803511675310593"><ele>416.0</ele><time>2026-03-25T17:48:15.998Z</time></trkpt><trkpt lat="44.4036418078866" lon="7.803367007022863"><ele>416.0</ele><time>2026-03-25T17:48:16.998Z</time></trkpt><trkpt lat="44.40369972956629" lon="7.803222256951487"><ele>416.0</ele><time>2026-03-25T17:48:17.998Z</time></trkpt><trkpt lat="44.40374609264974" lon="7.803070063930833"><ele>416.25</ele><time>2026-03-25T17:48:18.998Z</time></trkpt><trkpt lat="44.4037916533622" lon="7.802915258933569"><ele>416.5</ele><time>2026-03-25T17:48:19.998Z</time></trkpt><trkpt lat="44.403839649825926" lon="7.802769649887471"><ele>416.75</ele><time>2026-03-25T17:48:20.998Z</time></trkpt><trkpt lat="44.40389825525369" lon="7.8026290104687615"><ele>417.0</ele><time>2026-03-25T17:48:21.998Z</time></trkpt><trkpt lat="44.40394523370677" lon="7.802491993294602"><ele>415.75</ele><time>2026-03-25T17:48:22.998Z</time></trkpt><trkpt lat="44.4039989908222" lon="7.802342041865597"><ele>414.5</ele><time>2026-03-25T17:48:24Z</time></trkpt><trkpt lat="44.40405990424663" lon="7.802185233793336"><ele>413.25</ele><time>2026-03-25T17:48:25Z</time></trkpt><trkpt lat="44.40411302685105" lon="7.802030608989346"><ele>412.0</ele><time>2026-03-25T17:48:26Z</time></trkpt><trkpt lat="44.40416438259503" lon="7.8018811655623965"><ele>412.40000000000003</ele><time>2026-03-25T17:48:27Z</time></trkpt><trkpt lat="44.404215634424865" lon="7.801738094450511"><ele>412.8</ele><time>2026-03-25T17:48:28Z</time></trkpt><trkpt lat="44.404265185067345" lon="7.801610429153254"><ele>413.2</ele><time>2026-03-25T17:48:29Z</time></trkpt><trkpt lat="44.40430922876777" lon="7.8014719829715276"><ele>413.6</ele><time>2026-03-25T17:48:30Z</time></trkpt><trkpt lat="44.404361145196056" lon="7.801324571663856"><ele>414.0</ele><time>2026-03-25T17:48:31Z</time></trkpt><trkpt lat="44.40440484239722" lon="7.801196155601878"><ele>414.0</ele><time>2026-03-25T17:48:32Z</time></trkpt><trkpt lat="44.40444321597476" lon="7.801066616033364"><ele>414.0</ele><time>2026-03-25T17:48:33Z</time></trkpt><trkpt lat="44.40448619791101" lon="7.800943476363833"><ele>414.0</ele><time>2026-03-25T17:48:34Z</time></trkpt><trkpt lat="44.40452559088574" lon="7.80080542455077"><ele>414.0</ele><time>2026-03-25T17:48:35Z</time></trkpt><trkpt lat="44.40456489073016" lon="7.800664422234446"><ele>414.0</ele><time>2026-03-25T17:48:36Z</time></trkpt><trkpt lat="44.40460586689094" lon="7.800523644598422"><ele>414.6</ele><time>2026-03-25T17:48:37Z</time></trkpt><trkpt lat="44.40465370591866" lon="7.800386024140656"><ele>415.2</ele><time>2026-03-25T17:48:38Z</time></trkpt><trkpt lat="44.40469170348764" lon="7.800241317472365"><ele>415.8</ele><time>2026-03-25T17:48:39Z</time></trkpt><trkpt lat="44.40473380453782" lon="7.800097877455646"><ele>416.40000000000003</ele><time>2026-03-25T17:48:40Z</time></trkpt><trkpt lat="44.40478385182813" lon="7.79995800728675"><ele>417.0</ele><time>2026-03-25T17:48:41Z</time></trkpt><trkpt lat="44.40482933990414" lon="7.799821569153271"><ele>419.0</ele><time>2026-03-25T17:48:42Z</time></trkpt><trkpt lat="44.404867923236495" lon="7.799665730094258"><ele>421.0</ele><time>2026-03-25T17:48:43Z</time></trkpt><trkpt lat="44.40491166476728" lon="7.7995148051751055"><ele>423.0</ele><time>2026-03-25T17:48:44Z</time></trkpt><trkpt lat="44.40495355468316" lon="7.799362747468036"><ele>425.0</ele><time>2026-03-25T17:48:45Z</time></trkpt><trkpt lat="44.404991171252746" lon="7.799222140859144"><ele>426.25</ele><time>2026-03-25T17:48:46Z</time></trkpt><trkpt lat="44.4050316406527" lon="7.799074181064071"><ele>427.5</ele><time>2026-03-25T17:48:47Z</time></trkpt><trkpt lat="44.40506259035771" lon="7.7989046327648435"><ele>428.75</ele><time>2026-03-25T17:48:48Z</time></trkpt><trkpt lat="44.40508963832789" lon="7.798727496255612"><ele>430.0</ele><time>2026-03-25T17:48:49Z</time></trkpt><trkpt lat="44.40510518714801" lon="7.798571968722598"><ele>431.0</ele><time>2026-03-25T17:48:50Z</time></trkpt><trkpt lat="44.40511474944966" lon="7.798424119047156"><ele>432.0</ele><time>2026-03-25T17:48:51Z</time></trkpt><trkpt lat="44.40514979018346" lon="7.798283577922515"><ele>433.0</ele><time>2026-03-25T17:48:52Z</time></trkpt><trkpt lat="44.405155370456015" lon="7.798139606402079"><ele>434.0</ele><time>2026-03-25T17:48:53Z</time></trkpt><trkpt lat="44.40517353656854" lon="7.797999938618061"><ele>435.0</ele><time>2026-03-25T17:48:54Z</time></trkpt><trkpt lat="44.40519303414102" lon="7.797869728655556"><ele>435.0</ele><time>2026-03-25T17:48:55Z</time></trkpt><trkpt lat="44.40521122430676" lon="7.797748249933176"><ele>435.0</ele><time>2026-03-25T17:48:56Z</time></trkpt><trkpt lat="44.40523209255046" lon="7.797608885270945"><ele>435.0</ele><time>2026-03-25T17:48:57Z</time></trkpt><trkpt lat="44.40525564987501" lon="7.7974664253996995"><ele>435.0</ele><time>2026-03-25T17:48:58Z</time></trkpt><trkpt lat="44.40527717383277" lon="7.797331424405699"><ele>435.0</ele><time>2026-03-25T17:48:59Z</time></trkpt><trkpt lat="44.40531672649257" lon="7.797190916390493"><ele>435.6666666666667</ele><time>2026-03-25T17:49:00Z</time></trkpt><trkpt lat="44.40532234221553" lon="7.79705690719131"><ele>436.33333333333337</ele><time>2026-03-25T17:49:01Z</time></trkpt><trkpt lat="44.405342494937386" lon="7.796936889457454"><ele>437.0</ele><time>2026-03-25T17:49:02Z</time></trkpt><trkpt lat="44.40536024792473" lon="7.7968311631363285"><ele>437.6666666666667</ele><time>2026-03-25T17:49:03Z</time></trkpt><trkpt lat="44.40538011932877" lon="7.796704619715145"><ele>438.33333333333337</ele><time>2026-03-25T17:49:04Z</time></trkpt><trkpt lat="44.40539871715338" lon="7.796585931557671"><ele>439.0</ele><time>2026-03-25T17:49:05Z</time></trkpt><trkpt lat="44.405424020232225" lon="7.796463541988564"><ele>439.00000000000006</ele><time>2026-03-25T17:49:05.999Z</time></trkpt><trkpt lat="44.40544573973684" lon="7.796359882088301"><ele>439.0</ele><time>2026-03-25T17:49:06.999Z</time></trkpt><trkpt lat="44.40546785313682" lon="7.796275020669902"><ele>439.0</ele><time>2026-03-25T17:49:07.999Z</time></trkpt><trkpt lat="44.4054773434563" lon="7.79617434816608"><ele>439.0</ele><time>2026-03-25T17:49:08.999Z</time></trkpt><trkpt lat="44.405517077102544" lon="7.796055840580431"><ele>439.00000000000006</ele><time>2026-03-25T17:49:09.999Z</time></trkpt><trkpt lat="44.405544719023496" lon="7.7959310279520135"><ele>439.0</ele><time>2026-03-25T17:49:10.999Z</time></trkpt><trkpt lat="44.40557036466939" lon="7.795782977662961"><ele>439.79999999999995</ele><time>2026-03-25T17:49:11.999Z</time></trkpt><trkpt lat="44.40559964464668" lon="7.795667965075875"><ele>440.59999999999997</ele><time>2026-03-25T17:49:12.999Z</time></trkpt><trkpt lat="44.405623245852404" lon="7.795541665945349"><ele>441.4</ele><time>2026-03-25T17:49:13.999Z</time></trkpt><trkpt lat="44.405654814722745" lon="7.795410069582641"><ele>442.2</ele><time>2026-03-25T17:49:14.999Z</time></trkpt><trkpt lat="44.40568344283037" lon="7.795286917387111"><ele>443.0</ele><time>2026-03-25T17:49:15.999Z</time></trkpt><trkpt lat="44.40571544214843" lon="7.795150093632251"><ele>443.2</ele><time>2026-03-25T17:49:16.999Z</time></trkpt><trkpt lat="44.40574818056714" lon="7.7950267181890425"><ele>443.4</ele><time>2026-03-25T17:49:17.999Z</time></trkpt><trkpt lat="44.405775444411994" lon="7.794880259362665"><ele>443.59999999999997</ele><time>2026-03-25T17:49:18.999Z</time></trkpt><trkpt lat="44.40581452835496" lon="7.794748225632072"><ele>443.79999999999995</ele><time>2026-03-25T17:49:19.999Z</time></trkpt><trkpt lat="44.40584758501985" lon="7.79460589155015"><ele>444.0</ele><time>2026-03-25T17:49:20.999Z</time></trkpt><trkpt lat="44.40588577370717" lon="7.794488608095068"><ele>444.0</ele><time>2026-03-25T17:49:21.999Z</time></trkpt><trkpt lat="44.40592002470262" lon="7.794363608802389"><ele>444.0</ele><time>2026-03-25T17:49:22.999Z</time></trkpt><trkpt lat="44.40592413966981" lon="7.794193340055611"><ele>444.0</ele><time>2026-03-25T17:49:23.999Z</time></trkpt><trkpt lat="44.4059538662995" lon="7.7940983051057895"><ele>444.0</ele><time>2026-03-25T17:49:24.999Z</time></trkpt><trkpt lat="44.40598838034526" lon="7.793965275210257"><ele>444.0</ele><time>2026-03-25T17:49:25.999Z</time></trkpt><trkpt lat="44.406024652932146" lon="7.793827553567797"><ele>444.4</ele><time>2026-03-25T17:49:26.999Z</time></trkpt><trkpt lat="44.40605348008956" lon="7.793701524952535"><ele>444.79999999999995</ele><time>2026-03-25T17:49:27.999Z</time></trkpt><trkpt lat="44.40608448000848" lon="7.793574979719352"><ele>445.20000000000005</ele><time>2026-03-25T17:49:28.999Z</time></trkpt><trkpt lat="44.40611863258364" lon="7.793453743671874"><ele>445.6</ele><time>2026-03-25T17:49:29.999Z</time></trkpt><trkpt lat="44.40615416375012" lon="7.793315922203537"><ele>446.0</ele><time>2026-03-25T17:49:30.999Z</time></trkpt><trkpt lat="44.40618134738323" lon="7.793186844184236"><ele>446.16666666666663</ele><time>2026-03-25T17:49:31.999Z</time></trkpt><trkpt lat="44.406203961268865" lon="7.7930596393856035"><ele>446.3333333333333</ele><time>2026-03-25T17:49:32.999Z</time></trkpt><trkpt lat="44.40622900579917" lon="7.792956203260271"><ele>446.5</ele><time>2026-03-25T17:49:33.999Z</time></trkpt><trkpt lat="44.406247903075275" lon="7.792861561287873"><ele>446.66666666666663</ele><time>2026-03-25T17:49:34.999Z</time></trkpt><trkpt lat="44.406268563273315" lon="7.792760458555893"><ele>446.8333333333333</ele><time>2026-03-25T17:49:35.999Z</time></trkpt><trkpt lat="44.40628672612551" lon="7.79267315120825"><ele>447.0</ele><time>2026-03-25T17:49:36.999Z</time></trkpt><trkpt lat="44.40632360735139" lon="7.792577707940624"><ele>447.0</ele><time>2026-03-25T17:49:38.999Z</time></trkpt><trkpt lat="44.40636106069009" lon="7.792494418999493"><ele>447.0</ele><time>2026-03-25T17:49:40.999Z</time></trkpt><trkpt lat="44.40645775219692" lon="7.792464594637535"><ele>447.0</ele><time>2026-03-25T17:49:42.999Z</time></trkpt><trkpt lat="44.40652065518655" lon="7.792501623538849"><ele>447.0</ele><time>2026-03-25T17:49:43.999Z</time></trkpt><trkpt lat="44.40659502766634" lon="7.79254648663605"><ele>447.0</ele><time>2026-03-25T17:49:44.999Z</time></trkpt><trkpt lat="44.406679257076505" lon="7.792583436521943"><ele>447.0</ele><time>2026-03-25T17:49:45.999Z</time></trkpt><trkpt lat="44.406746870630194" lon="7.792610426472277"><ele>447.0</ele><time>2026-03-25T17:49:46.999Z</time></trkpt><trkpt lat="44.40681083502317" lon="7.792637159077223"><ele>447.0</ele><time>2026-03-25T17:49:47.999Z</time></trkpt><trkpt lat="44.40689793131608" lon="7.7926801180946565"><ele>447.0</ele><time>2026-03-25T17:49:49.999Z</time></trkpt><trkpt lat="44.406997372173144" lon="7.792723078899148"><ele>447.0</ele><time>2026-03-25T17:49:51.999Z</time></trkpt><trkpt lat="44.40706747964994" lon="7.792741613131794"><ele>447.0</ele><time>2026-03-25T17:49:52.999Z</time></trkpt><trkpt lat="44.40714270349347" lon="7.792765100102633"><ele>447.0</ele><time>2026-03-25T17:49:53.999Z</time></trkpt><trkpt lat="44.407211828396015" lon="7.792799743455143"><ele>447.0</ele><time>2026-03-25T17:49:54.999Z</time></trkpt><trkpt lat="44.40727156765129" lon="7.792828108137151"><ele>447.0</ele><time>2026-03-25T17:49:55.999Z</time></trkpt><trkpt lat="44.407379294918734" lon="7.792841823964046"><ele>447.0</ele><time>2026-03-25T17:49:57.999Z</time></trkpt><trkpt lat="44.40749528037233" lon="7.7928058011088615"><ele>447.0</ele><time>2026-03-25T17:49:59.999Z</time></trkpt><trkpt lat="44.40756201063507" lon="7.792768069851072"><ele>447.0</ele><time>2026-03-25T17:50:00.999Z</time></trkpt><trkpt lat="44.4076247470057" lon="7.792700244231613"><ele>447.0</ele><time>2026-03-25T17:50:01.998Z</time></trkpt><trkpt lat="44.40771152002532" lon="7.792594272009996"><ele>447.0</ele><time>2026-03-25T17:50:03.998Z</time></trkpt><trkpt lat="44.40780050352305" lon="7.79254470432916"><ele>447.0</ele><time>2026-03-25T17:50:05.998Z</time></trkpt><trkpt lat="44.407862240029644" lon="7.792522403609206"><ele>447.0</ele><time>2026-03-25T17:50:09.998Z</time></trkpt><trkpt lat="44.407846338139166" lon="7.792694046883004"><ele>447.0</ele><time>2026-03-25T17:50:11.998Z</time></trkpt><trkpt lat="44.407807548093174" lon="7.792772095750377"><ele>447.0</ele><time>2026-03-25T17:50:12.998Z</time></trkpt><trkpt lat="44.40777528462217" lon="7.792864314072495"><ele>447.0</ele><time>2026-03-25T17:50:13.998Z</time></trkpt><trkpt lat="44.40776442022786" lon="7.792996322376117"><ele>447.20000000000005</ele><time>2026-03-25T17:50:15.998Z</time></trkpt><trkpt lat="44.40774433018469" lon="7.793109215991553"><ele>447.40000000000003</ele><time>2026-03-25T17:50:17.998Z</time></trkpt><trkpt lat="44.40777906353785" lon="7.7932472672153725"><ele>447.59999999999997</ele><time>2026-03-25T17:50:19.998Z</time></trkpt><trkpt lat="44.40789639758961" lon="7.793242018865566"><ele>447.79999999999995</ele><time>2026-03-25T17:50:21.998Z</time></trkpt><trkpt lat="44.4079840536955" lon="7.79329208352998"><ele>448.0</ele><time>2026-03-25T17:50:23.998Z</time></trkpt><trkpt lat="44.408057320736745" lon="7.793333244335812"><ele>448.0</ele><time>2026-03-25T17:50:25.998Z</time></trkpt><trkpt lat="44.40788970345422" lon="7.7931601592720385"><ele>448.0</ele><time>2026-03-25T17:50:34Z</time></trkpt><trkpt lat="44.40784162804616" lon="7.793514433000868"><ele>448.0</ele><time>2026-03-25T17:50:35Z</time></trkpt><trkpt lat="44.40775262460459" lon="7.793467278204056"><ele>448.0</ele><time>2026-03-25T17:50:37Z</time></trkpt><trkpt lat="44.407703212144675" lon="7.79339082982471"><ele>448.0</ele><time>2026-03-25T17:50:40Z</time></trkpt><trkpt lat="44.40787137743576" lon="7.792734789281451"><ele>448.00000000000006</ele><time>2026-03-25T17:50:43Z</time></trkpt><trkpt lat="44.407895676995025" lon="7.792611169496317"><ele>448.0</ele><time>2026-03-25T17:50:45Z</time></trkpt><trkpt lat="44.40789186615838" lon="7.792496178422369"><ele>448.0</ele><time>2026-03-25T17:50:48Z</time></trkpt><trkpt lat="44.407838539083905" lon="7.792446873978012"><ele>448.0</ele><time>2026-03-25T17:50:50Z</time></trkpt><trkpt lat="44.40774552023251" lon="7.792541207815616"><ele>448.00000000000006</ele><time>2026-03-25T17:50:52Z</time></trkpt><trkpt lat="44.407692748674044" lon="7.792611368906849"><ele>448.0</ele><time>2026-03-25T17:50:53Z</time></trkpt><trkpt lat="44.40764181718628" lon="7.792673879700813"><ele>448.00000000000006</ele><time>2026-03-25T17:50:54Z</time></trkpt><trkpt lat="44.40756706901783" lon="7.7927374640836335"><ele>448.0</ele><time>2026-03-25T17:50:56Z</time></trkpt><trkpt lat="44.40750808527448" lon="7.792781688024883"><ele>448.0</ele><time>2026-03-25T17:50:58Z</time></trkpt><trkpt lat="44.40742585187177" lon="7.792824603802181"><ele>448.0</ele><time>2026-03-25T17:51:01Z</time></trkpt><trkpt lat="44.40732006407546" lon="7.792800055707584"><ele>448.00000000000006</ele><time>2026-03-25T17:51:03Z</time></trkpt><trkpt lat="44.40725914813019" lon="7.792776991533841"><ele>448.0</ele><time>2026-03-25T17:51:04Z</time></trkpt><trkpt lat="44.40716473194951" lon="7.792756482959637"><ele>448.0</ele><time>2026-03-25T17:51:06Z</time></trkpt><trkpt lat="44.40709848897935" lon="7.792708596107723"><ele>447.99999999999994</ele><time>2026-03-25T17:51:08Z</time></trkpt><trkpt lat="44.40706277250277" lon="7.792602232735802"><ele>447.99999999999994</ele><time>2026-03-25T17:51:11.999Z</time></trkpt><trkpt lat="44.407126043053296" lon="7.7924479750877484"><ele>448.0</ele><time>2026-03-25T17:51:13.999Z</time></trkpt><trkpt lat="44.407169882601735" lon="7.792349322103514"><ele>448.0</ele><time>2026-03-25T17:51:14.999Z</time></trkpt><trkpt lat="44.407212296560004" lon="7.792240145343434"><ele>448.0</ele><time>2026-03-25T17:51:15.999Z</time></trkpt><trkpt lat="44.4072573491438" lon="7.792116567169018"><ele>447.99999999999994</ele><time>2026-03-25T17:51:16.999Z</time></trkpt><trkpt lat="44.4073015423062" lon="7.792003783330952"><ele>447.99999999999994</ele><time>2026-03-25T17:51:17.999Z</time></trkpt><trkpt lat="44.40734249369493" lon="7.791880880005328"><ele>448.0</ele><time>2026-03-25T17:51:18.999Z</time></trkpt><trkpt lat="44.4074037398466" lon="7.791767658984685"><ele>448.0</ele><time>2026-03-25T17:51:19.999Z</time></trkpt><trkpt lat="44.40744688420078" lon="7.79165732534708"><ele>448.00000000000006</ele><time>2026-03-25T17:51:20.999Z</time></trkpt><trkpt lat="44.407489505762214" lon="7.791548328653605"><ele>448.0</ele><time>2026-03-25T17:51:21.999Z</time></trkpt><trkpt lat="44.40753417583003" lon="7.791434093311165"><ele>448.0</ele><time>2026-03-25T17:51:22.999Z</time></trkpt><trkpt lat="44.40757744318507" lon="7.791323445120467"><ele>448.0</ele><time>2026-03-25T17:51:23.999Z</time></trkpt><trkpt lat="44.407615932568575" lon="7.791225015721277"><ele>448.00000000000006</ele><time>2026-03-25T17:51:24.999Z</time></trkpt><trkpt lat="44.40765580679087" lon="7.791123044015057"><ele>448.0</ele><time>2026-03-25T17:51:25.999Z</time></trkpt><trkpt lat="44.40769263573358" lon="7.791026349213819"><ele>447.83333333333337</ele><time>2026-03-25T17:51:26.999Z</time></trkpt><trkpt lat="44.407719057834626" lon="7.790921535790712"><ele>447.6666666666667</ele><time>2026-03-25T17:51:27.999Z</time></trkpt><trkpt lat="44.40775741498391" lon="7.79083469307894"><ele>447.5</ele><time>2026-03-25T17:51:28.999Z</time></trkpt><trkpt lat="44.40780800403474" lon="7.790679781887957"><ele>447.33333333333337</ele><time>2026-03-25T17:51:30.999Z</time></trkpt><trkpt lat="44.40781605859438" lon="7.7905785572669135"><ele>447.1666666666667</ele><time>2026-03-25T17:51:31.999Z</time></trkpt><trkpt lat="44.407811267262524" lon="7.790468500766849"><ele>447.0</ele><time>2026-03-25T17:51:32.999Z</time></trkpt><trkpt lat="44.407793415059444" lon="7.790358633977141"><ele>447.0</ele><time>2026-03-25T17:51:33.999Z</time></trkpt><trkpt lat="44.407777616126886" lon="7.79027265308409"><ele>447.0</ele><time>2026-03-25T17:51:34.999Z</time></trkpt><trkpt lat="44.40776088353653" lon="7.79015578509255"><ele>447.0</ele><time>2026-03-25T17:51:35.999Z</time></trkpt><trkpt lat="44.40772533739563" lon="7.790062386867747"><ele>447.0</ele><time>2026-03-25T17:51:36.999Z</time></trkpt><trkpt lat="44.407728632242666" lon="7.789909732858423"><ele>447.0</ele><time>2026-03-25T17:51:38.999Z</time></trkpt><trkpt lat="44.4077861534032" lon="7.78977377094658"><ele>447.0</ele><time>2026-03-25T17:51:40.999Z</time></trkpt><trkpt lat="44.407846751582056" lon="7.789718329983776"><ele>446.6666666666667</ele><time>2026-03-25T17:51:41.999Z</time></trkpt><trkpt lat="44.407902958721415" lon="7.789644559957578"><ele>446.33333333333337</ele><time>2026-03-25T17:51:42.999Z</time></trkpt><trkpt lat="44.407958920730735" lon="7.789588495383932"><ele>446.0</ele><time>2026-03-25T17:51:43.999Z</time></trkpt><trkpt lat="44.40801134922511" lon="7.7895355360216"><ele>445.6666666666667</ele><time>2026-03-25T17:51:44.999Z</time></trkpt><trkpt lat="44.40810006828437" lon="7.789430605780229"><ele>445.33333333333337</ele><time>2026-03-25T17:51:46.999Z</time></trkpt><trkpt lat="44.40818088258884" lon="7.789360877840147"><ele>445.0</ele><time>2026-03-25T17:51:48.999Z</time></trkpt><trkpt lat="44.40825556242769" lon="7.789349923077777"><ele>445.00000000000006</ele><time>2026-03-25T17:51:50.999Z</time></trkpt><trkpt lat="44.40833441759828" lon="7.789365040837514"><ele>445.0</ele><time>2026-03-25T17:51:53.999Z</time></trkpt><trkpt lat="44.4084168851573" lon="7.789337988256263"><ele>445.0</ele><time>2026-03-25T17:51:55.999Z</time></trkpt><trkpt lat="44.408492638687854" lon="7.789259552492378"><ele>445.0</ele><time>2026-03-25T17:51:57.999Z</time></trkpt><trkpt lat="44.40853676402591" lon="7.789196421167073"><ele>445.00000000000006</ele><time>2026-03-25T17:51:59.999Z</time></trkpt><trkpt lat="44.40852868056367" lon="7.789105947368152"><ele>445.0</ele><time>2026-03-25T17:52:01.999Z</time></trkpt><trkpt lat="44.408524404501115" lon="7.789201300066628"><ele>445.0</ele><time>2026-03-25T17:52:15.998Z</time></trkpt><trkpt lat="44.40797546731552" lon="7.78960193119507"><ele>445.00000000000006</ele><time>2026-03-25T17:52:24.998Z</time></trkpt><trkpt lat="44.4079097633017" lon="7.789666648284078"><ele>445.0</ele><time>2026-03-25T17:52:25.998Z</time></trkpt><trkpt lat="44.40785228560544" lon="7.78973222271118"><ele>445.0</ele><time>2026-03-25T17:52:26.998Z</time></trkpt><trkpt lat="44.407799007607025" lon="7.789785009745171"><ele>445.0</ele><time>2026-03-25T17:52:27.998Z</time></trkpt><trkpt lat="44.40772051964117" lon="7.789911589554828"><ele>445.00000000000006</ele><time>2026-03-25T17:52:29.998Z</time></trkpt><trkpt lat="44.40770536546223" lon="7.790001247489907"><ele>445.0</ele><time>2026-03-25T17:52:30.998Z</time></trkpt><trkpt lat="44.4077125280495" lon="7.790113842456719"><ele>445.33333333333337</ele><time>2026-03-25T17:52:31.998Z</time></trkpt><trkpt lat="44.40773917815189" lon="7.790234406160462"><ele>445.6666666666667</ele><time>2026-03-25T17:52:32.998Z</time></trkpt><trkpt lat="44.40775874988438" lon="7.790338729592794"><ele>446.0</ele><time>2026-03-25T17:52:33.998Z</time></trkpt><trkpt lat="44.40777648813947" lon="7.790437311646492"><ele>446.33333333333337</ele><time>2026-03-25T17:52:34.998Z</time></trkpt><trkpt lat="44.407790642699716" lon="7.790531486906724"><ele>446.6666666666667</ele><time>2026-03-25T17:52:36Z</time></trkpt><trkpt lat="44.407795758317526" lon="7.790627617802349"><ele>447.0</ele><time>2026-03-25T17:52:37Z</time></trkpt><trkpt lat="44.4077808967825" lon="7.790733357077968"><ele>447.0</ele><time>2026-03-25T17:52:38Z</time></trkpt><trkpt lat="44.40774684898642" lon="7.790849542730971"><ele>447.00000000000006</ele><time>2026-03-25T17:52:39Z</time></trkpt><trkpt lat="44.40769654432039" lon="7.790974214259578"><ele>447.00000000000006</ele><time>2026-03-25T17:52:40Z</time></trkpt><trkpt lat="44.407636864026216" lon="7.791097342498551"><ele>447.0</ele><time>2026-03-25T17:52:41Z</time></trkpt><trkpt lat="44.40758200961031" lon="7.791245456509967"><ele>447.0</ele><time>2026-03-25T17:52:42Z</time></trkpt><trkpt lat="44.40753223208018" lon="7.791363390728589"><ele>447.0</ele><time>2026-03-25T17:52:43Z</time></trkpt><trkpt lat="44.40748462918702" lon="7.791476978662348"><ele>447.00000000000006</ele><time>2026-03-25T17:52:44Z</time></trkpt><trkpt lat="44.40743446463818" lon="7.7916041381369725"><ele>447.00000000000006</ele><time>2026-03-25T17:52:45Z</time></trkpt><trkpt lat="44.407385492098804" lon="7.791729805234676"><ele>447.0</ele><time>2026-03-25T17:52:46Z</time></trkpt><trkpt lat="44.40732864454566" lon="7.791847526981639"><ele>447.0</ele><time>2026-03-25T17:52:47Z</time></trkpt><trkpt lat="44.40728906153674" lon="7.791974065938479"><ele>447.0</ele><time>2026-03-25T17:52:48Z</time></trkpt><trkpt lat="44.407251994710556" lon="7.792091769546354"><ele>447.0</ele><time>2026-03-25T17:52:49Z</time></trkpt><trkpt lat="44.40721333473889" lon="7.792201959415868"><ele>447.0</ele><time>2026-03-25T17:52:50Z</time></trkpt><trkpt lat="44.40717689727239" lon="7.792295417076723"><ele>447.0</ele><time>2026-03-25T17:52:51Z</time></trkpt><trkpt lat="44.40713925373575" lon="7.792383039974762"><ele>447.0</ele><time>2026-03-25T17:52:52Z</time></trkpt><trkpt lat="44.407105515976944" lon="7.792459190307828"><ele>447.0</ele><time>2026-03-25T17:52:53Z</time></trkpt><trkpt lat="44.407045374973514" lon="7.792570395510361"><ele>447.0</ele><time>2026-03-25T17:52:55Z</time></trkpt><trkpt lat="44.40699746861041" lon="7.792658910709306"><ele>447.0</ele><time>2026-03-25T17:52:57Z</time></trkpt><trkpt lat="44.40687233699396" lon="7.7926231406232045"><ele>447.0</ele><time>2026-03-25T17:52:58Z</time></trkpt><trkpt lat="44.40678769404986" lon="7.792592184018387"><ele>447.0</ele><time>2026-03-25T17:52:59Z</time></trkpt><trkpt lat="44.4067221962108" lon="7.792545181378335"><ele>447.0</ele><time>2026-03-25T17:53:00Z</time></trkpt><trkpt lat="44.40665879740159" lon="7.792512883752163"><ele>447.0</ele><time>2026-03-25T17:53:01Z</time></trkpt><trkpt lat="44.40659065949366" lon="7.792492069084438"><ele>447.0</ele><time>2026-03-25T17:53:02Z</time></trkpt><trkpt lat="44.406524544522796" lon="7.792467554781391"><ele>447.00000000000006</ele><time>2026-03-25T17:53:03Z</time></trkpt><trkpt lat="44.406411944427965" lon="7.7924120995450314"><ele>447.00000000000006</ele><time>2026-03-25T17:53:05Z</time></trkpt><trkpt lat="44.406280678946175" lon="7.792322592352629"><ele>447.0</ele><time>2026-03-25T17:53:07Z</time></trkpt><trkpt lat="44.406219905528275" lon="7.792290478351132"><ele>447.0</ele><time>2026-03-25T17:53:08Z</time></trkpt><trkpt lat="44.40616559728714" lon="7.792231035191728"><ele>447.0</ele><time>2026-03-25T17:53:09Z</time></trkpt><trkpt lat="44.40606190216201" lon="7.792122219751422"><ele>447.00000000000006</ele><time>2026-03-25T17:53:11Z</time></trkpt><trkpt lat="44.40597799652854" lon="7.792017334019447"><ele>447.00000000000006</ele><time>2026-03-25T17:53:13Z</time></trkpt><trkpt lat="44.40591939131273" lon="7.791950992709395"><ele>447.0</ele><time>2026-03-25T17:53:14Z</time></trkpt><trkpt lat="44.40585321240951" lon="7.791871571544762"><ele>447.0</ele><time>2026-03-25T17:53:15Z</time></trkpt><trkpt lat="44.40579548945552" lon="7.79180202230916"><ele>447.0</ele><time>2026-03-25T17:53:16Z</time></trkpt><trkpt lat="44.405742528668576" lon="7.791721261372775"><ele>447.0</ele><time>2026-03-25T17:53:17Z</time></trkpt><trkpt lat="44.40570741192619" lon="7.791635380617655"><ele>447.0</ele><time>2026-03-25T17:53:17.999Z</time></trkpt><trkpt lat="44.405682132665206" lon="7.79153636695455"><ele>447.0</ele><time>2026-03-25T17:53:18.999Z</time></trkpt><trkpt lat="44.40566741666502" lon="7.79144976452781"><ele>447.0</ele><time>2026-03-25T17:53:19.999Z</time></trkpt><trkpt lat="44.40566707762039" lon="7.7912801158445095"><ele>447.0</ele><time>2026-03-25T17:53:21.999Z</time></trkpt><trkpt lat="44.405679687638916" lon="7.791190187753226"><ele>447.0</ele><time>2026-03-25T17:53:22.999Z</time></trkpt><trkpt lat="44.40570703889791" lon="7.791091707310299"><ele>447.0</ele><time>2026-03-25T17:53:23.999Z</time></trkpt><trkpt lat="44.40574581385546" lon="7.790979480068604"><ele>447.0</ele><time>2026-03-25T17:53:24.999Z</time></trkpt><trkpt lat="44.40579018995908" lon="7.790862164400673"><ele>447.0</ele><time>2026-03-25T17:53:25.999Z</time></trkpt><trkpt lat="44.40584210613799" lon="7.790763179239951"><ele>447.0</ele><time>2026-03-25T17:53:26.999Z</time></trkpt><trkpt lat="44.40589682618917" lon="7.790660251285615"><ele>447.0</ele><time>2026-03-25T17:53:27.999Z</time></trkpt><trkpt lat="44.4059589083673" lon="7.790559850062054"><ele>446.40000000000003</ele><time>2026-03-25T17:53:28.999Z</time></trkpt><trkpt lat="44.40602137432101" lon="7.790458572220192"><ele>445.80000000000007</ele><time>2026-03-25T17:53:29.999Z</time></trkpt><trkpt lat="44.406076069766435" lon="7.790358000290931"><ele>445.2</ele><time>2026-03-25T17:53:30.999Z</time></trkpt><trkpt lat="44.40613253858558" lon="7.790244331538291"><ele>444.6</ele><time>2026-03-25T17:53:31.999Z</time></trkpt><trkpt lat="44.40618807943942" lon="7.7901429318721815"><ele>444.0</ele><time>2026-03-25T17:53:32.999Z</time></trkpt><trkpt lat="44.40623958836946" lon="7.790044684145139"><ele>444.4</ele><time>2026-03-25T17:53:33.999Z</time></trkpt><trkpt lat="44.406307569365964" lon="7.789934793063006"><ele>444.79999999999995</ele><time>2026-03-25T17:53:34.999Z</time></trkpt><trkpt lat="44.406360469775755" lon="7.789828835082022"><ele>445.20000000000005</ele><time>2026-03-25T17:53:35.999Z</time></trkpt><trkpt lat="44.406423636817294" lon="7.7897349859870735"><ele>445.6</ele><time>2026-03-25T17:53:36.999Z</time></trkpt><trkpt lat="44.406479102547394" lon="7.7896389845324725"><ele>446.0</ele><time>2026-03-25T17:53:37.999Z</time></trkpt><trkpt lat="44.40653112760068" lon="7.789532926409156"><ele>445.99999999999994</ele><time>2026-03-25T17:53:38.999Z</time></trkpt><trkpt lat="44.40658157749787" lon="7.789440622250187"><ele>446.0</ele><time>2026-03-25T17:53:39.999Z</time></trkpt><trkpt lat="44.4066393728697" lon="7.7893515654096515"><ele>446.0</ele><time>2026-03-25T17:53:40.999Z</time></trkpt><trkpt lat="44.40668537325458" lon="7.7892626320945375"><ele>446.0</ele><time>2026-03-25T17:53:41.999Z</time></trkpt><trkpt lat="44.40674612085035" lon="7.789198538955759"><ele>445.99999999999994</ele><time>2026-03-25T17:53:42.999Z</time></trkpt><trkpt lat="44.40681520867245" lon="7.789112528318631"><ele>446.0</ele><time>2026-03-25T17:53:43.999Z</time></trkpt><trkpt lat="44.40688956056945" lon="7.789020718093786"><ele>445.16666666666663</ele><time>2026-03-25T17:53:44.999Z</time></trkpt><trkpt lat="44.406940037423446" lon="7.788925409258277"><ele>444.3333333333333</ele><time>2026-03-25T17:53:45.999Z</time></trkpt><trkpt lat="44.40700383166142" lon="7.788831060851931"><ele>443.5</ele><time>2026-03-25T17:53:46.999Z</time></trkpt><trkpt lat="44.40706384386087" lon="7.788741733325796"><ele>442.66666666666663</ele><time>2026-03-25T17:53:47.999Z</time></trkpt><trkpt lat="44.40711555598921" lon="7.7886409771966925"><ele>441.8333333333333</ele><time>2026-03-25T17:53:48.999Z</time></trkpt><trkpt lat="44.407175461986995" lon="7.788549447539265"><ele>441.0</ele><time>2026-03-25T17:53:49.999Z</time></trkpt><trkpt lat="44.407226691509216" lon="7.788470276551767"><ele>439.3333333333333</ele><time>2026-03-25T17:53:50.999Z</time></trkpt><trkpt lat="44.40729053708395" lon="7.788406723611986"><ele>437.66666666666663</ele><time>2026-03-25T17:53:51.999Z</time></trkpt><trkpt lat="44.407346080406505" lon="7.788339334275859"><ele>436.0</ele><time>2026-03-25T17:53:52.999Z</time></trkpt><trkpt lat="44.40740212850167" lon="7.788253721629365"><ele>434.3333333333333</ele><time>2026-03-25T17:53:53.999Z</time></trkpt><trkpt lat="44.40748559258121" lon="7.788182925375465"><ele>432.66666666666663</ele><time>2026-03-25T17:53:54.999Z</time></trkpt><trkpt lat="44.407584873278914" lon="7.78810786036705"><ele>431.0</ele><time>2026-03-25T17:53:55.999Z</time></trkpt><trkpt lat="44.40769215835041" lon="7.788039244766219"><ele>431.0</ele><time>2026-03-25T17:53:56.999Z</time></trkpt><trkpt lat="44.40780840199485" lon="7.787951303918787"><ele>431.0</ele><time>2026-03-25T17:53:57.999Z</time></trkpt><trkpt lat="44.407938998481086" lon="7.787874333660269"><ele>431.0</ele><time>2026-03-25T17:53:58.999Z</time></trkpt><trkpt lat="44.4080750620694" lon="7.787766469834837"><ele>431.0</ele><time>2026-03-25T17:53:59.999Z</time></trkpt><trkpt lat="44.408213459962326" lon="7.787666036824472"><ele>429.0</ele><time>2026-03-25T17:54:00.999Z</time></trkpt><trkpt lat="44.408355682399836" lon="7.787564577035286"><ele>427.0</ele><time>2026-03-25T17:54:01.999Z</time></trkpt><trkpt lat="44.408479136079016" lon="7.787458912338459"><ele>425.0</ele><time>2026-03-25T17:54:02.999Z</time></trkpt><trkpt lat="44.408594293617625" lon="7.787375776032458"><ele>423.0</ele><time>2026-03-25T17:54:03.999Z</time></trkpt><trkpt lat="44.408712889382784" lon="7.787298021707798"><ele>423.0</ele><time>2026-03-25T17:54:04.999Z</time></trkpt><trkpt lat="44.40881186354576" lon="7.787219840920029"><ele>423.0</ele><time>2026-03-25T17:54:05.999Z</time></trkpt><trkpt lat="44.40889846607397" lon="7.78715148264575"><ele>423.0</ele><time>2026-03-25T17:54:06.999Z</time></trkpt><trkpt lat="44.40896581884441" lon="7.787084035843912"><ele>423.0</ele><time>2026-03-25T17:54:07.999Z</time></trkpt><trkpt lat="44.409035694281336" lon="7.787035751472366"><ele>423.0</ele><time>2026-03-25T17:54:08.999Z</time></trkpt><trkpt lat="44.409092423318214" lon="7.7869384581993515"><ele>421.59999999999997</ele><time>2026-03-25T17:54:09.999Z</time></trkpt><trkpt lat="44.409122326567704" lon="7.7868234962576235"><ele>420.2</ele><time>2026-03-25T17:54:10.999Z</time></trkpt><trkpt lat="44.409146323974305" lon="7.786695211868033"><ele>418.8</ele><time>2026-03-25T17:54:11.999Z</time></trkpt><trkpt lat="44.409154118090655" lon="7.786559475434256"><ele>417.4</ele><time>2026-03-25T17:54:12.999Z</time></trkpt><trkpt lat="44.40915131884477" lon="7.7864117085282425"><ele>416.0</ele><time>2026-03-25T17:54:13.999Z</time></trkpt><trkpt lat="44.40914152830228" lon="7.786255510770933"><ele>416.0</ele><time>2026-03-25T17:54:14.998Z</time></trkpt><trkpt lat="44.409119553216634" lon="7.786080813421414"><ele>416.0</ele><time>2026-03-25T17:54:15.998Z</time></trkpt><trkpt lat="44.409102615529704" lon="7.785900891629364"><ele>416.0</ele><time>2026-03-25T17:54:16.998Z</time></trkpt><trkpt lat="44.409087358899626" lon="7.78574466654753"><ele>416.0</ele><time>2026-03-25T17:54:17.998Z</time></trkpt><trkpt lat="44.40906822384334" lon="7.7855781052601625"><ele>415.0</ele><time>2026-03-25T17:54:18.998Z</time></trkpt><trkpt lat="44.40904115487649" lon="7.785409244216996"><ele>414.0</ele><time>2026-03-25T17:54:19.998Z</time></trkpt><trkpt lat="44.409029297884466" lon="7.785256208850654"><ele>413.0</ele><time>2026-03-25T17:54:20.998Z</time></trkpt><trkpt lat="44.409004610414975" lon="7.785092953425768"><ele>412.0</ele><time>2026-03-25T17:54:21.998Z</time></trkpt><trkpt lat="44.40898189451205" lon="7.784929187535942"><ele>412.0</ele><time>2026-03-25T17:54:22.998Z</time></trkpt><trkpt lat="44.40896360682703" lon="7.784785549701552"><ele>412.0</ele><time>2026-03-25T17:54:23.998Z</time></trkpt><trkpt lat="44.40894671903287" lon="7.7846465769027535"><ele>412.0</ele><time>2026-03-25T17:54:24.998Z</time></trkpt><trkpt lat="44.40892061281226" lon="7.784489667235614"><ele>412.0</ele><time>2026-03-25T17:54:25.998Z</time></trkpt><trkpt lat="44.408900779004725" lon="7.7843516218724105"><ele>412.0</ele><time>2026-03-25T17:54:26.998Z</time></trkpt><trkpt lat="44.40888442592463" lon="7.784222351387648"><ele>412.00000000000006</ele><time>2026-03-25T17:54:27.998Z</time></trkpt><trkpt lat="44.40887418439581" lon="7.784088612203441"><ele>412.0</ele><time>2026-03-25T17:54:28.998Z</time></trkpt><trkpt lat="44.40885865359201" lon="7.78399007663291"><ele>412.0</ele><time>2026-03-25T17:54:29.998Z</time></trkpt><trkpt lat="44.40884587997675" lon="7.783899428504709"><ele>412.0</ele><time>2026-03-25T17:54:30.998Z</time></trkpt><trkpt lat="44.408860893364015" lon="7.783758410041805"><ele>412.00000000000006</ele><time>2026-03-25T17:54:32.998Z</time></trkpt><trkpt lat="44.40890067180438" lon="7.78368135408523"><ele>412.0</ele><time>2026-03-25T17:54:33.998Z</time></trkpt><trkpt lat="44.40895169438763" lon="7.783608792538593"><ele>412.00000000000006</ele><time>2026-03-25T17:54:34.998Z</time></trkpt><trkpt lat="44.40902070211065" lon="7.783548718163956"><ele>412.0</ele><time>2026-03-25T17:54:35.998Z</time></trkpt><trkpt lat="44.40910230114484" lon="7.783476314187461"><ele>412.0</ele><time>2026-03-25T17:54:36.998Z</time></trkpt><trkpt lat="44.40917447523732" lon="7.783430962486577"><ele>412.0</ele><time>2026-03-25T17:54:37.998Z</time></trkpt><trkpt lat="44.40923716983182" lon="7.7833792656953085"><ele>412.00000000000006</ele><time>2026-03-25T17:54:38.998Z</time></trkpt><trkpt lat="44.40930716244463" lon="7.78333384038383"><ele>412.0</ele><time>2026-03-25T17:54:39.998Z</time></trkpt><trkpt lat="44.40937473627041" lon="7.783298191748577"><ele>412.0</ele><time>2026-03-25T17:54:40.998Z</time></trkpt><trkpt lat="44.40947510754349" lon="7.783268821374628"><ele>412.0</ele><time>2026-03-25T17:54:43Z</time></trkpt><trkpt lat="44.40954832955074" lon="7.783237816182524"><ele>412.0</ele><time>2026-03-25T17:54:47Z</time></trkpt><trkpt lat="44.40966639054585" lon="7.783233093481901"><ele>412.0</ele><time>2026-03-25T17:54:49Z</time></trkpt><trkpt lat="44.4097227856859" lon="7.783160491512262"><ele>412.0</ele><time>2026-03-25T17:54:50Z</time></trkpt><trkpt lat="44.40979527449746" lon="7.783059856203225"><ele>412.0</ele><time>2026-03-25T17:54:51Z</time></trkpt><trkpt lat="44.40979528529267" lon="7.782928521060358"><ele>412.0</ele><time>2026-03-25T17:54:52Z</time></trkpt><trkpt lat="44.40982971598311" lon="7.7827956281354265"><ele>412.0</ele><time>2026-03-25T17:54:53Z</time></trkpt><trkpt lat="44.409951986977845" lon="7.782679048061419"><ele>412.0</ele><time>2026-03-25T17:54:54Z</time></trkpt><trkpt lat="44.410030661131195" lon="7.782532365130866"><ele>412.0</ele><time>2026-03-25T17:54:55Z</time></trkpt><trkpt lat="44.41011404864627" lon="7.782379881886825"><ele>412.0</ele><time>2026-03-25T17:54:56Z</time></trkpt><trkpt lat="44.410187063217165" lon="7.782219198300824"><ele>412.0</ele><time>2026-03-25T17:54:57Z</time></trkpt><trkpt lat="44.410276473537486" lon="7.78204950908294"><ele>412.0</ele><time>2026-03-25T17:54:58Z</time></trkpt><trkpt lat="44.41035928049855" lon="7.781881946539976"><ele>412.0</ele><time>2026-03-25T17:54:59Z</time></trkpt><trkpt lat="44.41045062335467" lon="7.7817099967010295"><ele>412.0</ele><time>2026-03-25T17:55:00Z</time></trkpt><trkpt lat="44.410542506262566" lon="7.781533887234602"><ele>412.0</ele><time>2026-03-25T17:55:01Z</time></trkpt><trkpt lat="44.410632659772226" lon="7.7813488790218726"><ele>412.0</ele><time>2026-03-25T17:55:02Z</time></trkpt><trkpt lat="44.41072475885988" lon="7.781173831635628"><ele>412.0</ele><time>2026-03-25T17:55:03Z</time></trkpt><trkpt lat="44.410800721142856" lon="7.781006095073118"><ele>412.0</ele><time>2026-03-25T17:55:04Z</time></trkpt><trkpt lat="44.41089645397183" lon="7.780820278853377"><ele>412.0</ele><time>2026-03-25T17:55:05Z</time></trkpt><trkpt lat="44.41100241220781" lon="7.780627167481759"><ele>412.0</ele><time>2026-03-25T17:55:06Z</time></trkpt><trkpt lat="44.411098965275315" lon="7.78044248215284"><ele>412.0</ele><time>2026-03-25T17:55:07Z</time></trkpt><trkpt lat="44.41119974425316" lon="7.780260504955879"><ele>412.0</ele><time>2026-03-25T17:55:08Z</time></trkpt><trkpt lat="44.41128371802021" lon="7.78008102286"><ele>412.0</ele><time>2026-03-25T17:55:09Z</time></trkpt><trkpt lat="44.41137468929211" lon="7.77991133761201"><ele>412.0</ele><time>2026-03-25T17:55:10Z</time></trkpt><trkpt lat="44.411461069206126" lon="7.779739090062197"><ele>412.0</ele><time>2026-03-25T17:55:11Z</time></trkpt><trkpt lat="44.411546572999" lon="7.779567911566146"><ele>412.0</ele><time>2026-03-25T17:55:12Z</time></trkpt><trkpt lat="44.41162896398856" lon="7.779391415916771"><ele>412.0</ele><time>2026-03-25T17:55:13Z</time></trkpt><trkpt lat="44.41169788706656" lon="7.7792051155175015"><ele>412.33333333333337</ele><time>2026-03-25T17:55:14Z</time></trkpt><trkpt lat="44.41177154709432" lon="7.779000702435164"><ele>412.66666666666663</ele><time>2026-03-25T17:55:15Z</time></trkpt><trkpt lat="44.41184202726015" lon="7.778784692558591"><ele>413.0</ele><time>2026-03-25T17:55:16Z</time></trkpt><trkpt lat="44.411887947701686" lon="7.778590728422892"><ele>413.0</ele><time>2026-03-25T17:55:17Z</time></trkpt><trkpt lat="44.41191900644311" lon="7.7783883161732215"><ele>413.0</ele><time>2026-03-25T17:55:18Z</time></trkpt><trkpt lat="44.41195591910227" lon="7.778210284560525"><ele>413.0</ele><time>2026-03-25T17:55:19Z</time></trkpt><trkpt lat="44.4120108225279" lon="7.77801474774949"><ele>413.0</ele><time>2026-03-25T17:55:20Z</time></trkpt><trkpt lat="44.41207108144887" lon="7.777806426957593"><ele>413.0</ele><time>2026-03-25T17:55:21Z</time></trkpt><trkpt lat="44.412138931237905" lon="7.777597936294493"><ele>413.0</ele><time>2026-03-25T17:55:22Z</time></trkpt><trkpt lat="44.41222630264248" lon="7.77740070257233"><ele>413.0</ele><time>2026-03-25T17:55:22.999Z</time></trkpt><trkpt lat="44.41232202906622" lon="7.777203292899429"><ele>413.0</ele><time>2026-03-25T17:55:23.999Z</time></trkpt><trkpt lat="44.41241048071978" lon="7.7770263618254205"><ele>413.0</ele><time>2026-03-25T17:55:24.999Z</time></trkpt><trkpt lat="44.41250479653613" lon="7.776837005128636"><ele>413.0</ele><time>2026-03-25T17:55:25.999Z</time></trkpt><trkpt lat="44.41260017510601" lon="7.776684738194687"><ele>413.3333333333333</ele><time>2026-03-25T17:55:26.999Z</time></trkpt><trkpt lat="44.412699046106596" lon="7.776510998761664"><ele>413.66666666666663</ele><time>2026-03-25T17:55:27.999Z</time></trkpt><trkpt lat="44.41279514707034" lon="7.7763356695094545"><ele>414.0</ele><time>2026-03-25T17:55:28.999Z</time></trkpt><trkpt lat="44.41290048126691" lon="7.776162354338052"><ele>414.33333333333337</ele><time>2026-03-25T17:55:29.999Z</time></trkpt><trkpt lat="44.412998996439846" lon="7.775993014795293"><ele>414.6666666666667</ele><time>2026-03-25T17:55:30.999Z</time></trkpt><trkpt lat="44.41309975207472" lon="7.7758211351009745"><ele>415.0</ele><time>2026-03-25T17:55:31.999Z</time></trkpt><trkpt lat="44.41321598196615" lon="7.775655145936268"><ele>415.0</ele><time>2026-03-25T17:55:32.999Z</time></trkpt><trkpt lat="44.41332461722566" lon="7.775484974932168"><ele>415.0</ele><time>2026-03-25T17:55:33.999Z</time></trkpt><trkpt lat="44.41342902355074" lon="7.775321064033792"><ele>415.0</ele><time>2026-03-25T17:55:34.999Z</time></trkpt><trkpt lat="44.41352757001215" lon="7.775150473680799"><ele>415.0</ele><time>2026-03-25T17:55:35.999Z</time></trkpt><trkpt lat="44.41364160350131" lon="7.774983532554642"><ele>415.0</ele><time>2026-03-25T17:55:36.999Z</time></trkpt><trkpt lat="44.41376441494496" lon="7.774815359791514"><ele>415.0</ele><time>2026-03-25T17:55:37.999Z</time></trkpt><trkpt lat="44.41388187580975" lon="7.774639555807192"><ele>415.0</ele><time>2026-03-25T17:55:38.999Z</time></trkpt><trkpt lat="44.4139995061694" lon="7.7744541060768615"><ele>415.0</ele><time>2026-03-25T17:55:39.999Z</time></trkpt><trkpt lat="44.41413419138172" lon="7.7742649696557855"><ele>415.0</ele><time>2026-03-25T17:55:40.999Z</time></trkpt><trkpt lat="44.41426788273908" lon="7.774076452133335"><ele>415.33333333333337</ele><time>2026-03-25T17:55:41.999Z</time></trkpt><trkpt lat="44.414398059488114" lon="7.773882517361561"><ele>415.66666666666663</ele><time>2026-03-25T17:55:42.999Z</time></trkpt><trkpt lat="44.41453351418203" lon="7.773696986672998"><ele>416.0</ele><time>2026-03-25T17:55:43.999Z</time></trkpt><trkpt lat="44.414660301497726" lon="7.773505631546043"><ele>415.3333333333333</ele><time>2026-03-25T17:55:44.999Z</time></trkpt><trkpt lat="44.4147874586758" lon="7.773326444337932"><ele>414.66666666666663</ele><time>2026-03-25T17:55:45.999Z</time></trkpt><trkpt lat="44.41490389898924" lon="7.773153281463685"><ele>414.0</ele><time>2026-03-25T17:55:46.999Z</time></trkpt><trkpt lat="44.415016592235304" lon="7.772978814166842"><ele>414.0</ele><time>2026-03-25T17:55:47.999Z</time></trkpt><trkpt lat="44.41513127783985" lon="7.772796906233164"><ele>414.0</ele><time>2026-03-25T17:55:48.999Z</time></trkpt><trkpt lat="44.415249136533866" lon="7.77261213996827"><ele>414.0</ele><time>2026-03-25T17:55:49.999Z</time></trkpt><trkpt lat="44.41535213943478" lon="7.772444801486627"><ele>414.0</ele><time>2026-03-25T17:55:50.999Z</time></trkpt><trkpt lat="44.41545432707814" lon="7.772276014053709"><ele>414.0</ele><time>2026-03-25T17:55:51.999Z</time></trkpt><trkpt lat="44.41556505979989" lon="7.772103521917573"><ele>414.0</ele><time>2026-03-25T17:55:52.999Z</time></trkpt><trkpt lat="44.415678518031854" lon="7.771924352550983"><ele>414.0</ele><time>2026-03-25T17:55:53.999Z</time></trkpt><trkpt lat="44.41578953540645" lon="7.771755779700007"><ele>414.0</ele><time>2026-03-25T17:55:54.999Z</time></trkpt><trkpt lat="44.415893681288956" lon="7.771605845926044"><ele>414.0</ele><time>2026-03-25T17:55:55.999Z</time></trkpt><trkpt lat="44.41600359411011" lon="7.7714517663066305"><ele>414.0</ele><time>2026-03-25T17:55:56.999Z</time></trkpt><trkpt lat="44.416112298392854" lon="7.771292764436614"><ele>414.0</ele><time>2026-03-25T17:55:57.999Z</time></trkpt><trkpt lat="44.41621650829438" lon="7.771130876143576"><ele>414.0</ele><time>2026-03-25T17:55:58.999Z</time></trkpt><trkpt lat="44.41632156677965" lon="7.770969733576653"><ele>413.66666666666663</ele><time>2026-03-25T17:55:59.999Z</time></trkpt><trkpt lat="44.4164353888272" lon="7.770814339656631"><ele>413.3333333333333</ele><time>2026-03-25T17:56:00.999Z</time></trkpt><trkpt lat="44.41654154661287" lon="7.7706592680555175"><ele>413.0</ele><time>2026-03-25T17:56:01.999Z</time></trkpt><trkpt lat="44.41664616695421" lon="7.770503200191875"><ele>413.0</ele><time>2026-03-25T17:56:02.999Z</time></trkpt><trkpt lat="44.4167561174876" lon="7.770350480835461"><ele>413.0</ele><time>2026-03-25T17:56:03.999Z</time></trkpt><trkpt lat="44.4168692794763" lon="7.770194358858681"><ele>413.0</ele><time>2026-03-25T17:56:04.999Z</time></trkpt><trkpt lat="44.416973477506154" lon="7.770034981321487"><ele>412.66666666666663</ele><time>2026-03-25T17:56:05.999Z</time></trkpt><trkpt lat="44.41707791553282" lon="7.769878554010224"><ele>412.33333333333337</ele><time>2026-03-25T17:56:06.999Z</time></trkpt><trkpt lat="44.41718310109234" lon="7.769719083251597"><ele>412.0</ele><time>2026-03-25T17:56:07.999Z</time></trkpt><trkpt lat="44.41729132669841" lon="7.769568623862529"><ele>411.75</ele><time>2026-03-25T17:56:08.999Z</time></trkpt><trkpt lat="44.41739648973272" lon="7.769420298669686"><ele>411.5</ele><time>2026-03-25T17:56:09.999Z</time></trkpt><trkpt lat="44.41750412536883" lon="7.769265743348721"><ele>411.25</ele><time>2026-03-25T17:56:10.999Z</time></trkpt><trkpt lat="44.417600466812395" lon="7.769118168735857"><ele>411.0</ele><time>2026-03-25T17:56:11.999Z</time></trkpt><trkpt lat="44.41769676545856" lon="7.768964522036051"><ele>411.0</ele><time>2026-03-25T17:56:12.999Z</time></trkpt><trkpt lat="44.4177889770365" lon="7.768798263877896"><ele>411.0</ele><time>2026-03-25T17:56:13.999Z</time></trkpt><trkpt lat="44.4178653724805" lon="7.768633546883397"><ele>411.0</ele><time>2026-03-25T17:56:14.999Z</time></trkpt><trkpt lat="44.41794991946659" lon="7.768454687542953"><ele>411.0</ele><time>2026-03-25T17:56:15.999Z</time></trkpt><trkpt lat="44.41803073218766" lon="7.768266013141148"><ele>410.33333333333337</ele><time>2026-03-25T17:56:16.999Z</time></trkpt><trkpt lat="44.41811244058962" lon="7.768083431393213"><ele>409.6666666666667</ele><time>2026-03-25T17:56:17.999Z</time></trkpt><trkpt lat="44.41819790127338" lon="7.767889606642374"><ele>409.0</ele><time>2026-03-25T17:56:18.998Z</time></trkpt><trkpt lat="44.418279360579525" lon="7.767704519898838"><ele>408.75</ele><time>2026-03-25T17:56:19.998Z</time></trkpt><trkpt lat="44.41835857756039" lon="7.767516636770693"><ele>408.5</ele><time>2026-03-25T17:56:20.998Z</time></trkpt><trkpt lat="44.41843065952254" lon="7.767336692353108"><ele>408.25</ele><time>2026-03-25T17:56:21.998Z</time></trkpt><trkpt lat="44.418500283856616" lon="7.767163882160702"><ele>408.0</ele><time>2026-03-25T17:56:22.998Z</time></trkpt><trkpt lat="44.418574816662456" lon="7.766994619264068"><ele>408.25</ele><time>2026-03-25T17:56:23.998Z</time></trkpt><trkpt lat="44.418650241987336" lon="7.766826413599894"><ele>408.5</ele><time>2026-03-25T17:56:24.998Z</time></trkpt><trkpt lat="44.41871616665783" lon="7.766660761011907"><ele>408.75</ele><time>2026-03-25T17:56:25.998Z</time></trkpt><trkpt lat="44.418788563282064" lon="7.766480581193931"><ele>409.0</ele><time>2026-03-25T17:56:26.998Z</time></trkpt><trkpt lat="44.418861903596856" lon="7.766289678138608"><ele>409.0</ele><time>2026-03-25T17:56:27.998Z</time></trkpt><trkpt lat="44.41893741642556" lon="7.766105043063713"><ele>409.0</ele><time>2026-03-25T17:56:28.998Z</time></trkpt><trkpt lat="44.419012753682814" lon="7.765930768564831"><ele>409.0</ele><time>2026-03-25T17:56:29.998Z</time></trkpt><trkpt lat="44.419085950633516" lon="7.765752867773007"><ele>409.0</ele><time>2026-03-25T17:56:30.998Z</time></trkpt><trkpt lat="44.41914921576592" lon="7.765604205860794"><ele>409.00000000000006</ele><time>2026-03-25T17:56:31.998Z</time></trkpt><trkpt lat="44.41920682902879" lon="7.765480515266272"><ele>409.0</ele><time>2026-03-25T17:56:32.998Z</time></trkpt><trkpt lat="44.419255036223035" lon="7.76536427016909"><ele>409.0</ele><time>2026-03-25T17:56:33.998Z</time></trkpt><trkpt lat="44.419295906948626" lon="7.765254846820758"><ele>409.0</ele><time>2026-03-25T17:56:34.998Z</time></trkpt><trkpt lat="44.41933316258912" lon="7.765155066569174"><ele>409.00000000000006</ele><time>2026-03-25T17:56:35.998Z</time></trkpt><trkpt lat="44.41937867218707" lon="7.765068233742784"><ele>409.0</ele><time>2026-03-25T17:56:36.998Z</time></trkpt><trkpt lat="44.41943462515471" lon="7.765000567591399"><ele>408.83333333333337</ele><time>2026-03-25T17:56:37.998Z</time></trkpt><trkpt lat="44.41949018253047" lon="7.764929093299759"><ele>408.6666666666667</ele><time>2026-03-25T17:56:38.998Z</time></trkpt><trkpt lat="44.419560730157464" lon="7.76487208211609"><ele>408.5</ele><time>2026-03-25T17:56:39.998Z</time></trkpt><trkpt lat="44.4196419089976" lon="7.764821845113909"><ele>408.33333333333337</ele><time>2026-03-25T17:56:40.998Z</time></trkpt><trkpt lat="44.41972888769681" lon="7.764789081850997"><ele>408.1666666666667</ele><time>2026-03-25T17:56:41.998Z</time></trkpt><trkpt lat="44.41981399816298" lon="7.764774089194681"><ele>408.0</ele><time>2026-03-25T17:56:42.998Z</time></trkpt><trkpt lat="44.41990392290921" lon="7.764771210379677"><ele>408.0</ele><time>2026-03-25T17:56:43.998Z</time></trkpt><trkpt lat="44.419968898005024" lon="7.764770236618193"><ele>408.0</ele><time>2026-03-25T17:56:44.998Z</time></trkpt><trkpt lat="44.42003274940833" lon="7.764775638721349"><ele>408.0</ele><time>2026-03-25T17:56:45.998Z</time></trkpt><trkpt lat="44.420134874773645" lon="7.764766092746941"><ele>408.0</ele><time>2026-03-25T17:56:48Z</time></trkpt><trkpt lat="44.42022403020146" lon="7.7647357738936345"><ele>408.0</ele><time>2026-03-25T17:56:51Z</time></trkpt><trkpt lat="44.42024884374609" lon="7.764645100868946"><ele>408.0</ele><time>2026-03-25T17:56:53Z</time></trkpt><trkpt lat="44.420194978731665" lon="7.764567341463553"><ele>408.0</ele><time>2026-03-25T17:56:55Z</time></trkpt><trkpt lat="44.42012492208192" lon="7.76455205515354"><ele>408.0</ele><time>2026-03-25T17:56:56Z</time></trkpt><trkpt lat="44.42005559396306" lon="7.764524150212453"><ele>408.0</ele><time>2026-03-25T17:56:57Z</time></trkpt><trkpt lat="44.41996230898107" lon="7.764533339291986"><ele>408.0</ele><time>2026-03-25T17:56:58Z</time></trkpt><trkpt lat="44.41984467466706" lon="7.764507294085812"><ele>408.0</ele><time>2026-03-25T17:56:59Z</time></trkpt><trkpt lat="44.41975050924247" lon="7.764502830559562"><ele>408.0</ele><time>2026-03-25T17:57:00Z</time></trkpt><trkpt lat="44.419656839695094" lon="7.764498979886621"><ele>408.0</ele><time>2026-03-25T17:57:01Z</time></trkpt><trkpt lat="44.419557287428866" lon="7.764494354937831"><ele>408.0</ele><time>2026-03-25T17:57:02Z</time></trkpt><trkpt lat="44.41945260301011" lon="7.7644731178923685"><ele>408.0</ele><time>2026-03-25T17:57:03Z</time></trkpt><trkpt lat="44.419358702637645" lon="7.7644506691064965"><ele>408.0</ele><time>2026-03-25T17:57:04Z</time></trkpt><trkpt lat="44.41926135345067" lon="7.76441998180787"><ele>408.0</ele><time>2026-03-25T17:57:05Z</time></trkpt><trkpt lat="44.41916418455998" lon="7.7643732167148"><ele>408.0</ele><time>2026-03-25T17:57:06Z</time></trkpt><trkpt lat="44.41907403220958" lon="7.76432353770626"><ele>408.0</ele><time>2026-03-25T17:57:07Z</time></trkpt><trkpt lat="44.41900184774187" lon="7.764291454320277"><ele>408.0</ele><time>2026-03-25T17:57:08Z</time></trkpt><trkpt lat="44.418929828330576" lon="7.764254354469616"><ele>408.0</ele><time>2026-03-25T17:57:09Z</time></trkpt><trkpt lat="44.41887021216628" lon="7.764181867245161"><ele>408.0</ele><time>2026-03-25T17:57:10Z</time></trkpt><trkpt lat="44.418767180967706" lon="7.764133464378225"><ele>407.4</ele><time>2026-03-25T17:57:12Z</time></trkpt><trkpt lat="44.41870739664314" lon="7.764095298141063"><ele>406.79999999999995</ele><time>2026-03-25T17:57:14Z</time></trkpt><trkpt lat="44.418664398529" lon="7.763987746939526"><ele>406.2</ele><time>2026-03-25T17:57:17Z</time></trkpt><trkpt lat="44.4187487329719" lon="7.763932762950121"><ele>405.6</ele><time>2026-03-25T17:57:20Z</time></trkpt><trkpt lat="44.418885832967" lon="7.763962398812887"><ele>405.0</ele><time>2026-03-25T17:57:22Z</time></trkpt><trkpt lat="44.41895060600655" lon="7.764003350908429"><ele>403.0</ele><time>2026-03-25T17:57:23Z</time></trkpt><trkpt lat="44.41903443667233" lon="7.764046681454836"><ele>401.0</ele><time>2026-03-25T17:57:24Z</time></trkpt><trkpt lat="44.419125394645576" lon="7.764075956673942"><ele>399.0</ele><time>2026-03-25T17:57:25Z</time></trkpt><trkpt lat="44.419209077904036" lon="7.764093251627717"><ele>397.0</ele><time>2026-03-25T17:57:26Z</time></trkpt><trkpt lat="44.41929350824484" lon="7.764092676224094"><ele>395.0</ele><time>2026-03-25T17:57:27Z</time></trkpt><trkpt lat="44.41937776815299" lon="7.764088208125913"><ele>393.0</ele><time>2026-03-25T17:57:28Z</time></trkpt><trkpt lat="44.41945834370298" lon="7.764069559171174"><ele>393.0</ele><time>2026-03-25T17:57:28.999Z</time></trkpt><trkpt lat="44.41952709985049" lon="7.764039790031024"><ele>393.0</ele><time>2026-03-25T17:57:29.999Z</time></trkpt><trkpt lat="44.41963292501749" lon="7.763965282211829"><ele>393.0</ele><time>2026-03-25T17:57:31.999Z</time></trkpt><trkpt lat="44.41968879950838" lon="7.763906074310227"><ele>393.0</ele><time>2026-03-25T17:57:32.999Z</time></trkpt><trkpt lat="44.41975085421184" lon="7.763840969260007"><ele>393.0</ele><time>2026-03-25T17:57:33.999Z</time></trkpt><trkpt lat="44.419810952942896" lon="7.763731121059848"><ele>393.0</ele><time>2026-03-25T17:57:34.999Z</time></trkpt><trkpt lat="44.4198570278786" lon="7.763609590681489"><ele>388.59999999999997</ele><time>2026-03-25T17:57:35.999Z</time></trkpt><trkpt lat="44.41988623427746" lon="7.763486355143202"><ele>384.2</ele><time>2026-03-25T17:57:36.999Z</time></trkpt><trkpt lat="44.41994364040137" lon="7.763378271849919"><ele>379.8</ele><time>2026-03-25T17:57:37.999Z</time></trkpt><trkpt lat="44.419985354281756" lon="7.763252956144422"><ele>375.4</ele><time>2026-03-25T17:57:38.999Z</time></trkpt><trkpt lat="44.42002902443307" lon="7.763131353608483"><ele>371.0</ele><time>2026-03-25T17:57:39.999Z</time></trkpt><trkpt lat="44.420073808986835" lon="7.763009806467725"><ele>371.0</ele><time>2026-03-25T17:57:40.999Z</time></trkpt><trkpt lat="44.420120062597434" lon="7.762876320901919"><ele>371.0</ele><time>2026-03-25T17:57:41.999Z</time></trkpt><trkpt lat="44.420158239570476" lon="7.762755302984447"><ele>371.0</ele><time>2026-03-25T17:57:42.999Z</time></trkpt><trkpt lat="44.420200274566334" lon="7.762639769477422"><ele>371.0</ele><time>2026-03-25T17:57:43.999Z</time></trkpt><trkpt lat="44.42023910652041" lon="7.762535865423875"><ele>371.0</ele><time>2026-03-25T17:57:44.999Z</time></trkpt><trkpt lat="44.42028004662002" lon="7.762430554043299"><ele>371.1666666666667</ele><time>2026-03-25T17:57:45.999Z</time></trkpt><trkpt lat="44.420329527666205" lon="7.762337697751126"><ele>371.33333333333337</ele><time>2026-03-25T17:57:46.999Z</time></trkpt><trkpt lat="44.42038502602269" lon="7.762264663404926"><ele>371.5</ele><time>2026-03-25T17:57:47.999Z</time></trkpt><trkpt lat="44.4204482289935" lon="7.7622131652853925"><ele>371.6666666666667</ele><time>2026-03-25T17:57:48.999Z</time></trkpt><trkpt lat="44.420527555649855" lon="7.7621896868199975"><ele>371.8333333333333</ele><time>2026-03-25T17:57:49.999Z</time></trkpt><trkpt lat="44.42060473968877" lon="7.762177202939104"><ele>372.0</ele><time>2026-03-25T17:57:50.999Z</time></trkpt><trkpt lat="44.420689682398184" lon="7.762209512074736"><ele>372.5</ele><time>2026-03-25T17:57:51.999Z</time></trkpt><trkpt lat="44.420775372014084" lon="7.762223455736001"><ele>373.0</ele><time>2026-03-25T17:57:52.999Z</time></trkpt><trkpt lat="44.420869659296194" lon="7.7622445892391125"><ele>373.5</ele><time>2026-03-25T17:57:53.999Z</time></trkpt><trkpt lat="44.420942421520074" lon="7.762264299515889"><ele>374.0</ele><time>2026-03-25T17:57:54.999Z</time></trkpt><trkpt lat="44.42100817788577" lon="7.762281695380436"><ele>374.5</ele><time>2026-03-25T17:57:55.999Z</time></trkpt><trkpt lat="44.421073358378074" lon="7.762298552554607"><ele>375.0</ele><time>2026-03-25T17:57:56.999Z</time></trkpt><trkpt lat="44.421169506371626" lon="7.762291823569658"><ele>375.0</ele><time>2026-03-25T17:57:58.999Z</time></trkpt><trkpt lat="44.42127376169481" lon="7.762296741699601"><ele>375.0</ele><time>2026-03-25T17:58:00.999Z</time></trkpt><trkpt lat="44.421339563200355" lon="7.762274946321791"><ele>375.0</ele><time>2026-03-25T17:58:01.999Z</time></trkpt><trkpt lat="44.42140699638187" lon="7.76224999287466"><ele>375.0</ele><time>2026-03-25T17:58:02.999Z</time></trkpt><trkpt lat="44.42149095890226" lon="7.7622278095867845"><ele>375.0</ele><time>2026-03-25T17:58:03.999Z</time></trkpt><trkpt lat="44.421573060187015" lon="7.762201171005566"><ele>375.0</ele><time>2026-03-25T17:58:04.999Z</time></trkpt><trkpt lat="44.421658233215545" lon="7.76217063301171"><ele>376.4</ele><time>2026-03-25T17:58:05.999Z</time></trkpt><trkpt lat="44.42175643287358" lon="7.7621347373871465"><ele>377.8</ele><time>2026-03-25T17:58:06.999Z</time></trkpt><trkpt lat="44.421860554902494" lon="7.7621008650465555"><ele>379.20000000000005</ele><time>2026-03-25T17:58:07.999Z</time></trkpt><trkpt lat="44.42195499889716" lon="7.762080319409726"><ele>380.6</ele><time>2026-03-25T17:58:08.999Z</time></trkpt><trkpt lat="44.422049301550096" lon="7.7620825602598975"><ele>382.0</ele><time>2026-03-25T17:58:09.999Z</time></trkpt><trkpt lat="44.42213852326589" lon="7.762082330027451"><ele>383.3333333333333</ele><time>2026-03-25T17:58:10.999Z</time></trkpt><trkpt lat="44.42222468321189" lon="7.762085611493511"><ele>384.66666666666663</ele><time>2026-03-25T17:58:11.999Z</time></trkpt><trkpt lat="44.422293790270125" lon="7.7620856189823"><ele>386.0</ele><time>2026-03-25T17:58:12.999Z</time></trkpt><trkpt lat="44.422370213503626" lon="7.7620707785550325"><ele>387.3333333333333</ele><time>2026-03-25T17:58:13.999Z</time></trkpt><trkpt lat="44.42243573165622" lon="7.762042873460489"><ele>388.6666666666667</ele><time>2026-03-25T17:58:14.999Z</time></trkpt><trkpt lat="44.42252954291367" lon="7.761966369592756"><ele>390.0</ele><time>2026-03-25T17:58:16.999Z</time></trkpt><trkpt lat="44.422571147914155" lon="7.7618977662487065"><ele>390.0</ele><time>2026-03-25T17:58:17.999Z</time></trkpt><trkpt lat="44.42262955513779" lon="7.761782202380139"><ele>390.0</ele><time>2026-03-25T17:58:19.999Z</time></trkpt><trkpt lat="44.42268931148263" lon="7.761719769893762"><ele>390.0</ele><time>2026-03-25T17:58:21.999Z</time></trkpt><trkpt lat="44.4227546497837" lon="7.76173998028769"><ele>390.0</ele><time>2026-03-25T17:58:23.999Z</time></trkpt><trkpt lat="44.42272213839107" lon="7.761905212550048"><ele>390.0</ele><time>2026-03-25T17:58:25.998Z</time></trkpt><trkpt lat="44.422734510746366" lon="7.762002876625809"><ele>390.0</ele><time>2026-03-25T17:58:26.998Z</time></trkpt><trkpt lat="44.422774945995066" lon="7.762121194480104"><ele>390.0</ele><time>2026-03-25T17:58:27.998Z</time></trkpt><trkpt lat="44.422812251310184" lon="7.762197584021385"><ele>390.0</ele><time>2026-03-25T17:58:28.998Z</time></trkpt><trkpt lat="44.42288640843136" lon="7.762249383246524"><ele>390.0</ele><time>2026-03-25T17:58:30.998Z</time></trkpt><trkpt lat="44.422983720827375" lon="7.7622362468730595"><ele>390.0</ele><time>2026-03-25T17:58:32.998Z</time></trkpt><trkpt lat="44.42305083735471" lon="7.762096949982418"><ele>390.0</ele><time>2026-03-25T17:58:34.998Z</time></trkpt><trkpt lat="44.423084358698155" lon="7.7620107285458735"><ele>390.0</ele><time>2026-03-25T17:58:35.998Z</time></trkpt><trkpt lat="44.42309880214584" lon="7.7618928693724465"><ele>392.85714285714283</ele><time>2026-03-25T17:58:36.998Z</time></trkpt><trkpt lat="44.42312011387899" lon="7.7617742148458735"><ele>395.71428571428567</ele><time>2026-03-25T17:58:37.998Z</time></trkpt><trkpt lat="44.42313593629381" lon="7.761686122481892"><ele>398.57142857142856</ele><time>2026-03-25T17:58:38.998Z</time></trkpt><trkpt lat="44.42315326221737" lon="7.761597235581129"><ele>401.42857142857144</ele><time>2026-03-25T17:58:39.998Z</time></trkpt><trkpt lat="44.42317369622254" lon="7.761505072834087"><ele>404.2857142857143</ele><time>2026-03-25T17:58:40.998Z</time></trkpt><trkpt lat="44.42321931130258" lon="7.761426694428248"><ele>407.14285714285717</ele><time>2026-03-25T17:58:41.998Z</time></trkpt><trkpt lat="44.42324035193322" lon="7.761333230737187"><ele>410.0</ele><time>2026-03-25T17:58:42.998Z</time></trkpt><trkpt lat="44.42326310922734" lon="7.761234720630181"><ele>409.99999999999994</ele><time>2026-03-25T17:58:43.998Z</time></trkpt><trkpt lat="44.42328844640341" lon="7.76113985039253"><ele>410.0</ele><time>2026-03-25T17:58:44.998Z</time></trkpt><trkpt lat="44.42332413363952" lon="7.760998014628619"><ele>410.0</ele><time>2026-03-25T17:58:46.998Z</time></trkpt><trkpt lat="44.42335671221875" lon="7.760888508602945"><ele>410.0</ele><time>2026-03-25T17:58:48.998Z</time></trkpt><trkpt lat="44.42338886912355" lon="7.760802846800692"><ele>409.99999999999994</ele><time>2026-03-25T17:58:50.998Z</time></trkpt><trkpt lat="44.42342576996161" lon="7.760678354875481"><ele>410.0</ele><time>2026-03-25T17:58:52.998Z</time></trkpt><trkpt lat="44.42348387708568" lon="7.760594943379054"><ele>410.3333333333333</ele><time>2026-03-25T17:58:55Z</time></trkpt><trkpt lat="44.42353819799516" lon="7.760542969364845"><ele>410.66666666666663</ele><time>2026-03-25T17:58:56Z</time></trkpt><trkpt lat="44.42359123263142" lon="7.760435784555232"><ele>411.0</ele><time>2026-03-25T17:58:58Z</time></trkpt><trkpt lat="44.423655091445" lon="7.760337492002633"><ele>411.33333333333337</ele><time>2026-03-25T17:59:00Z</time></trkpt><trkpt lat="44.423688150863434" lon="7.760224083879353"><ele>411.6666666666667</ele><time>2026-03-25T17:59:12Z</time></trkpt><trkpt lat="44.423766628498036" lon="7.760140176167098"><ele>412.0</ele><time>2026-03-25T17:59:17Z</time></trkpt><trkpt lat="44.42381405070709" lon="7.760074233655147"><ele>411.6</ele><time>2026-03-25T17:59:20Z</time></trkpt><trkpt lat="44.42386643613571" lon="7.760015991764191"><ele>411.20000000000005</ele><time>2026-03-25T17:59:24Z</time></trkpt><trkpt lat="44.423951198460166" lon="7.760175605905033"><ele>410.8</ele><time>2026-03-25T17:59:27Z</time></trkpt><trkpt lat="44.4239973173302" lon="7.760243849138014"><ele>410.4</ele><time>2026-03-25T17:59:28Z</time></trkpt><trkpt lat="44.424057543820695" lon="7.760333817369949"><ele>410.0</ele><time>2026-03-25T17:59:30Z</time></trkpt><trkpt lat="44.42411779969475" lon="7.760431454083557"><ele>410.0</ele><time>2026-03-25T17:59:32Z</time></trkpt><trkpt lat="44.42416436158969" lon="7.760539455809856"><ele>410.0</ele><time>2026-03-25T17:59:34Z</time></trkpt><trkpt lat="44.424212169867666" lon="7.760636357354896"><ele>410.0</ele><time>2026-03-25T17:59:35.999Z</time></trkpt><trkpt lat="44.42429334219722" lon="7.760765135963707"><ele>410.0</ele><time>2026-03-25T17:59:37.999Z</time></trkpt><trkpt lat="44.424346419472954" lon="7.760876570716683"><ele>410.0</ele><time>2026-03-25T17:59:39.999Z</time></trkpt><trkpt lat="44.424371338327795" lon="7.760963914167884"><ele>410.0</ele><time>2026-03-25T17:59:41.999Z</time></trkpt><trkpt lat="44.424371425367774" lon="7.761053872188136"><ele>410.0</ele><time>2026-03-25T17:59:43.999Z</time></trkpt><trkpt lat="44.42431761141474" lon="7.76118763868608"><ele>410.0</ele><time>2026-03-25T17:59:45.999Z</time></trkpt><trkpt lat="44.42426283239421" lon="7.761318079038377"><ele>410.0</ele><time>2026-03-25T17:59:47.999Z</time></trkpt><trkpt lat="44.424209806482004" lon="7.761399201547872"><ele>410.0</ele><time>2026-03-25T17:59:50.999Z</time></trkpt><trkpt lat="44.42415350322888" lon="7.7615288591376945"><ele>409.99999999999994</ele><time>2026-03-25T17:59:55.999Z</time></trkpt><trkpt lat="44.42410969766032" lon="7.761629724766818"><ele>410.0</ele><time>2026-03-25T17:59:57.999Z</time></trkpt><trkpt lat="44.4240568801658" lon="7.761753704023244"><ele>410.0</ele><time>2026-03-25T17:59:59.999Z</time></trkpt><trkpt lat="44.424023946511554" lon="7.761834569579391"><ele>410.0</ele><time>2026-03-25T18:00:00.999Z</time></trkpt><trkpt lat="44.423969103216834" lon="7.761969232249743"><ele>409.99999999999994</ele><time>2026-03-25T18:00:02.999Z</time></trkpt><trkpt lat="44.423929203090054" lon="7.762067202891158"><ele>410.0</ele><time>2026-03-25T18:00:04.999Z</time></trkpt><trkpt lat="44.42388550978322" lon="7.762180934677746"><ele>408.6</ele><time>2026-03-25T18:00:06.999Z</time></trkpt><trkpt lat="44.42384151844864" lon="7.762251339353653"><ele>407.2</ele><time>2026-03-25T18:00:08.999Z</time></trkpt><trkpt lat="44.42376657120155" lon="7.762288936743764"><ele>405.79999999999995</ele><time>2026-03-25T18:00:11.999Z</time></trkpt><trkpt lat="44.423662896940485" lon="7.762270674492652"><ele>404.4</ele><time>2026-03-25T18:00:13.999Z</time></trkpt><trkpt lat="44.42355135352404" lon="7.76225518020937"><ele>403.0</ele><time>2026-03-25T18:00:15.999Z</time></trkpt><trkpt lat="44.4234568492272" lon="7.762247808628531"><ele>403.00000000000006</ele><time>2026-03-25T18:00:17.999Z</time></trkpt><trkpt lat="44.423377969549456" lon="7.7622310865930935"><ele>403.0</ele><time>2026-03-25T18:00:19.999Z</time></trkpt><trkpt lat="44.4233047698968" lon="7.762200089003881"><ele>403.0</ele><time>2026-03-25T18:00:21.999Z</time></trkpt><trkpt lat="44.42323288065423" lon="7.762148850831336"><ele>403.0</ele><time>2026-03-25T18:00:23.999Z</time></trkpt><trkpt lat="44.42314881740088" lon="7.7620821092452745"><ele>403.00000000000006</ele><time>2026-03-25T18:00:25.999Z</time></trkpt><trkpt lat="44.42309188454996" lon="7.762038468930438"><ele>403.0</ele><time>2026-03-25T18:00:29.999Z</time></trkpt><trkpt lat="44.42304417417926" lon="7.761963715899121"><ele>404.1666666666667</ele><time>2026-03-25T18:00:38.998Z</time></trkpt><trkpt lat="44.42310018390795" lon="7.761807297718426"><ele>405.33333333333337</ele><time>2026-03-25T18:00:40.998Z</time></trkpt><trkpt lat="44.42311984216577" lon="7.76170806465635"><ele>406.5</ele><time>2026-03-25T18:00:42.998Z</time></trkpt><trkpt lat="44.42314584344469" lon="7.761599622182117"><ele>407.66666666666663</ele><time>2026-03-25T18:00:44.998Z</time></trkpt><trkpt lat="44.423175072710684" lon="7.761518343904284"><ele>408.8333333333333</ele><time>2026-03-25T18:00:46.998Z</time></trkpt><trkpt lat="44.423208717386686" lon="7.76140302226487"><ele>410.0</ele><time>2026-03-25T18:00:48.998Z</time></trkpt><trkpt lat="44.42322724339523" lon="7.761285424976993"><ele>409.99999999999994</ele><time>2026-03-25T18:00:50.998Z</time></trkpt><trkpt lat="44.42325448731064" lon="7.761180945257193"><ele>410.0</ele><time>2026-03-25T18:00:52.998Z</time></trkpt><trkpt lat="44.423285019643195" lon="7.761042987918001"><ele>410.0</ele><time>2026-03-25T18:00:54.998Z</time></trkpt><trkpt lat="44.42332324699451" lon="7.760952561698093"><ele>410.0</ele><time>2026-03-25T18:00:56.998Z</time></trkpt><trkpt lat="44.42338085818527" lon="7.760849186746113"><ele>409.99999999999994</ele><time>2026-03-25T18:00:58.998Z</time></trkpt><trkpt lat="44.423414156873775" lon="7.760731396959028"><ele>410.0</ele><time>2026-03-25T18:01:01Z</time></trkpt><trkpt lat="44.423449028850165" lon="7.7606375750469665"><ele>410.66666666666663</ele><time>2026-03-25T18:01:05Z</time></trkpt><trkpt lat="44.423379046404236" lon="7.760688321673847"><ele>411.3333333333333</ele><time>2026-03-25T18:01:25Z</time></trkpt><trkpt lat="44.423336247051765" lon="7.760765383016741"><ele>412.0</ele><time>2026-03-25T18:01:27Z</time></trkpt><trkpt lat="44.42322764513051" lon="7.76076372279383"><ele>412.66666666666663</ele><time>2026-03-25T18:01:29Z</time></trkpt><trkpt lat="44.42314076627103" lon="7.76068782267738"><ele>413.3333333333333</ele><time>2026-03-25T18:01:31Z</time></trkpt><trkpt lat="44.423089753854136" lon="7.760627876813086"><ele>414.0</ele><time>2026-03-25T18:01:32Z</time></trkpt><trkpt lat="44.422987901923314" lon="7.760490643927804"><ele>413.25</ele><time>2026-03-25T18:01:33Z</time></trkpt><trkpt lat="44.4229091540203" lon="7.760394824224748"><ele>412.5</ele><time>2026-03-25T18:01:34Z</time></trkpt><trkpt lat="44.42279036730918" lon="7.760272181825613"><ele>411.75</ele><time>2026-03-25T18:01:35Z</time></trkpt><trkpt lat="44.4226891147966" lon="7.760161059066553"><ele>411.0</ele><time>2026-03-25T18:01:36Z</time></trkpt><trkpt lat="44.42258110690758" lon="7.760070207649338"><ele>411.0</ele><time>2026-03-25T18:01:37Z</time></trkpt><trkpt lat="44.422494255517066" lon="7.7599725615564985"><ele>411.0</ele><time>2026-03-25T18:01:38Z</time></trkpt><trkpt lat="44.42239874668015" lon="7.75988289614192"><ele>411.0</ele><time>2026-03-25T18:01:39Z</time></trkpt><trkpt lat="44.42229543196704" lon="7.759786532429827"><ele>411.0</ele><time>2026-03-25T18:01:40Z</time></trkpt><trkpt lat="44.4221931529237" lon="7.759703682205949"><ele>410.75</ele><time>2026-03-25T18:01:40.999Z</time></trkpt><trkpt lat="44.422105204572944" lon="7.7596203224096785"><ele>410.5</ele><time>2026-03-25T18:01:41.999Z</time></trkpt><trkpt lat="44.422013732160444" lon="7.759534010551437"><ele>410.25</ele><time>2026-03-25T18:01:42.999Z</time></trkpt><trkpt lat="44.421912798796" lon="7.759448998383002"><ele>410.0</ele><time>2026-03-25T18:01:43.999Z</time></trkpt><trkpt lat="44.42181040060049" lon="7.759371636950947"><ele>410.0</ele><time>2026-03-25T18:01:44.999Z</time></trkpt><trkpt lat="44.42170962849169" lon="7.7592965329325025"><ele>410.0</ele><time>2026-03-25T18:01:45.999Z</time></trkpt><trkpt lat="44.421622699278274" lon="7.759227560022173"><ele>410.0</ele><time>2026-03-25T18:01:46.999Z</time></trkpt><trkpt lat="44.42152540462476" lon="7.7591497544085355"><ele>410.0</ele><time>2026-03-25T18:01:47.999Z</time></trkpt><trkpt lat="44.42142457632481" lon="7.759061603664903"><ele>410.0</ele><time>2026-03-25T18:01:48.999Z</time></trkpt><trkpt lat="44.421328039830954" lon="7.758983577419734"><ele>410.0</ele><time>2026-03-25T18:01:49.999Z</time></trkpt><trkpt lat="44.421239773477815" lon="7.758910264934115"><ele>410.0</ele><time>2026-03-25T18:01:50.999Z</time></trkpt><trkpt lat="44.4211497618337" lon="7.7588458133915825"><ele>410.0</ele><time>2026-03-25T18:01:51.999Z</time></trkpt><trkpt lat="44.42105615625666" lon="7.758768570447054"><ele>410.0</ele><time>2026-03-25T18:01:52.999Z</time></trkpt><trkpt lat="44.42096136488247" lon="7.758695050127012"><ele>410.0</ele><time>2026-03-25T18:01:53.999Z</time></trkpt><trkpt lat="44.42087439620969" lon="7.758629636628905"><ele>409.99999999999994</ele><time>2026-03-25T18:01:54.999Z</time></trkpt><trkpt lat="44.42079498752467" lon="7.758568459446475"><ele>410.0</ele><time>2026-03-25T18:01:55.999Z</time></trkpt><trkpt lat="44.42072325705588" lon="7.758510582651811"><ele>410.0</ele><time>2026-03-25T18:01:56.999Z</time></trkpt><trkpt lat="44.42066061759912" lon="7.758456233996359"><ele>410.0</ele><time>2026-03-25T18:01:57.999Z</time></trkpt><trkpt lat="44.42057436915253" lon="7.758344818226398"><ele>409.99999999999994</ele><time>2026-03-25T18:01:59.999Z</time></trkpt><trkpt lat="44.42051067784473" lon="7.758281586860169"><ele>410.0</ele><time>2026-03-25T18:02:01.999Z</time></trkpt><trkpt lat="44.42046456160771" lon="7.758220728624933"><ele>410.0</ele><time>2026-03-25T18:02:03.999Z</time></trkpt><trkpt lat="44.42052313689622" lon="7.757958401446505"><ele>410.0</ele><time>2026-03-25T18:02:06.999Z</time></trkpt><trkpt lat="44.420556351895655" lon="7.757865337051581"><ele>410.0</ele><time>2026-03-25T18:02:07.999Z</time></trkpt><trkpt lat="44.420603056038196" lon="7.757758036374061"><ele>410.0</ele><time>2026-03-25T18:02:08.999Z</time></trkpt><trkpt lat="44.42066645166384" lon="7.757651084042689"><ele>410.0</ele><time>2026-03-25T18:02:09.999Z</time></trkpt><trkpt lat="44.42073500424575" lon="7.757519355783384"><ele>410.0</ele><time>2026-03-25T18:02:10.999Z</time></trkpt><trkpt lat="44.42079965542898" lon="7.757389764805373"><ele>410.0</ele><time>2026-03-25T18:02:11.999Z</time></trkpt><trkpt lat="44.42085919922926" lon="7.7572710528432145"><ele>410.0</ele><time>2026-03-25T18:02:12.999Z</time></trkpt><trkpt lat="44.420908885787426" lon="7.7571527354310055"><ele>410.0</ele><time>2026-03-25T18:02:13.999Z</time></trkpt><trkpt lat="44.42095066259863" lon="7.757034863537001"><ele>409.99999999999994</ele><time>2026-03-25T18:02:14.999Z</time></trkpt><trkpt lat="44.4209827726253" lon="7.7569148762663485"><ele>410.0</ele><time>2026-03-25T18:02:15.999Z</time></trkpt><trkpt lat="44.42101422169667" lon="7.756798509897755"><ele>410.0</ele><time>2026-03-25T18:02:16.999Z</time></trkpt><trkpt lat="44.421041821685726" lon="7.7566831216551195"><ele>410.0</ele><time>2026-03-25T18:02:17.999Z</time></trkpt><trkpt lat="44.42106787588819" lon="7.756571874288128"><ele>409.99999999999994</ele><time>2026-03-25T18:02:18.999Z</time></trkpt><trkpt lat="44.42108890079233" lon="7.756469508909318"><ele>410.0</ele><time>2026-03-25T18:02:19.999Z</time></trkpt><trkpt lat="44.42111030431323" lon="7.756372024548844"><ele>409.8333333333333</ele><time>2026-03-25T18:02:20.999Z</time></trkpt><trkpt lat="44.42112973964915" lon="7.756284397932617"><ele>409.66666666666663</ele><time>2026-03-25T18:02:21.999Z</time></trkpt><trkpt lat="44.421159597243566" lon="7.756135917085266"><ele>409.5</ele><time>2026-03-25T18:02:23.999Z</time></trkpt><trkpt lat="44.421210616638305" lon="7.7560373654593056"><ele>409.33333333333337</ele><time>2026-03-25T18:02:25.999Z</time></trkpt><trkpt lat="44.42129221483074" lon="7.756004204871532"><ele>409.1666666666667</ele><time>2026-03-25T18:02:27.999Z</time></trkpt><trkpt lat="44.42135412170198" lon="7.756021928657734"><ele>409.0</ele><time>2026-03-25T18:02:28.999Z</time></trkpt><trkpt lat="44.421416648278594" lon="7.756088860764944"><ele>408.75</ele><time>2026-03-25T18:02:29.999Z</time></trkpt><trkpt lat="44.42147062649585" lon="7.7561923441342655"><ele>408.5</ele><time>2026-03-25T18:02:30.999Z</time></trkpt><trkpt lat="44.421554487771246" lon="7.7562966099568476"><ele>408.25</ele><time>2026-03-25T18:02:31.999Z</time></trkpt><trkpt lat="44.421650849024225" lon="7.756401390703149"><ele>408.0</ele><time>2026-03-25T18:02:32.999Z</time></trkpt><trkpt lat="44.421756791380346" lon="7.756503814954617"><ele>408.0</ele><time>2026-03-25T18:02:33.999Z</time></trkpt><trkpt lat="44.42186978465488" lon="7.756578375966304"><ele>408.0</ele><time>2026-03-25T18:02:34.999Z</time></trkpt><trkpt lat="44.42195974794389" lon="7.756670284597391"><ele>408.0</ele><time>2026-03-25T18:02:35.999Z</time></trkpt><trkpt lat="44.422046079860145" lon="7.756734294160804"><ele>408.0</ele><time>2026-03-25T18:02:36.998Z</time></trkpt><trkpt lat="44.42212588360678" lon="7.756791397725274"><ele>408.0</ele><time>2026-03-25T18:02:37.998Z</time></trkpt><trkpt lat="44.422191160257896" lon="7.75684051074052"><ele>408.6666666666667</ele><time>2026-03-25T18:02:38.998Z</time></trkpt><trkpt lat="44.422250250725426" lon="7.756882096067874"><ele>409.33333333333337</ele><time>2026-03-25T18:02:39.998Z</time></trkpt><trkpt lat="44.42234473147788" lon="7.756937500862534"><ele>410.0</ele><time>2026-03-25T18:02:41.998Z</time></trkpt><trkpt lat="44.4224283218803" lon="7.756924998259077"><ele>410.6666666666667</ele><time>2026-03-25T18:02:43.998Z</time></trkpt><trkpt lat="44.4224771724977" lon="7.756824821713944"><ele>411.33333333333337</ele><time>2026-03-25T18:02:45.998Z</time></trkpt><trkpt lat="44.42246064226684" lon="7.756690467173274"><ele>412.0</ele><time>2026-03-25T18:02:47.998Z</time></trkpt><trkpt lat="44.422412951330536" lon="7.756614652615488"><ele>411.20000000000005</ele><time>2026-03-25T18:02:48.998Z</time></trkpt><trkpt lat="44.422358311293266" lon="7.756541636704848"><ele>410.4</ele><time>2026-03-25T18:02:49.998Z</time></trkpt><trkpt lat="44.42229795939489" lon="7.756454537891293"><ele>409.6</ele><time>2026-03-25T18:02:50.998Z</time></trkpt><trkpt lat="44.422221956517205" lon="7.756362286972757"><ele>408.79999999999995</ele><time>2026-03-25T18:02:51.998Z</time></trkpt><trkpt lat="44.42214152551768" lon="7.756253329104995"><ele>408.0</ele><time>2026-03-25T18:02:52.998Z</time></trkpt><trkpt lat="44.42205729340015" lon="7.756139017343648"><ele>408.0</ele><time>2026-03-25T18:02:53.998Z</time></trkpt><trkpt lat="44.421978038298256" lon="7.756041578034655"><ele>408.0</ele><time>2026-03-25T18:02:54.998Z</time></trkpt><trkpt lat="44.421897424409835" lon="7.755935337503095"><ele>408.0</ele><time>2026-03-25T18:02:55.998Z</time></trkpt><trkpt lat="44.42183887157813" lon="7.7558319744075686"><ele>408.0</ele><time>2026-03-25T18:02:56.998Z</time></trkpt><trkpt lat="44.42176125663072" lon="7.755747932847409"><ele>408.0</ele><time>2026-03-25T18:02:57.998Z</time></trkpt><trkpt lat="44.421694322612204" lon="7.755678584377006"><ele>405.59999999999997</ele><time>2026-03-25T18:02:58.998Z</time></trkpt><trkpt lat="44.421638211570716" lon="7.755622030294928"><ele>403.2</ele><time>2026-03-25T18:02:59.998Z</time></trkpt><trkpt lat="44.421552466926634" lon="7.755539022847382"><ele>400.8</ele><time>2026-03-25T18:03:01.998Z</time></trkpt><trkpt lat="44.42151416499488" lon="7.755423958500207"><ele>398.4</ele><time>2026-03-25T18:03:03.998Z</time></trkpt><trkpt lat="44.421527558094866" lon="7.755284623654492"><ele>396.0</ele><time>2026-03-25T18:03:06Z</time></trkpt><trkpt lat="44.42161101884569" lon="7.755187838353361"><ele>396.0</ele><time>2026-03-25T18:03:08Z</time></trkpt><trkpt lat="44.421713341131394" lon="7.755203635658075"><ele>396.0</ele><time>2026-03-25T18:03:10Z</time></trkpt><trkpt lat="44.42178050593481" lon="7.755234740593928"><ele>396.0</ele><time>2026-03-25T18:03:11Z</time></trkpt><trkpt lat="44.421842487247815" lon="7.755311092896534"><ele>396.0</ele><time>2026-03-25T18:03:12Z</time></trkpt><trkpt lat="44.42191936856161" lon="7.7554119300103155"><ele>396.0</ele><time>2026-03-25T18:03:13Z</time></trkpt><trkpt lat="44.42199809343669" lon="7.755508202452978"><ele>396.0</ele><time>2026-03-25T18:03:14Z</time></trkpt><trkpt lat="44.42207599915658" lon="7.7556099636624865"><ele>396.0</ele><time>2026-03-25T18:03:15Z</time></trkpt><trkpt lat="44.42214024747065" lon="7.755689772541"><ele>396.0</ele><time>2026-03-25T18:03:16Z</time></trkpt><trkpt lat="44.422212990019965" lon="7.75576804419873"><ele>396.0</ele><time>2026-03-25T18:03:17Z</time></trkpt><trkpt lat="44.42227992771585" lon="7.755838236426547"><ele>396.0</ele><time>2026-03-25T18:03:18Z</time></trkpt><trkpt lat="44.422336786176345" lon="7.755896087429051"><ele>396.0</ele><time>2026-03-25T18:03:19Z</time></trkpt><trkpt lat="44.42238889845442" lon="7.755958410524635"><ele>396.2857142857143</ele><time>2026-03-25T18:03:20Z</time></trkpt><trkpt lat="44.42244915510538" lon="7.7560140488807"><ele>396.57142857142856</ele><time>2026-03-25T18:03:21Z</time></trkpt><trkpt lat="44.42251014215294" lon="7.7560647306992845"><ele>396.85714285714283</ele><time>2026-03-25T18:03:22Z</time></trkpt><trkpt lat="44.42256854282432" lon="7.756101854658671"><ele>397.1428571428571</ele><time>2026-03-25T18:03:23Z</time></trkpt><trkpt lat="44.42264638461496" lon="7.756111291063187"><ele>397.42857142857144</ele><time>2026-03-25T18:03:24Z</time></trkpt><trkpt lat="44.42272304720583" lon="7.756100914187552"><ele>397.71428571428567</ele><time>2026-03-25T18:03:25Z</time></trkpt><trkpt lat="44.422790200658405" lon="7.756071735045061"><ele>398.0</ele><time>2026-03-25T18:03:26Z</time></trkpt><trkpt lat="44.422859212067806" lon="7.756025639453402"><ele>394.99999999999994</ele><time>2026-03-25T18:03:27Z</time></trkpt><trkpt lat="44.422927160974254" lon="7.755957585488522"><ele>392.0</ele><time>2026-03-25T18:03:28Z</time></trkpt><trkpt lat="44.42298343485146" lon="7.755889116524082"><ele>389.0</ele><time>2026-03-25T18:03:29Z</time></trkpt><trkpt lat="44.423043633130405" lon="7.755817012539302"><ele>386.0</ele><time>2026-03-25T18:03:30Z</time></trkpt><trkpt lat="44.423100586447276" lon="7.755755522241034"><ele>383.0</ele><time>2026-03-25T18:03:31Z</time></trkpt><trkpt lat="44.42316610632515" lon="7.755710152641639"><ele>380.0</ele><time>2026-03-25T18:03:32Z</time></trkpt><trkpt lat="44.42323358050095" lon="7.755672032497633"><ele>376.8</ele><time>2026-03-25T18:03:33Z</time></trkpt><trkpt lat="44.42331058895887" lon="7.755661219234861"><ele>373.6</ele><time>2026-03-25T18:03:34Z</time></trkpt><trkpt lat="44.423395243684624" lon="7.7557052760481655"><ele>370.4</ele><time>2026-03-25T18:03:35Z</time></trkpt><trkpt lat="44.423481552392744" lon="7.755729725961484"><ele>367.2</ele><time>2026-03-25T18:03:36Z</time></trkpt><trkpt lat="44.42358152727397" lon="7.7557593658804835"><ele>364.0</ele><time>2026-03-25T18:03:37Z</time></trkpt><trkpt lat="44.423678960748965" lon="7.755796125484276"><ele>364.0</ele><time>2026-03-25T18:03:38Z</time></trkpt><trkpt lat="44.42376497215524" lon="7.755822678479901"><ele>364.0</ele><time>2026-03-25T18:03:39Z</time></trkpt><trkpt lat="44.42384366342992" lon="7.755845974182287"><ele>364.0</ele><time>2026-03-25T18:03:40Z</time></trkpt><trkpt lat="44.423922906908906" lon="7.755866634419096"><ele>364.0</ele><time>2026-03-25T18:03:41Z</time></trkpt><trkpt lat="44.42398930866702" lon="7.755879926536042"><ele>364.0</ele><time>2026-03-25T18:03:42Z</time></trkpt><trkpt lat="44.42405385254373" lon="7.75588500974526"><ele>364.0</ele><time>2026-03-25T18:03:43Z</time></trkpt><trkpt lat="44.42412026413315" lon="7.755870994675973"><ele>364.0</ele><time>2026-03-25T18:03:44Z</time></trkpt><trkpt lat="44.42419920497744" lon="7.755847768019907"><ele>363.0</ele><time>2026-03-25T18:03:45Z</time></trkpt><trkpt lat="44.42426918429895" lon="7.75579401858638"><ele>362.0</ele><time>2026-03-25T18:03:46Z</time></trkpt><trkpt lat="44.4243430159106" lon="7.7557223364225045"><ele>361.0</ele><time>2026-03-25T18:03:46.999Z</time></trkpt><trkpt lat="44.42441582839651" lon="7.7556360520928616"><ele>360.0</ele><time>2026-03-25T18:03:47.999Z</time></trkpt><trkpt lat="44.424478298493" lon="7.755530164896375"><ele>359.0</ele><time>2026-03-25T18:03:48.999Z</time></trkpt><trkpt lat="44.42455216886152" lon="7.755399397737406"><ele>359.0</ele><time>2026-03-25T18:03:49.999Z</time></trkpt><trkpt lat="44.424628685387354" lon="7.755257429120166"><ele>359.0</ele><time>2026-03-25T18:03:50.999Z</time></trkpt><trkpt lat="44.42470658122111" lon="7.755100697985672"><ele>359.0</ele><time>2026-03-25T18:03:51.999Z</time></trkpt><trkpt lat="44.42479127912208" lon="7.7549410177926275"><ele>359.0</ele><time>2026-03-25T18:03:52.999Z</time></trkpt><trkpt lat="44.42486316784761" lon="7.754791437371353"><ele>359.2</ele><time>2026-03-25T18:03:53.999Z</time></trkpt><trkpt lat="44.424925756680246" lon="7.754650985227686"><ele>359.4</ele><time>2026-03-25T18:03:54.999Z</time></trkpt><trkpt lat="44.42498395644857" lon="7.754529743379894"><ele>359.6</ele><time>2026-03-25T18:03:55.999Z</time></trkpt><trkpt lat="44.425045016474364" lon="7.754424246438315"><ele>359.8</ele><time>2026-03-25T18:03:56.999Z</time></trkpt><trkpt lat="44.42508454621805" lon="7.754329451041136"><ele>360.0</ele><time>2026-03-25T18:03:57.999Z</time></trkpt><trkpt lat="44.42514092026484" lon="7.7542410066624505"><ele>360.2</ele><time>2026-03-25T18:03:58.999Z</time></trkpt><trkpt lat="44.425215341221204" lon="7.754173977640544"><ele>360.4</ele><time>2026-03-25T18:03:59.999Z</time></trkpt><trkpt lat="44.42530326536291" lon="7.754115639716143"><ele>360.6</ele><time>2026-03-25T18:04:00.999Z</time></trkpt><trkpt lat="44.42541569673023" lon="7.754062520156731"><ele>360.8</ele><time>2026-03-25T18:04:01.999Z</time></trkpt><trkpt lat="44.42552651036084" lon="7.7540158703225694"><ele>361.0</ele><time>2026-03-25T18:04:02.999Z</time></trkpt><trkpt lat="44.42562582298047" lon="7.753973871768583"><ele>361.0</ele><time>2026-03-25T18:04:03.999Z</time></trkpt><trkpt lat="44.425711394199276" lon="7.75392394071254"><ele>361.0</ele><time>2026-03-25T18:04:04.999Z</time></trkpt><trkpt lat="44.42578905724844" lon="7.75385568525802"><ele>361.0</ele><time>2026-03-25T18:04:05.999Z</time></trkpt><trkpt lat="44.4258572787843" lon="7.753768200605618"><ele>361.0</ele><time>2026-03-25T18:04:06.999Z</time></trkpt><trkpt lat="44.42591574199221" lon="7.7536563302977175"><ele>361.0</ele><time>2026-03-25T18:04:07.999Z</time></trkpt><trkpt lat="44.42595825068937" lon="7.753523191193119"><ele>361.5</ele><time>2026-03-25T18:04:08.999Z</time></trkpt><trkpt lat="44.425992347464906" lon="7.753372201702141"><ele>362.0</ele><time>2026-03-25T18:04:09.999Z</time></trkpt><trkpt lat="44.42602042181212" lon="7.753204957885971"><ele>362.5</ele><time>2026-03-25T18:04:10.999Z</time></trkpt><trkpt lat="44.42605030794595" lon="7.753043269557018"><ele>363.0</ele><time>2026-03-25T18:04:11.999Z</time></trkpt><trkpt lat="44.42607751547457" lon="7.752868922928077"><ele>364.25</ele><time>2026-03-25T18:04:12.999Z</time></trkpt><trkpt lat="44.42610391060293" lon="7.75268917513171"><ele>365.5</ele><time>2026-03-25T18:04:13.999Z</time></trkpt><trkpt lat="44.42612524054107" lon="7.752498657678484"><ele>366.75</ele><time>2026-03-25T18:04:14.999Z</time></trkpt><trkpt lat="44.426134573935734" lon="7.752303479678637"><ele>368.0</ele><time>2026-03-25T18:04:15.999Z</time></trkpt><trkpt lat="44.42614006423611" lon="7.752135417287237"><ele>368.0</ele><time>2026-03-25T18:04:16.999Z</time></trkpt><trkpt lat="44.42614057058397" lon="7.751993017545866"><ele>368.0</ele><time>2026-03-25T18:04:17.999Z</time></trkpt><trkpt lat="44.42614757563098" lon="7.751840315459738"><ele>368.0</ele><time>2026-03-25T18:04:18.999Z</time></trkpt><trkpt lat="44.42616843166551" lon="7.75169185708625"><ele>368.0</ele><time>2026-03-25T18:04:19.999Z</time></trkpt><trkpt lat="44.4262100066451" lon="7.751550599072566"><ele>368.0</ele><time>2026-03-25T18:04:20.999Z</time></trkpt><trkpt lat="44.42625868920326" lon="7.751430958705475"><ele>370.0</ele><time>2026-03-25T18:04:21.999Z</time></trkpt><trkpt lat="44.42632474874538" lon="7.751317010654027"><ele>372.0</ele><time>2026-03-25T18:04:22.999Z</time></trkpt><trkpt lat="44.426400477695374" lon="7.751213078544149"><ele>374.0</ele><time>2026-03-25T18:04:23.999Z</time></trkpt><trkpt lat="44.42649338573065" lon="7.751122027059983"><ele>376.0</ele><time>2026-03-25T18:04:24.999Z</time></trkpt><trkpt lat="44.42659776641055" lon="7.751049629892486"><ele>378.0</ele><time>2026-03-25T18:04:25.999Z</time></trkpt><trkpt lat="44.4267065776965" lon="7.750984585115706"><ele>379.0</ele><time>2026-03-25T18:04:26.999Z</time></trkpt><trkpt lat="44.426818674545316" lon="7.750923009904842"><ele>380.0</ele><time>2026-03-25T18:04:27.999Z</time></trkpt><trkpt lat="44.42693279836657" lon="7.750863483331444"><ele>381.0</ele><time>2026-03-25T18:04:28.999Z</time></trkpt><trkpt lat="44.42705088446702" lon="7.750799191292287"><ele>382.0</ele><time>2026-03-25T18:04:29.999Z</time></trkpt><trkpt lat="44.42716960074596" lon="7.750737208720097"><ele>383.40000000000003</ele><time>2026-03-25T18:04:30.999Z</time></trkpt><trkpt lat="44.42726957048238" lon="7.750704008699437"><ele>384.8</ele><time>2026-03-25T18:04:31.999Z</time></trkpt><trkpt lat="44.42735258649118" lon="7.750664375722225"><ele>386.2</ele><time>2026-03-25T18:04:32.999Z</time></trkpt><trkpt lat="44.42743336400129" lon="7.7506203658941555"><ele>387.6</ele><time>2026-03-25T18:04:33.999Z</time></trkpt><trkpt lat="44.427521805793624" lon="7.750559990895626"><ele>389.0</ele><time>2026-03-25T18:04:34.999Z</time></trkpt><trkpt lat="44.427589826028004" lon="7.7504996648879185"><ele>388.99999999999994</ele><time>2026-03-25T18:04:35.999Z</time></trkpt><trkpt lat="44.42765320173456" lon="7.750422771521917"><ele>389.0</ele><time>2026-03-25T18:04:36.999Z</time></trkpt><trkpt lat="44.42770520231109" lon="7.7503183569189575"><ele>389.0</ele><time>2026-03-25T18:04:37.999Z</time></trkpt><trkpt lat="44.42774937621686" lon="7.7501952628592505"><ele>389.0</ele><time>2026-03-25T18:04:38.999Z</time></trkpt><trkpt lat="44.427781697990554" lon="7.75008861518017"><ele>388.99999999999994</ele><time>2026-03-25T18:04:39.999Z</time></trkpt><trkpt lat="44.4278087401546" lon="7.74999056563885"><ele>389.0</ele><time>2026-03-25T18:04:40.999Z</time></trkpt><trkpt lat="44.427833491458635" lon="7.749885149808047"><ele>388.99999999999994</ele><time>2026-03-25T18:04:41.999Z</time></trkpt><trkpt lat="44.42785882985632" lon="7.7497667114191575"><ele>389.0</ele><time>2026-03-25T18:04:42.998Z</time></trkpt><trkpt lat="44.42788258443607" lon="7.749641281749478"><ele>389.0</ele><time>2026-03-25T18:04:43.998Z</time></trkpt><trkpt lat="44.42790150990153" lon="7.749515838815025"><ele>389.0</ele><time>2026-03-25T18:04:44.998Z</time></trkpt><trkpt lat="44.42792529959612" lon="7.74940365597831"><ele>388.99999999999994</ele><time>2026-03-25T18:04:45.998Z</time></trkpt><trkpt lat="44.427950435524124" lon="7.749279754202767"><ele>389.0</ele><time>2026-03-25T18:04:46.998Z</time></trkpt><trkpt lat="44.42797285963791" lon="7.749153563164721"><ele>390.8333333333333</ele><time>2026-03-25T18:04:47.998Z</time></trkpt><trkpt lat="44.42800235778633" lon="7.74902813073504"><ele>392.66666666666663</ele><time>2026-03-25T18:04:48.998Z</time></trkpt><trkpt lat="44.42803418692312" lon="7.748906669664564"><ele>394.5</ele><time>2026-03-25T18:04:49.998Z</time></trkpt><trkpt lat="44.42806570211274" lon="7.748795967754583"><ele>396.33333333333337</ele><time>2026-03-25T18:04:50.998Z</time></trkpt><trkpt lat="44.42809621188428" lon="7.748690648058146"><ele>398.1666666666667</ele><time>2026-03-25T18:04:51.998Z</time></trkpt><trkpt lat="44.42812461052113" lon="7.748574162887988"><ele>400.0</ele><time>2026-03-25T18:04:52.998Z</time></trkpt><trkpt lat="44.42815078088423" lon="7.748453247746655"><ele>400.6</ele><time>2026-03-25T18:04:53.998Z</time></trkpt><trkpt lat="44.428184039843494" lon="7.748317310457041"><ele>401.2</ele><time>2026-03-25T18:04:54.998Z</time></trkpt><trkpt lat="44.42821245523142" lon="7.748181829039847"><ele>401.79999999999995</ele><time>2026-03-25T18:04:55.998Z</time></trkpt><trkpt lat="44.4282517108481" lon="7.7480753409832515"><ele>402.4</ele><time>2026-03-25T18:04:56.998Z</time></trkpt><trkpt lat="44.428287584560735" lon="7.747967711981056"><ele>403.0</ele><time>2026-03-25T18:04:57.998Z</time></trkpt><trkpt lat="44.42833059144063" lon="7.747859332618839"><ele>403.0</ele><time>2026-03-25T18:04:58.998Z</time></trkpt><trkpt lat="44.42836857916807" lon="7.747773135139055"><ele>403.0</ele><time>2026-03-25T18:04:59.998Z</time></trkpt><trkpt lat="44.42841025538996" lon="7.747692219236578"><ele>403.0</ele><time>2026-03-25T18:05:00.998Z</time></trkpt><trkpt lat="44.42845444448757" lon="7.747601673429781"><ele>403.0</ele><time>2026-03-25T18:05:01.998Z</time></trkpt><trkpt lat="44.42850527273865" lon="7.747521956020056"><ele>403.0</ele><time>2026-03-25T18:05:02.998Z</time></trkpt><trkpt lat="44.42854814428666" lon="7.747450832344701"><ele>403.0</ele><time>2026-03-25T18:05:03.998Z</time></trkpt><trkpt lat="44.42861517893873" lon="7.747387240142635"><ele>403.0</ele><time>2026-03-25T18:05:04.998Z</time></trkpt><trkpt lat="44.428684040388866" lon="7.74731264420431"><ele>403.0</ele><time>2026-03-25T18:05:05.998Z</time></trkpt><trkpt lat="44.428774817503815" lon="7.747189853688445"><ele>403.0</ele><time>2026-03-25T18:05:07.998Z</time></trkpt><trkpt lat="44.428819930407194" lon="7.747090674381908"><ele>403.0</ele><time>2026-03-25T18:05:08.998Z</time></trkpt><trkpt lat="44.42884584739176" lon="7.74695390218686"><ele>403.0</ele><time>2026-03-25T18:05:09.998Z</time></trkpt><trkpt lat="44.42888249901421" lon="7.746844042956026"><ele>403.0</ele><time>2026-03-25T18:05:10.998Z</time></trkpt><trkpt lat="44.428924547717834" lon="7.746755888061768"><ele>404.1666666666667</ele><time>2026-03-25T18:05:12Z</time></trkpt><trkpt lat="44.428946740262376" lon="7.746672201653583"><ele>405.33333333333337</ele><time>2026-03-25T18:05:13Z</time></trkpt><trkpt lat="44.4289727744705" lon="7.74656484214401"><ele>406.5</ele><time>2026-03-25T18:05:14Z</time></trkpt><trkpt lat="44.4290701172188" lon="7.746464747707389"><ele>407.66666666666663</ele><time>2026-03-25T18:05:15Z</time></trkpt><trkpt lat="44.42913157117284" lon="7.746382215546646"><ele>408.8333333333333</ele><time>2026-03-25T18:05:16Z</time></trkpt><trkpt lat="44.42918926263309" lon="7.74631098801323"><ele>410.0</ele><time>2026-03-25T18:05:17Z</time></trkpt><trkpt lat="44.429245803390586" lon="7.746249540235219"><ele>409.99999999999994</ele><time>2026-03-25T18:05:18Z</time></trkpt><trkpt lat="44.429305706194555" lon="7.746195308139985"><ele>410.0</ele><time>2026-03-25T18:05:19Z</time></trkpt><trkpt lat="44.42938289085191" lon="7.7461134275173595"><ele>410.0</ele><time>2026-03-25T18:05:20Z</time></trkpt><trkpt lat="44.42946204265489" lon="7.746075453576156"><ele>410.0</ele><time>2026-03-25T18:05:21Z</time></trkpt><trkpt lat="44.4295182385245" lon="7.746035100170183"><ele>409.99999999999994</ele><time>2026-03-25T18:05:22Z</time></trkpt><trkpt lat="44.42957798456611" lon="7.745964624775912"><ele>410.0</ele><time>2026-03-25T18:05:23Z</time></trkpt><trkpt lat="44.42966047686695" lon="7.745936782936508"><ele>410.8</ele><time>2026-03-25T18:05:24Z</time></trkpt><trkpt lat="44.429735972328785" lon="7.745878909104947"><ele>411.6</ele><time>2026-03-25T18:05:25Z</time></trkpt><trkpt lat="44.42982093538023" lon="7.745817083720667"><ele>412.4</ele><time>2026-03-25T18:05:26Z</time></trkpt><trkpt lat="44.42991619332373" lon="7.7457507101902605"><ele>413.2</ele><time>2026-03-25T18:05:27Z</time></trkpt><trkpt lat="44.42999792040484" lon="7.745705220622163"><ele>414.0</ele><time>2026-03-25T18:05:28Z</time></trkpt><trkpt lat="44.43006437214195" lon="7.745654986528086"><ele>414.0</ele><time>2026-03-25T18:05:29Z</time></trkpt><trkpt lat="44.43013033045324" lon="7.745615513753336"><ele>414.0</ele><time>2026-03-25T18:05:30Z</time></trkpt><trkpt lat="44.43023000837375" lon="7.745547874479373"><ele>414.0</ele><time>2026-03-25T18:05:32Z</time></trkpt><trkpt lat="44.43033042037307" lon="7.7454848247053745"><ele>414.0</ele><time>2026-03-25T18:05:34Z</time></trkpt><trkpt lat="44.430390528320146" lon="7.745442474123164"><ele>414.0</ele><time>2026-03-25T18:05:36Z</time></trkpt><trkpt lat="44.430464685768285" lon="7.74540341660121"><ele>414.0</ele><time>2026-03-25T18:05:40Z</time></trkpt><trkpt lat="44.43055789051371" lon="7.745335849998398"><ele>414.1666666666667</ele><time>2026-03-25T18:05:42Z</time></trkpt><trkpt lat="44.430623306433866" lon="7.745316860571206"><ele>414.33333333333337</ele><time>2026-03-25T18:05:44Z</time></trkpt><trkpt lat="44.43065125249198" lon="7.745470070873218"><ele>414.5</ele><time>2026-03-25T18:05:46Z</time></trkpt><trkpt lat="44.43067878312704" lon="7.745570173423261"><ele>414.6666666666667</ele><time>2026-03-25T18:05:47Z</time></trkpt><trkpt lat="44.43071144122317" lon="7.745682694105335"><ele>414.83333333333337</ele><time>2026-03-25T18:05:48Z</time></trkpt><trkpt lat="44.4307451293712" lon="7.745792786284216"><ele>415.0</ele><time>2026-03-25T18:05:49Z</time></trkpt><trkpt lat="44.43077524503006" lon="7.745904300300974"><ele>415.0</ele><time>2026-03-25T18:05:50Z</time></trkpt><trkpt lat="44.430815906127535" lon="7.7460272886769195"><ele>415.0</ele><time>2026-03-25T18:05:51Z</time></trkpt><trkpt lat="44.430853956183554" lon="7.74616130380889"><ele>415.0</ele><time>2026-03-25T18:05:52Z</time></trkpt><trkpt lat="44.43089187268785" lon="7.746281644551932"><ele>415.0</ele><time>2026-03-25T18:05:52.999Z</time></trkpt><trkpt lat="44.4309266875001" lon="7.746388330564283"><ele>415.0</ele><time>2026-03-25T18:05:53.999Z</time></trkpt><trkpt lat="44.43096171019702" lon="7.74648753923047"><ele>414.33333333333337</ele><time>2026-03-25T18:05:54.999Z</time></trkpt><trkpt lat="44.43100174126135" lon="7.746598905862178"><ele>413.6666666666667</ele><time>2026-03-25T18:05:55.999Z</time></trkpt><trkpt lat="44.43103973885152" lon="7.7467167678946955"><ele>413.0</ele><time>2026-03-25T18:05:56.999Z</time></trkpt><trkpt lat="44.43107609196102" lon="7.746828544685447"><ele>412.33333333333337</ele><time>2026-03-25T18:05:57.999Z</time></trkpt><trkpt lat="44.43111017122574" lon="7.746927259752154"><ele>411.6666666666667</ele><time>2026-03-25T18:05:58.999Z</time></trkpt><trkpt lat="44.43114584303271" lon="7.7470334859708005"><ele>411.0</ele><time>2026-03-25T18:05:59.999Z</time></trkpt><trkpt lat="44.431180100556865" lon="7.747152565699529"><ele>411.0</ele><time>2026-03-25T18:06:00.999Z</time></trkpt><trkpt lat="44.43121590979219" lon="7.747250411183311"><ele>411.0</ele><time>2026-03-25T18:06:01.999Z</time></trkpt><trkpt lat="44.43124485508342" lon="7.747351002870234"><ele>411.0</ele><time>2026-03-25T18:06:02.999Z</time></trkpt><trkpt lat="44.43127861587576" lon="7.747437828507167"><ele>411.0</ele><time>2026-03-25T18:06:03.999Z</time></trkpt><trkpt lat="44.431317453521885" lon="7.747548156521636"><ele>411.0</ele><time>2026-03-25T18:06:04.999Z</time></trkpt><trkpt lat="44.43135559390004" lon="7.747666867767022"><ele>411.0</ele><time>2026-03-25T18:06:05.999Z</time></trkpt><trkpt lat="44.431395089765935" lon="7.74779511555503"><ele>411.25</ele><time>2026-03-25T18:06:06.999Z</time></trkpt><trkpt lat="44.43143519083679" lon="7.747929323852315"><ele>411.5</ele><time>2026-03-25T18:06:07.999Z</time></trkpt><trkpt lat="44.431484656082" lon="7.748081164371552"><ele>411.75</ele><time>2026-03-25T18:06:08.999Z</time></trkpt><trkpt lat="44.43153870393797" lon="7.748252251590348"><ele>412.0</ele><time>2026-03-25T18:06:09.999Z</time></trkpt><trkpt lat="44.431597663121536" lon="7.748413640906899"><ele>411.33333333333337</ele><time>2026-03-25T18:06:10.999Z</time></trkpt><trkpt lat="44.4316565938678" lon="7.748611714877976"><ele>410.66666666666663</ele><time>2026-03-25T18:06:11.999Z</time></trkpt><trkpt lat="44.4317202493964" lon="7.748812471375832"><ele>410.0</ele><time>2026-03-25T18:06:12.999Z</time></trkpt><trkpt lat="44.43178562684853" lon="7.749025417141333"><ele>410.0</ele><time>2026-03-25T18:06:13.999Z</time></trkpt><trkpt lat="44.431857286743856" lon="7.74924903577157"><ele>410.0</ele><time>2026-03-25T18:06:14.999Z</time></trkpt><trkpt lat="44.43193376527287" lon="7.749485768088629"><ele>410.0</ele><time>2026-03-25T18:06:15.999Z</time></trkpt><trkpt lat="44.43200871954873" lon="7.749716306811012"><ele>410.0</ele><time>2026-03-25T18:06:16.999Z</time></trkpt><trkpt lat="44.43208527779454" lon="7.749955570942225"><ele>410.0</ele><time>2026-03-25T18:06:17.999Z</time></trkpt><trkpt lat="44.43216499850775" lon="7.750217284389504"><ele>410.0</ele><time>2026-03-25T18:06:18.999Z</time></trkpt><trkpt lat="44.43224125851725" lon="7.750468755041808"><ele>410.0</ele><time>2026-03-25T18:06:19.999Z</time></trkpt><trkpt lat="44.43231686753052" lon="7.750733756171275"><ele>410.0</ele><time>2026-03-25T18:06:20.999Z</time></trkpt><trkpt lat="44.43239830046923" lon="7.7510006802498035"><ele>410.0</ele><time>2026-03-25T18:06:21.999Z</time></trkpt><trkpt lat="44.43248409192189" lon="7.751278643173937"><ele>409.5</ele><time>2026-03-25T18:06:22.999Z</time></trkpt><trkpt lat="44.432578665680424" lon="7.751564556754664"><ele>409.0</ele><time>2026-03-25T18:06:23.999Z</time></trkpt><trkpt lat="44.432670590354554" lon="7.751868064061957"><ele>409.0</ele><time>2026-03-25T18:06:24.999Z</time></trkpt><trkpt lat="44.43276636389803" lon="7.752163465368175"><ele>409.0</ele><time>2026-03-25T18:06:25.999Z</time></trkpt><trkpt lat="44.43286202373591" lon="7.752466387484261"><ele>409.5</ele><time>2026-03-25T18:06:26.999Z</time></trkpt><trkpt lat="44.43296073457429" lon="7.752766935671174"><ele>410.0</ele><time>2026-03-25T18:06:27.999Z</time></trkpt><trkpt lat="44.43305855225527" lon="7.753069119768626"><ele>410.0</ele><time>2026-03-25T18:06:28.999Z</time></trkpt><trkpt lat="44.43315491632226" lon="7.753388265931272"><ele>410.0</ele><time>2026-03-25T18:06:29.999Z</time></trkpt><trkpt lat="44.43325259774602" lon="7.75368891530151"><ele>410.0</ele><time>2026-03-25T18:06:30.999Z</time></trkpt><trkpt lat="44.433340151058346" lon="7.753975058330804"><ele>410.0</ele><time>2026-03-25T18:06:31.999Z</time></trkpt><trkpt lat="44.43343512174444" lon="7.754263981577949"><ele>410.0</ele><time>2026-03-25T18:06:32.999Z</time></trkpt><trkpt lat="44.433522975783546" lon="7.754549502519824"><ele>410.0</ele><time>2026-03-25T18:06:33.999Z</time></trkpt><trkpt lat="44.43362242672553" lon="7.754829155798611"><ele>410.0</ele><time>2026-03-25T18:06:34.999Z</time></trkpt><trkpt lat="44.43371385620625" lon="7.755118779765216"><ele>410.0</ele><time>2026-03-25T18:06:35.999Z</time></trkpt><trkpt lat="44.4338097567025" lon="7.755428756226334"><ele>410.0</ele><time>2026-03-25T18:06:36.999Z</time></trkpt><trkpt lat="44.43390201208534" lon="7.755727295106478"><ele>410.0</ele><time>2026-03-25T18:06:37.999Z</time></trkpt><trkpt lat="44.434001229962846" lon="7.756027690834308"><ele>408.5</ele><time>2026-03-25T18:06:38.999Z</time></trkpt><trkpt lat="44.43410048778361" lon="7.756332464608843"><ele>407.0</ele><time>2026-03-25T18:06:39.999Z</time></trkpt><trkpt lat="44.43419736513944" lon="7.756649896371783"><ele>406.5</ele><time>2026-03-25T18:06:40.999Z</time></trkpt><trkpt lat="44.434300861378844" lon="7.7569651315871155"><ele>406.0</ele><time>2026-03-25T18:06:41.999Z</time></trkpt><trkpt lat="44.43439585874348" lon="7.757278369902691"><ele>406.0</ele><time>2026-03-25T18:06:42.999Z</time></trkpt><trkpt lat="44.43449658570126" lon="7.757590394247798"><ele>406.0</ele><time>2026-03-25T18:06:43.999Z</time></trkpt><trkpt lat="44.43458747433787" lon="7.757899062644297"><ele>407.0</ele><time>2026-03-25T18:06:44.999Z</time></trkpt><trkpt lat="44.43468683960624" lon="7.758218218957995"><ele>408.0</ele><time>2026-03-25T18:06:45.999Z</time></trkpt><trkpt lat="44.43478181080235" lon="7.758528986490443"><ele>407.0</ele><time>2026-03-25T18:06:46.999Z</time></trkpt><trkpt lat="44.43487527260584" lon="7.758839059646231"><ele>406.0</ele><time>2026-03-25T18:06:47.998Z</time></trkpt><trkpt lat="44.43497694388279" lon="7.759145778236625"><ele>406.0</ele><time>2026-03-25T18:06:48.998Z</time></trkpt><trkpt lat="44.435065628207184" lon="7.759419510876744"><ele>406.0</ele><time>2026-03-25T18:06:49.998Z</time></trkpt><trkpt lat="44.43515674023276" lon="7.759726397394049"><ele>406.0</ele><time>2026-03-25T18:06:50.998Z</time></trkpt><trkpt lat="44.435258639854695" lon="7.760033828998361"><ele>406.0</ele><time>2026-03-25T18:06:51.998Z</time></trkpt><trkpt lat="44.435357002768924" lon="7.760353951749474"><ele>406.0</ele><time>2026-03-25T18:06:52.998Z</time></trkpt><trkpt lat="44.435460027999625" lon="7.760645511559746"><ele>406.0</ele><time>2026-03-25T18:06:53.998Z</time></trkpt><trkpt lat="44.43554850838453" lon="7.760922145424907"><ele>406.0</ele><time>2026-03-25T18:06:54.998Z</time></trkpt><trkpt lat="44.43562110748409" lon="7.761184516568213"><ele>405.6666666666667</ele><time>2026-03-25T18:06:55.998Z</time></trkpt><trkpt lat="44.435697458020094" lon="7.7614627773595934"><ele>405.33333333333337</ele><time>2026-03-25T18:06:56.998Z</time></trkpt><trkpt lat="44.435782079798734" lon="7.7617325687887"><ele>405.0</ele><time>2026-03-25T18:06:57.998Z</time></trkpt><trkpt lat="44.43586999794321" lon="7.761991239159443"><ele>404.66666666666663</ele><time>2026-03-25T18:06:58.998Z</time></trkpt><trkpt lat="44.43595525404479" lon="7.762256404458216"><ele>404.3333333333333</ele><time>2026-03-25T18:06:59.998Z</time></trkpt><trkpt lat="44.43604324208399" lon="7.762537748258006"><ele>404.0</ele><time>2026-03-25T18:07:00.998Z</time></trkpt><trkpt lat="44.43613773647194" lon="7.762827096047055"><ele>404.0</ele><time>2026-03-25T18:07:01.998Z</time></trkpt><trkpt lat="44.43623260678988" lon="7.763140308976745"><ele>404.0</ele><time>2026-03-25T18:07:02.998Z</time></trkpt><trkpt lat="44.43632977494982" lon="7.763438541566443"><ele>404.0</ele><time>2026-03-25T18:07:03.998Z</time></trkpt><trkpt lat="44.43643037141707" lon="7.7637495010629936"><ele>404.0</ele><time>2026-03-25T18:07:04.998Z</time></trkpt><trkpt lat="44.4365325501096" lon="7.764078683791248"><ele>404.0</ele><time>2026-03-25T18:07:05.998Z</time></trkpt><trkpt lat="44.436635993575216" lon="7.76439001137494"><ele>404.0</ele><time>2026-03-25T18:07:06.998Z</time></trkpt><trkpt lat="44.43673785074717" lon="7.764711861696877"><ele>404.0</ele><time>2026-03-25T18:07:07.998Z</time></trkpt><trkpt lat="44.43684237468205" lon="7.765035290490364"><ele>404.0</ele><time>2026-03-25T18:07:08.998Z</time></trkpt><trkpt lat="44.4369327156839" lon="7.765338747555393"><ele>404.0</ele><time>2026-03-25T18:07:09.998Z</time></trkpt><trkpt lat="44.43702701802634" lon="7.7656301765089975"><ele>404.0</ele><time>2026-03-25T18:07:10.998Z</time></trkpt><trkpt lat="44.437110551992596" lon="7.765920619509062"><ele>403.5</ele><time>2026-03-25T18:07:11.998Z</time></trkpt><trkpt lat="44.4372097125954" lon="7.7662152558463315"><ele>403.0</ele><time>2026-03-25T18:07:12.998Z</time></trkpt><trkpt lat="44.43730848739353" lon="7.766520128860687"><ele>403.0</ele><time>2026-03-25T18:07:13.998Z</time></trkpt><trkpt lat="44.43740781826699" lon="7.7668238256074424"><ele>403.0</ele><time>2026-03-25T18:07:14.998Z</time></trkpt><trkpt lat="44.437506880229044" lon="7.767121215128602"><ele>403.0</ele><time>2026-03-25T18:07:15.998Z</time></trkpt><trkpt lat="44.43760693131432" lon="7.7674286743462675"><ele>403.0</ele><time>2026-03-25T18:07:16.998Z</time></trkpt><trkpt lat="44.437712579672386" lon="7.7677483764607205"><ele>403.0</ele><time>2026-03-25T18:07:18Z</time></trkpt><trkpt lat="44.4378076659643" lon="7.768042220306902"><ele>403.0</ele><time>2026-03-25T18:07:19Z</time></trkpt><trkpt lat="44.43790198363783" lon="7.768334029778622"><ele>403.0</ele><time>2026-03-25T18:07:20Z</time></trkpt><trkpt lat="44.4379995097416" lon="7.768633414559374"><ele>403.0</ele><time>2026-03-25T18:07:21Z</time></trkpt><trkpt lat="44.43809798168032" lon="7.768941629125355"><ele>403.0</ele><time>2026-03-25T18:07:22Z</time></trkpt><trkpt lat="44.438197617164704" lon="7.76925308857187"><ele>403.0</ele><time>2026-03-25T18:07:23Z</time></trkpt><trkpt lat="44.43828841260961" lon="7.769538162355314"><ele>402.6666666666667</ele><time>2026-03-25T18:07:24Z</time></trkpt><trkpt lat="44.438368196118695" lon="7.769804932810845"><ele>402.33333333333337</ele><time>2026-03-25T18:07:25Z</time></trkpt><trkpt lat="44.4384552368097" lon="7.770073464153868"><ele>402.0</ele><time>2026-03-25T18:07:26Z</time></trkpt><trkpt lat="44.43853652941583" lon="7.770343022654574"><ele>402.0</ele><time>2026-03-25T18:07:27Z</time></trkpt><trkpt lat="44.43861954230067" lon="7.770618256385054"><ele>402.0</ele><time>2026-03-25T18:07:28Z</time></trkpt><trkpt lat="44.43869839292132" lon="7.770884062752323"><ele>402.0</ele><time>2026-03-25T18:07:29Z</time></trkpt><trkpt lat="44.43878189244353" lon="7.771125979147649"><ele>401.66666666666663</ele><time>2026-03-25T18:07:30Z</time></trkpt><trkpt lat="44.43886214838805" lon="7.771374712224772"><ele>401.3333333333333</ele><time>2026-03-25T18:07:31Z</time></trkpt><trkpt lat="44.438931195813474" lon="7.771607361068105"><ele>401.0</ele><time>2026-03-25T18:07:32Z</time></trkpt><trkpt lat="44.438992817716915" lon="7.771825423336967"><ele>400.66666666666663</ele><time>2026-03-25T18:07:33Z</time></trkpt><trkpt lat="44.43906139919792" lon="7.772027670754129"><ele>400.33333333333337</ele><time>2026-03-25T18:07:34Z</time></trkpt><trkpt lat="44.43913355832575" lon="7.772241523577128"><ele>400.0</ele><time>2026-03-25T18:07:35Z</time></trkpt><trkpt lat="44.43920172120925" lon="7.772458141825633"><ele>400.0</ele><time>2026-03-25T18:07:36Z</time></trkpt><trkpt lat="44.439265580966925" lon="7.7726628344449535"><ele>400.0</ele><time>2026-03-25T18:07:37Z</time></trkpt><trkpt lat="44.43932944322636" lon="7.77286064426501"><ele>400.0</ele><time>2026-03-25T18:07:38Z</time></trkpt><trkpt lat="44.43939034393731" lon="7.77306539853674"><ele>400.0</ele><time>2026-03-25T18:07:39Z</time></trkpt><trkpt lat="44.439459440059856" lon="7.773258886757563"><ele>400.0</ele><time>2026-03-25T18:07:40Z</time></trkpt><trkpt lat="44.439525007990966" lon="7.773460911442535"><ele>400.0</ele><time>2026-03-25T18:07:41Z</time></trkpt><trkpt lat="44.43958632243004" lon="7.773659559467693"><ele>400.0</ele><time>2026-03-25T18:07:42Z</time></trkpt><trkpt lat="44.43964616557306" lon="7.773855975505854"><ele>400.0</ele><time>2026-03-25T18:07:43Z</time></trkpt><trkpt lat="44.43970764383768" lon="7.774051857020749"><ele>400.0</ele><time>2026-03-25T18:07:44Z</time></trkpt><trkpt lat="44.4397683980333" lon="7.774248687310141"><ele>399.6666666666667</ele><time>2026-03-25T18:07:45Z</time></trkpt><trkpt lat="44.43982593221267" lon="7.774435036864325"><ele>399.33333333333337</ele><time>2026-03-25T18:07:46Z</time></trkpt><trkpt lat="44.4398923737395" lon="7.774635685330994"><ele>399.0</ele><time>2026-03-25T18:07:47Z</time></trkpt><trkpt lat="44.43995248569194" lon="7.774825046465682"><ele>399.0</ele><time>2026-03-25T18:07:48Z</time></trkpt><trkpt lat="44.44001777716377" lon="7.7750200591440155"><ele>399.0</ele><time>2026-03-25T18:07:49Z</time></trkpt><trkpt lat="44.44007821189925" lon="7.77520243269903"><ele>399.0</ele><time>2026-03-25T18:07:50Z</time></trkpt><trkpt lat="44.44013718066791" lon="7.775386726906422"><ele>399.0</ele><time>2026-03-25T18:07:51Z</time></trkpt><trkpt lat="44.44019532044559" lon="7.775576783765187"><ele>399.25</ele><time>2026-03-25T18:07:52Z</time></trkpt><trkpt lat="44.44025646932086" lon="7.775765113960389"><ele>399.5</ele><time>2026-03-25T18:07:53Z</time></trkpt><trkpt lat="44.44031449070832" lon="7.77593537485219"><ele>399.75</ele><time>2026-03-25T18:07:54Z</time></trkpt><trkpt lat="44.440366063786676" lon="7.776114906443385"><ele>400.0</ele><time>2026-03-25T18:07:55Z</time></trkpt><trkpt lat="44.44043425409928" lon="7.776296414380075"><ele>399.75</ele><time>2026-03-25T18:07:56Z</time></trkpt><trkpt lat="44.440472543159665" lon="7.776477587569507"><ele>399.5</ele><time>2026-03-25T18:07:57Z</time></trkpt><trkpt lat="44.4405198762272" lon="7.776638585955282"><ele>399.25</ele><time>2026-03-25T18:07:58Z</time></trkpt><trkpt lat="44.44056805587638" lon="7.776790572676056"><ele>399.0</ele><time>2026-03-25T18:07:59Z</time></trkpt><trkpt lat="44.4406182917106" lon="7.776944443210736"><ele>398.75</ele><time>2026-03-25T18:07:59.999Z</time></trkpt><trkpt lat="44.44066792233092" lon="7.777084975006413"><ele>398.5</ele><time>2026-03-25T18:08:00.999Z</time></trkpt><trkpt lat="44.44073867004921" lon="7.777246924691037"><ele>398.25</ele><time>2026-03-25T18:08:01.999Z</time></trkpt><trkpt lat="44.44079510774563" lon="7.7773974675670345"><ele>398.0</ele><time>2026-03-25T18:08:02.999Z</time></trkpt><trkpt lat="44.44085516122857" lon="7.777549301968688"><ele>397.75</ele><time>2026-03-25T18:08:03.999Z</time></trkpt><trkpt lat="44.440911978639384" lon="7.777690929065636"><ele>397.5</ele><time>2026-03-25T18:08:04.999Z</time></trkpt><trkpt lat="44.44097485874556" lon="7.7778405786986005"><ele>397.25</ele><time>2026-03-25T18:08:05.999Z</time></trkpt><trkpt lat="44.441035565950685" lon="7.777992741576522"><ele>397.0</ele><time>2026-03-25T18:08:06.999Z</time></trkpt><trkpt lat="44.44109633579878" lon="7.778147779046394"><ele>397.0</ele><time>2026-03-25T18:08:07.999Z</time></trkpt><trkpt lat="44.44116307785173" lon="7.778318541401529"><ele>397.0</ele><time>2026-03-25T18:08:08.999Z</time></trkpt><trkpt lat="44.4412288982689" lon="7.778482694512629"><ele>397.0</ele><time>2026-03-25T18:08:09.999Z</time></trkpt><trkpt lat="44.44129596075394" lon="7.778646965431601"><ele>397.0</ele><time>2026-03-25T18:08:10.999Z</time></trkpt><trkpt lat="44.441368871460575" lon="7.778812644918348"><ele>397.0</ele><time>2026-03-25T18:08:11.999Z</time></trkpt><trkpt lat="44.44144122244696" lon="7.778992736791154"><ele>397.0</ele><time>2026-03-25T18:08:12.999Z</time></trkpt><trkpt lat="44.44151765484939" lon="7.7791929065329235"><ele>397.0</ele><time>2026-03-25T18:08:13.999Z</time></trkpt><trkpt lat="44.44158876843916" lon="7.77940874941316"><ele>397.0</ele><time>2026-03-25T18:08:14.999Z</time></trkpt><trkpt lat="44.44165823315928" lon="7.7796255011851905"><ele>397.0</ele><time>2026-03-25T18:08:15.999Z</time></trkpt><trkpt lat="44.44171819988292" lon="7.779829858851113"><ele>397.0</ele><time>2026-03-25T18:08:16.999Z</time></trkpt><trkpt lat="44.441767760990544" lon="7.7800164905946465"><ele>397.0</ele><time>2026-03-25T18:08:17.999Z</time></trkpt><trkpt lat="44.44181962694997" lon="7.780195204961772"><ele>397.0</ele><time>2026-03-25T18:08:18.999Z</time></trkpt><trkpt lat="44.44187253070991" lon="7.780382771233525"><ele>397.0</ele><time>2026-03-25T18:08:19.999Z</time></trkpt><trkpt lat="44.441927835612404" lon="7.780579127358754"><ele>397.0</ele><time>2026-03-25T18:08:20.999Z</time></trkpt><trkpt lat="44.441984120774784" lon="7.780785501654301"><ele>397.0</ele><time>2026-03-25T18:08:21.999Z</time></trkpt><trkpt lat="44.442034690551615" lon="7.78097952542454"><ele>397.0</ele><time>2026-03-25T18:08:22.999Z</time></trkpt><trkpt lat="44.44208427084777" lon="7.781165076382993"><ele>397.0</ele><time>2026-03-25T18:08:23.999Z</time></trkpt><trkpt lat="44.44214391089157" lon="7.7813696946268855"><ele>397.0</ele><time>2026-03-25T18:08:24.999Z</time></trkpt><trkpt lat="44.44220761083207" lon="7.781585600066364"><ele>396.75</ele><time>2026-03-25T18:08:25.999Z</time></trkpt><trkpt lat="44.4422571436333" lon="7.781775962921169"><ele>396.5</ele><time>2026-03-25T18:08:26.999Z</time></trkpt><trkpt lat="44.442308588833114" lon="7.7819604603269905"><ele>396.25</ele><time>2026-03-25T18:08:27.999Z</time></trkpt><trkpt lat="44.44237201486254" lon="7.7821576459684865"><ele>396.0</ele><time>2026-03-25T18:08:28.999Z</time></trkpt><trkpt lat="44.4424275131024" lon="7.782343870954796"><ele>395.5</ele><time>2026-03-25T18:08:29.999Z</time></trkpt><trkpt lat="44.44247831277411" lon="7.782525372844808"><ele>395.0</ele><time>2026-03-25T18:08:30.999Z</time></trkpt><trkpt lat="44.44252807167957" lon="7.782709275876583"><ele>394.5</ele><time>2026-03-25T18:08:31.999Z</time></trkpt><trkpt lat="44.442578854624756" lon="7.782892974375602"><ele>394.0</ele><time>2026-03-25T18:08:32.999Z</time></trkpt><trkpt lat="44.442629372381404" lon="7.783074177187233"><ele>393.75</ele><time>2026-03-25T18:08:33.999Z</time></trkpt><trkpt lat="44.44268015201442" lon="7.783269018807482"><ele>393.5</ele><time>2026-03-25T18:08:34.999Z</time></trkpt><trkpt lat="44.442729646871044" lon="7.783449173283605"><ele>393.25</ele><time>2026-03-25T18:08:35.999Z</time></trkpt><trkpt lat="44.44277909904346" lon="7.783628526789409"><ele>393.0</ele><time>2026-03-25T18:08:36.999Z</time></trkpt><trkpt lat="44.442831737279" lon="7.783809296445821"><ele>392.25</ele><time>2026-03-25T18:08:37.999Z</time></trkpt><trkpt lat="44.44288661390161" lon="7.784003209311301"><ele>391.5</ele><time>2026-03-25T18:08:38.999Z</time></trkpt><trkpt lat="44.44293564529128" lon="7.784185674076063"><ele>390.75</ele><time>2026-03-25T18:08:39.999Z</time></trkpt><trkpt lat="44.44298138242087" lon="7.784354514868381"><ele>390.0</ele><time>2026-03-25T18:08:40.999Z</time></trkpt><trkpt lat="44.443033026827464" lon="7.784543074519293"><ele>390.0</ele><time>2026-03-25T18:08:41.999Z</time></trkpt><trkpt lat="44.44308667881632" lon="7.784728104847397"><ele>390.0</ele><time>2026-03-25T18:08:42.999Z</time></trkpt><trkpt lat="44.4431376738303" lon="7.784904976771548"><ele>390.0</ele><time>2026-03-25T18:08:43.999Z</time></trkpt><trkpt lat="44.44319540493451" lon="7.785081334838355"><ele>390.0</ele><time>2026-03-25T18:08:44.999Z</time></trkpt><trkpt lat="44.44324600026982" lon="7.785254967991081"><ele>390.25</ele><time>2026-03-25T18:08:45.999Z</time></trkpt><trkpt lat="44.44329044212258" lon="7.785426356958853"><ele>390.5</ele><time>2026-03-25T18:08:46.999Z</time></trkpt><trkpt lat="44.443345315045015" lon="7.785594236667586"><ele>390.75</ele><time>2026-03-25T18:08:47.999Z</time></trkpt><trkpt lat="44.44340433118165" lon="7.785759597894092"><ele>391.0</ele><time>2026-03-25T18:08:48.999Z</time></trkpt><trkpt lat="44.443462193168536" lon="7.785940730726599"><ele>391.5</ele><time>2026-03-25T18:08:49.999Z</time></trkpt><trkpt lat="44.44352120622458" lon="7.7861091658536274"><ele>392.0</ele><time>2026-03-25T18:08:50.999Z</time></trkpt><trkpt lat="44.44358018532907" lon="7.786294722345721"><ele>392.5</ele><time>2026-03-25T18:08:51.999Z</time></trkpt><trkpt lat="44.44363793118819" lon="7.786482741588392"><ele>393.0</ele><time>2026-03-25T18:08:52.999Z</time></trkpt><trkpt lat="44.44368794272251" lon="7.7866503128429505"><ele>393.0</ele><time>2026-03-25T18:08:53.999Z</time></trkpt><trkpt lat="44.443732133202694" lon="7.786794978283396"><ele>393.0</ele><time>2026-03-25T18:08:54.999Z</time></trkpt><trkpt lat="44.44377008913501" lon="7.786934423320624"><ele>393.0</ele><time>2026-03-25T18:08:55.998Z</time></trkpt><trkpt lat="44.44380048242186" lon="7.787073322498803"><ele>393.0</ele><time>2026-03-25T18:08:56.998Z</time></trkpt><trkpt lat="44.44382559340129" lon="7.787184582238874"><ele>393.0</ele><time>2026-03-25T18:08:57.998Z</time></trkpt><trkpt lat="44.443855459200314" lon="7.787284323631712"><ele>392.6666666666667</ele><time>2026-03-25T18:08:58.998Z</time></trkpt><trkpt lat="44.44387957356591" lon="7.7873846663174096"><ele>392.33333333333337</ele><time>2026-03-25T18:08:59.998Z</time></trkpt><trkpt lat="44.44392522746747" lon="7.787470648645564"><ele>392.0</ele><time>2026-03-25T18:09:00.998Z</time></trkpt><trkpt lat="44.44393201309801" lon="7.787563841657322"><ele>391.6666666666667</ele><time>2026-03-25T18:09:01.998Z</time></trkpt><trkpt lat="44.44392493447289" lon="7.787720355997245"><ele>391.33333333333337</ele><time>2026-03-25T18:09:03.998Z</time></trkpt><trkpt lat="44.44393925970063" lon="7.787883758248928"><ele>391.0</ele><time>2026-03-25T18:09:05.998Z</time></trkpt><trkpt lat="44.44399033456249" lon="7.787987871633297"><ele>390.8</ele><time>2026-03-25T18:09:07.998Z</time></trkpt><trkpt lat="44.44408430739768" lon="7.788040043690801"><ele>390.6</ele><time>2026-03-25T18:09:09.998Z</time></trkpt><trkpt lat="44.444182053810415" lon="7.788041411667479"><ele>390.4</ele><time>2026-03-25T18:09:11.998Z</time></trkpt><trkpt lat="44.44425034735063" lon="7.7879090091702565"><ele>390.2</ele><time>2026-03-25T18:09:12.998Z</time></trkpt><trkpt lat="44.44430952813174" lon="7.787840419053764"><ele>390.0</ele><time>2026-03-25T18:09:13.998Z</time></trkpt><trkpt lat="44.44438168844445" lon="7.787768938671352"><ele>390.0</ele><time>2026-03-25T18:09:14.998Z</time></trkpt><trkpt lat="44.44445236850107" lon="7.787708919469869"><ele>390.0</ele><time>2026-03-25T18:09:15.998Z</time></trkpt><trkpt lat="44.44454099461357" lon="7.787654255481572"><ele>390.0</ele><time>2026-03-25T18:09:16.998Z</time></trkpt><trkpt lat="44.44463138665143" lon="7.787604666964069"><ele>390.0</ele><time>2026-03-25T18:09:17.998Z</time></trkpt><trkpt lat="44.44472880030112" lon="7.787559792856223"><ele>390.0</ele><time>2026-03-25T18:09:18.998Z</time></trkpt><trkpt lat="44.44483697402161" lon="7.787508068496326"><ele>390.0</ele><time>2026-03-25T18:09:19.998Z</time></trkpt><trkpt lat="44.44493358460815" lon="7.787455182775393"><ele>390.0</ele><time>2026-03-25T18:09:20.998Z</time></trkpt><trkpt lat="44.445039026109015" lon="7.787401701150231"><ele>390.0</ele><time>2026-03-25T18:09:21.998Z</time></trkpt><trkpt lat="44.44513707585681" lon="7.787350312207784"><ele>390.0</ele><time>2026-03-25T18:09:22.998Z</time></trkpt><trkpt lat="44.4452391825865" lon="7.7872981131858126"><ele>390.0</ele><time>2026-03-25T18:09:24Z</time></trkpt><trkpt lat="44.44534570956514" lon="7.78724504890655"><ele>390.0</ele><time>2026-03-25T18:09:25Z</time></trkpt><trkpt lat="44.44545995076433" lon="7.787188604740552"><ele>390.0</ele><time>2026-03-25T18:09:26Z</time></trkpt><trkpt lat="44.44557215529806" lon="7.7871325609286055"><ele>390.0</ele><time>2026-03-25T18:09:27Z</time></trkpt><trkpt lat="44.44567183807208" lon="7.787083898752376"><ele>390.0</ele><time>2026-03-25T18:09:28Z</time></trkpt><trkpt lat="44.44575984450405" lon="7.787035365671723"><ele>390.0</ele><time>2026-03-25T18:09:29Z</time></trkpt><trkpt lat="44.44585676602823" lon="7.786984070676798"><ele>390.5</ele><time>2026-03-25T18:09:30Z</time></trkpt><trkpt lat="44.44596734660966" lon="7.786933532242622"><ele>391.0</ele><time>2026-03-25T18:09:31Z</time></trkpt><trkpt lat="44.446095545986" lon="7.786908501748686"><ele>391.5</ele><time>2026-03-25T18:09:32Z</time></trkpt><trkpt lat="44.44619478279903" lon="7.786852436342051"><ele>392.0</ele><time>2026-03-25T18:09:33Z</time></trkpt><trkpt lat="44.44629397435828" lon="7.78680522473924"><ele>392.6</ele><time>2026-03-25T18:09:34Z</time></trkpt><trkpt lat="44.446384882324374" lon="7.786760018908592"><ele>393.20000000000005</ele><time>2026-03-25T18:09:35Z</time></trkpt><trkpt lat="44.44648257101016" lon="7.786714168777033"><ele>393.8</ele><time>2026-03-25T18:09:36Z</time></trkpt><trkpt lat="44.44658545228399" lon="7.786665416536597"><ele>394.4</ele><time>2026-03-25T18:09:37Z</time></trkpt><trkpt lat="44.44668945847485" lon="7.7866140991859965"><ele>395.0</ele><time>2026-03-25T18:09:38Z</time></trkpt><trkpt lat="44.4467920353641" lon="7.78656294464367"><ele>395.0</ele><time>2026-03-25T18:09:39Z</time></trkpt><trkpt lat="44.44689241381188" lon="7.786506544049751"><ele>395.0</ele><time>2026-03-25T18:09:40Z</time></trkpt><trkpt lat="44.44699875029867" lon="7.786447104039537"><ele>395.0</ele><time>2026-03-25T18:09:41Z</time></trkpt><trkpt lat="44.447101698805255" lon="7.786377152544681"><ele>395.0</ele><time>2026-03-25T18:09:42Z</time></trkpt><trkpt lat="44.44719811159181" lon="7.786303657943765"><ele>395.0</ele><time>2026-03-25T18:09:43Z</time></trkpt><trkpt lat="44.44728829111424" lon="7.786233139856709"><ele>395.25</ele><time>2026-03-25T18:09:44Z</time></trkpt><trkpt lat="44.44738488260911" lon="7.786162035839503"><ele>395.5</ele><time>2026-03-25T18:09:45Z</time></trkpt><trkpt lat="44.44747948495388" lon="7.786086053124003"><ele>395.75</ele><time>2026-03-25T18:09:46Z</time></trkpt><trkpt lat="44.44758205437512" lon="7.786009718038654"><ele>396.0</ele><time>2026-03-25T18:09:47Z</time></trkpt><trkpt lat="44.447682005683" lon="7.785927582646446"><ele>396.0</ele><time>2026-03-25T18:09:48Z</time></trkpt><trkpt lat="44.44778760908597" lon="7.785845887281266"><ele>396.0</ele><time>2026-03-25T18:09:49Z</time></trkpt><trkpt lat="44.447881096211184" lon="7.785769995750243"><ele>396.0</ele><time>2026-03-25T18:09:50Z</time></trkpt><trkpt lat="44.44797984082316" lon="7.78569613562904"><ele>396.0</ele><time>2026-03-25T18:09:51Z</time></trkpt><trkpt lat="44.44807852415565" lon="7.785618668630616"><ele>395.75</ele><time>2026-03-25T18:09:52Z</time></trkpt><trkpt lat="44.44817864256898" lon="7.7855510973973745"><ele>395.5</ele><time>2026-03-25T18:09:53Z</time></trkpt><trkpt lat="44.44827769155772" lon="7.785474452948997"><ele>395.25</ele><time>2026-03-25T18:09:54Z</time></trkpt><trkpt lat="44.448380986512504" lon="7.785393552179767"><ele>395.0</ele><time>2026-03-25T18:09:55Z</time></trkpt><trkpt lat="44.44847963271033" lon="7.7853105000185625"><ele>395.0</ele><time>2026-03-25T18:09:56Z</time></trkpt><trkpt lat="44.44857959556325" lon="7.785232643851415"><ele>395.0</ele><time>2026-03-25T18:09:57Z</time></trkpt><trkpt lat="44.44868087769089" lon="7.785160053067949"><ele>395.0</ele><time>2026-03-25T18:09:58Z</time></trkpt><trkpt lat="44.448780666878086" lon="7.785080663690624"><ele>395.0</ele><time>2026-03-25T18:09:59Z</time></trkpt><trkpt lat="44.4488780067431" lon="7.785000084446182"><ele>394.75</ele><time>2026-03-25T18:10:00Z</time></trkpt><trkpt lat="44.44898440976487" lon="7.784923369903724"><ele>394.5</ele><time>2026-03-25T18:10:01Z</time></trkpt><trkpt lat="44.4490854958191" lon="7.784848285397557"><ele>394.25</ele><time>2026-03-25T18:10:02Z</time></trkpt><trkpt lat="44.44917691775981" lon="7.784774651456973"><ele>394.0</ele><time>2026-03-25T18:10:02.999Z</time></trkpt><trkpt lat="44.44927409507009" lon="7.784695817099773"><ele>394.0</ele><time>2026-03-25T18:10:03.999Z</time></trkpt><trkpt lat="44.44937238187489" lon="7.784622163884184"><ele>394.0</ele><time>2026-03-25T18:10:04.999Z</time></trkpt><trkpt lat="44.44947801381907" lon="7.784543631210898"><ele>394.0</ele><time>2026-03-25T18:10:05.999Z</time></trkpt><trkpt lat="44.44957840233272" lon="7.784462391533046"><ele>394.0</ele><time>2026-03-25T18:10:06.999Z</time></trkpt><trkpt lat="44.44968520812651" lon="7.784381136164839"><ele>394.0</ele><time>2026-03-25T18:10:07.999Z</time></trkpt><trkpt lat="44.44979403732942" lon="7.784299400945516"><ele>394.0</ele><time>2026-03-25T18:10:08.999Z</time></trkpt><trkpt lat="44.44990367404508" lon="7.78421749955884"><ele>394.0</ele><time>2026-03-25T18:10:09.999Z</time></trkpt><trkpt lat="44.450011653175466" lon="7.784133893172999"><ele>394.0</ele><time>2026-03-25T18:10:10.999Z</time></trkpt><trkpt lat="44.450119665717324" lon="7.7840617536425585"><ele>394.0</ele><time>2026-03-25T18:10:11.999Z</time></trkpt><trkpt lat="44.45022470871959" lon="7.783986507162287"><ele>394.0</ele><time>2026-03-25T18:10:12.999Z</time></trkpt><trkpt lat="44.45033346699668" lon="7.783902760351482"><ele>394.0</ele><time>2026-03-25T18:10:13.999Z</time></trkpt><trkpt lat="44.45044350844161" lon="7.783821280171387"><ele>394.0</ele><time>2026-03-25T18:10:14.999Z</time></trkpt><trkpt lat="44.45054853126741" lon="7.783743771336759"><ele>394.25</ele><time>2026-03-25T18:10:15.999Z</time></trkpt><trkpt lat="44.450648808564196" lon="7.783670569141161"><ele>394.5</ele><time>2026-03-25T18:10:16.999Z</time></trkpt><trkpt lat="44.450747866442825" lon="7.78359213433169"><ele>394.75</ele><time>2026-03-25T18:10:17.999Z</time></trkpt><trkpt lat="44.45085310325385" lon="7.78351019706799"><ele>395.0</ele><time>2026-03-25T18:10:18.999Z</time></trkpt><trkpt lat="44.450960559617926" lon="7.783425271676147"><ele>395.0</ele><time>2026-03-25T18:10:19.999Z</time></trkpt><trkpt lat="44.45106801672656" lon="7.78334300771051"><ele>395.0</ele><time>2026-03-25T18:10:20.999Z</time></trkpt><trkpt lat="44.45117416208568" lon="7.783266070706137"><ele>395.0</ele><time>2026-03-25T18:10:21.999Z</time></trkpt><trkpt lat="44.45127681185292" lon="7.783189216474728"><ele>395.0</ele><time>2026-03-25T18:10:22.999Z</time></trkpt><trkpt lat="44.45137579229233" lon="7.783112863600053"><ele>395.2</ele><time>2026-03-25T18:10:23.999Z</time></trkpt><trkpt lat="44.451475189671534" lon="7.783038164149569"><ele>395.4</ele><time>2026-03-25T18:10:24.999Z</time></trkpt><trkpt lat="44.45156401288134" lon="7.782971749791802"><ele>395.6</ele><time>2026-03-25T18:10:25.999Z</time></trkpt><trkpt lat="44.45164503334336" lon="7.782911096861088"><ele>395.8</ele><time>2026-03-25T18:10:26.999Z</time></trkpt><trkpt lat="44.45172450727208" lon="7.782857597511581"><ele>396.0</ele><time>2026-03-25T18:10:27.999Z</time></trkpt><trkpt lat="44.45179760008738" lon="7.7828004802138775"><ele>396.0</ele><time>2026-03-25T18:10:28.999Z</time></trkpt><trkpt lat="44.451875228895624" lon="7.782743135518061"><ele>396.0</ele><time>2026-03-25T18:10:29.999Z</time></trkpt><trkpt lat="44.45195294411117" lon="7.782681163708227"><ele>396.0</ele><time>2026-03-25T18:10:30.999Z</time></trkpt><trkpt lat="44.452039218293805" lon="7.7826232371924835"><ele>396.0</ele><time>2026-03-25T18:10:31.999Z</time></trkpt><trkpt lat="44.45212229890808" lon="7.782563632945405"><ele>396.0</ele><time>2026-03-25T18:10:32.999Z</time></trkpt><trkpt lat="44.452214148817156" lon="7.78249809213831"><ele>396.6</ele><time>2026-03-25T18:10:33.999Z</time></trkpt><trkpt lat="44.452310872507745" lon="7.7824273517159765"><ele>397.20000000000005</ele><time>2026-03-25T18:10:34.999Z</time></trkpt><trkpt lat="44.45240162702119" lon="7.782352479004827"><ele>397.79999999999995</ele><time>2026-03-25T18:10:35.999Z</time></trkpt><trkpt lat="44.452484027682" lon="7.782288848955833"><ele>398.4</ele><time>2026-03-25T18:10:36.999Z</time></trkpt><trkpt lat="44.452561283131466" lon="7.782233235072765"><ele>399.0</ele><time>2026-03-25T18:10:37.999Z</time></trkpt><trkpt lat="44.452631288505366" lon="7.782177892281196"><ele>399.0</ele><time>2026-03-25T18:10:38.999Z</time></trkpt><trkpt lat="44.45269483792318" lon="7.782126675608254"><ele>399.0</ele><time>2026-03-25T18:10:39.999Z</time></trkpt><trkpt lat="44.45275540200717" lon="7.7820832869983265"><ele>399.0</ele><time>2026-03-25T18:10:40.999Z</time></trkpt><trkpt lat="44.452820308432344" lon="7.782034024468239"><ele>399.0</ele><time>2026-03-25T18:10:41.999Z</time></trkpt><trkpt lat="44.45288260382343" lon="7.781983829943666"><ele>399.0</ele><time>2026-03-25T18:10:42.999Z</time></trkpt><trkpt lat="44.45297140845934" lon="7.781923781114935"><ele>399.0</ele><time>2026-03-25T18:10:44.999Z</time></trkpt><trkpt lat="44.45304305506705" lon="7.7819253851703625"><ele>399.3333333333333</ele><time>2026-03-25T18:10:46.999Z</time></trkpt><trkpt lat="44.45303139896594" lon="7.782012625044415"><ele>399.66666666666663</ele><time>2026-03-25T18:10:47.999Z</time></trkpt><trkpt lat="44.453062865492875" lon="7.782105472711589"><ele>400.0</ele><time>2026-03-25T18:10:48.999Z</time></trkpt><trkpt lat="44.453099111075325" lon="7.782199456577741"><ele>400.3333333333333</ele><time>2026-03-25T18:10:49.999Z</time></trkpt><trkpt lat="44.45313777574673" lon="7.78230274454681"><ele>400.66666666666663</ele><time>2026-03-25T18:10:50.999Z</time></trkpt><trkpt lat="44.453179392160685" lon="7.782412851166312"><ele>401.0</ele><time>2026-03-25T18:10:51.999Z</time></trkpt><trkpt lat="44.45323154208969" lon="7.7825507717322555"><ele>401.0</ele><time>2026-03-25T18:10:52.999Z</time></trkpt><trkpt lat="44.453278281153295" lon="7.782678142900217"><ele>401.0</ele><time>2026-03-25T18:10:53.999Z</time></trkpt><trkpt lat="44.45332711512988" lon="7.782820547019054"><ele>401.0</ele><time>2026-03-25T18:10:54.999Z</time></trkpt><trkpt lat="44.453369889728904" lon="7.782943353489236"><ele>401.0</ele><time>2026-03-25T18:10:55.999Z</time></trkpt><trkpt lat="44.45341178124029" lon="7.783089539498288"><ele>401.0</ele><time>2026-03-25T18:10:56.999Z</time></trkpt><trkpt lat="44.45344289366331" lon="7.783222583271974"><ele>401.0</ele><time>2026-03-25T18:10:57.998Z</time></trkpt><trkpt lat="44.453473293971435" lon="7.783353257164718"><ele>401.0</ele><time>2026-03-25T18:10:58.998Z</time></trkpt><trkpt lat="44.45350516237503" lon="7.783477005926428"><ele>401.0</ele><time>2026-03-25T18:10:59.998Z</time></trkpt><trkpt lat="44.45353661995804" lon="7.783600252684891"><ele>401.0</ele><time>2026-03-25T18:11:00.998Z</time></trkpt><trkpt lat="44.45356927634003" lon="7.783728342447738"><ele>401.0</ele><time>2026-03-25T18:11:01.998Z</time></trkpt><trkpt lat="44.45360727814596" lon="7.783867310454016"><ele>400.8</ele><time>2026-03-25T18:11:02.998Z</time></trkpt><trkpt lat="44.45364478085653" lon="7.784003156621207"><ele>400.6</ele><time>2026-03-25T18:11:03.998Z</time></trkpt><trkpt lat="44.453684050890665" lon="7.784147341662476"><ele>400.4</ele><time>2026-03-25T18:11:04.998Z</time></trkpt><trkpt lat="44.453723376728426" lon="7.784296361651991"><ele>400.2</ele><time>2026-03-25T18:11:05.998Z</time></trkpt><trkpt lat="44.45377042681326" lon="7.784446179056689"><ele>400.0</ele><time>2026-03-25T18:11:06.998Z</time></trkpt><trkpt lat="44.453809751306544" lon="7.784579039977829"><ele>400.0</ele><time>2026-03-25T18:11:07.998Z</time></trkpt><trkpt lat="44.45384534410191" lon="7.784717603902882"><ele>400.0</ele><time>2026-03-25T18:11:08.998Z</time></trkpt><trkpt lat="44.453884526997456" lon="7.784858694648619"><ele>400.0</ele><time>2026-03-25T18:11:09.998Z</time></trkpt><trkpt lat="44.45392507741705" lon="7.7850087367004"><ele>400.0</ele><time>2026-03-25T18:11:10.998Z</time></trkpt><trkpt lat="44.45395553902979" lon="7.785139648757602"><ele>400.0</ele><time>2026-03-25T18:11:11.998Z</time></trkpt><trkpt lat="44.45399261729011" lon="7.785258362253504"><ele>400.2</ele><time>2026-03-25T18:11:12.998Z</time></trkpt><trkpt lat="44.45402636759932" lon="7.785382037059446"><ele>400.4</ele><time>2026-03-25T18:11:13.998Z</time></trkpt><trkpt lat="44.454062947986685" lon="7.785512892398936"><ele>400.6</ele><time>2026-03-25T18:11:14.998Z</time></trkpt><trkpt lat="44.45410280700784" lon="7.785646802363944"><ele>400.8</ele><time>2026-03-25T18:11:15.998Z</time></trkpt><trkpt lat="44.454145684713644" lon="7.785783757573023"><ele>401.0</ele><time>2026-03-25T18:11:16.998Z</time></trkpt><trkpt lat="44.45418295945284" lon="7.785917621863575"><ele>401.0</ele><time>2026-03-25T18:11:17.998Z</time></trkpt><trkpt lat="44.45421329588838" lon="7.786058230278849"><ele>401.0</ele><time>2026-03-25T18:11:18.998Z</time></trkpt><trkpt lat="44.45424572486024" lon="7.7862024029832195"><ele>401.0</ele><time>2026-03-25T18:11:19.998Z</time></trkpt><trkpt lat="44.45428277398368" lon="7.786344841537714"><ele>401.0</ele><time>2026-03-25T18:11:20.998Z</time></trkpt><trkpt lat="44.45432297358187" lon="7.786498569488823"><ele>401.0</ele><time>2026-03-25T18:11:21.998Z</time></trkpt><trkpt lat="44.45436147822813" lon="7.786639164280021"><ele>401.0</ele><time>2026-03-25T18:11:22.998Z</time></trkpt><trkpt lat="44.4543957313368" lon="7.786768576370818"><ele>401.0</ele><time>2026-03-25T18:11:23.998Z</time></trkpt><trkpt lat="44.45443292098152" lon="7.786902868250629"><ele>401.0</ele><time>2026-03-25T18:11:24.998Z</time></trkpt><trkpt lat="44.45449031373643" lon="7.787021186780904"><ele>401.0</ele><time>2026-03-25T18:11:25.998Z</time></trkpt><trkpt lat="44.45454588078105" lon="7.787134631287266"><ele>401.0</ele><time>2026-03-25T18:11:26.998Z</time></trkpt><trkpt lat="44.454603424247985" lon="7.787270853209454"><ele>401.0</ele><time>2026-03-25T18:11:27.998Z</time></trkpt><trkpt lat="44.45465957468285" lon="7.787410851966295"><ele>401.0</ele><time>2026-03-25T18:11:28.998Z</time></trkpt><trkpt lat="44.45472080243762" lon="7.787525307641363"><ele>401.0</ele><time>2026-03-25T18:11:30Z</time></trkpt><trkpt lat="44.454777731086125" lon="7.78764446517518"><ele>401.0</ele><time>2026-03-25T18:11:31Z</time></trkpt><trkpt lat="44.45483188229216" lon="7.78775457271084"><ele>401.0</ele><time>2026-03-25T18:11:32Z</time></trkpt><trkpt lat="44.45488196853009" lon="7.787857133399909"><ele>400.99999999999994</ele><time>2026-03-25T18:11:33Z</time></trkpt><trkpt lat="44.45492533002732" lon="7.787949711388236"><ele>401.0</ele><time>2026-03-25T18:11:34Z</time></trkpt><trkpt lat="44.454966808452696" lon="7.788034042315666"><ele>401.0</ele><time>2026-03-25T18:11:35Z</time></trkpt><trkpt lat="44.455004721558325" lon="7.788117426290969"><ele>401.0</ele><time>2026-03-25T18:11:36Z</time></trkpt><trkpt lat="44.45505038587096" lon="7.788231342626322"><ele>400.99999999999994</ele><time>2026-03-25T18:11:38Z</time></trkpt><trkpt lat="44.45506936022822" lon="7.7883182798976165"><ele>401.0</ele><time>2026-03-25T18:11:40Z</time></trkpt><trkpt lat="44.45495282034023" lon="7.788424511149223"><ele>400.99999999999994</ele><time>2026-03-25T18:11:43Z</time></trkpt><trkpt lat="44.45487444316641" lon="7.788486218825557"><ele>401.0</ele><time>2026-03-25T18:11:45Z</time></trkpt><trkpt lat="44.45481696230427" lon="7.788539965095295"><ele>401.0</ele><time>2026-03-25T18:11:47Z</time></trkpt><trkpt lat="44.45475838676106" lon="7.788635018331334"><ele>401.0</ele><time>2026-03-25T18:11:49Z</time></trkpt><trkpt lat="44.45472827547793" lon="7.788725522866439"><ele>400.99999999999994</ele><time>2026-03-25T18:11:51Z</time></trkpt><trkpt lat="44.45464108751216" lon="7.788803817132622"><ele>401.0</ele><time>2026-03-25T18:11:53Z</time></trkpt><trkpt lat="44.45456279398489" lon="7.788853781815528"><ele>400.0</ele><time>2026-03-25T18:11:55Z</time></trkpt><trkpt lat="44.45450342550396" lon="7.7888899520388515"><ele>399.0</ele><time>2026-03-25T18:11:57Z</time></trkpt><trkpt lat="44.45437727901103" lon="7.7889612316155725"><ele>398.0</ele><time>2026-03-25T18:11:59Z</time></trkpt><trkpt lat="44.45429606336143" lon="7.789006327768383"><ele>397.0</ele><time>2026-03-25T18:12:00Z</time></trkpt><trkpt lat="44.454204492065685" lon="7.789053279956854"><ele>396.0</ele><time>2026-03-25T18:12:01Z</time></trkpt><trkpt lat="44.454091779267536" lon="7.789111070827737"><ele>396.0</ele><time>2026-03-25T18:12:02Z</time></trkpt><trkpt lat="44.45398161708795" lon="7.789180374321203"><ele>396.0</ele><time>2026-03-25T18:12:03Z</time></trkpt><trkpt lat="44.453842744833686" lon="7.78921025440973"><ele>396.0</ele><time>2026-03-25T18:12:04Z</time></trkpt><trkpt lat="44.453706583020534" lon="7.78925887147382"><ele>396.0</ele><time>2026-03-25T18:12:05Z</time></trkpt><trkpt lat="44.453550391457625" lon="7.789314781512482"><ele>394.66666666666663</ele><time>2026-03-25T18:12:06Z</time></trkpt><trkpt lat="44.45338452634921" lon="7.789374261676784"><ele>393.3333333333333</ele><time>2026-03-25T18:12:07Z</time></trkpt><trkpt lat="44.45321719394769" lon="7.7894336682158"><ele>392.0</ele><time>2026-03-25T18:12:08Z</time></trkpt><trkpt lat="44.45304810386761" lon="7.789493698720522"><ele>392.3333333333333</ele><time>2026-03-25T18:12:09Z</time></trkpt><trkpt lat="44.45288291890753" lon="7.789552342836366"><ele>392.66666666666663</ele><time>2026-03-25T18:12:10Z</time></trkpt><trkpt lat="44.452732405707984" lon="7.7896055575299785"><ele>393.0</ele><time>2026-03-25T18:12:11Z</time></trkpt><trkpt lat="44.452590324959814" lon="7.789655157046055"><ele>393.0</ele><time>2026-03-25T18:12:11.999Z</time></trkpt><trkpt lat="44.45245205759421" lon="7.789705362624434"><ele>393.0</ele><time>2026-03-25T18:12:12.999Z</time></trkpt><trkpt lat="44.45231123744822" lon="7.789763613397072"><ele>393.0</ele><time>2026-03-25T18:12:13.999Z</time></trkpt><trkpt lat="44.45216136336652" lon="7.789836849650508"><ele>393.0</ele><time>2026-03-25T18:12:14.999Z</time></trkpt><trkpt lat="44.4520205516911" lon="7.789913143174148"><ele>393.0</ele><time>2026-03-25T18:12:15.999Z</time></trkpt><trkpt lat="44.45186900320297" lon="7.789997136254882"><ele>393.0</ele><time>2026-03-25T18:12:16.999Z</time></trkpt><trkpt lat="44.451714502410994" lon="7.790084771906941"><ele>393.0</ele><time>2026-03-25T18:12:17.999Z</time></trkpt><trkpt lat="44.45155611822682" lon="7.7901778174902265"><ele>392.66666666666663</ele><time>2026-03-25T18:12:18.999Z</time></trkpt><trkpt lat="44.4513950083649" lon="7.7902724642365095"><ele>392.3333333333333</ele><time>2026-03-25T18:12:19.999Z</time></trkpt><trkpt lat="44.451226713253206" lon="7.79037291939709"><ele>392.0</ele><time>2026-03-25T18:12:20.999Z</time></trkpt><trkpt lat="44.45105995692187" lon="7.790472645740897"><ele>391.3333333333333</ele><time>2026-03-25T18:12:21.999Z</time></trkpt><trkpt lat="44.450892151785666" lon="7.790572999385765"><ele>390.66666666666663</ele><time>2026-03-25T18:12:22.999Z</time></trkpt><trkpt lat="44.45073507499653" lon="7.790666936990137"><ele>390.0</ele><time>2026-03-25T18:12:23.999Z</time></trkpt><trkpt lat="44.45058615181819" lon="7.790755822688632"><ele>390.0</ele><time>2026-03-25T18:12:24.999Z</time></trkpt><trkpt lat="44.4504495003314" lon="7.790838052841327"><ele>390.0</ele><time>2026-03-25T18:12:25.999Z</time></trkpt><trkpt lat="44.45031907723494" lon="7.790915102003732"><ele>390.0</ele><time>2026-03-25T18:12:26.999Z</time></trkpt><trkpt lat="44.450195755112155" lon="7.790988241743335"><ele>390.0</ele><time>2026-03-25T18:12:27.999Z</time></trkpt><trkpt lat="44.45006583652223" lon="7.791072017006073"><ele>390.0</ele><time>2026-03-25T18:12:28.999Z</time></trkpt><trkpt lat="44.449944116836434" lon="7.791187057302379"><ele>390.0</ele><time>2026-03-25T18:12:29.999Z</time></trkpt><trkpt lat="44.44980799706434" lon="7.791269542187969"><ele>390.0</ele><time>2026-03-25T18:12:30.999Z</time></trkpt><trkpt lat="44.44968999136259" lon="7.7913654652715"><ele>390.0</ele><time>2026-03-25T18:12:31.999Z</time></trkpt><trkpt lat="44.44959308390918" lon="7.7914463845686805"><ele>390.0</ele><time>2026-03-25T18:12:32.999Z</time></trkpt><trkpt lat="44.44948139877906" lon="7.7915435798070645"><ele>390.0</ele><time>2026-03-25T18:12:33.999Z</time></trkpt><trkpt lat="44.449369654006084" lon="7.791652468157276"><ele>390.0</ele><time>2026-03-25T18:12:34.999Z</time></trkpt><trkpt lat="44.44926778919047" lon="7.791787573615776"><ele>390.0</ele><time>2026-03-25T18:12:35.999Z</time></trkpt><trkpt lat="44.44916014933733" lon="7.79190638115459"><ele>390.25</ele><time>2026-03-25T18:12:36.999Z</time></trkpt><trkpt lat="44.44906954909596" lon="7.792022969463136"><ele>390.5</ele><time>2026-03-25T18:12:37.999Z</time></trkpt><trkpt lat="44.44898165111937" lon="7.792134156143066"><ele>390.75</ele><time>2026-03-25T18:12:38.999Z</time></trkpt><trkpt lat="44.44890181033332" lon="7.792240030435258"><ele>391.0</ele><time>2026-03-25T18:12:39.999Z</time></trkpt><trkpt lat="44.44881708168112" lon="7.79234378931835"><ele>391.0</ele><time>2026-03-25T18:12:40.999Z</time></trkpt><trkpt lat="44.44872998032267" lon="7.792463601740444"><ele>391.0</ele><time>2026-03-25T18:12:41.999Z</time></trkpt><trkpt lat="44.44862837794422" lon="7.792565273704137"><ele>391.0</ele><time>2026-03-25T18:12:42.999Z</time></trkpt><trkpt lat="44.44854014942995" lon="7.792672719197198"><ele>391.0</ele><time>2026-03-25T18:12:43.999Z</time></trkpt><trkpt lat="44.44845374503606" lon="7.79277942014074"><ele>390.75</ele><time>2026-03-25T18:12:44.999Z</time></trkpt><trkpt lat="44.44837619531495" lon="7.792882244767478"><ele>390.5</ele><time>2026-03-25T18:12:45.999Z</time></trkpt><trkpt lat="44.44829200504444" lon="7.792992008972051"><ele>390.25</ele><time>2026-03-25T18:12:46.999Z</time></trkpt><trkpt lat="44.44820281386843" lon="7.793108293273948"><ele>390.0</ele><time>2026-03-25T18:12:47.999Z</time></trkpt><trkpt lat="44.44813246173138" lon="7.7932311316521155"><ele>390.0</ele><time>2026-03-25T18:12:48.999Z</time></trkpt><trkpt lat="44.448046808127515" lon="7.793332809382911"><ele>390.0</ele><time>2026-03-25T18:12:49.999Z</time></trkpt><trkpt lat="44.447954975169175" lon="7.793434376412014"><ele>390.0</ele><time>2026-03-25T18:12:50.999Z</time></trkpt><trkpt lat="44.447854752649796" lon="7.7934981391237566"><ele>390.0</ele><time>2026-03-25T18:12:51.999Z</time></trkpt><trkpt lat="44.44776927486131" lon="7.793570689738485"><ele>390.0</ele><time>2026-03-25T18:12:52.999Z</time></trkpt><trkpt lat="44.4476912886662" lon="7.793636691953949"><ele>389.3333333333333</ele><time>2026-03-25T18:12:53.999Z</time></trkpt><trkpt lat="44.44761504926484" lon="7.793699294309972"><ele>388.66666666666663</ele><time>2026-03-25T18:12:54.999Z</time></trkpt><trkpt lat="44.4475563742598" lon="7.793769511388708"><ele>388.0</ele><time>2026-03-25T18:12:55.999Z</time></trkpt><trkpt lat="44.44750039478132" lon="7.793811050599401"><ele>387.3333333333333</ele><time>2026-03-25T18:12:56.999Z</time></trkpt><trkpt lat="44.447405741999404" lon="7.793870438789638"><ele>386.66666666666663</ele><time>2026-03-25T18:12:58.999Z</time></trkpt><trkpt lat="44.447345067543885" lon="7.793908872596257"><ele>386.0</ele><time>2026-03-25T18:13:00.999Z</time></trkpt><trkpt lat="44.44728819454414" lon="7.793946697600644"><ele>386.0</ele><time>2026-03-25T18:13:05.999Z</time></trkpt><trkpt lat="44.447349761294674" lon="7.794156071532062"><ele>386.0</ele><time>2026-03-25T18:13:09.998Z</time></trkpt><trkpt lat="44.447410874826915" lon="7.794215104559315"><ele>386.0</ele><time>2026-03-25T18:13:10.998Z</time></trkpt><trkpt lat="44.44748841178359" lon="7.794296631841071"><ele>386.0</ele><time>2026-03-25T18:13:11.998Z</time></trkpt><trkpt lat="44.447566215275494" lon="7.794384248737794"><ele>386.0</ele><time>2026-03-25T18:13:12.998Z</time></trkpt><trkpt lat="44.44765490223509" lon="7.79449450587261"><ele>385.75</ele><time>2026-03-25T18:13:13.998Z</time></trkpt><trkpt lat="44.44776400526738" lon="7.794611327056757"><ele>385.5</ele><time>2026-03-25T18:13:14.998Z</time></trkpt><trkpt lat="44.44786804470699" lon="7.7947353026692365"><ele>385.25</ele><time>2026-03-25T18:13:15.998Z</time></trkpt><trkpt lat="44.447983829304896" lon="7.79487943296161"><ele>385.0</ele><time>2026-03-25T18:13:16.998Z</time></trkpt><trkpt lat="44.44809918178356" lon="7.795013823808676"><ele>385.0</ele><time>2026-03-25T18:13:17.998Z</time></trkpt><trkpt lat="44.44822319698948" lon="7.795151371844826"><ele>385.0</ele><time>2026-03-25T18:13:18.998Z</time></trkpt><trkpt lat="44.44835839459926" lon="7.7953034693873375"><ele>385.0</ele><time>2026-03-25T18:13:19.998Z</time></trkpt><trkpt lat="44.44850016471397" lon="7.795465047022969"><ele>385.33333333333337</ele><time>2026-03-25T18:13:20.998Z</time></trkpt><trkpt lat="44.4486388527341" lon="7.795620648601292"><ele>385.66666666666663</ele><time>2026-03-25T18:13:21.998Z</time></trkpt><trkpt lat="44.448782525866335" lon="7.795786105914652"><ele>386.0</ele><time>2026-03-25T18:13:22.998Z</time></trkpt><trkpt lat="44.44893384221776" lon="7.795960183615531"><ele>386.0</ele><time>2026-03-25T18:13:23.998Z</time></trkpt><trkpt lat="44.44908996323893" lon="7.796142658552527"><ele>386.0</ele><time>2026-03-25T18:13:24.998Z</time></trkpt><trkpt lat="44.449248562478694" lon="7.7963225630947965"><ele>386.0</ele><time>2026-03-25T18:13:25.998Z</time></trkpt><trkpt lat="44.44940998787698" lon="7.796505879172292"><ele>386.0</ele><time>2026-03-25T18:13:26.998Z</time></trkpt><trkpt lat="44.449560788331866" lon="7.796673659374194"><ele>386.0</ele><time>2026-03-25T18:13:27.998Z</time></trkpt><trkpt lat="44.44969711012754" lon="7.796856271943508"><ele>386.0</ele><time>2026-03-25T18:13:28.998Z</time></trkpt><trkpt lat="44.449847093406404" lon="7.797051895489194"><ele>386.66666666666663</ele><time>2026-03-25T18:13:29.998Z</time></trkpt><trkpt lat="44.44998597592945" lon="7.7972472482373"><ele>387.33333333333337</ele><time>2026-03-25T18:13:30.998Z</time></trkpt><trkpt lat="44.450127180839765" lon="7.797460343881698"><ele>388.0</ele><time>2026-03-25T18:13:31.998Z</time></trkpt><trkpt lat="44.45026086594454" lon="7.7976758795787795"><ele>388.0</ele><time>2026-03-25T18:13:32.998Z</time></trkpt><trkpt lat="44.45039056052059" lon="7.797887796050132"><ele>388.0</ele><time>2026-03-25T18:13:33.998Z</time></trkpt><trkpt lat="44.4505165188108" lon="7.798106202508088"><ele>388.0</ele><time>2026-03-25T18:13:34.998Z</time></trkpt><trkpt lat="44.4506436681403" lon="7.798332570669196"><ele>388.33333333333337</ele><time>2026-03-25T18:13:36Z</time></trkpt><trkpt lat="44.450761975016256" lon="7.798553762326324"><ele>388.66666666666663</ele><time>2026-03-25T18:13:37Z</time></trkpt><trkpt lat="44.450867392569734" lon="7.798758831717153"><ele>389.0</ele><time>2026-03-25T18:13:38Z</time></trkpt><trkpt lat="44.45096867520281" lon="7.798965031936915"><ele>389.0</ele><time>2026-03-25T18:13:39Z</time></trkpt><trkpt lat="44.45107683183692" lon="7.79919533439146"><ele>389.0</ele><time>2026-03-25T18:13:40Z</time></trkpt><trkpt lat="44.451185771165136" lon="7.799423784967813"><ele>389.0</ele><time>2026-03-25T18:13:41Z</time></trkpt><trkpt lat="44.45129187235155" lon="7.799661901374652"><ele>389.0</ele><time>2026-03-25T18:13:42Z</time></trkpt><trkpt lat="44.45139984933035" lon="7.799910762921013"><ele>389.0</ele><time>2026-03-25T18:13:43Z</time></trkpt><trkpt lat="44.45150502913454" lon="7.800162766619687"><ele>389.0</ele><time>2026-03-25T18:13:44Z</time></trkpt><trkpt lat="44.45161354482997" lon="7.8004327571840415"><ele>388.5</ele><time>2026-03-25T18:13:45Z</time></trkpt><trkpt lat="44.451722021841974" lon="7.800711622522468"><ele>388.0</ele><time>2026-03-25T18:13:46Z</time></trkpt><trkpt lat="44.4518390638966" lon="7.800991432712605"><ele>388.0</ele><time>2026-03-25T18:13:47Z</time></trkpt><trkpt lat="44.45195910081983" lon="7.801274629752735"><ele>388.0</ele><time>2026-03-25T18:13:48Z</time></trkpt><trkpt lat="44.45207829022548" lon="7.801555183237376"><ele>387.6666666666667</ele><time>2026-03-25T18:13:49Z</time></trkpt><trkpt lat="44.45218522503526" lon="7.801811946357053"><ele>387.33333333333337</ele><time>2026-03-25T18:13:50Z</time></trkpt><trkpt lat="44.452289947211796" lon="7.802094776539015"><ele>387.0</ele><time>2026-03-25T18:13:51Z</time></trkpt><trkpt lat="44.45240410456783" lon="7.802366407771716"><ele>386.5</ele><time>2026-03-25T18:13:52Z</time></trkpt><trkpt lat="44.45252049281995" lon="7.802645072371563"><ele>386.0</ele><time>2026-03-25T18:13:53Z</time></trkpt><trkpt lat="44.45264287370163" lon="7.802927554387893"><ele>386.0</ele><time>2026-03-25T18:13:54Z</time></trkpt><trkpt lat="44.45275610634656" lon="7.803179199206591"><ele>386.0</ele><time>2026-03-25T18:13:55Z</time></trkpt><trkpt lat="44.45286701653661" lon="7.803459387993468"><ele>386.0</ele><time>2026-03-25T18:13:56Z</time></trkpt><trkpt lat="44.45298032735498" lon="7.803742787413446"><ele>385.5</ele><time>2026-03-25T18:13:57Z</time></trkpt><trkpt lat="44.453080992258634" lon="7.804010897000971"><ele>385.0</ele><time>2026-03-25T18:13:58Z</time></trkpt><trkpt lat="44.453197847112186" lon="7.804300259835051"><ele>385.5</ele><time>2026-03-25T18:13:59Z</time></trkpt><trkpt lat="44.45331210306182" lon="7.804570633088151"><ele>386.0</ele><time>2026-03-25T18:14:00Z</time></trkpt><trkpt lat="44.45342585788324" lon="7.804845515516602"><ele>386.0</ele><time>2026-03-25T18:14:01Z</time></trkpt><trkpt lat="44.45353235353073" lon="7.805106612098716"><ele>386.0</ele><time>2026-03-25T18:14:02Z</time></trkpt><trkpt lat="44.45363704346766" lon="7.805376523766514"><ele>386.0</ele><time>2026-03-25T18:14:03Z</time></trkpt><trkpt lat="44.45374295027257" lon="7.805628798998649"><ele>386.0</ele><time>2026-03-25T18:14:04Z</time></trkpt><trkpt lat="44.45384834257492" lon="7.805887778350952"><ele>386.0</ele><time>2026-03-25T18:14:05Z</time></trkpt><trkpt lat="44.45395819021791" lon="7.806143325026114"><ele>386.0</ele><time>2026-03-25T18:14:06Z</time></trkpt><trkpt lat="44.45406388870852" lon="7.806392452611497"><ele>386.0</ele><time>2026-03-25T18:14:07Z</time></trkpt><trkpt lat="44.45416771649789" lon="7.806649419550749"><ele>386.0</ele><time>2026-03-25T18:14:08Z</time></trkpt><trkpt lat="44.454270609144" lon="7.806897142676037"><ele>386.0</ele><time>2026-03-25T18:14:09Z</time></trkpt><trkpt lat="44.45438113086171" lon="7.807156616442191"><ele>385.66666666666663</ele><time>2026-03-25T18:14:10Z</time></trkpt><trkpt lat="44.45448782905821" lon="7.807412559819653"><ele>385.33333333333337</ele><time>2026-03-25T18:14:11Z</time></trkpt><trkpt lat="44.45459597236929" lon="7.807675417367341"><ele>385.0</ele><time>2026-03-25T18:14:12Z</time></trkpt><trkpt lat="44.45470273184988" lon="7.807938053324169"><ele>385.0</ele><time>2026-03-25T18:14:13Z</time></trkpt><trkpt lat="44.454803865781216" lon="7.808184524939572"><ele>385.0</ele><time>2026-03-25T18:14:14Z</time></trkpt><trkpt lat="44.45490197538665" lon="7.8084200089368245"><ele>385.0</ele><time>2026-03-25T18:14:15Z</time></trkpt><trkpt lat="44.45499769389086" lon="7.808654819718978"><ele>385.0</ele><time>2026-03-25T18:14:16Z</time></trkpt><trkpt lat="44.4550965321353" lon="7.808888052354886"><ele>385.0</ele><time>2026-03-25T18:14:17Z</time></trkpt><trkpt lat="44.45518915543404" lon="7.809125071151117"><ele>385.0</ele><time>2026-03-25T18:14:18Z</time></trkpt><trkpt lat="44.455287498593826" lon="7.8093605767504775"><ele>384.33333333333337</ele><time>2026-03-25T18:14:18.999Z</time></trkpt><trkpt lat="44.4553880754728" lon="7.809603857443419"><ele>383.6666666666667</ele><time>2026-03-25T18:14:19.999Z</time></trkpt><trkpt lat="44.455490706813336" lon="7.80985046417514"><ele>383.0</ele><time>2026-03-25T18:14:20.999Z</time></trkpt><trkpt lat="44.45559518305088" lon="7.810095712328381"><ele>383.0</ele><time>2026-03-25T18:14:21.999Z</time></trkpt><trkpt lat="44.45570218203369" lon="7.810354072122617"><ele>383.0</ele><time>2026-03-25T18:14:22.999Z</time></trkpt><trkpt lat="44.45581070607533" lon="7.810619389568022"><ele>383.0</ele><time>2026-03-25T18:14:23.999Z</time></trkpt><trkpt lat="44.455917298649744" lon="7.810883522740569"><ele>383.0</ele><time>2026-03-25T18:14:24.999Z</time></trkpt><trkpt lat="44.45603048040633" lon="7.811161108836139"><ele>383.0</ele><time>2026-03-25T18:14:25.999Z</time></trkpt><trkpt lat="44.45615104895207" lon="7.811441057344555"><ele>383.0</ele><time>2026-03-25T18:14:26.999Z</time></trkpt><trkpt lat="44.45627495124728" lon="7.811733407108514"><ele>383.0</ele><time>2026-03-25T18:14:27.999Z</time></trkpt><trkpt lat="44.45639959385174" lon="7.812035005288611"><ele>382.0</ele><time>2026-03-25T18:14:28.999Z</time></trkpt><trkpt lat="44.45653476355132" lon="7.8123302581057175"><ele>381.0</ele><time>2026-03-25T18:14:29.999Z</time></trkpt><trkpt lat="44.45665287583441" lon="7.812617004404199"><ele>381.0</ele><time>2026-03-25T18:14:30.999Z</time></trkpt><trkpt lat="44.45676016674012" lon="7.812888606827237"><ele>381.0</ele><time>2026-03-25T18:14:31.999Z</time></trkpt><trkpt lat="44.45687718376729" lon="7.813182134337406"><ele>381.0</ele><time>2026-03-25T18:14:32.999Z</time></trkpt><trkpt lat="44.45699508159168" lon="7.813466452120611"><ele>381.0</ele><time>2026-03-25T18:14:33.999Z</time></trkpt><trkpt lat="44.45711840734531" lon="7.813770517091575"><ele>381.0</ele><time>2026-03-25T18:14:34.999Z</time></trkpt><trkpt lat="44.45723214500825" lon="7.814055617363306"><ele>381.0</ele><time>2026-03-25T18:14:35.999Z</time></trkpt><trkpt lat="44.45734132127179" lon="7.814327308658241"><ele>380.6666666666667</ele><time>2026-03-25T18:14:36.999Z</time></trkpt><trkpt lat="44.457460004888155" lon="7.814584484997588"><ele>380.33333333333337</ele><time>2026-03-25T18:14:37.999Z</time></trkpt><trkpt lat="44.45757215542259" lon="7.814857473851574"><ele>380.0</ele><time>2026-03-25T18:14:38.999Z</time></trkpt><trkpt lat="44.45768334598039" lon="7.8151164128207355"><ele>380.33333333333337</ele><time>2026-03-25T18:14:39.999Z</time></trkpt><trkpt lat="44.45778629273782" lon="7.815374192814207"><ele>380.6666666666667</ele><time>2026-03-25T18:14:40.999Z</time></trkpt><trkpt lat="44.45789253613378" lon="7.815631694693439"><ele>381.0</ele><time>2026-03-25T18:14:41.999Z</time></trkpt><trkpt lat="44.45799972862223" lon="7.815898275193313"><ele>380.6666666666667</ele><time>2026-03-25T18:14:42.999Z</time></trkpt><trkpt lat="44.45810820741588" lon="7.816149164953558"><ele>380.33333333333337</ele><time>2026-03-25T18:14:43.999Z</time></trkpt><trkpt lat="44.45821426827025" lon="7.816409329955527"><ele>380.0</ele><time>2026-03-25T18:14:44.999Z</time></trkpt><trkpt lat="44.45830943849092" lon="7.816649506194282"><ele>380.0</ele><time>2026-03-25T18:14:45.999Z</time></trkpt><trkpt lat="44.45840883685966" lon="7.816886136224561"><ele>380.0</ele><time>2026-03-25T18:14:46.999Z</time></trkpt><trkpt lat="44.458502963903946" lon="7.817129569829821"><ele>380.0</ele><time>2026-03-25T18:14:47.999Z</time></trkpt><trkpt lat="44.458601131443785" lon="7.817364794959672"><ele>380.0</ele><time>2026-03-25T18:14:48.999Z</time></trkpt><trkpt lat="44.45870269605289" lon="7.817601803679054"><ele>380.0</ele><time>2026-03-25T18:14:49.999Z</time></trkpt><trkpt lat="44.458792603373496" lon="7.817819075997276"><ele>380.0</ele><time>2026-03-25T18:14:50.999Z</time></trkpt><trkpt lat="44.45888322203162" lon="7.818050693164702"><ele>380.33333333333337</ele><time>2026-03-25T18:14:51.999Z</time></trkpt><trkpt lat="44.45898516804224" lon="7.81828431623071"><ele>380.6666666666667</ele><time>2026-03-25T18:14:52.999Z</time></trkpt><trkpt lat="44.45907503284454" lon="7.818508928058288"><ele>381.0</ele><time>2026-03-25T18:14:53.999Z</time></trkpt><trkpt lat="44.45916746841919" lon="7.818732172366009"><ele>381.3333333333333</ele><time>2026-03-25T18:14:54.999Z</time></trkpt><trkpt lat="44.459258525006376" lon="7.8189483118005585"><ele>381.66666666666663</ele><time>2026-03-25T18:14:55.999Z</time></trkpt><trkpt lat="44.459335583352775" lon="7.819149890805514"><ele>382.0</ele><time>2026-03-25T18:14:56.999Z</time></trkpt><trkpt lat="44.45941367427528" lon="7.81932921597592"><ele>381.5</ele><time>2026-03-25T18:14:57.999Z</time></trkpt><trkpt lat="44.45948611063251" lon="7.819498957851964"><ele>381.0</ele><time>2026-03-25T18:14:58.999Z</time></trkpt><trkpt lat="44.45955411709818" lon="7.8196693224617695"><ele>380.5</ele><time>2026-03-25T18:14:59.999Z</time></trkpt><trkpt lat="44.45962231135935" lon="7.81983352021669"><ele>380.0</ele><time>2026-03-25T18:15:00.999Z</time></trkpt><trkpt lat="44.45968837713955" lon="7.82000419588993"><ele>379.75</ele><time>2026-03-25T18:15:01.999Z</time></trkpt><trkpt lat="44.4597593416315" lon="7.820176226081762"><ele>379.5</ele><time>2026-03-25T18:15:02.999Z</time></trkpt><trkpt lat="44.459831889486864" lon="7.8203605113775465"><ele>379.25</ele><time>2026-03-25T18:15:03.999Z</time></trkpt><trkpt lat="44.459895691104975" lon="7.8205171045449084"><ele>379.0</ele><time>2026-03-25T18:15:04.999Z</time></trkpt><trkpt lat="44.459961154004155" lon="7.820672590675619"><ele>379.0</ele><time>2026-03-25T18:15:05.999Z</time></trkpt><trkpt lat="44.46002740042396" lon="7.820824867494168"><ele>379.0</ele><time>2026-03-25T18:15:06.999Z</time></trkpt><trkpt lat="44.460087858650326" lon="7.82097492025294"><ele>379.0</ele><time>2026-03-25T18:15:07.999Z</time></trkpt><trkpt lat="44.46015018664921" lon="7.8211277916215005"><ele>379.0</ele><time>2026-03-25T18:15:08.999Z</time></trkpt><trkpt lat="44.460215391197984" lon="7.821277835443116"><ele>379.0</ele><time>2026-03-25T18:15:09.999Z</time></trkpt><trkpt lat="44.46027090243983" lon="7.821410272863521"><ele>379.0</ele><time>2026-03-25T18:15:10.999Z</time></trkpt><trkpt lat="44.46032859643527" lon="7.821550589811503"><ele>379.0</ele><time>2026-03-25T18:15:11.999Z</time></trkpt><trkpt lat="44.460390400894816" lon="7.821701754437258"><ele>379.0</ele><time>2026-03-25T18:15:12.999Z</time></trkpt><trkpt lat="44.46044923998226" lon="7.821841033730429"><ele>378.75</ele><time>2026-03-25T18:15:13.999Z</time></trkpt><trkpt lat="44.46051410053954" lon="7.821998294411232"><ele>378.5</ele><time>2026-03-25T18:15:14.999Z</time></trkpt><trkpt lat="44.46058036259698" lon="7.822151461180256"><ele>378.25</ele><time>2026-03-25T18:15:15.998Z</time></trkpt><trkpt lat="44.46063416303817" lon="7.8222986980341345"><ele>378.0</ele><time>2026-03-25T18:15:16.998Z</time></trkpt><trkpt lat="44.46068851612007" lon="7.822432355642153"><ele>378.0</ele><time>2026-03-25T18:15:17.998Z</time></trkpt><trkpt lat="44.46074047352149" lon="7.822580686157653"><ele>378.0</ele><time>2026-03-25T18:15:18.998Z</time></trkpt><trkpt lat="44.460801399831276" lon="7.82271707706953"><ele>378.0</ele><time>2026-03-25T18:15:19.998Z</time></trkpt><trkpt lat="44.46085545554343" lon="7.822852574188568"><ele>378.0</ele><time>2026-03-25T18:15:20.998Z</time></trkpt><trkpt lat="44.46090550877162" lon="7.822971543625834"><ele>378.0</ele><time>2026-03-25T18:15:21.998Z</time></trkpt><trkpt lat="44.460953265910604" lon="7.823078800350685"><ele>378.14285714285717</ele><time>2026-03-25T18:15:22.998Z</time></trkpt><trkpt lat="44.46099664460423" lon="7.8231854398272445"><ele>378.2857142857143</ele><time>2026-03-25T18:15:23.998Z</time></trkpt><trkpt lat="44.461033981332456" lon="7.823282000028899"><ele>378.42857142857144</ele><time>2026-03-25T18:15:24.998Z</time></trkpt><trkpt lat="44.46106474794821" lon="7.823375159612595"><ele>378.57142857142856</ele><time>2026-03-25T18:15:25.998Z</time></trkpt><trkpt lat="44.461091787556995" lon="7.823460545218791"><ele>378.7142857142857</ele><time>2026-03-25T18:15:26.998Z</time></trkpt><trkpt lat="44.46110681032448" lon="7.823546970609287"><ele>378.8571428571429</ele><time>2026-03-25T18:15:27.998Z</time></trkpt><trkpt lat="44.46112321426884" lon="7.823633647458093"><ele>379.0</ele><time>2026-03-25T18:15:28.998Z</time></trkpt><trkpt lat="44.46114328937543" lon="7.823728613465036"><ele>379.0</ele><time>2026-03-25T18:15:29.998Z</time></trkpt><trkpt lat="44.46118537084962" lon="7.823874458830515"><ele>379.0</ele><time>2026-03-25T18:15:31.998Z</time></trkpt><trkpt lat="44.46123128203055" lon="7.8239403304023964"><ele>379.0</ele><time>2026-03-25T18:15:32.998Z</time></trkpt><trkpt lat="44.46128033951395" lon="7.824016176409675"><ele>379.0</ele><time>2026-03-25T18:15:33.998Z</time></trkpt><trkpt lat="44.461334796742065" lon="7.824104645527812"><ele>379.0</ele><time>2026-03-25T18:15:34.998Z</time></trkpt><trkpt lat="44.46139419266464" lon="7.824202110017351"><ele>379.0</ele><time>2026-03-25T18:15:35.998Z</time></trkpt><trkpt lat="44.46145626810837" lon="7.824334267877474"><ele>378.5</ele><time>2026-03-25T18:15:36.998Z</time></trkpt><trkpt lat="44.46151429404633" lon="7.824470920080623"><ele>378.0</ele><time>2026-03-25T18:15:37.998Z</time></trkpt><trkpt lat="44.46158015183883" lon="7.8246282633701085"><ele>377.5</ele><time>2026-03-25T18:15:38.998Z</time></trkpt><trkpt lat="44.4616523195539" lon="7.824799925390479"><ele>377.0</ele><time>2026-03-25T18:15:39.998Z</time></trkpt><trkpt lat="44.461729669141846" lon="7.824980155960739"><ele>376.33333333333337</ele><time>2026-03-25T18:15:40.998Z</time></trkpt><trkpt lat="44.4617992500778" lon="7.825162907770754"><ele>375.6666666666667</ele><time>2026-03-25T18:15:42Z</time></trkpt><trkpt lat="44.46187924892683" lon="7.825361013483148"><ele>375.0</ele><time>2026-03-25T18:15:43Z</time></trkpt><trkpt lat="44.46196952764573" lon="7.825567935506517"><ele>375.0</ele><time>2026-03-25T18:15:44Z</time></trkpt><trkpt lat="44.4620633164507" lon="7.8257799723298"><ele>375.0</ele><time>2026-03-25T18:15:45Z</time></trkpt><trkpt lat="44.462169420696966" lon="7.825979198416264"><ele>375.0</ele><time>2026-03-25T18:15:46Z</time></trkpt><trkpt lat="44.462288350618394" lon="7.82619563097016"><ele>375.3333333333333</ele><time>2026-03-25T18:15:47Z</time></trkpt><trkpt lat="44.46241319062869" lon="7.826412903323489"><ele>375.66666666666663</ele><time>2026-03-25T18:15:48Z</time></trkpt><trkpt lat="44.462542949783185" lon="7.826641439930476"><ele>376.0</ele><time>2026-03-25T18:15:49Z</time></trkpt><trkpt lat="44.46267017496783" lon="7.826882049965826"><ele>376.0</ele><time>2026-03-25T18:15:50Z</time></trkpt><trkpt lat="44.46280682476433" lon="7.8270935067151415"><ele>376.0</ele><time>2026-03-25T18:15:51Z</time></trkpt><trkpt lat="44.46291661422305" lon="7.827275798009777"><ele>376.0</ele><time>2026-03-25T18:15:52Z</time></trkpt><trkpt lat="44.463023025922794" lon="7.827444953728684"><ele>376.0</ele><time>2026-03-25T18:15:53Z</time></trkpt><trkpt lat="44.46313120394556" lon="7.827612087048374"><ele>376.0</ele><time>2026-03-25T18:15:54Z</time></trkpt><trkpt lat="44.46322785782167" lon="7.827789965763328"><ele>376.0</ele><time>2026-03-25T18:15:55Z</time></trkpt><trkpt lat="44.463330604402316" lon="7.8279616071800655"><ele>376.0</ele><time>2026-03-25T18:15:56Z</time></trkpt><trkpt lat="44.46343343908806" lon="7.828117978479005"><ele>376.0</ele><time>2026-03-25T18:15:57Z</time></trkpt><trkpt lat="44.46352932098712" lon="7.828276630178618"><ele>376.0</ele><time>2026-03-25T18:15:58Z</time></trkpt><trkpt lat="44.46362617333704" lon="7.828431772129948"><ele>376.0</ele><time>2026-03-25T18:15:59Z</time></trkpt><trkpt lat="44.46373082820068" lon="7.828596854401465"><ele>376.0</ele><time>2026-03-25T18:16:00Z</time></trkpt><trkpt lat="44.46383581206782" lon="7.828776220093323"><ele>376.0</ele><time>2026-03-25T18:16:01Z</time></trkpt><trkpt lat="44.46394071677715" lon="7.828940611768375"><ele>376.0</ele><time>2026-03-25T18:16:02Z</time></trkpt><trkpt lat="44.46404296704843" lon="7.8291059288320595"><ele>376.0</ele><time>2026-03-25T18:16:03Z</time></trkpt><trkpt lat="44.4641418908911" lon="7.829257401373876"><ele>376.0</ele><time>2026-03-25T18:16:04Z</time></trkpt><trkpt lat="44.46423154893386" lon="7.829412683112801"><ele>376.0</ele><time>2026-03-25T18:16:05Z</time></trkpt><trkpt lat="44.46432700456508" lon="7.829562941239853"><ele>376.0</ele><time>2026-03-25T18:16:06Z</time></trkpt><trkpt lat="44.46441922874618" lon="7.829716531024851"><ele>376.0</ele><time>2026-03-25T18:16:07Z</time></trkpt><trkpt lat="44.464512462723334" lon="7.829856147643928"><ele>376.0</ele><time>2026-03-25T18:16:08Z</time></trkpt><trkpt lat="44.46460260786999" lon="7.829996480704821"><ele>376.0</ele><time>2026-03-25T18:16:09Z</time></trkpt><trkpt lat="44.46469525614474" lon="7.830146817587683"><ele>376.0</ele><time>2026-03-25T18:16:10Z</time></trkpt><trkpt lat="44.46478856380475" lon="7.830305802683509"><ele>375.5</ele><time>2026-03-25T18:16:11Z</time></trkpt><trkpt lat="44.464886359007686" lon="7.830463337269946"><ele>375.0</ele><time>2026-03-25T18:16:12Z</time></trkpt><trkpt lat="44.46498711030799" lon="7.830621550730738"><ele>374.5</ele><time>2026-03-25T18:16:13Z</time></trkpt><trkpt lat="44.46508305493668" lon="7.830774111090502"><ele>374.0</ele><time>2026-03-25T18:16:14Z</time></trkpt><trkpt lat="44.46517817804685" lon="7.830927163927165"><ele>373.6666666666667</ele><time>2026-03-25T18:16:15Z</time></trkpt><trkpt lat="44.46527836220689" lon="7.8310808311424305"><ele>373.3333333333333</ele><time>2026-03-25T18:16:16Z</time></trkpt><trkpt lat="44.4653828718649" lon="7.831244978936998"><ele>373.0</ele><time>2026-03-25T18:16:17Z</time></trkpt><trkpt lat="44.4654817495972" lon="7.831401340894729"><ele>373.5</ele><time>2026-03-25T18:16:18Z</time></trkpt><trkpt lat="44.46557786797499" lon="7.831544887556491"><ele>374.0</ele><time>2026-03-25T18:16:19Z</time></trkpt><trkpt lat="44.46568071367287" lon="7.831698137629582"><ele>374.5</ele><time>2026-03-25T18:16:20Z</time></trkpt><trkpt lat="44.46578256303395" lon="7.831853752989445"><ele>375.0</ele><time>2026-03-25T18:16:21Z</time></trkpt><trkpt lat="44.46587925019154" lon="7.832008685084152"><ele>375.0</ele><time>2026-03-25T18:16:22Z</time></trkpt><trkpt lat="44.46597851058208" lon="7.832169007962377"><ele>375.0</ele><time>2026-03-25T18:16:23Z</time></trkpt><trkpt lat="44.46607626455492" lon="7.832329066882005"><ele>375.0</ele><time>2026-03-25T18:16:23.999Z</time></trkpt><trkpt lat="44.46616843344043" lon="7.832485245832203"><ele>375.0</ele><time>2026-03-25T18:16:24.999Z</time></trkpt><trkpt lat="44.466263544635126" lon="7.832633095856723"><ele>374.5</ele><time>2026-03-25T18:16:25.999Z</time></trkpt><trkpt lat="44.46635876467507" lon="7.832793120619863"><ele>374.0</ele><time>2026-03-25T18:16:26.999Z</time></trkpt><trkpt lat="44.46645486730869" lon="7.832942734748324"><ele>373.5</ele><time>2026-03-25T18:16:27.999Z</time></trkpt><trkpt lat="44.466554038763064" lon="7.833095088823403"><ele>373.0</ele><time>2026-03-25T18:16:28.999Z</time></trkpt><trkpt lat="44.46665979972577" lon="7.83325855788297"><ele>373.0</ele><time>2026-03-25T18:16:29.999Z</time></trkpt><trkpt lat="44.46676094124212" lon="7.833418899258272"><ele>373.0</ele><time>2026-03-25T18:16:30.999Z</time></trkpt><trkpt lat="44.46685490548138" lon="7.833573278113332"><ele>373.0</ele><time>2026-03-25T18:16:31.999Z</time></trkpt><trkpt lat="44.46695580970805" lon="7.8337310071688595"><ele>373.0</ele><time>2026-03-25T18:16:32.999Z</time></trkpt><trkpt lat="44.467055118591496" lon="7.8338793391831265"><ele>373.0</ele><time>2026-03-25T18:16:33.999Z</time></trkpt><trkpt lat="44.46715957591631" lon="7.83405051009537"><ele>373.0</ele><time>2026-03-25T18:16:34.999Z</time></trkpt><trkpt lat="44.46726245059592" lon="7.834209976669862"><ele>373.0</ele><time>2026-03-25T18:16:35.999Z</time></trkpt><trkpt lat="44.467364187903456" lon="7.834372561244094"><ele>373.0</ele><time>2026-03-25T18:16:36.999Z</time></trkpt><trkpt lat="44.46747234398926" lon="7.834548848016584"><ele>373.0</ele><time>2026-03-25T18:16:37.999Z</time></trkpt><trkpt lat="44.467581892398485" lon="7.834725240378025"><ele>373.0</ele><time>2026-03-25T18:16:38.999Z</time></trkpt><trkpt lat="44.4676895793164" lon="7.8349174120027465"><ele>373.0</ele><time>2026-03-25T18:16:39.999Z</time></trkpt><trkpt lat="44.467806125444824" lon="7.835100353420916"><ele>373.0</ele><time>2026-03-25T18:16:40.999Z</time></trkpt><trkpt lat="44.46792667448081" lon="7.835278350942767"><ele>373.0</ele><time>2026-03-25T18:16:41.999Z</time></trkpt><trkpt lat="44.46805247605784" lon="7.835467893831539"><ele>373.0</ele><time>2026-03-25T18:16:42.999Z</time></trkpt><trkpt lat="44.46817596584907" lon="7.835665126304886"><ele>373.0</ele><time>2026-03-25T18:16:43.999Z</time></trkpt><trkpt lat="44.46830356447802" lon="7.835869304085453"><ele>373.0</ele><time>2026-03-25T18:16:44.999Z</time></trkpt><trkpt lat="44.46843582712425" lon="7.836080407460292"><ele>373.0</ele><time>2026-03-25T18:16:45.999Z</time></trkpt><trkpt lat="44.46857466745657" lon="7.83629883246935"><ele>373.0</ele><time>2026-03-25T18:16:46.999Z</time></trkpt><trkpt lat="44.46871308648945" lon="7.836526785180077"><ele>373.0</ele><time>2026-03-25T18:16:47.999Z</time></trkpt><trkpt lat="44.46885956885732" lon="7.8367638235526265"><ele>372.3333333333333</ele><time>2026-03-25T18:16:48.999Z</time></trkpt><trkpt lat="44.46899753098916" lon="7.836974969290711"><ele>371.6666666666667</ele><time>2026-03-25T18:16:49.999Z</time></trkpt><trkpt lat="44.469121481585674" lon="7.83717314093107"><ele>371.0</ele><time>2026-03-25T18:16:50.999Z</time></trkpt><trkpt lat="44.46924246134374" lon="7.837365767223229"><ele>371.0</ele><time>2026-03-25T18:16:51.999Z</time></trkpt><trkpt lat="44.46935871865055" lon="7.837551384810442"><ele>371.0</ele><time>2026-03-25T18:16:52.999Z</time></trkpt><trkpt lat="44.46946764747172" lon="7.837722426757376"><ele>371.0</ele><time>2026-03-25T18:16:53.999Z</time></trkpt><trkpt lat="44.46957140040347" lon="7.837896360562497"><ele>371.0</ele><time>2026-03-25T18:16:54.999Z</time></trkpt><trkpt lat="44.46967767293042" lon="7.838067497244311"><ele>371.0</ele><time>2026-03-25T18:16:55.999Z</time></trkpt><trkpt lat="44.469788448275544" lon="7.83823478197302"><ele>371.0</ele><time>2026-03-25T18:16:56.999Z</time></trkpt><trkpt lat="44.46989615124123" lon="7.838418932896362"><ele>371.0</ele><time>2026-03-25T18:16:57.999Z</time></trkpt><trkpt lat="44.470002270916964" lon="7.838612753478425"><ele>371.0</ele><time>2026-03-25T18:16:58.999Z</time></trkpt><trkpt lat="44.47010839162095" lon="7.838821449591217"><ele>371.0</ele><time>2026-03-25T18:16:59.999Z</time></trkpt><trkpt lat="44.470210191455394" lon="7.839023016966482"><ele>371.0</ele><time>2026-03-25T18:17:00.999Z</time></trkpt><trkpt lat="44.470313496420566" lon="7.839232976927618"><ele>371.0</ele><time>2026-03-25T18:17:01.999Z</time></trkpt><trkpt lat="44.47041305372528" lon="7.839453814634382"><ele>371.0</ele><time>2026-03-25T18:17:02.999Z</time></trkpt><trkpt lat="44.470506861248154" lon="7.839680748156115"><ele>371.0</ele><time>2026-03-25T18:17:03.999Z</time></trkpt><trkpt lat="44.470591143706635" lon="7.839914129652009"><ele>371.0</ele><time>2026-03-25T18:17:04.999Z</time></trkpt><trkpt lat="44.47067058447772" lon="7.840143717938827"><ele>371.0</ele><time>2026-03-25T18:17:05.999Z</time></trkpt><trkpt lat="44.47074573461051" lon="7.840398143008455"><ele>370.6666666666667</ele><time>2026-03-25T18:17:06.999Z</time></trkpt><trkpt lat="44.4708178242854" lon="7.8406494823318855"><ele>370.3333333333333</ele><time>2026-03-25T18:17:07.999Z</time></trkpt><trkpt lat="44.470887122232064" lon="7.840900230015296"><ele>370.0</ele><time>2026-03-25T18:17:08.999Z</time></trkpt><trkpt lat="44.4709525033383" lon="7.841172380338253"><ele>369.66666666666663</ele><time>2026-03-25T18:17:09.999Z</time></trkpt><trkpt lat="44.47100914806045" lon="7.841453026577177"><ele>369.3333333333333</ele><time>2026-03-25T18:17:10.999Z</time></trkpt><trkpt lat="44.471056444037046" lon="7.841716553193208"><ele>369.0</ele><time>2026-03-25T18:17:11.999Z</time></trkpt><trkpt lat="44.4710972443458" lon="7.841992805228155"><ele>369.0</ele><time>2026-03-25T18:17:12.999Z</time></trkpt><trkpt lat="44.471135568685426" lon="7.842271395285214"><ele>369.0</ele><time>2026-03-25T18:17:13.999Z</time></trkpt><trkpt lat="44.47117023727984" lon="7.84255972992146"><ele>369.0</ele><time>2026-03-25T18:17:14.999Z</time></trkpt><trkpt lat="44.47118189686841" lon="7.842819120584585"><ele>369.0</ele><time>2026-03-25T18:17:15.999Z</time></trkpt><trkpt lat="44.47120976979581" lon="7.843067647570217"><ele>369.0</ele><time>2026-03-25T18:17:16.999Z</time></trkpt><trkpt lat="44.47125135023305" lon="7.843305392650844"><ele>369.0</ele><time>2026-03-25T18:17:17.999Z</time></trkpt><trkpt lat="44.47127421305383" lon="7.84353757196642"><ele>369.0</ele><time>2026-03-25T18:17:18.999Z</time></trkpt><trkpt lat="44.47129584165053" lon="7.843758363105203"><ele>369.0</ele><time>2026-03-25T18:17:19.998Z</time></trkpt><trkpt lat="44.47130611019238" lon="7.843971022043915"><ele>369.0</ele><time>2026-03-25T18:17:20.998Z</time></trkpt><trkpt lat="44.47133214572565" lon="7.844168639672932"><ele>368.6666666666667</ele><time>2026-03-25T18:17:21.998Z</time></trkpt><trkpt lat="44.471364707349984" lon="7.844371112137795"><ele>368.33333333333337</ele><time>2026-03-25T18:17:22.998Z</time></trkpt><trkpt lat="44.47141341392076" lon="7.844574795329723"><ele>368.0</ele><time>2026-03-25T18:17:23.998Z</time></trkpt><trkpt lat="44.47147302589429" lon="7.844771548192973"><ele>368.0</ele><time>2026-03-25T18:17:24.998Z</time></trkpt><trkpt lat="44.4715474953779" lon="7.844970205567246"><ele>368.0</ele><time>2026-03-25T18:17:25.998Z</time></trkpt><trkpt lat="44.471632687214814" lon="7.845171319681014"><ele>368.0</ele><time>2026-03-25T18:17:26.998Z</time></trkpt><trkpt lat="44.47171008594969" lon="7.845370869749352"><ele>367.6666666666667</ele><time>2026-03-25T18:17:27.998Z</time></trkpt><trkpt lat="44.47180322682297" lon="7.845568982795297"><ele>367.3333333333333</ele><time>2026-03-25T18:17:28.998Z</time></trkpt><trkpt lat="44.471893287010914" lon="7.845770911794889"><ele>367.0</ele><time>2026-03-25T18:17:29.998Z</time></trkpt><trkpt lat="44.47197618419959" lon="7.845955679569628"><ele>366.5</ele><time>2026-03-25T18:17:30.998Z</time></trkpt><trkpt lat="44.47205859599615" lon="7.846126337255952"><ele>366.0</ele><time>2026-03-25T18:17:31.998Z</time></trkpt><trkpt lat="44.472141952981026" lon="7.846297548128817"><ele>365.5</ele><time>2026-03-25T18:17:32.998Z</time></trkpt><trkpt lat="44.4722268290033" lon="7.846471555572393"><ele>365.0</ele><time>2026-03-25T18:17:33.998Z</time></trkpt><trkpt lat="44.47230110593379" lon="7.846639613488231"><ele>365.0</ele><time>2026-03-25T18:17:34.998Z</time></trkpt><trkpt lat="44.472377599667226" lon="7.846794240606744"><ele>365.0</ele><time>2026-03-25T18:17:35.998Z</time></trkpt><trkpt lat="44.47243756919728" lon="7.846947855435454"><ele>365.0</ele><time>2026-03-25T18:17:36.998Z</time></trkpt><trkpt lat="44.47249071258757" lon="7.847118099050598"><ele>365.0</ele><time>2026-03-25T18:17:37.998Z</time></trkpt><trkpt lat="44.47254167676572" lon="7.847288887112015"><ele>365.5</ele><time>2026-03-25T18:17:38.998Z</time></trkpt><trkpt lat="44.47258333750549" lon="7.847461534931893"><ele>366.0</ele><time>2026-03-25T18:17:39.998Z</time></trkpt><trkpt lat="44.472623913510624" lon="7.847620841901427"><ele>366.5</ele><time>2026-03-25T18:17:40.998Z</time></trkpt><trkpt lat="44.47266218013269" lon="7.847787248811652"><ele>367.0</ele><time>2026-03-25T18:17:41.998Z</time></trkpt><trkpt lat="44.472694291207176" lon="7.847936768407331"><ele>367.40000000000003</ele><time>2026-03-25T18:17:42.998Z</time></trkpt><trkpt lat="44.47272415247055" lon="7.848084160042648"><ele>367.8</ele><time>2026-03-25T18:17:43.998Z</time></trkpt><trkpt lat="44.47275847931431" lon="7.848220023572188"><ele>368.2</ele><time>2026-03-25T18:17:44.998Z</time></trkpt><trkpt lat="44.472793723469415" lon="7.84835643754749"><ele>368.6</ele><time>2026-03-25T18:17:45.998Z</time></trkpt><trkpt lat="44.472832101715284" lon="7.848499296346918"><ele>369.0</ele><time>2026-03-25T18:17:46.998Z</time></trkpt><trkpt lat="44.47287000781099" lon="7.848634729088377"><ele>369.0</ele><time>2026-03-25T18:17:48Z</time></trkpt><trkpt lat="44.472899680816155" lon="7.848781493343103"><ele>369.0</ele><time>2026-03-25T18:17:49Z</time></trkpt><trkpt lat="44.472936966412384" lon="7.848922162012431"><ele>369.0</ele><time>2026-03-25T18:17:50Z</time></trkpt><trkpt lat="44.47297662985798" lon="7.849069348340147"><ele>369.0</ele><time>2026-03-25T18:17:51Z</time></trkpt><trkpt lat="44.47301892883623" lon="7.849215907947728"><ele>369.0</ele><time>2026-03-25T18:17:52Z</time></trkpt><trkpt lat="44.47306092840205" lon="7.849371329814332"><ele>369.25</ele><time>2026-03-25T18:17:53Z</time></trkpt><trkpt lat="44.473103229539475" lon="7.849531913960326"><ele>369.5</ele><time>2026-03-25T18:17:54Z</time></trkpt><trkpt lat="44.47314191186786" lon="7.849699821818031"><ele>369.75</ele><time>2026-03-25T18:17:55Z</time></trkpt><trkpt lat="44.47318041171489" lon="7.849881696121744"><ele>370.0</ele><time>2026-03-25T18:17:56Z</time></trkpt><trkpt lat="44.47322314982505" lon="7.850064281749628"><ele>370.25</ele><time>2026-03-25T18:17:57Z</time></trkpt><trkpt lat="44.4732663951261" lon="7.850243535639865"><ele>370.5</ele><time>2026-03-25T18:17:58Z</time></trkpt><trkpt lat="44.473305456314975" lon="7.850409334632659"><ele>370.75</ele><time>2026-03-25T18:17:59Z</time></trkpt><trkpt lat="44.47333721229752" lon="7.8505805111788565"><ele>371.0</ele><time>2026-03-25T18:18:00Z</time></trkpt><trkpt lat="44.473370741531255" lon="7.850755902203884"><ele>371.0</ele><time>2026-03-25T18:18:01Z</time></trkpt><trkpt lat="44.47338575652135" lon="7.850935904636467"><ele>371.0</ele><time>2026-03-25T18:18:02Z</time></trkpt><trkpt lat="44.47342095587042" lon="7.851105012265616"><ele>371.0</ele><time>2026-03-25T18:18:03Z</time></trkpt><trkpt lat="44.47345341720777" lon="7.851271497824739"><ele>371.0</ele><time>2026-03-25T18:18:04Z</time></trkpt><trkpt lat="44.4734825046868" lon="7.851443743633739"><ele>370.75</ele><time>2026-03-25T18:18:05Z</time></trkpt><trkpt lat="44.47351342024629" lon="7.8516166838338055"><ele>370.5</ele><time>2026-03-25T18:18:06Z</time></trkpt><trkpt lat="44.47354155506099" lon="7.85178892897764"><ele>370.25</ele><time>2026-03-25T18:18:07Z</time></trkpt><trkpt lat="44.47357362752437" lon="7.85196744653044"><ele>370.0</ele><time>2026-03-25T18:18:08Z</time></trkpt><trkpt lat="44.47360145378071" lon="7.852145342693446"><ele>369.5</ele><time>2026-03-25T18:18:09Z</time></trkpt><trkpt lat="44.47363079970408" lon="7.852314111057313"><ele>369.0</ele><time>2026-03-25T18:18:10Z</time></trkpt><trkpt lat="44.47365995658154" lon="7.8524846339121375"><ele>368.5</ele><time>2026-03-25T18:18:11Z</time></trkpt><trkpt lat="44.4736839353146" lon="7.8526568821286125"><ele>368.0</ele><time>2026-03-25T18:18:12Z</time></trkpt><trkpt lat="44.473709323583186" lon="7.852831786734816"><ele>368.0</ele><time>2026-03-25T18:18:13Z</time></trkpt><trkpt lat="44.473737315407654" lon="7.853006020323531"><ele>368.0</ele><time>2026-03-25T18:18:14Z</time></trkpt><trkpt lat="44.473760915277246" lon="7.853199418908804"><ele>368.0</ele><time>2026-03-25T18:18:15Z</time></trkpt><trkpt lat="44.47378037841479" lon="7.853408581315556"><ele>368.0</ele><time>2026-03-25T18:18:16Z</time></trkpt><trkpt lat="44.47380116223228" lon="7.853635377416806"><ele>368.0</ele><time>2026-03-25T18:18:17Z</time></trkpt><trkpt lat="44.47381704707132" lon="7.853846485808969"><ele>368.0</ele><time>2026-03-25T18:18:18Z</time></trkpt><trkpt lat="44.47383426036938" lon="7.854041513623413"><ele>368.0</ele><time>2026-03-25T18:18:19Z</time></trkpt><trkpt lat="44.473846721734695" lon="7.854232156260572"><ele>368.0</ele><time>2026-03-25T18:18:20Z</time></trkpt><trkpt lat="44.473858822402484" lon="7.8544038745533875"><ele>368.25</ele><time>2026-03-25T18:18:21Z</time></trkpt><trkpt lat="44.473868070252436" lon="7.854570737419002"><ele>368.5</ele><time>2026-03-25T18:18:22Z</time></trkpt><trkpt lat="44.473872107903226" lon="7.854740444313445"><ele>368.75</ele><time>2026-03-25T18:18:23Z</time></trkpt><trkpt lat="44.47387805218272" lon="7.854917050839695"><ele>369.0</ele><time>2026-03-25T18:18:24Z</time></trkpt><trkpt lat="44.47388214864286" lon="7.855113932851098"><ele>368.75</ele><time>2026-03-25T18:18:25Z</time></trkpt><trkpt lat="44.47389088135884" lon="7.855304296589852"><ele>368.5</ele><time>2026-03-25T18:18:26Z</time></trkpt><trkpt lat="44.47389703886215" lon="7.855493463336868"><ele>368.25</ele><time>2026-03-25T18:18:27Z</time></trkpt><trkpt lat="44.47391188518828" lon="7.85565644864245"><ele>368.0</ele><time>2026-03-25T18:18:28Z</time></trkpt><trkpt lat="44.473911571719924" lon="7.855842961870724"><ele>367.75</ele><time>2026-03-25T18:18:29Z</time></trkpt><trkpt lat="44.47391347342437" lon="7.85602429172061"><ele>367.5</ele><time>2026-03-25T18:18:29.999Z</time></trkpt><trkpt lat="44.47391709591349" lon="7.856195997011889"><ele>367.25</ele><time>2026-03-25T18:18:30.999Z</time></trkpt><trkpt lat="44.47393220126028" lon="7.856345957552938"><ele>367.0</ele><time>2026-03-25T18:18:31.999Z</time></trkpt><trkpt lat="44.47394133320299" lon="7.856492512857104"><ele>367.0</ele><time>2026-03-25T18:18:32.999Z</time></trkpt><trkpt lat="44.47394347953218" lon="7.856649626560837"><ele>367.0</ele><time>2026-03-25T18:18:33.999Z</time></trkpt><trkpt lat="44.47394630324435" lon="7.856824658612693"><ele>367.0</ele><time>2026-03-25T18:18:34.999Z</time></trkpt><trkpt lat="44.47395147229323" lon="7.8570073878759805"><ele>367.0</ele><time>2026-03-25T18:18:35.999Z</time></trkpt><trkpt lat="44.473955563075656" lon="7.857166674805462"><ele>366.8</ele><time>2026-03-25T18:18:36.999Z</time></trkpt><trkpt lat="44.473962148569875" lon="7.8573146852088795"><ele>366.6</ele><time>2026-03-25T18:18:37.999Z</time></trkpt><trkpt lat="44.47397244349946" lon="7.857462215039497"><ele>366.40000000000003</ele><time>2026-03-25T18:18:38.999Z</time></trkpt><trkpt lat="44.473985377842524" lon="7.857619266761146"><ele>366.20000000000005</ele><time>2026-03-25T18:18:39.999Z</time></trkpt><trkpt lat="44.47399221193459" lon="7.857794034892804"><ele>366.0</ele><time>2026-03-25T18:18:40.999Z</time></trkpt><trkpt lat="44.474004484357856" lon="7.857957786584364"><ele>365.75</ele><time>2026-03-25T18:18:41.999Z</time></trkpt><trkpt lat="44.47400895127351" lon="7.858115530521085"><ele>365.5</ele><time>2026-03-25T18:18:42.999Z</time></trkpt><trkpt lat="44.47401774885064" lon="7.858290286819975"><ele>365.25</ele><time>2026-03-25T18:18:43.999Z</time></trkpt><trkpt lat="44.47402688623925" lon="7.858457748692938"><ele>365.0</ele><time>2026-03-25T18:18:44.999Z</time></trkpt><trkpt lat="44.47403297330405" lon="7.858651445470371"><ele>365.0</ele><time>2026-03-25T18:18:45.999Z</time></trkpt><trkpt lat="44.4740418817637" lon="7.858833964301099"><ele>365.0</ele><time>2026-03-25T18:18:46.999Z</time></trkpt><trkpt lat="44.47404792890129" lon="7.85900801672823"><ele>365.0</ele><time>2026-03-25T18:18:47.999Z</time></trkpt><trkpt lat="44.47406164992145" lon="7.8591857151775955"><ele>365.0</ele><time>2026-03-25T18:18:48.999Z</time></trkpt><trkpt lat="44.474076762808885" lon="7.859365054896405"><ele>365.0</ele><time>2026-03-25T18:18:49.999Z</time></trkpt><trkpt lat="44.474102624804544" lon="7.859536790866582"><ele>365.0</ele><time>2026-03-25T18:18:50.999Z</time></trkpt><trkpt lat="44.4741285350952" lon="7.859722136041785"><ele>365.0</ele><time>2026-03-25T18:18:51.999Z</time></trkpt><trkpt lat="44.4741558170673" lon="7.859904103167554"><ele>365.0</ele><time>2026-03-25T18:18:52.999Z</time></trkpt><trkpt lat="44.47419819051776" lon="7.860088515507585"><ele>364.75</ele><time>2026-03-25T18:18:53.999Z</time></trkpt><trkpt lat="44.474241846752555" lon="7.8602357606409266"><ele>364.5</ele><time>2026-03-25T18:18:54.999Z</time></trkpt><trkpt lat="44.474280756499724" lon="7.860403937688313"><ele>364.25</ele><time>2026-03-25T18:18:55.999Z</time></trkpt><trkpt lat="44.47433083966173" lon="7.8605665860186615"><ele>364.0</ele><time>2026-03-25T18:18:56.999Z</time></trkpt><trkpt lat="44.47439459255385" lon="7.860738516264789"><ele>364.0</ele><time>2026-03-25T18:18:57.999Z</time></trkpt><trkpt lat="44.474461081438" lon="7.860920395034471"><ele>364.0</ele><time>2026-03-25T18:18:58.999Z</time></trkpt><trkpt lat="44.47451984100263" lon="7.861079079365235"><ele>364.0</ele><time>2026-03-25T18:18:59.999Z</time></trkpt><trkpt lat="44.47458829253796" lon="7.861229080085383"><ele>364.0</ele><time>2026-03-25T18:19:00.999Z</time></trkpt><trkpt lat="44.47465508587375" lon="7.861376008410235"><ele>364.0</ele><time>2026-03-25T18:19:01.999Z</time></trkpt><trkpt lat="44.47473226967079" lon="7.861497988639521"><ele>364.0</ele><time>2026-03-25T18:19:02.999Z</time></trkpt><trkpt lat="44.47480605743886" lon="7.8616310393130355"><ele>364.0</ele><time>2026-03-25T18:19:03.999Z</time></trkpt><trkpt lat="44.474883628941086" lon="7.861750031035047"><ele>364.0</ele><time>2026-03-25T18:19:04.999Z</time></trkpt><trkpt lat="44.47497002482604" lon="7.8618782136547924"><ele>364.0</ele><time>2026-03-25T18:19:05.999Z</time></trkpt><trkpt lat="44.47505322078222" lon="7.861995826945433"><ele>364.0</ele><time>2026-03-25T18:19:06.999Z</time></trkpt><trkpt lat="44.47513578993097" lon="7.862110839395198"><ele>364.0</ele><time>2026-03-25T18:19:07.999Z</time></trkpt><trkpt lat="44.47521136849128" lon="7.862246531522416"><ele>364.0</ele><time>2026-03-25T18:19:08.999Z</time></trkpt><trkpt lat="44.47529260442034" lon="7.8623657516419545"><ele>364.0</ele><time>2026-03-25T18:19:09.999Z</time></trkpt><trkpt lat="44.47536504087285" lon="7.862470969823157"><ele>364.0</ele><time>2026-03-25T18:19:10.999Z</time></trkpt><trkpt lat="44.47543051642743" lon="7.862575611673927"><ele>364.0</ele><time>2026-03-25T18:19:11.999Z</time></trkpt><trkpt lat="44.475498661673086" lon="7.862671465029129"><ele>364.0</ele><time>2026-03-25T18:19:12.999Z</time></trkpt><trkpt lat="44.47557256951292" lon="7.862772377266938"><ele>364.0</ele><time>2026-03-25T18:19:13.999Z</time></trkpt><trkpt lat="44.475640712000825" lon="7.862891424505849"><ele>364.2</ele><time>2026-03-25T18:19:14.999Z</time></trkpt><trkpt lat="44.47570265995705" lon="7.862998748301003"><ele>364.4</ele><time>2026-03-25T18:19:15.999Z</time></trkpt><trkpt lat="44.47577179038305" lon="7.863096754274884"><ele>364.6</ele><time>2026-03-25T18:19:16.999Z</time></trkpt><trkpt lat="44.475846494252394" lon="7.863210862874835"><ele>364.8</ele><time>2026-03-25T18:19:17.999Z</time></trkpt><trkpt lat="44.47591605103805" lon="7.863323069921466"><ele>365.0</ele><time>2026-03-25T18:19:18.999Z</time></trkpt><trkpt lat="44.475980650253405" lon="7.863418827843649"><ele>365.0</ele><time>2026-03-25T18:19:19.999Z</time></trkpt><trkpt lat="44.47604651226346" lon="7.863512782601321"><ele>365.0</ele><time>2026-03-25T18:19:20.999Z</time></trkpt><trkpt lat="44.47610581937257" lon="7.863599806760266"><ele>365.0</ele><time>2026-03-25T18:19:21.999Z</time></trkpt><trkpt lat="44.47617287375465" lon="7.863704143907497"><ele>365.0</ele><time>2026-03-25T18:19:22.999Z</time></trkpt><trkpt lat="44.47624324769736" lon="7.863803613097382"><ele>365.0</ele><time>2026-03-25T18:19:23.999Z</time></trkpt><trkpt lat="44.476309923358066" lon="7.863902988973031"><ele>365.0</ele><time>2026-03-25T18:19:24.999Z</time></trkpt><trkpt lat="44.47637605325932" lon="7.864016850151264"><ele>365.0</ele><time>2026-03-25T18:19:25.998Z</time></trkpt><trkpt lat="44.47644583377094" lon="7.864122265774231"><ele>365.0</ele><time>2026-03-25T18:19:26.998Z</time></trkpt><trkpt lat="44.476514861998275" lon="7.864228708474323"><ele>365.0</ele><time>2026-03-25T18:19:27.998Z</time></trkpt><trkpt lat="44.476585459601594" lon="7.864334835406576"><ele>365.0</ele><time>2026-03-25T18:19:28.998Z</time></trkpt><trkpt lat="44.47666991797311" lon="7.864457784017017"><ele>364.6</ele><time>2026-03-25T18:19:29.998Z</time></trkpt><trkpt lat="44.47673971222142" lon="7.864568761022939"><ele>364.2</ele><time>2026-03-25T18:19:30.998Z</time></trkpt><trkpt lat="44.4768135658998" lon="7.864677474483389"><ele>363.79999999999995</ele><time>2026-03-25T18:19:31.998Z</time></trkpt><trkpt lat="44.476878750126254" lon="7.864764679507068"><ele>363.4</ele><time>2026-03-25T18:19:32.998Z</time></trkpt><trkpt lat="44.476936149186265" lon="7.8648695271492635"><ele>363.0</ele><time>2026-03-25T18:19:33.998Z</time></trkpt><trkpt lat="44.47699012764696" lon="7.864952428565473"><ele>363.0</ele><time>2026-03-25T18:19:34.998Z</time></trkpt><trkpt lat="44.477045940114095" lon="7.865047276294366"><ele>363.0</ele><time>2026-03-25T18:19:35.998Z</time></trkpt><trkpt lat="44.4770909628812" lon="7.865145100380982"><ele>363.0</ele><time>2026-03-25T18:19:36.998Z</time></trkpt><trkpt lat="44.47713283458211" lon="7.865239803061667"><ele>363.0</ele><time>2026-03-25T18:19:37.998Z</time></trkpt><trkpt lat="44.477172911622404" lon="7.865347764970787"><ele>363.0</ele><time>2026-03-25T18:19:38.998Z</time></trkpt><trkpt lat="44.477205778907475" lon="7.865463853067818"><ele>363.0</ele><time>2026-03-25T18:19:39.998Z</time></trkpt><trkpt lat="44.47723919960575" lon="7.865593323384217"><ele>363.1666666666667</ele><time>2026-03-25T18:19:40.998Z</time></trkpt><trkpt lat="44.47727161554114" lon="7.865702013262129"><ele>363.3333333333333</ele><time>2026-03-25T18:19:41.998Z</time></trkpt><trkpt lat="44.47730223669553" lon="7.865817855079238"><ele>363.5</ele><time>2026-03-25T18:19:42.998Z</time></trkpt><trkpt lat="44.477343556919024" lon="7.865920166739296"><ele>363.66666666666663</ele><time>2026-03-25T18:19:43.998Z</time></trkpt><trkpt lat="44.477348855780356" lon="7.866041394525636"><ele>363.8333333333333</ele><time>2026-03-25T18:19:44.998Z</time></trkpt><trkpt lat="44.477377720817756" lon="7.866130650976838"><ele>364.0</ele><time>2026-03-25T18:19:45.998Z</time></trkpt><trkpt lat="44.4774049422299" lon="7.866236101546922"><ele>364.0</ele><time>2026-03-25T18:19:46.998Z</time></trkpt><trkpt lat="44.47743180442044" lon="7.866344394087057"><ele>364.0</ele><time>2026-03-25T18:19:47.998Z</time></trkpt><trkpt lat="44.477460565467524" lon="7.866461358104139"><ele>364.0</ele><time>2026-03-25T18:19:48.998Z</time></trkpt><trkpt lat="44.47748510905005" lon="7.866569019663333"><ele>364.0</ele><time>2026-03-25T18:19:49.998Z</time></trkpt><trkpt lat="44.477510692745604" lon="7.866661286898095"><ele>364.0</ele><time>2026-03-25T18:19:50.998Z</time></trkpt><trkpt lat="44.47755192111789" lon="7.866831441914816"><ele>364.0</ele><time>2026-03-25T18:19:52.998Z</time></trkpt><trkpt lat="44.47758868829989" lon="7.866955218720771"><ele>364.0</ele><time>2026-03-25T18:19:55Z</time></trkpt><trkpt lat="44.477601946988216" lon="7.867072873630449"><ele>364.0</ele><time>2026-03-25T18:19:56Z</time></trkpt><trkpt lat="44.47762822744916" lon="7.867206221937564"><ele>364.0</ele><time>2026-03-25T18:19:57Z</time></trkpt><trkpt lat="44.47765551180107" lon="7.86730912082798"><ele>364.0</ele><time>2026-03-25T18:19:58Z</time></trkpt><trkpt lat="44.47767625911718" lon="7.86741421706439"><ele>364.0</ele><time>2026-03-25T18:19:59Z</time></trkpt><trkpt lat="44.4776985274769" lon="7.867504645436368"><ele>364.0</ele><time>2026-03-25T18:20:00Z</time></trkpt><trkpt lat="44.477719225390395" lon="7.8676023866024565"><ele>364.0</ele><time>2026-03-25T18:20:01Z</time></trkpt><trkpt lat="44.477738592559916" lon="7.867698398347901"><ele>364.0</ele><time>2026-03-25T18:20:02Z</time></trkpt><trkpt lat="44.477756316141715" lon="7.8677927084472445"><ele>364.0</ele><time>2026-03-25T18:20:03Z</time></trkpt><trkpt lat="44.47777320828735" lon="7.86788838337676"><ele>364.0</ele><time>2026-03-25T18:20:04Z</time></trkpt><trkpt lat="44.47780698103904" lon="7.868053307606357"><ele>364.0</ele><time>2026-03-25T18:20:06Z</time></trkpt><trkpt lat="44.47782799883774" lon="7.868160842486787"><ele>363.8333333333333</ele><time>2026-03-25T18:20:07Z</time></trkpt><trkpt lat="44.47784866404468" lon="7.8682530941171205"><ele>363.66666666666663</ele><time>2026-03-25T18:20:08Z</time></trkpt><trkpt lat="44.47786908849343" lon="7.868341813310918"><ele>363.5</ele><time>2026-03-25T18:20:09Z</time></trkpt><trkpt lat="44.477906016608344" lon="7.868472145261929"><ele>363.3333333333333</ele><time>2026-03-25T18:20:11Z</time></trkpt><trkpt lat="44.47792703397433" lon="7.86856538076195"><ele>363.1666666666667</ele><time>2026-03-25T18:20:12Z</time></trkpt><trkpt lat="44.47796209998354" lon="7.868740267902978"><ele>363.0</ele><time>2026-03-25T18:20:14Z</time></trkpt><trkpt lat="44.477978861690794" lon="7.868833337124524"><ele>362.85714285714283</ele><time>2026-03-25T18:20:15Z</time></trkpt><trkpt lat="44.47800016859572" lon="7.868927825946614"><ele>362.7142857142857</ele><time>2026-03-25T18:20:16Z</time></trkpt><trkpt lat="44.47802141423688" lon="7.869023554076724"><ele>362.57142857142856</ele><time>2026-03-25T18:20:17Z</time></trkpt><trkpt lat="44.47804152908265" lon="7.869124462227867"><ele>362.42857142857144</ele><time>2026-03-25T18:20:18Z</time></trkpt><trkpt lat="44.47806370153434" lon="7.869218574675626"><ele>362.2857142857143</ele><time>2026-03-25T18:20:19Z</time></trkpt><trkpt lat="44.47808193580785" lon="7.869305846827302"><ele>362.1428571428571</ele><time>2026-03-25T18:20:20Z</time></trkpt><trkpt lat="44.47809266867818" lon="7.869394758535708"><ele>362.0</ele><time>2026-03-25T18:20:21Z</time></trkpt><trkpt lat="44.47813688793172" lon="7.869569107096914"><ele>362.0</ele><time>2026-03-25T18:20:23Z</time></trkpt><trkpt lat="44.478159644477394" lon="7.869688691047009"><ele>362.0</ele><time>2026-03-25T18:20:24Z</time></trkpt><trkpt lat="44.478189850468524" lon="7.86980898803688"><ele>362.0</ele><time>2026-03-25T18:20:25Z</time></trkpt><trkpt lat="44.47821737742472" lon="7.869908017477228"><ele>362.0</ele><time>2026-03-25T18:20:26Z</time></trkpt><trkpt lat="44.47824286464924" lon="7.87002625231022"><ele>362.0</ele><time>2026-03-25T18:20:27Z</time></trkpt><trkpt lat="44.478271859179316" lon="7.8701519913574645"><ele>362.0</ele><time>2026-03-25T18:20:28Z</time></trkpt><trkpt lat="44.47829396711694" lon="7.870255117934731"><ele>362.1666666666667</ele><time>2026-03-25T18:20:29Z</time></trkpt><trkpt lat="44.478319193884985" lon="7.8703660194123835"><ele>362.33333333333337</ele><time>2026-03-25T18:20:30Z</time></trkpt><trkpt lat="44.47834346446311" lon="7.870475652924874"><ele>362.5</ele><time>2026-03-25T18:20:31Z</time></trkpt><trkpt lat="44.47837195448716" lon="7.870574648643771"><ele>362.6666666666667</ele><time>2026-03-25T18:20:32Z</time></trkpt><trkpt lat="44.47839367626332" lon="7.870670676559321"><ele>362.8333333333333</ele><time>2026-03-25T18:20:33Z</time></trkpt><trkpt lat="44.47841070765181" lon="7.870761509368449"><ele>363.0</ele><time>2026-03-25T18:20:34Z</time></trkpt><trkpt lat="44.478454666526886" lon="7.870935765084628"><ele>363.2</ele><time>2026-03-25T18:20:35.999Z</time></trkpt><trkpt lat="44.47849519110564" lon="7.871021945304519"><ele>363.4</ele><time>2026-03-25T18:20:36.999Z</time></trkpt><trkpt lat="44.47851869542712" lon="7.871161155160467"><ele>363.59999999999997</ele><time>2026-03-25T18:20:37.999Z</time></trkpt><trkpt lat="44.47856741710017" lon="7.871283920317345"><ele>363.79999999999995</ele><time>2026-03-25T18:20:38.999Z</time></trkpt><trkpt lat="44.47861840443053" lon="7.871440622886957"><ele>364.0</ele><time>2026-03-25T18:20:39.999Z</time></trkpt><trkpt lat="44.47866264839912" lon="7.871606142430163"><ele>364.0</ele><time>2026-03-25T18:20:40.999Z</time></trkpt><trkpt lat="44.47870421214448" lon="7.871748993799364"><ele>364.0</ele><time>2026-03-25T18:20:41.999Z</time></trkpt><trkpt lat="44.478745642396596" lon="7.87187579409753"><ele>364.0</ele><time>2026-03-25T18:20:42.999Z</time></trkpt><trkpt lat="44.478777613280705" lon="7.872014075192268"><ele>364.0</ele><time>2026-03-25T18:20:43.999Z</time></trkpt><trkpt lat="44.47881626026962" lon="7.872132487871192"><ele>364.0</ele><time>2026-03-25T18:20:44.999Z</time></trkpt><trkpt lat="44.47885436762714" lon="7.8722435911414586"><ele>364.0</ele><time>2026-03-25T18:20:45.999Z</time></trkpt><trkpt lat="44.478891335524786" lon="7.872355327086156"><ele>364.0</ele><time>2026-03-25T18:20:46.999Z</time></trkpt><trkpt lat="44.47892714158394" lon="7.87245580326325"><ele>364.0</ele><time>2026-03-25T18:20:47.999Z</time></trkpt><trkpt lat="44.47895066623518" lon="7.8725497005843845"><ele>364.0</ele><time>2026-03-25T18:20:48.999Z</time></trkpt><trkpt lat="44.4789762723279" lon="7.872631378163184"><ele>364.0</ele><time>2026-03-25T18:20:49.999Z</time></trkpt><trkpt lat="44.47902455182335" lon="7.872793234531829"><ele>364.0</ele><time>2026-03-25T18:20:51.999Z</time></trkpt><trkpt lat="44.479047239261" lon="7.8728783890424845"><ele>364.0</ele><time>2026-03-25T18:20:52.999Z</time></trkpt><trkpt lat="44.47907398233922" lon="7.872973076419773"><ele>364.0</ele><time>2026-03-25T18:20:53.999Z</time></trkpt><trkpt lat="44.47910672264065" lon="7.873091809557924"><ele>364.0</ele><time>2026-03-25T18:20:54.999Z</time></trkpt><trkpt lat="44.479151502807376" lon="7.873225181395446"><ele>364.0</ele><time>2026-03-25T18:20:55.999Z</time></trkpt><trkpt lat="44.4791979618033" lon="7.8733651348098315"><ele>364.0</ele><time>2026-03-25T18:20:56.999Z</time></trkpt><trkpt lat="44.47923554253874" lon="7.873484180311835"><ele>363.66666666666663</ele><time>2026-03-25T18:20:57.999Z</time></trkpt><trkpt lat="44.47927132320528" lon="7.873595136944412"><ele>363.3333333333333</ele><time>2026-03-25T18:20:58.999Z</time></trkpt><trkpt lat="44.47930419397137" lon="7.873701787526697"><ele>363.0</ele><time>2026-03-25T18:20:59.999Z</time></trkpt><trkpt lat="44.47933099983126" lon="7.873806748293572"><ele>362.6666666666667</ele><time>2026-03-25T18:21:00.999Z</time></trkpt><trkpt lat="44.479364766614395" lon="7.873896132055675"><ele>362.33333333333337</ele><time>2026-03-25T18:21:01.999Z</time></trkpt><trkpt lat="44.47939482112045" lon="7.873986926232759"><ele>362.0</ele><time>2026-03-25T18:21:02.999Z</time></trkpt><trkpt lat="44.47941062218431" lon="7.8740862265738345"><ele>362.0</ele><time>2026-03-25T18:21:03.999Z</time></trkpt><trkpt lat="44.47939933451017" lon="7.874196385775394"><ele>362.0</ele><time>2026-03-25T18:21:05.999Z</time></trkpt><trkpt lat="44.4792295173038" lon="7.874227912071388"><ele>362.0</ele><time>2026-03-25T18:21:09.999Z</time></trkpt><trkpt lat="44.47912500059654" lon="7.874246380369161"><ele>362.0</ele><time>2026-03-25T18:21:11.999Z</time></trkpt><trkpt lat="44.478999957239715" lon="7.874266365887835"><ele>361.8</ele><time>2026-03-25T18:21:13.999Z</time></trkpt><trkpt lat="44.47888509817468" lon="7.87428482917912"><ele>361.6</ele><time>2026-03-25T18:21:15.999Z</time></trkpt><trkpt lat="44.47877429305568" lon="7.874302640796918"><ele>361.40000000000003</ele><time>2026-03-25T18:21:17.999Z</time></trkpt><trkpt lat="44.47867613798902" lon="7.8743184187636945"><ele>361.20000000000005</ele><time>2026-03-25T18:21:19.999Z</time></trkpt><trkpt lat="44.47860945932078" lon="7.874328467944733"><ele>361.0</ele><time>2026-03-25T18:21:20.999Z</time></trkpt><trkpt lat="44.478544743000676" lon="7.874338434079321"><ele>361.0</ele><time>2026-03-25T18:21:21.999Z</time></trkpt><trkpt lat="44.478436207227226" lon="7.874355148304818"><ele>361.0</ele><time>2026-03-25T18:21:23.999Z</time></trkpt><trkpt lat="44.47834182277692" lon="7.87437265163186"><ele>361.0</ele><time>2026-03-25T18:21:25.999Z</time></trkpt><trkpt lat="44.478257368335484" lon="7.874407119153272"><ele>361.0</ele><time>2026-03-25T18:21:28.999Z</time></trkpt><trkpt lat="44.47826131957833" lon="7.874640051411454"><ele>361.0</ele><time>2026-03-25T18:21:29.999Z</time></trkpt><trkpt lat="44.47826035212738" lon="7.8748042787863755"><ele>361.0</ele><time>2026-03-25T18:21:31.998Z</time></trkpt><trkpt lat="44.47826056380106" lon="7.874950344911315"><ele>361.0</ele><time>2026-03-25T18:21:33.998Z</time></trkpt><trkpt lat="44.47828018651764" lon="7.875089830814909"><ele>361.0</ele><time>2026-03-25T18:21:35.998Z</time></trkpt><trkpt lat="44.478452944735956" lon="7.8751492318145155"><ele>361.0</ele><time>2026-03-25T18:21:39.998Z</time></trkpt><trkpt lat="44.47851958865781" lon="7.875147019716379"><ele>361.0</ele><time>2026-03-25T18:21:40.998Z</time></trkpt><trkpt lat="44.47861711525717" lon="7.875113389541757"><ele>361.0</ele><time>2026-03-25T18:21:42.998Z</time></trkpt><trkpt lat="44.47870998250582" lon="7.875086895406424"><ele>361.0</ele><time>2026-03-25T18:21:44.998Z</time></trkpt><trkpt lat="44.47878410511281" lon="7.87509917886549"><ele>361.0</ele><time>2026-03-25T18:21:46.998Z</time></trkpt><trkpt lat="44.47883686912406" lon="7.8748105376591875"><ele>361.0</ele><time>2026-03-25T18:21:49.998Z</time></trkpt><trkpt lat="44.47893834940045" lon="7.874754713377631"><ele>361.0</ele><time>2026-03-25T18:21:52.998Z</time></trkpt><trkpt lat="44.47898114984256" lon="7.874689275484899"><ele>361.0</ele><time>2026-03-25T18:21:53.998Z</time></trkpt><trkpt lat="44.47906559186673" lon="7.874674664221522"><ele>361.0</ele><time>2026-03-25T18:21:55.998Z</time></trkpt><trkpt lat="44.47914619102345" lon="7.8746607180676795"><ele>361.0</ele><time>2026-03-25T18:21:58.998Z</time></trkpt><trkpt lat="44.479180745222656" lon="7.8748248000117815"><ele>361.0</ele><time>2026-03-25T18:22:01Z</time></trkpt><trkpt lat="44.479172059201375" lon="7.874918074338839"><ele>361.0</ele><time>2026-03-25T18:22:04Z</time></trkpt><trkpt lat="44.479205682491575" lon="7.875000117251818"><ele>361.0</ele><time>2026-03-25T18:22:13Z</time></trkpt><trkpt lat="44.47914741220892" lon="7.875119060129649"><ele>361.0</ele><time>2026-03-25T18:22:20Z</time></trkpt><trkpt lat="44.47917230097523" lon="7.875208341403789"><ele>361.0</ele><time>2026-03-25T18:22:25Z</time></trkpt><trkpt lat="44.47922590383286" lon="7.875158644714193"><ele>361.0</ele><time>2026-03-25T18:22:29Z</time></trkpt><trkpt lat="44.47929445941742" lon="7.875102437994124"><ele>361.0</ele><time>2026-03-25T18:22:35Z</time></trkpt><trkpt lat="44.4793638357013" lon="7.875067214726182"><ele>361.0</ele><time>2026-03-25T18:22:45.999Z</time></trkpt><trkpt lat="44.47943797287749" lon="7.875046665027031"><ele>361.0</ele><time>2026-03-25T18:22:52.999Z</time></trkpt><trkpt lat="44.479509692428685" lon="7.874961849514508"><ele>361.0</ele><time>2026-03-25T18:22:57.999Z</time></trkpt><trkpt lat="44.47951191854362" lon="7.874800166461916"><ele>361.0</ele><time>2026-03-25T18:22:59.999Z</time></trkpt><trkpt lat="44.479496361564635" lon="7.874707954877808"><ele>361.0</ele><time>2026-03-25T18:23:00.999Z</time></trkpt><trkpt lat="44.479494802673905" lon="7.874608250225307"><ele>361.0</ele><time>2026-03-25T18:23:01.999Z</time></trkpt><trkpt lat="44.479500928635396" lon="7.874498285924609"><ele>361.0</ele><time>2026-03-25T18:23:02.999Z</time></trkpt><trkpt lat="44.47949037038469" lon="7.87437400968331"><ele>361.0</ele><time>2026-03-25T18:23:03.999Z</time></trkpt><trkpt lat="44.479471500895954" lon="7.874236079487215"><ele>361.0</ele><time>2026-03-25T18:23:04.999Z</time></trkpt><trkpt lat="44.479441570429366" lon="7.874030168303703"><ele>361.0</ele><time>2026-03-25T18:23:05.999Z</time></trkpt><trkpt lat="44.479410077672064" lon="7.8738696101333945"><ele>361.25</ele><time>2026-03-25T18:23:06.999Z</time></trkpt><trkpt lat="44.4793707660559" lon="7.87373070398243"><ele>361.5</ele><time>2026-03-25T18:23:07.999Z</time></trkpt><trkpt lat="44.47932287037803" lon="7.8735709168172505"><ele>361.75</ele><time>2026-03-25T18:23:08.999Z</time></trkpt><trkpt lat="44.47927206866334" lon="7.87342869176613"><ele>362.0</ele><time>2026-03-25T18:23:09.999Z</time></trkpt><trkpt lat="44.47923249273044" lon="7.873285573883282"><ele>362.33333333333337</ele><time>2026-03-25T18:23:10.999Z</time></trkpt><trkpt lat="44.47919771194853" lon="7.873160827739181"><ele>362.6666666666667</ele><time>2026-03-25T18:23:11.999Z</time></trkpt><trkpt lat="44.479164403069035" lon="7.873058574669103"><ele>363.0</ele><time>2026-03-25T18:23:12.999Z</time></trkpt><trkpt lat="44.47913601388893" lon="7.872947931787706"><ele>363.3333333333333</ele><time>2026-03-25T18:23:14.999Z</time></trkpt><trkpt lat="44.47913212957712" lon="7.872846273790982"><ele>363.66666666666663</ele><time>2026-03-25T18:23:16.999Z</time></trkpt><trkpt lat="44.47918709155277" lon="7.872785010572249"><ele>364.0</ele><time>2026-03-25T18:23:18.999Z</time></trkpt><trkpt lat="44.47930131901933" lon="7.872736245824473"><ele>364.0</ele><time>2026-03-25T18:23:20.999Z</time></trkpt><trkpt lat="44.47947654668598" lon="7.872707749058196"><ele>364.0</ele><time>2026-03-25T18:23:22.999Z</time></trkpt><trkpt lat="44.47958991582936" lon="7.872679616531801"><ele>364.0</ele><time>2026-03-25T18:23:23.999Z</time></trkpt><trkpt lat="44.47968707249899" lon="7.872654277930658"><ele>364.0</ele><time>2026-03-25T18:23:24.999Z</time></trkpt><trkpt lat="44.47980749611961" lon="7.872627663320897"><ele>363.79999999999995</ele><time>2026-03-25T18:23:25.999Z</time></trkpt><trkpt lat="44.479931210130864" lon="7.872592997342561"><ele>363.59999999999997</ele><time>2026-03-25T18:23:26.999Z</time></trkpt><trkpt lat="44.48001937194648" lon="7.872569425625902"><ele>363.4</ele><time>2026-03-25T18:23:27.999Z</time></trkpt><trkpt lat="44.480134419557935" lon="7.872538665482968"><ele>363.2</ele><time>2026-03-25T18:23:29.999Z</time></trkpt><trkpt lat="44.48020721741643" lon="7.872521384669836"><ele>363.0</ele><time>2026-03-25T18:23:32.999Z</time></trkpt><trkpt lat="44.48016936884954" lon="7.873011606509106"><ele>363.0</ele><time>2026-03-25T18:23:57.998Z</time></trkpt><trkpt lat="44.48016162034288" lon="7.873114821670885"><ele>363.0</ele><time>2026-03-25T18:24:01.012Z</time></trkpt><trkpt lat="44.479710043102656" lon="7.872953091426387"><ele>363.0</ele><time>2026-03-25T18:24:14.16Z</time></trkpt><trkpt lat="44.47968874614393" lon="7.87285719821467"><ele>363.0</ele><time>2026-03-25T18:24:15.836Z</time></trkpt></trkseg></trk></gpx>